<?xml version="1.0" encoding="UTF-8" standalone="no" ?>
<gpx xmlns="http://www.topografix.com/GPX/1/1" xmlns:xsi="http://www.w3.org/2001/XMLSchema-instance" xsi:schemaLocation="http://www.topografix.com/GPX/1/1 http://www.topografix.com/GPX/1/1/gpx.xsd" version="1.1" creator="VisuGPX - https://www.visugpx.com">
  <metadata>
    <name>O-SO-Route de Nantes D80 St Hilaire de Chaléons St Cyr Machecoul St Meme Le Tenu Bouaye</name>
    <desc><![CDATA[O-SO-Route de Nantes D80 St Hilaire de Chaléons St Cyr Machecoul St Meme Le Tenu Bouaye]]></desc>
  </metadata>
  <trk>
    <name><![CDATA[2021-08-06 17:18 +02:00]]></name>
    <trkseg>
      <trkpt lat="47.16783" lon="-1.62652">
        <ele>73</ele>
        <time>2021-08-06T15:18:22.000Z</time>
      </trkpt>
      <trkpt lat="47.16774" lon="-1.62648">
        <ele>69</ele>
        <time>2021-08-06T15:19:56.000Z</time>
      </trkpt>
      <trkpt lat="47.16779" lon="-1.62662">
        <ele>72</ele>
        <time>2021-08-06T15:21:42.000Z</time>
      </trkpt>
      <trkpt lat="47.16772" lon="-1.62677">
        <ele>72</ele>
        <time>2021-08-06T15:21:45.000Z</time>
      </trkpt>
      <trkpt lat="47.16762" lon="-1.62677">
        <ele>73</ele>
        <time>2021-08-06T15:21:47.000Z</time>
      </trkpt>
      <trkpt lat="47.16753" lon="-1.62671">
        <ele>72</ele>
        <time>2021-08-06T15:21:49.000Z</time>
      </trkpt>
      <trkpt lat="47.16742" lon="-1.62676">
        <ele>72</ele>
        <time>2021-08-06T15:21:51.000Z</time>
      </trkpt>
      <trkpt lat="47.16732" lon="-1.62684">
        <ele>72</ele>
        <time>2021-08-06T15:21:53.000Z</time>
      </trkpt>
      <trkpt lat="47.16722" lon="-1.62691">
        <ele>72</ele>
        <time>2021-08-06T15:21:55.000Z</time>
      </trkpt>
      <trkpt lat="47.16717" lon="-1.62705">
        <ele>72</ele>
        <time>2021-08-06T15:21:57.000Z</time>
      </trkpt>
      <trkpt lat="47.16723" lon="-1.62719">
        <ele>72</ele>
        <time>2021-08-06T15:21:59.000Z</time>
      </trkpt>
      <trkpt lat="47.1673" lon="-1.62731">
        <ele>72</ele>
        <time>2021-08-06T15:22:01.000Z</time>
      </trkpt>
      <trkpt lat="47.16738" lon="-1.62744">
        <ele>72</ele>
        <time>2021-08-06T15:22:03.000Z</time>
      </trkpt>
      <trkpt lat="47.16747" lon="-1.62755">
        <ele>72</ele>
        <time>2021-08-06T15:22:05.000Z</time>
      </trkpt>
      <trkpt lat="47.16758" lon="-1.62767">
        <ele>72</ele>
        <time>2021-08-06T15:22:07.000Z</time>
      </trkpt>
      <trkpt lat="47.16769" lon="-1.62777">
        <ele>72</ele>
        <time>2021-08-06T15:22:09.000Z</time>
      </trkpt>
      <trkpt lat="47.1678" lon="-1.62788">
        <ele>72</ele>
        <time>2021-08-06T15:22:11.000Z</time>
      </trkpt>
      <trkpt lat="47.16791" lon="-1.62798">
        <ele>72</ele>
        <time>2021-08-06T15:22:13.000Z</time>
      </trkpt>
      <trkpt lat="47.16802" lon="-1.62808">
        <ele>73</ele>
        <time>2021-08-06T15:22:15.000Z</time>
      </trkpt>
      <trkpt lat="47.16813" lon="-1.62818">
        <ele>73</ele>
        <time>2021-08-06T15:22:17.000Z</time>
      </trkpt>
      <trkpt lat="47.16824" lon="-1.62828">
        <ele>73</ele>
        <time>2021-08-06T15:22:19.000Z</time>
      </trkpt>
      <trkpt lat="47.16834" lon="-1.62839">
        <ele>74</ele>
        <time>2021-08-06T15:22:21.000Z</time>
      </trkpt>
      <trkpt lat="47.16844" lon="-1.62849">
        <ele>74</ele>
        <time>2021-08-06T15:22:23.000Z</time>
      </trkpt>
      <trkpt lat="47.16855" lon="-1.62859">
        <ele>75</ele>
        <time>2021-08-06T15:22:25.000Z</time>
      </trkpt>
      <trkpt lat="47.16865" lon="-1.62869">
        <ele>75</ele>
        <time>2021-08-06T15:22:27.000Z</time>
      </trkpt>
      <trkpt lat="47.16875" lon="-1.62881">
        <ele>76</ele>
        <time>2021-08-06T15:22:29.000Z</time>
      </trkpt>
      <trkpt lat="47.16882" lon="-1.62897">
        <ele>76</ele>
        <time>2021-08-06T15:22:31.000Z</time>
      </trkpt>
      <trkpt lat="47.16887" lon="-1.62913">
        <ele>76</ele>
        <time>2021-08-06T15:22:33.000Z</time>
      </trkpt>
      <trkpt lat="47.1689" lon="-1.62932">
        <ele>76</ele>
        <time>2021-08-06T15:22:35.000Z</time>
      </trkpt>
      <trkpt lat="47.16891" lon="-1.6295">
        <ele>76</ele>
        <time>2021-08-06T15:22:37.000Z</time>
      </trkpt>
      <trkpt lat="47.16892" lon="-1.62969">
        <ele>77</ele>
        <time>2021-08-06T15:22:39.000Z</time>
      </trkpt>
      <trkpt lat="47.1689" lon="-1.62987">
        <ele>77</ele>
        <time>2021-08-06T15:22:41.000Z</time>
      </trkpt>
      <trkpt lat="47.16888" lon="-1.63006">
        <ele>77</ele>
        <time>2021-08-06T15:22:43.000Z</time>
      </trkpt>
      <trkpt lat="47.16887" lon="-1.63025">
        <ele>76</ele>
        <time>2021-08-06T15:22:45.000Z</time>
      </trkpt>
      <trkpt lat="47.16887" lon="-1.63044">
        <ele>77</ele>
        <time>2021-08-06T15:22:47.000Z</time>
      </trkpt>
      <trkpt lat="47.16888" lon="-1.63063">
        <ele>77</ele>
        <time>2021-08-06T15:22:49.000Z</time>
      </trkpt>
      <trkpt lat="47.16891" lon="-1.63081">
        <ele>77</ele>
        <time>2021-08-06T15:22:51.000Z</time>
      </trkpt>
      <trkpt lat="47.16894" lon="-1.631">
        <ele>78</ele>
        <time>2021-08-06T15:22:53.000Z</time>
      </trkpt>
      <trkpt lat="47.16898" lon="-1.63118">
        <ele>78</ele>
        <time>2021-08-06T15:22:55.000Z</time>
      </trkpt>
      <trkpt lat="47.16903" lon="-1.63134">
        <ele>78</ele>
        <time>2021-08-06T15:22:57.000Z</time>
      </trkpt>
      <trkpt lat="47.16908" lon="-1.63151">
        <ele>78</ele>
        <time>2021-08-06T15:22:59.000Z</time>
      </trkpt>
      <trkpt lat="47.16914" lon="-1.63165">
        <ele>79</ele>
        <time>2021-08-06T15:23:01.000Z</time>
      </trkpt>
      <trkpt lat="47.16921" lon="-1.63179">
        <ele>79</ele>
        <time>2021-08-06T15:23:03.000Z</time>
      </trkpt>
      <trkpt lat="47.16928" lon="-1.63193">
        <ele>79</ele>
        <time>2021-08-06T15:23:05.000Z</time>
      </trkpt>
      <trkpt lat="47.16935" lon="-1.63206">
        <ele>79</ele>
        <time>2021-08-06T15:23:07.000Z</time>
      </trkpt>
      <trkpt lat="47.16944" lon="-1.63218">
        <ele>79</ele>
        <time>2021-08-06T15:23:09.000Z</time>
      </trkpt>
      <trkpt lat="47.16952" lon="-1.63229">
        <ele>79</ele>
        <time>2021-08-06T15:23:11.000Z</time>
      </trkpt>
      <trkpt lat="47.1696" lon="-1.6324">
        <ele>79</ele>
        <time>2021-08-06T15:23:13.000Z</time>
      </trkpt>
      <trkpt lat="47.16967" lon="-1.63251">
        <ele>79</ele>
        <time>2021-08-06T15:23:16.000Z</time>
      </trkpt>
      <trkpt lat="47.16963" lon="-1.63265">
        <ele>80</ele>
        <time>2021-08-06T15:23:18.000Z</time>
      </trkpt>
      <trkpt lat="47.16955" lon="-1.63277">
        <ele>79</ele>
        <time>2021-08-06T15:23:20.000Z</time>
      </trkpt>
      <trkpt lat="47.16946" lon="-1.63291">
        <ele>79</ele>
        <time>2021-08-06T15:23:22.000Z</time>
      </trkpt>
      <trkpt lat="47.16937" lon="-1.63306">
        <ele>79</ele>
        <time>2021-08-06T15:23:24.000Z</time>
      </trkpt>
      <trkpt lat="47.16929" lon="-1.6332">
        <ele>79</ele>
        <time>2021-08-06T15:23:26.000Z</time>
      </trkpt>
      <trkpt lat="47.1692" lon="-1.63334">
        <ele>79</ele>
        <time>2021-08-06T15:23:28.000Z</time>
      </trkpt>
      <trkpt lat="47.16911" lon="-1.63347">
        <ele>79</ele>
        <time>2021-08-06T15:23:30.000Z</time>
      </trkpt>
      <trkpt lat="47.16902" lon="-1.6336">
        <ele>79</ele>
        <time>2021-08-06T15:23:32.000Z</time>
      </trkpt>
      <trkpt lat="47.16893" lon="-1.63373">
        <ele>79</ele>
        <time>2021-08-06T15:23:34.000Z</time>
      </trkpt>
      <trkpt lat="47.16885" lon="-1.63388">
        <ele>79</ele>
        <time>2021-08-06T15:23:36.000Z</time>
      </trkpt>
      <trkpt lat="47.16876" lon="-1.63402">
        <ele>80</ele>
        <time>2021-08-06T15:23:38.000Z</time>
      </trkpt>
      <trkpt lat="47.16867" lon="-1.63417">
        <ele>80</ele>
        <time>2021-08-06T15:23:40.000Z</time>
      </trkpt>
      <trkpt lat="47.16859" lon="-1.63431">
        <ele>80</ele>
        <time>2021-08-06T15:23:42.000Z</time>
      </trkpt>
      <trkpt lat="47.16851" lon="-1.63445">
        <ele>80</ele>
        <time>2021-08-06T15:23:44.000Z</time>
      </trkpt>
      <trkpt lat="47.16842" lon="-1.63459">
        <ele>80</ele>
        <time>2021-08-06T15:23:46.000Z</time>
      </trkpt>
      <trkpt lat="47.16832" lon="-1.63473">
        <ele>79</ele>
        <time>2021-08-06T15:23:48.000Z</time>
      </trkpt>
      <trkpt lat="47.16822" lon="-1.63487">
        <ele>79</ele>
        <time>2021-08-06T15:23:50.000Z</time>
      </trkpt>
      <trkpt lat="47.16813" lon="-1.63502">
        <ele>78</ele>
        <time>2021-08-06T15:23:52.000Z</time>
      </trkpt>
      <trkpt lat="47.16805" lon="-1.63518">
        <ele>78</ele>
        <time>2021-08-06T15:23:54.000Z</time>
      </trkpt>
      <trkpt lat="47.16796" lon="-1.63533">
        <ele>78</ele>
        <time>2021-08-06T15:23:56.000Z</time>
      </trkpt>
      <trkpt lat="47.16788" lon="-1.63549">
        <ele>78</ele>
        <time>2021-08-06T15:23:58.000Z</time>
      </trkpt>
      <trkpt lat="47.16779" lon="-1.63565">
        <ele>78</ele>
        <time>2021-08-06T15:24:00.000Z</time>
      </trkpt>
      <trkpt lat="47.16771" lon="-1.6358">
        <ele>78</ele>
        <time>2021-08-06T15:24:02.000Z</time>
      </trkpt>
      <trkpt lat="47.16762" lon="-1.63596">
        <ele>78</ele>
        <time>2021-08-06T15:24:04.000Z</time>
      </trkpt>
      <trkpt lat="47.16754" lon="-1.63611">
        <ele>78</ele>
        <time>2021-08-06T15:24:06.000Z</time>
      </trkpt>
      <trkpt lat="47.16747" lon="-1.63625">
        <ele>78</ele>
        <time>2021-08-06T15:24:08.000Z</time>
      </trkpt>
      <trkpt lat="47.16745" lon="-1.63642">
        <ele>79</ele>
        <time>2021-08-06T15:24:10.000Z</time>
      </trkpt>
      <trkpt lat="47.16757" lon="-1.63649">
        <ele>79</ele>
        <time>2021-08-06T15:24:12.000Z</time>
      </trkpt>
      <trkpt lat="47.1677" lon="-1.63652">
        <ele>79</ele>
        <time>2021-08-06T15:24:14.000Z</time>
      </trkpt>
      <trkpt lat="47.16783" lon="-1.63656">
        <ele>80</ele>
        <time>2021-08-06T15:24:16.000Z</time>
      </trkpt>
      <trkpt lat="47.16796" lon="-1.63662">
        <ele>80</ele>
        <time>2021-08-06T15:24:18.000Z</time>
      </trkpt>
      <trkpt lat="47.1681" lon="-1.63666">
        <ele>80</ele>
        <time>2021-08-06T15:24:20.000Z</time>
      </trkpt>
      <trkpt lat="47.16823" lon="-1.63671">
        <ele>81</ele>
        <time>2021-08-06T15:24:22.000Z</time>
      </trkpt>
      <trkpt lat="47.16836" lon="-1.63676">
        <ele>81</ele>
        <time>2021-08-06T15:24:24.000Z</time>
      </trkpt>
      <trkpt lat="47.1685" lon="-1.63681">
        <ele>81</ele>
        <time>2021-08-06T15:24:26.000Z</time>
      </trkpt>
      <trkpt lat="47.16863" lon="-1.63686">
        <ele>81</ele>
        <time>2021-08-06T15:24:28.000Z</time>
      </trkpt>
      <trkpt lat="47.16876" lon="-1.63691">
        <ele>82</ele>
        <time>2021-08-06T15:24:30.000Z</time>
      </trkpt>
      <trkpt lat="47.1689" lon="-1.63695">
        <ele>82</ele>
        <time>2021-08-06T15:24:32.000Z</time>
      </trkpt>
      <trkpt lat="47.16903" lon="-1.637">
        <ele>82</ele>
        <time>2021-08-06T15:24:34.000Z</time>
      </trkpt>
      <trkpt lat="47.16917" lon="-1.63705">
        <ele>82</ele>
        <time>2021-08-06T15:24:36.000Z</time>
      </trkpt>
      <trkpt lat="47.1693" lon="-1.63711">
        <ele>81</ele>
        <time>2021-08-06T15:24:38.000Z</time>
      </trkpt>
      <trkpt lat="47.16944" lon="-1.63715">
        <ele>81</ele>
        <time>2021-08-06T15:24:40.000Z</time>
      </trkpt>
      <trkpt lat="47.16958" lon="-1.6372">
        <ele>81</ele>
        <time>2021-08-06T15:24:42.000Z</time>
      </trkpt>
      <trkpt lat="47.16971" lon="-1.63726">
        <ele>81</ele>
        <time>2021-08-06T15:24:44.000Z</time>
      </trkpt>
      <trkpt lat="47.16984" lon="-1.63731">
        <ele>81</ele>
        <time>2021-08-06T15:24:46.000Z</time>
      </trkpt>
      <trkpt lat="47.16998" lon="-1.63736">
        <ele>81</ele>
        <time>2021-08-06T15:24:48.000Z</time>
      </trkpt>
      <trkpt lat="47.17011" lon="-1.63741">
        <ele>80</ele>
        <time>2021-08-06T15:24:50.000Z</time>
      </trkpt>
      <trkpt lat="47.17024" lon="-1.63746">
        <ele>80</ele>
        <time>2021-08-06T15:24:52.000Z</time>
      </trkpt>
      <trkpt lat="47.17037" lon="-1.63751">
        <ele>80</ele>
        <time>2021-08-06T15:24:54.000Z</time>
      </trkpt>
      <trkpt lat="47.1705" lon="-1.6376">
        <ele>80</ele>
        <time>2021-08-06T15:24:56.000Z</time>
      </trkpt>
      <trkpt lat="47.17061" lon="-1.63774">
        <ele>80</ele>
        <time>2021-08-06T15:24:58.000Z</time>
      </trkpt>
      <trkpt lat="47.17068" lon="-1.63791">
        <ele>80</ele>
        <time>2021-08-06T15:25:00.000Z</time>
      </trkpt>
      <trkpt lat="47.17074" lon="-1.63809">
        <ele>80</ele>
        <time>2021-08-06T15:25:02.000Z</time>
      </trkpt>
      <trkpt lat="47.17079" lon="-1.63827">
        <ele>80</ele>
        <time>2021-08-06T15:25:04.000Z</time>
      </trkpt>
      <trkpt lat="47.17085" lon="-1.63845">
        <ele>80</ele>
        <time>2021-08-06T15:25:06.000Z</time>
      </trkpt>
      <trkpt lat="47.17092" lon="-1.63862">
        <ele>80</ele>
        <time>2021-08-06T15:25:08.000Z</time>
      </trkpt>
      <trkpt lat="47.17098" lon="-1.6388">
        <ele>80</ele>
        <time>2021-08-06T15:25:10.000Z</time>
      </trkpt>
      <trkpt lat="47.17104" lon="-1.63897">
        <ele>79</ele>
        <time>2021-08-06T15:25:12.000Z</time>
      </trkpt>
      <trkpt lat="47.1711" lon="-1.63913">
        <ele>79</ele>
        <time>2021-08-06T15:25:14.000Z</time>
      </trkpt>
      <trkpt lat="47.17117" lon="-1.63928">
        <ele>79</ele>
        <time>2021-08-06T15:25:16.000Z</time>
      </trkpt>
      <trkpt lat="47.17124" lon="-1.63939">
        <ele>79</ele>
        <time>2021-08-06T15:25:18.000Z</time>
      </trkpt>
      <trkpt lat="47.17133" lon="-1.63943">
        <ele>79</ele>
        <time>2021-08-06T15:25:20.000Z</time>
      </trkpt>
      <trkpt lat="47.17137" lon="-1.63963">
        <ele>80</ele>
        <time>2021-08-06T15:25:23.000Z</time>
      </trkpt>
      <trkpt lat="47.17139" lon="-1.6398">
        <ele>79</ele>
        <time>2021-08-06T15:25:25.000Z</time>
      </trkpt>
      <trkpt lat="47.17137" lon="-1.63998">
        <ele>79</ele>
        <time>2021-08-06T15:25:27.000Z</time>
      </trkpt>
      <trkpt lat="47.17135" lon="-1.64017">
        <ele>80</ele>
        <time>2021-08-06T15:25:29.000Z</time>
      </trkpt>
      <trkpt lat="47.17134" lon="-1.64036">
        <ele>80</ele>
        <time>2021-08-06T15:25:31.000Z</time>
      </trkpt>
      <trkpt lat="47.17132" lon="-1.64053">
        <ele>80</ele>
        <time>2021-08-06T15:25:33.000Z</time>
      </trkpt>
      <trkpt lat="47.1713" lon="-1.64071">
        <ele>80</ele>
        <time>2021-08-06T15:25:35.000Z</time>
      </trkpt>
      <trkpt lat="47.17127" lon="-1.6409">
        <ele>81</ele>
        <time>2021-08-06T15:25:37.000Z</time>
      </trkpt>
      <trkpt lat="47.17126" lon="-1.64109">
        <ele>81</ele>
        <time>2021-08-06T15:25:39.000Z</time>
      </trkpt>
      <trkpt lat="47.17124" lon="-1.64127">
        <ele>81</ele>
        <time>2021-08-06T15:25:41.000Z</time>
      </trkpt>
      <trkpt lat="47.17122" lon="-1.64145">
        <ele>81</ele>
        <time>2021-08-06T15:25:43.000Z</time>
      </trkpt>
      <trkpt lat="47.1712" lon="-1.64165">
        <ele>81</ele>
        <time>2021-08-06T15:25:45.000Z</time>
      </trkpt>
      <trkpt lat="47.17118" lon="-1.64185">
        <ele>81</ele>
        <time>2021-08-06T15:25:47.000Z</time>
      </trkpt>
      <trkpt lat="47.17116" lon="-1.64204">
        <ele>81</ele>
        <time>2021-08-06T15:25:49.000Z</time>
      </trkpt>
      <trkpt lat="47.17114" lon="-1.64224">
        <ele>81</ele>
        <time>2021-08-06T15:25:51.000Z</time>
      </trkpt>
      <trkpt lat="47.17111" lon="-1.64243">
        <ele>81</ele>
        <time>2021-08-06T15:25:53.000Z</time>
      </trkpt>
      <trkpt lat="47.17109" lon="-1.64262">
        <ele>81</ele>
        <time>2021-08-06T15:25:55.000Z</time>
      </trkpt>
      <trkpt lat="47.17107" lon="-1.64281">
        <ele>81</ele>
        <time>2021-08-06T15:25:57.000Z</time>
      </trkpt>
      <trkpt lat="47.17105" lon="-1.643">
        <ele>81</ele>
        <time>2021-08-06T15:25:59.000Z</time>
      </trkpt>
      <trkpt lat="47.17103" lon="-1.64319">
        <ele>80</ele>
        <time>2021-08-06T15:26:01.000Z</time>
      </trkpt>
      <trkpt lat="47.17101" lon="-1.64339">
        <ele>80</ele>
        <time>2021-08-06T15:26:03.000Z</time>
      </trkpt>
      <trkpt lat="47.17099" lon="-1.64358">
        <ele>80</ele>
        <time>2021-08-06T15:26:05.000Z</time>
      </trkpt>
      <trkpt lat="47.17097" lon="-1.64377">
        <ele>80</ele>
        <time>2021-08-06T15:26:07.000Z</time>
      </trkpt>
      <trkpt lat="47.17095" lon="-1.64397">
        <ele>81</ele>
        <time>2021-08-06T15:26:09.000Z</time>
      </trkpt>
      <trkpt lat="47.17094" lon="-1.64416">
        <ele>81</ele>
        <time>2021-08-06T15:26:11.000Z</time>
      </trkpt>
      <trkpt lat="47.17093" lon="-1.64436">
        <ele>81</ele>
        <time>2021-08-06T15:26:13.000Z</time>
      </trkpt>
      <trkpt lat="47.17092" lon="-1.64456">
        <ele>80</ele>
        <time>2021-08-06T15:26:15.000Z</time>
      </trkpt>
      <trkpt lat="47.17091" lon="-1.64476">
        <ele>80</ele>
        <time>2021-08-06T15:26:17.000Z</time>
      </trkpt>
      <trkpt lat="47.1709" lon="-1.64497">
        <ele>81</ele>
        <time>2021-08-06T15:26:19.000Z</time>
      </trkpt>
      <trkpt lat="47.17089" lon="-1.64517">
        <ele>81</ele>
        <time>2021-08-06T15:26:21.000Z</time>
      </trkpt>
      <trkpt lat="47.17089" lon="-1.64538">
        <ele>80</ele>
        <time>2021-08-06T15:26:23.000Z</time>
      </trkpt>
      <trkpt lat="47.17088" lon="-1.64558">
        <ele>80</ele>
        <time>2021-08-06T15:26:25.000Z</time>
      </trkpt>
      <trkpt lat="47.17088" lon="-1.64578">
        <ele>80</ele>
        <time>2021-08-06T15:26:27.000Z</time>
      </trkpt>
      <trkpt lat="47.17087" lon="-1.64599">
        <ele>79</ele>
        <time>2021-08-06T15:26:29.000Z</time>
      </trkpt>
      <trkpt lat="47.17087" lon="-1.64619">
        <ele>79</ele>
        <time>2021-08-06T15:26:31.000Z</time>
      </trkpt>
      <trkpt lat="47.17087" lon="-1.64639">
        <ele>79</ele>
        <time>2021-08-06T15:26:33.000Z</time>
      </trkpt>
      <trkpt lat="47.17086" lon="-1.64659">
        <ele>80</ele>
        <time>2021-08-06T15:26:35.000Z</time>
      </trkpt>
      <trkpt lat="47.17087" lon="-1.64679">
        <ele>80</ele>
        <time>2021-08-06T15:26:37.000Z</time>
      </trkpt>
      <trkpt lat="47.17088" lon="-1.647">
        <ele>80</ele>
        <time>2021-08-06T15:26:39.000Z</time>
      </trkpt>
      <trkpt lat="47.17088" lon="-1.6472">
        <ele>80</ele>
        <time>2021-08-06T15:26:41.000Z</time>
      </trkpt>
      <trkpt lat="47.17089" lon="-1.64739">
        <ele>79</ele>
        <time>2021-08-06T15:26:43.000Z</time>
      </trkpt>
      <trkpt lat="47.1709" lon="-1.64757">
        <ele>79</ele>
        <time>2021-08-06T15:26:45.000Z</time>
      </trkpt>
      <trkpt lat="47.17091" lon="-1.64777">
        <ele>79</ele>
        <time>2021-08-06T15:26:47.000Z</time>
      </trkpt>
      <trkpt lat="47.17092" lon="-1.64797">
        <ele>79</ele>
        <time>2021-08-06T15:26:49.000Z</time>
      </trkpt>
      <trkpt lat="47.17095" lon="-1.64818">
        <ele>80</ele>
        <time>2021-08-06T15:26:51.000Z</time>
      </trkpt>
      <trkpt lat="47.17097" lon="-1.64839">
        <ele>79</ele>
        <time>2021-08-06T15:26:53.000Z</time>
      </trkpt>
      <trkpt lat="47.17098" lon="-1.64859">
        <ele>79</ele>
        <time>2021-08-06T15:26:55.000Z</time>
      </trkpt>
      <trkpt lat="47.17099" lon="-1.6488">
        <ele>79</ele>
        <time>2021-08-06T15:26:57.000Z</time>
      </trkpt>
      <trkpt lat="47.171" lon="-1.649">
        <ele>79</ele>
        <time>2021-08-06T15:26:59.000Z</time>
      </trkpt>
      <trkpt lat="47.17101" lon="-1.64919">
        <ele>79</ele>
        <time>2021-08-06T15:27:01.000Z</time>
      </trkpt>
      <trkpt lat="47.17103" lon="-1.64938">
        <ele>79</ele>
        <time>2021-08-06T15:27:03.000Z</time>
      </trkpt>
      <trkpt lat="47.17104" lon="-1.64958">
        <ele>79</ele>
        <time>2021-08-06T15:27:05.000Z</time>
      </trkpt>
      <trkpt lat="47.17106" lon="-1.64978">
        <ele>78</ele>
        <time>2021-08-06T15:27:07.000Z</time>
      </trkpt>
      <trkpt lat="47.17107" lon="-1.64997">
        <ele>78</ele>
        <time>2021-08-06T15:27:09.000Z</time>
      </trkpt>
      <trkpt lat="47.17108" lon="-1.65016">
        <ele>78</ele>
        <time>2021-08-06T15:27:11.000Z</time>
      </trkpt>
      <trkpt lat="47.1711" lon="-1.65035">
        <ele>78</ele>
        <time>2021-08-06T15:27:13.000Z</time>
      </trkpt>
      <trkpt lat="47.17111" lon="-1.65053">
        <ele>79</ele>
        <time>2021-08-06T15:27:15.000Z</time>
      </trkpt>
      <trkpt lat="47.17112" lon="-1.65071">
        <ele>78</ele>
        <time>2021-08-06T15:27:17.000Z</time>
      </trkpt>
      <trkpt lat="47.17114" lon="-1.65089">
        <ele>79</ele>
        <time>2021-08-06T15:27:19.000Z</time>
      </trkpt>
      <trkpt lat="47.17115" lon="-1.65108">
        <ele>79</ele>
        <time>2021-08-06T15:27:21.000Z</time>
      </trkpt>
      <trkpt lat="47.17116" lon="-1.65126">
        <ele>79</ele>
        <time>2021-08-06T15:27:23.000Z</time>
      </trkpt>
      <trkpt lat="47.17117" lon="-1.65145">
        <ele>79</ele>
        <time>2021-08-06T15:27:25.000Z</time>
      </trkpt>
      <trkpt lat="47.17119" lon="-1.65164">
        <ele>79</ele>
        <time>2021-08-06T15:27:27.000Z</time>
      </trkpt>
      <trkpt lat="47.1712" lon="-1.65182">
        <ele>79</ele>
        <time>2021-08-06T15:27:29.000Z</time>
      </trkpt>
      <trkpt lat="47.17121" lon="-1.65199">
        <ele>79</ele>
        <time>2021-08-06T15:27:31.000Z</time>
      </trkpt>
      <trkpt lat="47.17122" lon="-1.65217">
        <ele>79</ele>
        <time>2021-08-06T15:27:33.000Z</time>
      </trkpt>
      <trkpt lat="47.17123" lon="-1.65233">
        <ele>80</ele>
        <time>2021-08-06T15:27:35.000Z</time>
      </trkpt>
      <trkpt lat="47.17125" lon="-1.6525">
        <ele>80</ele>
        <time>2021-08-06T15:27:37.000Z</time>
      </trkpt>
      <trkpt lat="47.17129" lon="-1.65267">
        <ele>80</ele>
        <time>2021-08-06T15:27:39.000Z</time>
      </trkpt>
      <trkpt lat="47.17135" lon="-1.65283">
        <ele>80</ele>
        <time>2021-08-06T15:27:41.000Z</time>
      </trkpt>
      <trkpt lat="47.17138" lon="-1.65302">
        <ele>81</ele>
        <time>2021-08-06T15:27:43.000Z</time>
      </trkpt>
      <trkpt lat="47.17136" lon="-1.6532">
        <ele>81</ele>
        <time>2021-08-06T15:27:45.000Z</time>
      </trkpt>
      <trkpt lat="47.17128" lon="-1.65336">
        <ele>81</ele>
        <time>2021-08-06T15:27:47.000Z</time>
      </trkpt>
      <trkpt lat="47.1712" lon="-1.6535">
        <ele>81</ele>
        <time>2021-08-06T15:27:49.000Z</time>
      </trkpt>
      <trkpt lat="47.17118" lon="-1.65368">
        <ele>81</ele>
        <time>2021-08-06T15:27:51.000Z</time>
      </trkpt>
      <trkpt lat="47.17119" lon="-1.65387">
        <ele>81</ele>
        <time>2021-08-06T15:27:53.000Z</time>
      </trkpt>
      <trkpt lat="47.1712" lon="-1.65405">
        <ele>82</ele>
        <time>2021-08-06T15:27:55.000Z</time>
      </trkpt>
      <trkpt lat="47.1712" lon="-1.65423">
        <ele>82</ele>
        <time>2021-08-06T15:27:57.000Z</time>
      </trkpt>
      <trkpt lat="47.1712" lon="-1.65439">
        <ele>83</ele>
        <time>2021-08-06T15:27:59.000Z</time>
      </trkpt>
      <trkpt lat="47.1712" lon="-1.65454">
        <ele>83</ele>
        <time>2021-08-06T15:28:01.000Z</time>
      </trkpt>
      <trkpt lat="47.17118" lon="-1.65468">
        <ele>84</ele>
        <time>2021-08-06T15:28:03.000Z</time>
      </trkpt>
      <trkpt lat="47.17116" lon="-1.65483">
        <ele>84</ele>
        <time>2021-08-06T15:28:05.000Z</time>
      </trkpt>
      <trkpt lat="47.17113" lon="-1.65497">
        <ele>85</ele>
        <time>2021-08-06T15:28:07.000Z</time>
      </trkpt>
      <trkpt lat="47.17109" lon="-1.65511">
        <ele>85</ele>
        <time>2021-08-06T15:28:09.000Z</time>
      </trkpt>
      <trkpt lat="47.17105" lon="-1.65525">
        <ele>86</ele>
        <time>2021-08-06T15:28:11.000Z</time>
      </trkpt>
      <trkpt lat="47.17099" lon="-1.65538">
        <ele>86</ele>
        <time>2021-08-06T15:28:13.000Z</time>
      </trkpt>
      <trkpt lat="47.17093" lon="-1.65551">
        <ele>86</ele>
        <time>2021-08-06T15:28:15.000Z</time>
      </trkpt>
      <trkpt lat="47.17086" lon="-1.65563">
        <ele>87</ele>
        <time>2021-08-06T15:28:17.000Z</time>
      </trkpt>
      <trkpt lat="47.17079" lon="-1.65574">
        <ele>87</ele>
        <time>2021-08-06T15:28:19.000Z</time>
      </trkpt>
      <trkpt lat="47.17069" lon="-1.65593">
        <ele>87</ele>
        <time>2021-08-06T15:28:22.000Z</time>
      </trkpt>
      <trkpt lat="47.17062" lon="-1.65606">
        <ele>86</ele>
        <time>2021-08-06T15:28:24.000Z</time>
      </trkpt>
      <trkpt lat="47.17054" lon="-1.65619">
        <ele>86</ele>
        <time>2021-08-06T15:28:26.000Z</time>
      </trkpt>
      <trkpt lat="47.17046" lon="-1.65632">
        <ele>85</ele>
        <time>2021-08-06T15:28:28.000Z</time>
      </trkpt>
      <trkpt lat="47.17038" lon="-1.65647">
        <ele>85</ele>
        <time>2021-08-06T15:28:30.000Z</time>
      </trkpt>
      <trkpt lat="47.17025" lon="-1.65672">
        <ele>84</ele>
        <time>2021-08-06T15:28:33.000Z</time>
      </trkpt>
      <trkpt lat="47.17017" lon="-1.65689">
        <ele>83</ele>
        <time>2021-08-06T15:28:35.000Z</time>
      </trkpt>
      <trkpt lat="47.1701" lon="-1.65706">
        <ele>83</ele>
        <time>2021-08-06T15:28:37.000Z</time>
      </trkpt>
      <trkpt lat="47.17005" lon="-1.65734">
        <ele>83</ele>
        <time>2021-08-06T15:28:40.000Z</time>
      </trkpt>
      <trkpt lat="47.17002" lon="-1.65753">
        <ele>83</ele>
        <time>2021-08-06T15:28:42.000Z</time>
      </trkpt>
      <trkpt lat="47.16993" lon="-1.65766">
        <ele>83</ele>
        <time>2021-08-06T15:28:44.000Z</time>
      </trkpt>
      <trkpt lat="47.16974" lon="-1.65777">
        <ele>82</ele>
        <time>2021-08-06T15:28:47.000Z</time>
      </trkpt>
      <trkpt lat="47.16963" lon="-1.65787">
        <ele>82</ele>
        <time>2021-08-06T15:28:49.000Z</time>
      </trkpt>
      <trkpt lat="47.16954" lon="-1.65802">
        <ele>80</ele>
        <time>2021-08-06T15:28:51.000Z</time>
      </trkpt>
      <trkpt lat="47.16946" lon="-1.65817">
        <ele>80</ele>
        <time>2021-08-06T15:28:53.000Z</time>
      </trkpt>
      <trkpt lat="47.16938" lon="-1.65833">
        <ele>80</ele>
        <time>2021-08-06T15:28:55.000Z</time>
      </trkpt>
      <trkpt lat="47.1693" lon="-1.65849">
        <ele>80</ele>
        <time>2021-08-06T15:28:57.000Z</time>
      </trkpt>
      <trkpt lat="47.16918" lon="-1.65873">
        <ele>80</ele>
        <time>2021-08-06T15:29:00.000Z</time>
      </trkpt>
      <trkpt lat="47.16906" lon="-1.65898">
        <ele>80</ele>
        <time>2021-08-06T15:29:03.000Z</time>
      </trkpt>
      <trkpt lat="47.16894" lon="-1.65923">
        <ele>79</ele>
        <time>2021-08-06T15:29:06.000Z</time>
      </trkpt>
      <trkpt lat="47.16886" lon="-1.65939">
        <ele>79</ele>
        <time>2021-08-06T15:29:08.000Z</time>
      </trkpt>
      <trkpt lat="47.16879" lon="-1.65956">
        <ele>79</ele>
        <time>2021-08-06T15:29:10.000Z</time>
      </trkpt>
      <trkpt lat="47.16873" lon="-1.65974">
        <ele>79</ele>
        <time>2021-08-06T15:29:12.000Z</time>
      </trkpt>
      <trkpt lat="47.16864" lon="-1.66002">
        <ele>79</ele>
        <time>2021-08-06T15:29:15.000Z</time>
      </trkpt>
      <trkpt lat="47.16859" lon="-1.66021">
        <ele>78</ele>
        <time>2021-08-06T15:29:17.000Z</time>
      </trkpt>
      <trkpt lat="47.16855" lon="-1.6604">
        <ele>79</ele>
        <time>2021-08-06T15:29:19.000Z</time>
      </trkpt>
      <trkpt lat="47.16852" lon="-1.6606">
        <ele>79</ele>
        <time>2021-08-06T15:29:21.000Z</time>
      </trkpt>
      <trkpt lat="47.16848" lon="-1.66081">
        <ele>79</ele>
        <time>2021-08-06T15:29:23.000Z</time>
      </trkpt>
      <trkpt lat="47.16846" lon="-1.66102">
        <ele>79</ele>
        <time>2021-08-06T15:29:25.000Z</time>
      </trkpt>
      <trkpt lat="47.16844" lon="-1.66123">
        <ele>79</ele>
        <time>2021-08-06T15:29:27.000Z</time>
      </trkpt>
      <trkpt lat="47.16845" lon="-1.66147">
        <ele>79</ele>
        <time>2021-08-06T15:29:29.000Z</time>
      </trkpt>
      <trkpt lat="47.16846" lon="-1.66169">
        <ele>78</ele>
        <time>2021-08-06T15:29:31.000Z</time>
      </trkpt>
      <trkpt lat="47.16848" lon="-1.66192">
        <ele>78</ele>
        <time>2021-08-06T15:29:33.000Z</time>
      </trkpt>
      <trkpt lat="47.1685" lon="-1.66215">
        <ele>78</ele>
        <time>2021-08-06T15:29:35.000Z</time>
      </trkpt>
      <trkpt lat="47.16851" lon="-1.66237">
        <ele>78</ele>
        <time>2021-08-06T15:29:37.000Z</time>
      </trkpt>
      <trkpt lat="47.16852" lon="-1.66259">
        <ele>78</ele>
        <time>2021-08-06T15:29:39.000Z</time>
      </trkpt>
      <trkpt lat="47.16854" lon="-1.66281">
        <ele>78</ele>
        <time>2021-08-06T15:29:41.000Z</time>
      </trkpt>
      <trkpt lat="47.16855" lon="-1.66303">
        <ele>78</ele>
        <time>2021-08-06T15:29:43.000Z</time>
      </trkpt>
      <trkpt lat="47.16856" lon="-1.66324">
        <ele>79</ele>
        <time>2021-08-06T15:29:45.000Z</time>
      </trkpt>
      <trkpt lat="47.16858" lon="-1.66345">
        <ele>79</ele>
        <time>2021-08-06T15:29:47.000Z</time>
      </trkpt>
      <trkpt lat="47.16861" lon="-1.66367">
        <ele>79</ele>
        <time>2021-08-06T15:29:49.000Z</time>
      </trkpt>
      <trkpt lat="47.16863" lon="-1.66389">
        <ele>79</ele>
        <time>2021-08-06T15:29:51.000Z</time>
      </trkpt>
      <trkpt lat="47.16866" lon="-1.66412">
        <ele>79</ele>
        <time>2021-08-06T15:29:53.000Z</time>
      </trkpt>
      <trkpt lat="47.16869" lon="-1.66434">
        <ele>79</ele>
        <time>2021-08-06T15:29:55.000Z</time>
      </trkpt>
      <trkpt lat="47.16871" lon="-1.66456">
        <ele>79</ele>
        <time>2021-08-06T15:29:57.000Z</time>
      </trkpt>
      <trkpt lat="47.16873" lon="-1.66478">
        <ele>79</ele>
        <time>2021-08-06T15:29:59.000Z</time>
      </trkpt>
      <trkpt lat="47.16875" lon="-1.66498">
        <ele>79</ele>
        <time>2021-08-06T15:30:01.000Z</time>
      </trkpt>
      <trkpt lat="47.16877" lon="-1.66518">
        <ele>80</ele>
        <time>2021-08-06T15:30:03.000Z</time>
      </trkpt>
      <trkpt lat="47.1688" lon="-1.66539">
        <ele>80</ele>
        <time>2021-08-06T15:30:05.000Z</time>
      </trkpt>
      <trkpt lat="47.16882" lon="-1.6656">
        <ele>80</ele>
        <time>2021-08-06T15:30:07.000Z</time>
      </trkpt>
      <trkpt lat="47.16884" lon="-1.66581">
        <ele>80</ele>
        <time>2021-08-06T15:30:09.000Z</time>
      </trkpt>
      <trkpt lat="47.16887" lon="-1.66603">
        <ele>80</ele>
        <time>2021-08-06T15:30:11.000Z</time>
      </trkpt>
      <trkpt lat="47.16889" lon="-1.66624">
        <ele>81</ele>
        <time>2021-08-06T15:30:13.000Z</time>
      </trkpt>
      <trkpt lat="47.16891" lon="-1.66645">
        <ele>80</ele>
        <time>2021-08-06T15:30:15.000Z</time>
      </trkpt>
      <trkpt lat="47.16892" lon="-1.66666">
        <ele>81</ele>
        <time>2021-08-06T15:30:17.000Z</time>
      </trkpt>
      <trkpt lat="47.1689" lon="-1.66687">
        <ele>81</ele>
        <time>2021-08-06T15:30:19.000Z</time>
      </trkpt>
      <trkpt lat="47.16886" lon="-1.66708">
        <ele>81</ele>
        <time>2021-08-06T15:30:21.000Z</time>
      </trkpt>
      <trkpt lat="47.1688" lon="-1.66728">
        <ele>80</ele>
        <time>2021-08-06T15:30:23.000Z</time>
      </trkpt>
      <trkpt lat="47.16872" lon="-1.66747">
        <ele>80</ele>
        <time>2021-08-06T15:30:25.000Z</time>
      </trkpt>
      <trkpt lat="47.16863" lon="-1.66764">
        <ele>80</ele>
        <time>2021-08-06T15:30:27.000Z</time>
      </trkpt>
      <trkpt lat="47.16853" lon="-1.66782">
        <ele>80</ele>
        <time>2021-08-06T15:30:29.000Z</time>
      </trkpt>
      <trkpt lat="47.16844" lon="-1.668">
        <ele>79</ele>
        <time>2021-08-06T15:30:31.000Z</time>
      </trkpt>
      <trkpt lat="47.16835" lon="-1.66817">
        <ele>79</ele>
        <time>2021-08-06T15:30:33.000Z</time>
      </trkpt>
      <trkpt lat="47.16826" lon="-1.66835">
        <ele>79</ele>
        <time>2021-08-06T15:30:35.000Z</time>
      </trkpt>
      <trkpt lat="47.16817" lon="-1.66853">
        <ele>79</ele>
        <time>2021-08-06T15:30:37.000Z</time>
      </trkpt>
      <trkpt lat="47.16807" lon="-1.6687">
        <ele>78</ele>
        <time>2021-08-06T15:30:39.000Z</time>
      </trkpt>
      <trkpt lat="47.16797" lon="-1.66887">
        <ele>78</ele>
        <time>2021-08-06T15:30:41.000Z</time>
      </trkpt>
      <trkpt lat="47.16785" lon="-1.66899">
        <ele>78</ele>
        <time>2021-08-06T15:30:43.000Z</time>
      </trkpt>
      <trkpt lat="47.16771" lon="-1.66909">
        <ele>78</ele>
        <time>2021-08-06T15:30:45.000Z</time>
      </trkpt>
      <trkpt lat="47.16757" lon="-1.66916">
        <ele>78</ele>
        <time>2021-08-06T15:30:47.000Z</time>
      </trkpt>
      <trkpt lat="47.16742" lon="-1.66921">
        <ele>78</ele>
        <time>2021-08-06T15:30:49.000Z</time>
      </trkpt>
      <trkpt lat="47.16729" lon="-1.66926">
        <ele>78</ele>
        <time>2021-08-06T15:30:51.000Z</time>
      </trkpt>
      <trkpt lat="47.16715" lon="-1.66931">
        <ele>78</ele>
        <time>2021-08-06T15:30:53.000Z</time>
      </trkpt>
      <trkpt lat="47.16701" lon="-1.66938">
        <ele>79</ele>
        <time>2021-08-06T15:30:55.000Z</time>
      </trkpt>
      <trkpt lat="47.16688" lon="-1.66947">
        <ele>79</ele>
        <time>2021-08-06T15:30:57.000Z</time>
      </trkpt>
      <trkpt lat="47.16675" lon="-1.66962">
        <ele>79</ele>
        <time>2021-08-06T15:30:59.000Z</time>
      </trkpt>
      <trkpt lat="47.16667" lon="-1.66981">
        <ele>79</ele>
        <time>2021-08-06T15:31:01.000Z</time>
      </trkpt>
      <trkpt lat="47.16661" lon="-1.67001">
        <ele>79</ele>
        <time>2021-08-06T15:31:03.000Z</time>
      </trkpt>
      <trkpt lat="47.16657" lon="-1.67021">
        <ele>80</ele>
        <time>2021-08-06T15:31:05.000Z</time>
      </trkpt>
      <trkpt lat="47.16652" lon="-1.67043">
        <ele>79</ele>
        <time>2021-08-06T15:31:07.000Z</time>
      </trkpt>
      <trkpt lat="47.16648" lon="-1.67064">
        <ele>78</ele>
        <time>2021-08-06T15:31:09.000Z</time>
      </trkpt>
      <trkpt lat="47.16644" lon="-1.67084">
        <ele>78</ele>
        <time>2021-08-06T15:31:11.000Z</time>
      </trkpt>
      <trkpt lat="47.1664" lon="-1.67104">
        <ele>78</ele>
        <time>2021-08-06T15:31:13.000Z</time>
      </trkpt>
      <trkpt lat="47.16636" lon="-1.67123">
        <ele>79</ele>
        <time>2021-08-06T15:31:15.000Z</time>
      </trkpt>
      <trkpt lat="47.16632" lon="-1.67143">
        <ele>79</ele>
        <time>2021-08-06T15:31:17.000Z</time>
      </trkpt>
      <trkpt lat="47.16629" lon="-1.67163">
        <ele>79</ele>
        <time>2021-08-06T15:31:19.000Z</time>
      </trkpt>
      <trkpt lat="47.16625" lon="-1.67182">
        <ele>79</ele>
        <time>2021-08-06T15:31:21.000Z</time>
      </trkpt>
      <trkpt lat="47.16621" lon="-1.67201">
        <ele>79</ele>
        <time>2021-08-06T15:31:23.000Z</time>
      </trkpt>
      <trkpt lat="47.16617" lon="-1.67221">
        <ele>79</ele>
        <time>2021-08-06T15:31:25.000Z</time>
      </trkpt>
      <trkpt lat="47.16613" lon="-1.67239">
        <ele>79</ele>
        <time>2021-08-06T15:31:27.000Z</time>
      </trkpt>
      <trkpt lat="47.16611" lon="-1.67255">
        <ele>79</ele>
        <time>2021-08-06T15:31:29.000Z</time>
      </trkpt>
      <trkpt lat="47.16618" lon="-1.67266">
        <ele>79</ele>
        <time>2021-08-06T15:31:31.000Z</time>
      </trkpt>
      <trkpt lat="47.16631" lon="-1.67268">
        <ele>79</ele>
        <time>2021-08-06T15:31:33.000Z</time>
      </trkpt>
      <trkpt lat="47.16645" lon="-1.67273">
        <ele>79</ele>
        <time>2021-08-06T15:31:35.000Z</time>
      </trkpt>
      <trkpt lat="47.16659" lon="-1.67277">
        <ele>79</ele>
        <time>2021-08-06T15:31:37.000Z</time>
      </trkpt>
      <trkpt lat="47.16673" lon="-1.67282">
        <ele>79</ele>
        <time>2021-08-06T15:31:39.000Z</time>
      </trkpt>
      <trkpt lat="47.16687" lon="-1.67288">
        <ele>80</ele>
        <time>2021-08-06T15:31:41.000Z</time>
      </trkpt>
      <trkpt lat="47.167" lon="-1.67294">
        <ele>80</ele>
        <time>2021-08-06T15:31:43.000Z</time>
      </trkpt>
      <trkpt lat="47.16714" lon="-1.67301">
        <ele>80</ele>
        <time>2021-08-06T15:31:45.000Z</time>
      </trkpt>
      <trkpt lat="47.16727" lon="-1.67311">
        <ele>80</ele>
        <time>2021-08-06T15:31:47.000Z</time>
      </trkpt>
      <trkpt lat="47.1674" lon="-1.6732">
        <ele>80</ele>
        <time>2021-08-06T15:31:49.000Z</time>
      </trkpt>
      <trkpt lat="47.16753" lon="-1.6733">
        <ele>80</ele>
        <time>2021-08-06T15:31:51.000Z</time>
      </trkpt>
      <trkpt lat="47.16765" lon="-1.67341">
        <ele>80</ele>
        <time>2021-08-06T15:31:53.000Z</time>
      </trkpt>
      <trkpt lat="47.16776" lon="-1.67352">
        <ele>81</ele>
        <time>2021-08-06T15:31:55.000Z</time>
      </trkpt>
      <trkpt lat="47.16787" lon="-1.67363">
        <ele>81</ele>
        <time>2021-08-06T15:31:57.000Z</time>
      </trkpt>
      <trkpt lat="47.16797" lon="-1.67375">
        <ele>82</ele>
        <time>2021-08-06T15:31:59.000Z</time>
      </trkpt>
      <trkpt lat="47.16808" lon="-1.67386">
        <ele>82</ele>
        <time>2021-08-06T15:32:01.000Z</time>
      </trkpt>
      <trkpt lat="47.16817" lon="-1.67398">
        <ele>83</ele>
        <time>2021-08-06T15:32:03.000Z</time>
      </trkpt>
      <trkpt lat="47.16827" lon="-1.6741">
        <ele>84</ele>
        <time>2021-08-06T15:32:05.000Z</time>
      </trkpt>
      <trkpt lat="47.16841" lon="-1.67425">
        <ele>84</ele>
        <time>2021-08-06T15:32:07.000Z</time>
      </trkpt>
      <trkpt lat="47.16854" lon="-1.67441">
        <ele>83</ele>
        <time>2021-08-06T15:32:09.000Z</time>
      </trkpt>
      <trkpt lat="47.16865" lon="-1.67455">
        <ele>83</ele>
        <time>2021-08-06T15:32:11.000Z</time>
      </trkpt>
      <trkpt lat="47.16877" lon="-1.67468">
        <ele>83</ele>
        <time>2021-08-06T15:32:13.000Z</time>
      </trkpt>
      <trkpt lat="47.16888" lon="-1.67481">
        <ele>83</ele>
        <time>2021-08-06T15:32:15.000Z</time>
      </trkpt>
      <trkpt lat="47.16899" lon="-1.67494">
        <ele>83</ele>
        <time>2021-08-06T15:32:17.000Z</time>
      </trkpt>
      <trkpt lat="47.16911" lon="-1.67509">
        <ele>82</ele>
        <time>2021-08-06T15:32:19.000Z</time>
      </trkpt>
      <trkpt lat="47.16922" lon="-1.67523">
        <ele>82</ele>
        <time>2021-08-06T15:32:21.000Z</time>
      </trkpt>
      <trkpt lat="47.16934" lon="-1.67537">
        <ele>82</ele>
        <time>2021-08-06T15:32:23.000Z</time>
      </trkpt>
      <trkpt lat="47.16947" lon="-1.6755">
        <ele>82</ele>
        <time>2021-08-06T15:32:25.000Z</time>
      </trkpt>
      <trkpt lat="47.16958" lon="-1.67564">
        <ele>82</ele>
        <time>2021-08-06T15:32:27.000Z</time>
      </trkpt>
      <trkpt lat="47.16969" lon="-1.67577">
        <ele>82</ele>
        <time>2021-08-06T15:32:29.000Z</time>
      </trkpt>
      <trkpt lat="47.16981" lon="-1.67591">
        <ele>82</ele>
        <time>2021-08-06T15:32:31.000Z</time>
      </trkpt>
      <trkpt lat="47.16993" lon="-1.67605">
        <ele>82</ele>
        <time>2021-08-06T15:32:33.000Z</time>
      </trkpt>
      <trkpt lat="47.17004" lon="-1.67619">
        <ele>82</ele>
        <time>2021-08-06T15:32:35.000Z</time>
      </trkpt>
      <trkpt lat="47.17014" lon="-1.67635">
        <ele>82</ele>
        <time>2021-08-06T15:32:37.000Z</time>
      </trkpt>
      <trkpt lat="47.17026" lon="-1.67647">
        <ele>82</ele>
        <time>2021-08-06T15:32:39.000Z</time>
      </trkpt>
      <trkpt lat="47.17039" lon="-1.67658">
        <ele>83</ele>
        <time>2021-08-06T15:32:41.000Z</time>
      </trkpt>
      <trkpt lat="47.17051" lon="-1.67672">
        <ele>82</ele>
        <time>2021-08-06T15:32:43.000Z</time>
      </trkpt>
      <trkpt lat="47.17062" lon="-1.67685">
        <ele>82</ele>
        <time>2021-08-06T15:32:45.000Z</time>
      </trkpt>
      <trkpt lat="47.17074" lon="-1.67698">
        <ele>81</ele>
        <time>2021-08-06T15:32:47.000Z</time>
      </trkpt>
      <trkpt lat="47.17085" lon="-1.67712">
        <ele>82</ele>
        <time>2021-08-06T15:32:49.000Z</time>
      </trkpt>
      <trkpt lat="47.17096" lon="-1.67725">
        <ele>82</ele>
        <time>2021-08-06T15:32:51.000Z</time>
      </trkpt>
      <trkpt lat="47.17107" lon="-1.67738">
        <ele>82</ele>
        <time>2021-08-06T15:32:53.000Z</time>
      </trkpt>
      <trkpt lat="47.17118" lon="-1.6775">
        <ele>82</ele>
        <time>2021-08-06T15:32:55.000Z</time>
      </trkpt>
      <trkpt lat="47.17129" lon="-1.67762">
        <ele>82</ele>
        <time>2021-08-06T15:32:57.000Z</time>
      </trkpt>
      <trkpt lat="47.1714" lon="-1.67775">
        <ele>83</ele>
        <time>2021-08-06T15:32:59.000Z</time>
      </trkpt>
      <trkpt lat="47.17151" lon="-1.67788">
        <ele>83</ele>
        <time>2021-08-06T15:33:01.000Z</time>
      </trkpt>
      <trkpt lat="47.17162" lon="-1.67801">
        <ele>83</ele>
        <time>2021-08-06T15:33:03.000Z</time>
      </trkpt>
      <trkpt lat="47.17173" lon="-1.67814">
        <ele>84</ele>
        <time>2021-08-06T15:33:05.000Z</time>
      </trkpt>
      <trkpt lat="47.17185" lon="-1.67827">
        <ele>84</ele>
        <time>2021-08-06T15:33:07.000Z</time>
      </trkpt>
      <trkpt lat="47.17197" lon="-1.67841">
        <ele>84</ele>
        <time>2021-08-06T15:33:09.000Z</time>
      </trkpt>
      <trkpt lat="47.17208" lon="-1.67854">
        <ele>84</ele>
        <time>2021-08-06T15:33:11.000Z</time>
      </trkpt>
      <trkpt lat="47.1722" lon="-1.67867">
        <ele>84</ele>
        <time>2021-08-06T15:33:13.000Z</time>
      </trkpt>
      <trkpt lat="47.17231" lon="-1.6788">
        <ele>84</ele>
        <time>2021-08-06T15:33:15.000Z</time>
      </trkpt>
      <trkpt lat="47.17242" lon="-1.67894">
        <ele>83</ele>
        <time>2021-08-06T15:33:17.000Z</time>
      </trkpt>
      <trkpt lat="47.17253" lon="-1.67907">
        <ele>83</ele>
        <time>2021-08-06T15:33:19.000Z</time>
      </trkpt>
      <trkpt lat="47.17264" lon="-1.6792">
        <ele>83</ele>
        <time>2021-08-06T15:33:21.000Z</time>
      </trkpt>
      <trkpt lat="47.17276" lon="-1.67933">
        <ele>83</ele>
        <time>2021-08-06T15:33:23.000Z</time>
      </trkpt>
      <trkpt lat="47.17286" lon="-1.67946">
        <ele>83</ele>
        <time>2021-08-06T15:33:25.000Z</time>
      </trkpt>
      <trkpt lat="47.17297" lon="-1.67959">
        <ele>84</ele>
        <time>2021-08-06T15:33:27.000Z</time>
      </trkpt>
      <trkpt lat="47.17308" lon="-1.67973">
        <ele>85</ele>
        <time>2021-08-06T15:33:29.000Z</time>
      </trkpt>
      <trkpt lat="47.17319" lon="-1.67988">
        <ele>85</ele>
        <time>2021-08-06T15:33:31.000Z</time>
      </trkpt>
      <trkpt lat="47.17328" lon="-1.68005">
        <ele>84</ele>
        <time>2021-08-06T15:33:33.000Z</time>
      </trkpt>
      <trkpt lat="47.17335" lon="-1.68025">
        <ele>84</ele>
        <time>2021-08-06T15:33:35.000Z</time>
      </trkpt>
      <trkpt lat="47.17341" lon="-1.68045">
        <ele>83</ele>
        <time>2021-08-06T15:33:37.000Z</time>
      </trkpt>
      <trkpt lat="47.17345" lon="-1.68066">
        <ele>83</ele>
        <time>2021-08-06T15:33:39.000Z</time>
      </trkpt>
      <trkpt lat="47.1735" lon="-1.68086">
        <ele>82</ele>
        <time>2021-08-06T15:33:41.000Z</time>
      </trkpt>
      <trkpt lat="47.17353" lon="-1.68107">
        <ele>81</ele>
        <time>2021-08-06T15:33:43.000Z</time>
      </trkpt>
      <trkpt lat="47.17357" lon="-1.68128">
        <ele>81</ele>
        <time>2021-08-06T15:33:45.000Z</time>
      </trkpt>
      <trkpt lat="47.1736" lon="-1.68149">
        <ele>81</ele>
        <time>2021-08-06T15:33:47.000Z</time>
      </trkpt>
      <trkpt lat="47.1736" lon="-1.6817">
        <ele>81</ele>
        <time>2021-08-06T15:33:49.000Z</time>
      </trkpt>
      <trkpt lat="47.17359" lon="-1.6819">
        <ele>81</ele>
        <time>2021-08-06T15:33:51.000Z</time>
      </trkpt>
      <trkpt lat="47.17356" lon="-1.6821">
        <ele>81</ele>
        <time>2021-08-06T15:33:53.000Z</time>
      </trkpt>
      <trkpt lat="47.17352" lon="-1.68229">
        <ele>81</ele>
        <time>2021-08-06T15:33:55.000Z</time>
      </trkpt>
      <trkpt lat="47.17348" lon="-1.68248">
        <ele>82</ele>
        <time>2021-08-06T15:33:57.000Z</time>
      </trkpt>
      <trkpt lat="47.17344" lon="-1.68267">
        <ele>82</ele>
        <time>2021-08-06T15:33:59.000Z</time>
      </trkpt>
      <trkpt lat="47.1734" lon="-1.68285">
        <ele>83</ele>
        <time>2021-08-06T15:34:01.000Z</time>
      </trkpt>
      <trkpt lat="47.17336" lon="-1.68303">
        <ele>83</ele>
        <time>2021-08-06T15:34:03.000Z</time>
      </trkpt>
      <trkpt lat="47.17332" lon="-1.68321">
        <ele>84</ele>
        <time>2021-08-06T15:34:05.000Z</time>
      </trkpt>
      <trkpt lat="47.17329" lon="-1.68338">
        <ele>84</ele>
        <time>2021-08-06T15:34:07.000Z</time>
      </trkpt>
      <trkpt lat="47.17328" lon="-1.68356">
        <ele>84</ele>
        <time>2021-08-06T15:34:09.000Z</time>
      </trkpt>
      <trkpt lat="47.17334" lon="-1.6837">
        <ele>85</ele>
        <time>2021-08-06T15:34:11.000Z</time>
      </trkpt>
      <trkpt lat="47.17342" lon="-1.68376">
        <ele>86</ele>
        <time>2021-08-06T15:34:13.000Z</time>
      </trkpt>
      <trkpt lat="47.17356" lon="-1.68376">
        <ele>87</ele>
        <time>2021-08-06T15:34:17.000Z</time>
      </trkpt>
      <trkpt lat="47.17367" lon="-1.68377">
        <ele>87</ele>
        <time>2021-08-06T15:34:19.000Z</time>
      </trkpt>
      <trkpt lat="47.17378" lon="-1.68385">
        <ele>87</ele>
        <time>2021-08-06T15:34:21.000Z</time>
      </trkpt>
      <trkpt lat="47.1738" lon="-1.68403">
        <ele>88</ele>
        <time>2021-08-06T15:34:23.000Z</time>
      </trkpt>
      <trkpt lat="47.17372" lon="-1.68419">
        <ele>89</ele>
        <time>2021-08-06T15:34:25.000Z</time>
      </trkpt>
      <trkpt lat="47.17363" lon="-1.68429">
        <ele>88</ele>
        <time>2021-08-06T15:34:27.000Z</time>
      </trkpt>
      <trkpt lat="47.17358" lon="-1.68442">
        <ele>88</ele>
        <time>2021-08-06T15:34:29.000Z</time>
      </trkpt>
      <trkpt lat="47.17363" lon="-1.6846">
        <ele>88</ele>
        <time>2021-08-06T15:34:31.000Z</time>
      </trkpt>
      <trkpt lat="47.17372" lon="-1.68475">
        <ele>87</ele>
        <time>2021-08-06T15:34:33.000Z</time>
      </trkpt>
      <trkpt lat="47.17382" lon="-1.68489">
        <ele>87</ele>
        <time>2021-08-06T15:34:35.000Z</time>
      </trkpt>
      <trkpt lat="47.17392" lon="-1.68504">
        <ele>87</ele>
        <time>2021-08-06T15:34:37.000Z</time>
      </trkpt>
      <trkpt lat="47.17403" lon="-1.68521">
        <ele>86</ele>
        <time>2021-08-06T15:34:39.000Z</time>
      </trkpt>
      <trkpt lat="47.17413" lon="-1.68538">
        <ele>85</ele>
        <time>2021-08-06T15:34:41.000Z</time>
      </trkpt>
      <trkpt lat="47.17423" lon="-1.68556">
        <ele>85</ele>
        <time>2021-08-06T15:34:43.000Z</time>
      </trkpt>
      <trkpt lat="47.17434" lon="-1.68576">
        <ele>84</ele>
        <time>2021-08-06T15:34:45.000Z</time>
      </trkpt>
      <trkpt lat="47.17442" lon="-1.68598">
        <ele>84</ele>
        <time>2021-08-06T15:34:47.000Z</time>
      </trkpt>
      <trkpt lat="47.17451" lon="-1.6862">
        <ele>82</ele>
        <time>2021-08-06T15:34:49.000Z</time>
      </trkpt>
      <trkpt lat="47.17459" lon="-1.68641">
        <ele>82</ele>
        <time>2021-08-06T15:34:51.000Z</time>
      </trkpt>
      <trkpt lat="47.17466" lon="-1.68662">
        <ele>82</ele>
        <time>2021-08-06T15:34:53.000Z</time>
      </trkpt>
      <trkpt lat="47.17472" lon="-1.68684">
        <ele>82</ele>
        <time>2021-08-06T15:34:55.000Z</time>
      </trkpt>
      <trkpt lat="47.17477" lon="-1.68706">
        <ele>82</ele>
        <time>2021-08-06T15:34:57.000Z</time>
      </trkpt>
      <trkpt lat="47.17482" lon="-1.68727">
        <ele>82</ele>
        <time>2021-08-06T15:34:59.000Z</time>
      </trkpt>
      <trkpt lat="47.17487" lon="-1.68748">
        <ele>81</ele>
        <time>2021-08-06T15:35:01.000Z</time>
      </trkpt>
      <trkpt lat="47.17491" lon="-1.68769">
        <ele>81</ele>
        <time>2021-08-06T15:35:03.000Z</time>
      </trkpt>
      <trkpt lat="47.17495" lon="-1.68791">
        <ele>81</ele>
        <time>2021-08-06T15:35:05.000Z</time>
      </trkpt>
      <trkpt lat="47.17499" lon="-1.68811">
        <ele>81</ele>
        <time>2021-08-06T15:35:07.000Z</time>
      </trkpt>
      <trkpt lat="47.17503" lon="-1.68832">
        <ele>80</ele>
        <time>2021-08-06T15:35:09.000Z</time>
      </trkpt>
      <trkpt lat="47.17508" lon="-1.68854">
        <ele>80</ele>
        <time>2021-08-06T15:35:11.000Z</time>
      </trkpt>
      <trkpt lat="47.1751" lon="-1.68878">
        <ele>80</ele>
        <time>2021-08-06T15:35:13.000Z</time>
      </trkpt>
      <trkpt lat="47.17508" lon="-1.689">
        <ele>80</ele>
        <time>2021-08-06T15:35:15.000Z</time>
      </trkpt>
      <trkpt lat="47.17505" lon="-1.68923">
        <ele>79</ele>
        <time>2021-08-06T15:35:17.000Z</time>
      </trkpt>
      <trkpt lat="47.17503" lon="-1.68947">
        <ele>78</ele>
        <time>2021-08-06T15:35:19.000Z</time>
      </trkpt>
      <trkpt lat="47.17503" lon="-1.6897">
        <ele>78</ele>
        <time>2021-08-06T15:35:21.000Z</time>
      </trkpt>
      <trkpt lat="47.17504" lon="-1.68993">
        <ele>78</ele>
        <time>2021-08-06T15:35:23.000Z</time>
      </trkpt>
      <trkpt lat="47.17506" lon="-1.69015">
        <ele>78</ele>
        <time>2021-08-06T15:35:25.000Z</time>
      </trkpt>
      <trkpt lat="47.17507" lon="-1.69037">
        <ele>78</ele>
        <time>2021-08-06T15:35:27.000Z</time>
      </trkpt>
      <trkpt lat="47.17507" lon="-1.69058">
        <ele>78</ele>
        <time>2021-08-06T15:35:29.000Z</time>
      </trkpt>
      <trkpt lat="47.17507" lon="-1.6908">
        <ele>78</ele>
        <time>2021-08-06T15:35:31.000Z</time>
      </trkpt>
      <trkpt lat="47.17507" lon="-1.69102">
        <ele>77</ele>
        <time>2021-08-06T15:35:33.000Z</time>
      </trkpt>
      <trkpt lat="47.17506" lon="-1.69123">
        <ele>78</ele>
        <time>2021-08-06T15:35:35.000Z</time>
      </trkpt>
      <trkpt lat="47.17506" lon="-1.69144">
        <ele>78</ele>
        <time>2021-08-06T15:35:37.000Z</time>
      </trkpt>
      <trkpt lat="47.17505" lon="-1.69165">
        <ele>77</ele>
        <time>2021-08-06T15:35:39.000Z</time>
      </trkpt>
      <trkpt lat="47.17504" lon="-1.69186">
        <ele>77</ele>
        <time>2021-08-06T15:35:41.000Z</time>
      </trkpt>
      <trkpt lat="47.17503" lon="-1.69207">
        <ele>77</ele>
        <time>2021-08-06T15:35:43.000Z</time>
      </trkpt>
      <trkpt lat="47.17501" lon="-1.69228">
        <ele>77</ele>
        <time>2021-08-06T15:35:45.000Z</time>
      </trkpt>
      <trkpt lat="47.17501" lon="-1.69249">
        <ele>77</ele>
        <time>2021-08-06T15:35:47.000Z</time>
      </trkpt>
      <trkpt lat="47.175" lon="-1.69269">
        <ele>77</ele>
        <time>2021-08-06T15:35:49.000Z</time>
      </trkpt>
      <trkpt lat="47.17499" lon="-1.6929">
        <ele>77</ele>
        <time>2021-08-06T15:35:51.000Z</time>
      </trkpt>
      <trkpt lat="47.17498" lon="-1.69311">
        <ele>77</ele>
        <time>2021-08-06T15:35:53.000Z</time>
      </trkpt>
      <trkpt lat="47.17497" lon="-1.69331">
        <ele>78</ele>
        <time>2021-08-06T15:35:55.000Z</time>
      </trkpt>
      <trkpt lat="47.17497" lon="-1.69352">
        <ele>78</ele>
        <time>2021-08-06T15:35:57.000Z</time>
      </trkpt>
      <trkpt lat="47.17497" lon="-1.69372">
        <ele>78</ele>
        <time>2021-08-06T15:35:59.000Z</time>
      </trkpt>
      <trkpt lat="47.17497" lon="-1.69392">
        <ele>78</ele>
        <time>2021-08-06T15:36:01.000Z</time>
      </trkpt>
      <trkpt lat="47.17497" lon="-1.69413">
        <ele>78</ele>
        <time>2021-08-06T15:36:03.000Z</time>
      </trkpt>
      <trkpt lat="47.17497" lon="-1.69433">
        <ele>78</ele>
        <time>2021-08-06T15:36:05.000Z</time>
      </trkpt>
      <trkpt lat="47.17498" lon="-1.69453">
        <ele>78</ele>
        <time>2021-08-06T15:36:07.000Z</time>
      </trkpt>
      <trkpt lat="47.17498" lon="-1.69473">
        <ele>78</ele>
        <time>2021-08-06T15:36:09.000Z</time>
      </trkpt>
      <trkpt lat="47.17498" lon="-1.69493">
        <ele>77</ele>
        <time>2021-08-06T15:36:11.000Z</time>
      </trkpt>
      <trkpt lat="47.17499" lon="-1.69514">
        <ele>77</ele>
        <time>2021-08-06T15:36:13.000Z</time>
      </trkpt>
      <trkpt lat="47.175" lon="-1.69534">
        <ele>77</ele>
        <time>2021-08-06T15:36:15.000Z</time>
      </trkpt>
      <trkpt lat="47.17501" lon="-1.69554">
        <ele>77</ele>
        <time>2021-08-06T15:36:17.000Z</time>
      </trkpt>
      <trkpt lat="47.17503" lon="-1.69575">
        <ele>77</ele>
        <time>2021-08-06T15:36:19.000Z</time>
      </trkpt>
      <trkpt lat="47.17504" lon="-1.69596">
        <ele>78</ele>
        <time>2021-08-06T15:36:21.000Z</time>
      </trkpt>
      <trkpt lat="47.17506" lon="-1.69617">
        <ele>78</ele>
        <time>2021-08-06T15:36:23.000Z</time>
      </trkpt>
      <trkpt lat="47.17507" lon="-1.69638">
        <ele>78</ele>
        <time>2021-08-06T15:36:25.000Z</time>
      </trkpt>
      <trkpt lat="47.17509" lon="-1.69659">
        <ele>78</ele>
        <time>2021-08-06T15:36:27.000Z</time>
      </trkpt>
      <trkpt lat="47.17511" lon="-1.69679">
        <ele>78</ele>
        <time>2021-08-06T15:36:29.000Z</time>
      </trkpt>
      <trkpt lat="47.17512" lon="-1.697">
        <ele>77</ele>
        <time>2021-08-06T15:36:31.000Z</time>
      </trkpt>
      <trkpt lat="47.17514" lon="-1.69719">
        <ele>77</ele>
        <time>2021-08-06T15:36:33.000Z</time>
      </trkpt>
      <trkpt lat="47.17516" lon="-1.6974">
        <ele>77</ele>
        <time>2021-08-06T15:36:35.000Z</time>
      </trkpt>
      <trkpt lat="47.17518" lon="-1.6976">
        <ele>77</ele>
        <time>2021-08-06T15:36:37.000Z</time>
      </trkpt>
      <trkpt lat="47.1752" lon="-1.6978">
        <ele>77</ele>
        <time>2021-08-06T15:36:39.000Z</time>
      </trkpt>
      <trkpt lat="47.17521" lon="-1.69799">
        <ele>77</ele>
        <time>2021-08-06T15:36:41.000Z</time>
      </trkpt>
      <trkpt lat="47.17524" lon="-1.69819">
        <ele>77</ele>
        <time>2021-08-06T15:36:43.000Z</time>
      </trkpt>
      <trkpt lat="47.17526" lon="-1.69839">
        <ele>77</ele>
        <time>2021-08-06T15:36:45.000Z</time>
      </trkpt>
      <trkpt lat="47.17528" lon="-1.69857">
        <ele>77</ele>
        <time>2021-08-06T15:36:47.000Z</time>
      </trkpt>
      <trkpt lat="47.17531" lon="-1.69876">
        <ele>78</ele>
        <time>2021-08-06T15:36:49.000Z</time>
      </trkpt>
      <trkpt lat="47.17534" lon="-1.69893">
        <ele>77</ele>
        <time>2021-08-06T15:36:51.000Z</time>
      </trkpt>
      <trkpt lat="47.17537" lon="-1.69911">
        <ele>77</ele>
        <time>2021-08-06T15:36:53.000Z</time>
      </trkpt>
      <trkpt lat="47.1754" lon="-1.69929">
        <ele>77</ele>
        <time>2021-08-06T15:36:55.000Z</time>
      </trkpt>
      <trkpt lat="47.17544" lon="-1.69948">
        <ele>77</ele>
        <time>2021-08-06T15:36:57.000Z</time>
      </trkpt>
      <trkpt lat="47.17547" lon="-1.69967">
        <ele>78</ele>
        <time>2021-08-06T15:36:59.000Z</time>
      </trkpt>
      <trkpt lat="47.17551" lon="-1.69986">
        <ele>78</ele>
        <time>2021-08-06T15:37:01.000Z</time>
      </trkpt>
      <trkpt lat="47.17556" lon="-1.70005">
        <ele>78</ele>
        <time>2021-08-06T15:37:03.000Z</time>
      </trkpt>
      <trkpt lat="47.1756" lon="-1.70024">
        <ele>78</ele>
        <time>2021-08-06T15:37:05.000Z</time>
      </trkpt>
      <trkpt lat="47.17564" lon="-1.70043">
        <ele>78</ele>
        <time>2021-08-06T15:37:07.000Z</time>
      </trkpt>
      <trkpt lat="47.17567" lon="-1.70061">
        <ele>78</ele>
        <time>2021-08-06T15:37:09.000Z</time>
      </trkpt>
      <trkpt lat="47.17571" lon="-1.7008">
        <ele>78</ele>
        <time>2021-08-06T15:37:11.000Z</time>
      </trkpt>
      <trkpt lat="47.17575" lon="-1.70098">
        <ele>78</ele>
        <time>2021-08-06T15:37:13.000Z</time>
      </trkpt>
      <trkpt lat="47.17579" lon="-1.70116">
        <ele>78</ele>
        <time>2021-08-06T15:37:15.000Z</time>
      </trkpt>
      <trkpt lat="47.17582" lon="-1.70135">
        <ele>78</ele>
        <time>2021-08-06T15:37:17.000Z</time>
      </trkpt>
      <trkpt lat="47.17586" lon="-1.70154">
        <ele>77</ele>
        <time>2021-08-06T15:37:19.000Z</time>
      </trkpt>
      <trkpt lat="47.1759" lon="-1.70173">
        <ele>77</ele>
        <time>2021-08-06T15:37:21.000Z</time>
      </trkpt>
      <trkpt lat="47.17594" lon="-1.70192">
        <ele>78</ele>
        <time>2021-08-06T15:37:23.000Z</time>
      </trkpt>
      <trkpt lat="47.17596" lon="-1.70211">
        <ele>78</ele>
        <time>2021-08-06T15:37:25.000Z</time>
      </trkpt>
      <trkpt lat="47.17598" lon="-1.70231">
        <ele>78</ele>
        <time>2021-08-06T15:37:27.000Z</time>
      </trkpt>
      <trkpt lat="47.17597" lon="-1.7025">
        <ele>78</ele>
        <time>2021-08-06T15:37:29.000Z</time>
      </trkpt>
      <trkpt lat="47.17595" lon="-1.7027">
        <ele>78</ele>
        <time>2021-08-06T15:37:31.000Z</time>
      </trkpt>
      <trkpt lat="47.17592" lon="-1.70288">
        <ele>78</ele>
        <time>2021-08-06T15:37:33.000Z</time>
      </trkpt>
      <trkpt lat="47.17587" lon="-1.70304">
        <ele>78</ele>
        <time>2021-08-06T15:37:35.000Z</time>
      </trkpt>
      <trkpt lat="47.17581" lon="-1.70319">
        <ele>78</ele>
        <time>2021-08-06T15:37:37.000Z</time>
      </trkpt>
      <trkpt lat="47.17576" lon="-1.70334">
        <ele>78</ele>
        <time>2021-08-06T15:37:39.000Z</time>
      </trkpt>
      <trkpt lat="47.17571" lon="-1.70348">
        <ele>79</ele>
        <time>2021-08-06T15:37:41.000Z</time>
      </trkpt>
      <trkpt lat="47.17569" lon="-1.70363">
        <ele>79</ele>
        <time>2021-08-06T15:37:43.000Z</time>
      </trkpt>
      <trkpt lat="47.17573" lon="-1.70376">
        <ele>80</ele>
        <time>2021-08-06T15:37:45.000Z</time>
      </trkpt>
      <trkpt lat="47.17585" lon="-1.70383">
        <ele>80</ele>
        <time>2021-08-06T15:37:48.000Z</time>
      </trkpt>
      <trkpt lat="47.17595" lon="-1.70383">
        <ele>81</ele>
        <time>2021-08-06T15:37:50.000Z</time>
      </trkpt>
      <trkpt lat="47.17607" lon="-1.70387">
        <ele>81</ele>
        <time>2021-08-06T15:37:52.000Z</time>
      </trkpt>
      <trkpt lat="47.17616" lon="-1.70397">
        <ele>81</ele>
        <time>2021-08-06T15:37:54.000Z</time>
      </trkpt>
      <trkpt lat="47.1762" lon="-1.70414">
        <ele>81</ele>
        <time>2021-08-06T15:37:56.000Z</time>
      </trkpt>
      <trkpt lat="47.17618" lon="-1.70431">
        <ele>81</ele>
        <time>2021-08-06T15:37:58.000Z</time>
      </trkpt>
      <trkpt lat="47.17612" lon="-1.70446">
        <ele>81</ele>
        <time>2021-08-06T15:38:00.000Z</time>
      </trkpt>
      <trkpt lat="47.17612" lon="-1.70463">
        <ele>81</ele>
        <time>2021-08-06T15:38:02.000Z</time>
      </trkpt>
      <trkpt lat="47.17619" lon="-1.70479">
        <ele>81</ele>
        <time>2021-08-06T15:38:04.000Z</time>
      </trkpt>
      <trkpt lat="47.17628" lon="-1.70494">
        <ele>80</ele>
        <time>2021-08-06T15:38:06.000Z</time>
      </trkpt>
      <trkpt lat="47.17638" lon="-1.70507">
        <ele>79</ele>
        <time>2021-08-06T15:38:08.000Z</time>
      </trkpt>
      <trkpt lat="47.1765" lon="-1.70519">
        <ele>78</ele>
        <time>2021-08-06T15:38:10.000Z</time>
      </trkpt>
      <trkpt lat="47.17662" lon="-1.70531">
        <ele>78</ele>
        <time>2021-08-06T15:38:12.000Z</time>
      </trkpt>
      <trkpt lat="47.17675" lon="-1.70543">
        <ele>78</ele>
        <time>2021-08-06T15:38:14.000Z</time>
      </trkpt>
      <trkpt lat="47.17687" lon="-1.70555">
        <ele>78</ele>
        <time>2021-08-06T15:38:16.000Z</time>
      </trkpt>
      <trkpt lat="47.17699" lon="-1.70566">
        <ele>78</ele>
        <time>2021-08-06T15:38:18.000Z</time>
      </trkpt>
      <trkpt lat="47.1771" lon="-1.70578">
        <ele>78</ele>
        <time>2021-08-06T15:38:20.000Z</time>
      </trkpt>
      <trkpt lat="47.17719" lon="-1.70592">
        <ele>78</ele>
        <time>2021-08-06T15:38:22.000Z</time>
      </trkpt>
      <trkpt lat="47.17728" lon="-1.70607">
        <ele>78</ele>
        <time>2021-08-06T15:38:24.000Z</time>
      </trkpt>
      <trkpt lat="47.17736" lon="-1.70624">
        <ele>78</ele>
        <time>2021-08-06T15:38:26.000Z</time>
      </trkpt>
      <trkpt lat="47.17742" lon="-1.70641">
        <ele>78</ele>
        <time>2021-08-06T15:38:28.000Z</time>
      </trkpt>
      <trkpt lat="47.17748" lon="-1.70659">
        <ele>77</ele>
        <time>2021-08-06T15:38:30.000Z</time>
      </trkpt>
      <trkpt lat="47.17754" lon="-1.70677">
        <ele>77</ele>
        <time>2021-08-06T15:38:32.000Z</time>
      </trkpt>
      <trkpt lat="47.1776" lon="-1.70694">
        <ele>77</ele>
        <time>2021-08-06T15:38:34.000Z</time>
      </trkpt>
      <trkpt lat="47.17765" lon="-1.70711">
        <ele>77</ele>
        <time>2021-08-06T15:38:36.000Z</time>
      </trkpt>
      <trkpt lat="47.17771" lon="-1.70729">
        <ele>77</ele>
        <time>2021-08-06T15:38:38.000Z</time>
      </trkpt>
      <trkpt lat="47.17777" lon="-1.70746">
        <ele>77</ele>
        <time>2021-08-06T15:38:40.000Z</time>
      </trkpt>
      <trkpt lat="47.17783" lon="-1.70763">
        <ele>77</ele>
        <time>2021-08-06T15:38:42.000Z</time>
      </trkpt>
      <trkpt lat="47.17789" lon="-1.70781">
        <ele>77</ele>
        <time>2021-08-06T15:38:44.000Z</time>
      </trkpt>
      <trkpt lat="47.17795" lon="-1.70798">
        <ele>77</ele>
        <time>2021-08-06T15:38:46.000Z</time>
      </trkpt>
      <trkpt lat="47.178" lon="-1.70815">
        <ele>77</ele>
        <time>2021-08-06T15:38:48.000Z</time>
      </trkpt>
      <trkpt lat="47.17806" lon="-1.70832">
        <ele>76</ele>
        <time>2021-08-06T15:38:50.000Z</time>
      </trkpt>
      <trkpt lat="47.17812" lon="-1.7085">
        <ele>76</ele>
        <time>2021-08-06T15:38:52.000Z</time>
      </trkpt>
      <trkpt lat="47.17818" lon="-1.70867">
        <ele>76</ele>
        <time>2021-08-06T15:38:54.000Z</time>
      </trkpt>
      <trkpt lat="47.17824" lon="-1.70884">
        <ele>76</ele>
        <time>2021-08-06T15:38:56.000Z</time>
      </trkpt>
      <trkpt lat="47.1783" lon="-1.70902">
        <ele>76</ele>
        <time>2021-08-06T15:38:58.000Z</time>
      </trkpt>
      <trkpt lat="47.17835" lon="-1.70919">
        <ele>76</ele>
        <time>2021-08-06T15:39:00.000Z</time>
      </trkpt>
      <trkpt lat="47.17841" lon="-1.70937">
        <ele>76</ele>
        <time>2021-08-06T15:39:02.000Z</time>
      </trkpt>
      <trkpt lat="47.17847" lon="-1.70954">
        <ele>76</ele>
        <time>2021-08-06T15:39:04.000Z</time>
      </trkpt>
      <trkpt lat="47.17855" lon="-1.70971">
        <ele>76</ele>
        <time>2021-08-06T15:39:06.000Z</time>
      </trkpt>
      <trkpt lat="47.17863" lon="-1.70986">
        <ele>77</ele>
        <time>2021-08-06T15:39:08.000Z</time>
      </trkpt>
      <trkpt lat="47.17871" lon="-1.71">
        <ele>77</ele>
        <time>2021-08-06T15:39:10.000Z</time>
      </trkpt>
      <trkpt lat="47.17879" lon="-1.71018">
        <ele>77</ele>
        <time>2021-08-06T15:39:12.000Z</time>
      </trkpt>
      <trkpt lat="47.17884" lon="-1.71035">
        <ele>77</ele>
        <time>2021-08-06T15:39:14.000Z</time>
      </trkpt>
      <trkpt lat="47.1789" lon="-1.71053">
        <ele>77</ele>
        <time>2021-08-06T15:39:16.000Z</time>
      </trkpt>
      <trkpt lat="47.17896" lon="-1.71071">
        <ele>77</ele>
        <time>2021-08-06T15:39:18.000Z</time>
      </trkpt>
      <trkpt lat="47.17901" lon="-1.71089">
        <ele>77</ele>
        <time>2021-08-06T15:39:20.000Z</time>
      </trkpt>
      <trkpt lat="47.17906" lon="-1.71106">
        <ele>77</ele>
        <time>2021-08-06T15:39:22.000Z</time>
      </trkpt>
      <trkpt lat="47.17912" lon="-1.71125">
        <ele>77</ele>
        <time>2021-08-06T15:39:24.000Z</time>
      </trkpt>
      <trkpt lat="47.17917" lon="-1.71144">
        <ele>77</ele>
        <time>2021-08-06T15:39:26.000Z</time>
      </trkpt>
      <trkpt lat="47.17921" lon="-1.71163">
        <ele>77</ele>
        <time>2021-08-06T15:39:28.000Z</time>
      </trkpt>
      <trkpt lat="47.17923" lon="-1.71182">
        <ele>77</ele>
        <time>2021-08-06T15:39:30.000Z</time>
      </trkpt>
      <trkpt lat="47.17927" lon="-1.71202">
        <ele>77</ele>
        <time>2021-08-06T15:39:32.000Z</time>
      </trkpt>
      <trkpt lat="47.17933" lon="-1.7122">
        <ele>77</ele>
        <time>2021-08-06T15:39:34.000Z</time>
      </trkpt>
      <trkpt lat="47.17939" lon="-1.71239">
        <ele>77</ele>
        <time>2021-08-06T15:39:36.000Z</time>
      </trkpt>
      <trkpt lat="47.17945" lon="-1.71257">
        <ele>76</ele>
        <time>2021-08-06T15:39:38.000Z</time>
      </trkpt>
      <trkpt lat="47.17951" lon="-1.71275">
        <ele>76</ele>
        <time>2021-08-06T15:39:40.000Z</time>
      </trkpt>
      <trkpt lat="47.17957" lon="-1.71294">
        <ele>76</ele>
        <time>2021-08-06T15:39:42.000Z</time>
      </trkpt>
      <trkpt lat="47.17963" lon="-1.71312">
        <ele>76</ele>
        <time>2021-08-06T15:39:44.000Z</time>
      </trkpt>
      <trkpt lat="47.17969" lon="-1.7133">
        <ele>76</ele>
        <time>2021-08-06T15:39:46.000Z</time>
      </trkpt>
      <trkpt lat="47.17975" lon="-1.71349">
        <ele>75</ele>
        <time>2021-08-06T15:39:48.000Z</time>
      </trkpt>
      <trkpt lat="47.17981" lon="-1.71367">
        <ele>76</ele>
        <time>2021-08-06T15:39:50.000Z</time>
      </trkpt>
      <trkpt lat="47.17987" lon="-1.71386">
        <ele>76</ele>
        <time>2021-08-06T15:39:52.000Z</time>
      </trkpt>
      <trkpt lat="47.17993" lon="-1.71404">
        <ele>76</ele>
        <time>2021-08-06T15:39:54.000Z</time>
      </trkpt>
      <trkpt lat="47.17998" lon="-1.71422">
        <ele>76</ele>
        <time>2021-08-06T15:39:56.000Z</time>
      </trkpt>
      <trkpt lat="47.18004" lon="-1.7144">
        <ele>76</ele>
        <time>2021-08-06T15:39:58.000Z</time>
      </trkpt>
      <trkpt lat="47.1801" lon="-1.71458">
        <ele>76</ele>
        <time>2021-08-06T15:40:00.000Z</time>
      </trkpt>
      <trkpt lat="47.18016" lon="-1.71476">
        <ele>76</ele>
        <time>2021-08-06T15:40:02.000Z</time>
      </trkpt>
      <trkpt lat="47.18022" lon="-1.71495">
        <ele>76</ele>
        <time>2021-08-06T15:40:04.000Z</time>
      </trkpt>
      <trkpt lat="47.18028" lon="-1.71513">
        <ele>76</ele>
        <time>2021-08-06T15:40:06.000Z</time>
      </trkpt>
      <trkpt lat="47.18034" lon="-1.71531">
        <ele>76</ele>
        <time>2021-08-06T15:40:08.000Z</time>
      </trkpt>
      <trkpt lat="47.1804" lon="-1.71549">
        <ele>76</ele>
        <time>2021-08-06T15:40:10.000Z</time>
      </trkpt>
      <trkpt lat="47.18046" lon="-1.71567">
        <ele>76</ele>
        <time>2021-08-06T15:40:12.000Z</time>
      </trkpt>
      <trkpt lat="47.18052" lon="-1.71586">
        <ele>76</ele>
        <time>2021-08-06T15:40:14.000Z</time>
      </trkpt>
      <trkpt lat="47.18058" lon="-1.71603">
        <ele>76</ele>
        <time>2021-08-06T15:40:16.000Z</time>
      </trkpt>
      <trkpt lat="47.18063" lon="-1.71622">
        <ele>76</ele>
        <time>2021-08-06T15:40:18.000Z</time>
      </trkpt>
      <trkpt lat="47.18069" lon="-1.7164">
        <ele>76</ele>
        <time>2021-08-06T15:40:20.000Z</time>
      </trkpt>
      <trkpt lat="47.18075" lon="-1.71659">
        <ele>77</ele>
        <time>2021-08-06T15:40:22.000Z</time>
      </trkpt>
      <trkpt lat="47.18081" lon="-1.71677">
        <ele>76</ele>
        <time>2021-08-06T15:40:24.000Z</time>
      </trkpt>
      <trkpt lat="47.18087" lon="-1.71695">
        <ele>76</ele>
        <time>2021-08-06T15:40:26.000Z</time>
      </trkpt>
      <trkpt lat="47.18094" lon="-1.71714">
        <ele>76</ele>
        <time>2021-08-06T15:40:28.000Z</time>
      </trkpt>
      <trkpt lat="47.181" lon="-1.71732">
        <ele>76</ele>
        <time>2021-08-06T15:40:30.000Z</time>
      </trkpt>
      <trkpt lat="47.18107" lon="-1.71749">
        <ele>76</ele>
        <time>2021-08-06T15:40:32.000Z</time>
      </trkpt>
      <trkpt lat="47.18114" lon="-1.71768">
        <ele>76</ele>
        <time>2021-08-06T15:40:34.000Z</time>
      </trkpt>
      <trkpt lat="47.18121" lon="-1.71786">
        <ele>76</ele>
        <time>2021-08-06T15:40:36.000Z</time>
      </trkpt>
      <trkpt lat="47.18128" lon="-1.71805">
        <ele>77</ele>
        <time>2021-08-06T15:40:38.000Z</time>
      </trkpt>
      <trkpt lat="47.18134" lon="-1.71824">
        <ele>77</ele>
        <time>2021-08-06T15:40:40.000Z</time>
      </trkpt>
      <trkpt lat="47.1814" lon="-1.71843">
        <ele>77</ele>
        <time>2021-08-06T15:40:42.000Z</time>
      </trkpt>
      <trkpt lat="47.18147" lon="-1.71861">
        <ele>76</ele>
        <time>2021-08-06T15:40:44.000Z</time>
      </trkpt>
      <trkpt lat="47.18152" lon="-1.7188">
        <ele>76</ele>
        <time>2021-08-06T15:40:46.000Z</time>
      </trkpt>
      <trkpt lat="47.18158" lon="-1.71899">
        <ele>76</ele>
        <time>2021-08-06T15:40:48.000Z</time>
      </trkpt>
      <trkpt lat="47.18164" lon="-1.71918">
        <ele>76</ele>
        <time>2021-08-06T15:40:50.000Z</time>
      </trkpt>
      <trkpt lat="47.1817" lon="-1.71937">
        <ele>77</ele>
        <time>2021-08-06T15:40:52.000Z</time>
      </trkpt>
      <trkpt lat="47.18176" lon="-1.71956">
        <ele>77</ele>
        <time>2021-08-06T15:40:54.000Z</time>
      </trkpt>
      <trkpt lat="47.18182" lon="-1.71976">
        <ele>76</ele>
        <time>2021-08-06T15:40:56.000Z</time>
      </trkpt>
      <trkpt lat="47.18188" lon="-1.71995">
        <ele>77</ele>
        <time>2021-08-06T15:40:58.000Z</time>
      </trkpt>
      <trkpt lat="47.18194" lon="-1.72014">
        <ele>76</ele>
        <time>2021-08-06T15:41:00.000Z</time>
      </trkpt>
      <trkpt lat="47.182" lon="-1.72032">
        <ele>77</ele>
        <time>2021-08-06T15:41:02.000Z</time>
      </trkpt>
      <trkpt lat="47.18206" lon="-1.7205">
        <ele>77</ele>
        <time>2021-08-06T15:41:04.000Z</time>
      </trkpt>
      <trkpt lat="47.18211" lon="-1.72067">
        <ele>77</ele>
        <time>2021-08-06T15:41:06.000Z</time>
      </trkpt>
      <trkpt lat="47.18216" lon="-1.72084">
        <ele>77</ele>
        <time>2021-08-06T15:41:08.000Z</time>
      </trkpt>
      <trkpt lat="47.18222" lon="-1.72101">
        <ele>77</ele>
        <time>2021-08-06T15:41:10.000Z</time>
      </trkpt>
      <trkpt lat="47.18227" lon="-1.72118">
        <ele>77</ele>
        <time>2021-08-06T15:41:12.000Z</time>
      </trkpt>
      <trkpt lat="47.18233" lon="-1.72135">
        <ele>76</ele>
        <time>2021-08-06T15:41:14.000Z</time>
      </trkpt>
      <trkpt lat="47.18239" lon="-1.72153">
        <ele>76</ele>
        <time>2021-08-06T15:41:16.000Z</time>
      </trkpt>
      <trkpt lat="47.18245" lon="-1.72171">
        <ele>76</ele>
        <time>2021-08-06T15:41:18.000Z</time>
      </trkpt>
      <trkpt lat="47.1825" lon="-1.7219">
        <ele>76</ele>
        <time>2021-08-06T15:41:20.000Z</time>
      </trkpt>
      <trkpt lat="47.18255" lon="-1.72209">
        <ele>76</ele>
        <time>2021-08-06T15:41:22.000Z</time>
      </trkpt>
      <trkpt lat="47.18258" lon="-1.72229">
        <ele>76</ele>
        <time>2021-08-06T15:41:24.000Z</time>
      </trkpt>
      <trkpt lat="47.18261" lon="-1.72248">
        <ele>76</ele>
        <time>2021-08-06T15:41:26.000Z</time>
      </trkpt>
      <trkpt lat="47.18263" lon="-1.72269">
        <ele>75</ele>
        <time>2021-08-06T15:41:28.000Z</time>
      </trkpt>
      <trkpt lat="47.18265" lon="-1.72289">
        <ele>75</ele>
        <time>2021-08-06T15:41:30.000Z</time>
      </trkpt>
      <trkpt lat="47.18267" lon="-1.72309">
        <ele>75</ele>
        <time>2021-08-06T15:41:32.000Z</time>
      </trkpt>
      <trkpt lat="47.18269" lon="-1.7233">
        <ele>75</ele>
        <time>2021-08-06T15:41:34.000Z</time>
      </trkpt>
      <trkpt lat="47.18271" lon="-1.72349">
        <ele>75</ele>
        <time>2021-08-06T15:41:36.000Z</time>
      </trkpt>
      <trkpt lat="47.18274" lon="-1.72378">
        <ele>75</ele>
        <time>2021-08-06T15:41:39.000Z</time>
      </trkpt>
      <trkpt lat="47.18274" lon="-1.72398">
        <ele>75</ele>
        <time>2021-08-06T15:41:41.000Z</time>
      </trkpt>
      <trkpt lat="47.18274" lon="-1.72416">
        <ele>76</ele>
        <time>2021-08-06T15:41:43.000Z</time>
      </trkpt>
      <trkpt lat="47.18273" lon="-1.72433">
        <ele>76</ele>
        <time>2021-08-06T15:41:45.000Z</time>
      </trkpt>
      <trkpt lat="47.18271" lon="-1.7245">
        <ele>76</ele>
        <time>2021-08-06T15:41:47.000Z</time>
      </trkpt>
      <trkpt lat="47.18268" lon="-1.72466">
        <ele>77</ele>
        <time>2021-08-06T15:41:49.000Z</time>
      </trkpt>
      <trkpt lat="47.18265" lon="-1.72482">
        <ele>77</ele>
        <time>2021-08-06T15:41:51.000Z</time>
      </trkpt>
      <trkpt lat="47.18261" lon="-1.72497">
        <ele>77</ele>
        <time>2021-08-06T15:41:53.000Z</time>
      </trkpt>
      <trkpt lat="47.18261" lon="-1.72522">
        <ele>78</ele>
        <time>2021-08-06T15:41:56.000Z</time>
      </trkpt>
      <trkpt lat="47.18265" lon="-1.72537">
        <ele>78</ele>
        <time>2021-08-06T15:41:58.000Z</time>
      </trkpt>
      <trkpt lat="47.18272" lon="-1.72548">
        <ele>79</ele>
        <time>2021-08-06T15:42:00.000Z</time>
      </trkpt>
      <trkpt lat="47.18289" lon="-1.7255">
        <ele>79</ele>
        <time>2021-08-06T15:42:03.000Z</time>
      </trkpt>
      <trkpt lat="47.18306" lon="-1.72553">
        <ele>80</ele>
        <time>2021-08-06T15:42:06.000Z</time>
      </trkpt>
      <trkpt lat="47.18316" lon="-1.72573">
        <ele>80</ele>
        <time>2021-08-06T15:42:09.000Z</time>
      </trkpt>
      <trkpt lat="47.18316" lon="-1.72591">
        <ele>80</ele>
        <time>2021-08-06T15:42:11.000Z</time>
      </trkpt>
      <trkpt lat="47.18312" lon="-1.72617">
        <ele>79</ele>
        <time>2021-08-06T15:42:14.000Z</time>
      </trkpt>
      <trkpt lat="47.18318" lon="-1.72644">
        <ele>79</ele>
        <time>2021-08-06T15:42:17.000Z</time>
      </trkpt>
      <trkpt lat="47.18324" lon="-1.72662">
        <ele>78</ele>
        <time>2021-08-06T15:42:19.000Z</time>
      </trkpt>
      <trkpt lat="47.18329" lon="-1.7268">
        <ele>78</ele>
        <time>2021-08-06T15:42:21.000Z</time>
      </trkpt>
      <trkpt lat="47.18336" lon="-1.72699">
        <ele>78</ele>
        <time>2021-08-06T15:42:23.000Z</time>
      </trkpt>
      <trkpt lat="47.18342" lon="-1.72718">
        <ele>77</ele>
        <time>2021-08-06T15:42:25.000Z</time>
      </trkpt>
      <trkpt lat="47.18349" lon="-1.72737">
        <ele>77</ele>
        <time>2021-08-06T15:42:27.000Z</time>
      </trkpt>
      <trkpt lat="47.18356" lon="-1.72756">
        <ele>77</ele>
        <time>2021-08-06T15:42:29.000Z</time>
      </trkpt>
      <trkpt lat="47.18363" lon="-1.72775">
        <ele>76</ele>
        <time>2021-08-06T15:42:31.000Z</time>
      </trkpt>
      <trkpt lat="47.18369" lon="-1.72793">
        <ele>76</ele>
        <time>2021-08-06T15:42:33.000Z</time>
      </trkpt>
      <trkpt lat="47.18374" lon="-1.7281">
        <ele>76</ele>
        <time>2021-08-06T15:42:35.000Z</time>
      </trkpt>
      <trkpt lat="47.1838" lon="-1.72827">
        <ele>76</ele>
        <time>2021-08-06T15:42:37.000Z</time>
      </trkpt>
      <trkpt lat="47.18386" lon="-1.72844">
        <ele>76</ele>
        <time>2021-08-06T15:42:39.000Z</time>
      </trkpt>
      <trkpt lat="47.18392" lon="-1.72861">
        <ele>76</ele>
        <time>2021-08-06T15:42:41.000Z</time>
      </trkpt>
      <trkpt lat="47.18398" lon="-1.72879">
        <ele>76</ele>
        <time>2021-08-06T15:42:43.000Z</time>
      </trkpt>
      <trkpt lat="47.18403" lon="-1.72896">
        <ele>77</ele>
        <time>2021-08-06T15:42:45.000Z</time>
      </trkpt>
      <trkpt lat="47.18408" lon="-1.72913">
        <ele>77</ele>
        <time>2021-08-06T15:42:47.000Z</time>
      </trkpt>
      <trkpt lat="47.18412" lon="-1.7293">
        <ele>77</ele>
        <time>2021-08-06T15:42:49.000Z</time>
      </trkpt>
      <trkpt lat="47.18416" lon="-1.72947">
        <ele>77</ele>
        <time>2021-08-06T15:42:51.000Z</time>
      </trkpt>
      <trkpt lat="47.18419" lon="-1.72964">
        <ele>77</ele>
        <time>2021-08-06T15:42:53.000Z</time>
      </trkpt>
      <trkpt lat="47.18422" lon="-1.72981">
        <ele>77</ele>
        <time>2021-08-06T15:42:55.000Z</time>
      </trkpt>
      <trkpt lat="47.18424" lon="-1.72999">
        <ele>77</ele>
        <time>2021-08-06T15:42:57.000Z</time>
      </trkpt>
      <trkpt lat="47.18426" lon="-1.73016">
        <ele>77</ele>
        <time>2021-08-06T15:42:59.000Z</time>
      </trkpt>
      <trkpt lat="47.18428" lon="-1.73034">
        <ele>77</ele>
        <time>2021-08-06T15:43:01.000Z</time>
      </trkpt>
      <trkpt lat="47.1843" lon="-1.73053">
        <ele>77</ele>
        <time>2021-08-06T15:43:03.000Z</time>
      </trkpt>
      <trkpt lat="47.18432" lon="-1.7307">
        <ele>77</ele>
        <time>2021-08-06T15:43:05.000Z</time>
      </trkpt>
      <trkpt lat="47.18435" lon="-1.73089">
        <ele>76</ele>
        <time>2021-08-06T15:43:07.000Z</time>
      </trkpt>
      <trkpt lat="47.18437" lon="-1.73107">
        <ele>76</ele>
        <time>2021-08-06T15:43:09.000Z</time>
      </trkpt>
      <trkpt lat="47.1844" lon="-1.73126">
        <ele>77</ele>
        <time>2021-08-06T15:43:11.000Z</time>
      </trkpt>
      <trkpt lat="47.18442" lon="-1.73145">
        <ele>76</ele>
        <time>2021-08-06T15:43:13.000Z</time>
      </trkpt>
      <trkpt lat="47.18445" lon="-1.73164">
        <ele>76</ele>
        <time>2021-08-06T15:43:15.000Z</time>
      </trkpt>
      <trkpt lat="47.18447" lon="-1.73183">
        <ele>76</ele>
        <time>2021-08-06T15:43:17.000Z</time>
      </trkpt>
      <trkpt lat="47.1845" lon="-1.73202">
        <ele>76</ele>
        <time>2021-08-06T15:43:19.000Z</time>
      </trkpt>
      <trkpt lat="47.18452" lon="-1.7322">
        <ele>76</ele>
        <time>2021-08-06T15:43:21.000Z</time>
      </trkpt>
      <trkpt lat="47.18454" lon="-1.73238">
        <ele>76</ele>
        <time>2021-08-06T15:43:23.000Z</time>
      </trkpt>
      <trkpt lat="47.18456" lon="-1.73256">
        <ele>76</ele>
        <time>2021-08-06T15:43:25.000Z</time>
      </trkpt>
      <trkpt lat="47.18459" lon="-1.73273">
        <ele>75</ele>
        <time>2021-08-06T15:43:27.000Z</time>
      </trkpt>
      <trkpt lat="47.1846" lon="-1.73291">
        <ele>75</ele>
        <time>2021-08-06T15:43:29.000Z</time>
      </trkpt>
      <trkpt lat="47.18462" lon="-1.73308">
        <ele>75</ele>
        <time>2021-08-06T15:43:31.000Z</time>
      </trkpt>
      <trkpt lat="47.18465" lon="-1.73326">
        <ele>75</ele>
        <time>2021-08-06T15:43:33.000Z</time>
      </trkpt>
      <trkpt lat="47.18467" lon="-1.73344">
        <ele>75</ele>
        <time>2021-08-06T15:43:35.000Z</time>
      </trkpt>
      <trkpt lat="47.18469" lon="-1.73363">
        <ele>75</ele>
        <time>2021-08-06T15:43:37.000Z</time>
      </trkpt>
      <trkpt lat="47.1847" lon="-1.73381">
        <ele>75</ele>
        <time>2021-08-06T15:43:39.000Z</time>
      </trkpt>
      <trkpt lat="47.18472" lon="-1.73399">
        <ele>75</ele>
        <time>2021-08-06T15:43:41.000Z</time>
      </trkpt>
      <trkpt lat="47.18474" lon="-1.73417">
        <ele>74</ele>
        <time>2021-08-06T15:43:43.000Z</time>
      </trkpt>
      <trkpt lat="47.18475" lon="-1.73435">
        <ele>74</ele>
        <time>2021-08-06T15:43:45.000Z</time>
      </trkpt>
      <trkpt lat="47.18477" lon="-1.73453">
        <ele>74</ele>
        <time>2021-08-06T15:43:47.000Z</time>
      </trkpt>
      <trkpt lat="47.18479" lon="-1.73472">
        <ele>74</ele>
        <time>2021-08-06T15:43:49.000Z</time>
      </trkpt>
      <trkpt lat="47.1848" lon="-1.73489">
        <ele>74</ele>
        <time>2021-08-06T15:43:51.000Z</time>
      </trkpt>
      <trkpt lat="47.18482" lon="-1.73508">
        <ele>74</ele>
        <time>2021-08-06T15:43:53.000Z</time>
      </trkpt>
      <trkpt lat="47.18484" lon="-1.73526">
        <ele>74</ele>
        <time>2021-08-06T15:43:55.000Z</time>
      </trkpt>
      <trkpt lat="47.18486" lon="-1.73544">
        <ele>74</ele>
        <time>2021-08-06T15:43:57.000Z</time>
      </trkpt>
      <trkpt lat="47.18488" lon="-1.73562">
        <ele>74</ele>
        <time>2021-08-06T15:43:59.000Z</time>
      </trkpt>
      <trkpt lat="47.18489" lon="-1.7358">
        <ele>74</ele>
        <time>2021-08-06T15:44:01.000Z</time>
      </trkpt>
      <trkpt lat="47.18491" lon="-1.73597">
        <ele>74</ele>
        <time>2021-08-06T15:44:03.000Z</time>
      </trkpt>
      <trkpt lat="47.18493" lon="-1.73615">
        <ele>73</ele>
        <time>2021-08-06T15:44:05.000Z</time>
      </trkpt>
      <trkpt lat="47.18495" lon="-1.73633">
        <ele>73</ele>
        <time>2021-08-06T15:44:07.000Z</time>
      </trkpt>
      <trkpt lat="47.18496" lon="-1.7365">
        <ele>73</ele>
        <time>2021-08-06T15:44:09.000Z</time>
      </trkpt>
      <trkpt lat="47.18498" lon="-1.73669">
        <ele>73</ele>
        <time>2021-08-06T15:44:11.000Z</time>
      </trkpt>
      <trkpt lat="47.185" lon="-1.73687">
        <ele>74</ele>
        <time>2021-08-06T15:44:13.000Z</time>
      </trkpt>
      <trkpt lat="47.18501" lon="-1.73705">
        <ele>74</ele>
        <time>2021-08-06T15:44:15.000Z</time>
      </trkpt>
      <trkpt lat="47.18503" lon="-1.73723">
        <ele>74</ele>
        <time>2021-08-06T15:44:17.000Z</time>
      </trkpt>
      <trkpt lat="47.18505" lon="-1.73741">
        <ele>74</ele>
        <time>2021-08-06T15:44:19.000Z</time>
      </trkpt>
      <trkpt lat="47.18507" lon="-1.73759">
        <ele>74</ele>
        <time>2021-08-06T15:44:21.000Z</time>
      </trkpt>
      <trkpt lat="47.18509" lon="-1.73778">
        <ele>74</ele>
        <time>2021-08-06T15:44:23.000Z</time>
      </trkpt>
      <trkpt lat="47.1851" lon="-1.73797">
        <ele>74</ele>
        <time>2021-08-06T15:44:25.000Z</time>
      </trkpt>
      <trkpt lat="47.18512" lon="-1.73816">
        <ele>74</ele>
        <time>2021-08-06T15:44:27.000Z</time>
      </trkpt>
      <trkpt lat="47.18514" lon="-1.73835">
        <ele>74</ele>
        <time>2021-08-06T15:44:29.000Z</time>
      </trkpt>
      <trkpt lat="47.18516" lon="-1.73854">
        <ele>74</ele>
        <time>2021-08-06T15:44:31.000Z</time>
      </trkpt>
      <trkpt lat="47.18517" lon="-1.73873">
        <ele>74</ele>
        <time>2021-08-06T15:44:33.000Z</time>
      </trkpt>
      <trkpt lat="47.18519" lon="-1.73892">
        <ele>74</ele>
        <time>2021-08-06T15:44:35.000Z</time>
      </trkpt>
      <trkpt lat="47.1852" lon="-1.73911">
        <ele>74</ele>
        <time>2021-08-06T15:44:37.000Z</time>
      </trkpt>
      <trkpt lat="47.18521" lon="-1.73929">
        <ele>74</ele>
        <time>2021-08-06T15:44:39.000Z</time>
      </trkpt>
      <trkpt lat="47.18522" lon="-1.73947">
        <ele>74</ele>
        <time>2021-08-06T15:44:41.000Z</time>
      </trkpt>
      <trkpt lat="47.18522" lon="-1.73966">
        <ele>74</ele>
        <time>2021-08-06T15:44:43.000Z</time>
      </trkpt>
      <trkpt lat="47.18523" lon="-1.73984">
        <ele>74</ele>
        <time>2021-08-06T15:44:45.000Z</time>
      </trkpt>
      <trkpt lat="47.18522" lon="-1.74002">
        <ele>74</ele>
        <time>2021-08-06T15:44:47.000Z</time>
      </trkpt>
      <trkpt lat="47.18521" lon="-1.74021">
        <ele>73</ele>
        <time>2021-08-06T15:44:49.000Z</time>
      </trkpt>
      <trkpt lat="47.1852" lon="-1.74039">
        <ele>73</ele>
        <time>2021-08-06T15:44:51.000Z</time>
      </trkpt>
      <trkpt lat="47.18519" lon="-1.74057">
        <ele>73</ele>
        <time>2021-08-06T15:44:53.000Z</time>
      </trkpt>
      <trkpt lat="47.18518" lon="-1.74076">
        <ele>73</ele>
        <time>2021-08-06T15:44:55.000Z</time>
      </trkpt>
      <trkpt lat="47.18518" lon="-1.74094">
        <ele>73</ele>
        <time>2021-08-06T15:44:57.000Z</time>
      </trkpt>
      <trkpt lat="47.18519" lon="-1.74112">
        <ele>73</ele>
        <time>2021-08-06T15:44:59.000Z</time>
      </trkpt>
      <trkpt lat="47.18522" lon="-1.7413">
        <ele>72</ele>
        <time>2021-08-06T15:45:01.000Z</time>
      </trkpt>
      <trkpt lat="47.18522" lon="-1.74148">
        <ele>72</ele>
        <time>2021-08-06T15:45:03.000Z</time>
      </trkpt>
      <trkpt lat="47.18517" lon="-1.74165">
        <ele>72</ele>
        <time>2021-08-06T15:45:05.000Z</time>
      </trkpt>
      <trkpt lat="47.18516" lon="-1.74183">
        <ele>72</ele>
        <time>2021-08-06T15:45:07.000Z</time>
      </trkpt>
      <trkpt lat="47.18517" lon="-1.74202">
        <ele>72</ele>
        <time>2021-08-06T15:45:09.000Z</time>
      </trkpt>
      <trkpt lat="47.18517" lon="-1.7422">
        <ele>72</ele>
        <time>2021-08-06T15:45:11.000Z</time>
      </trkpt>
      <trkpt lat="47.18517" lon="-1.74237">
        <ele>72</ele>
        <time>2021-08-06T15:45:13.000Z</time>
      </trkpt>
      <trkpt lat="47.18519" lon="-1.74253">
        <ele>73</ele>
        <time>2021-08-06T15:45:15.000Z</time>
      </trkpt>
      <trkpt lat="47.1852" lon="-1.7427">
        <ele>73</ele>
        <time>2021-08-06T15:45:17.000Z</time>
      </trkpt>
      <trkpt lat="47.18522" lon="-1.74286">
        <ele>74</ele>
        <time>2021-08-06T15:45:19.000Z</time>
      </trkpt>
      <trkpt lat="47.18522" lon="-1.74303">
        <ele>74</ele>
        <time>2021-08-06T15:45:21.000Z</time>
      </trkpt>
      <trkpt lat="47.18524" lon="-1.74319">
        <ele>74</ele>
        <time>2021-08-06T15:45:23.000Z</time>
      </trkpt>
      <trkpt lat="47.18524" lon="-1.74335">
        <ele>75</ele>
        <time>2021-08-06T15:45:25.000Z</time>
      </trkpt>
      <trkpt lat="47.18525" lon="-1.74353">
        <ele>75</ele>
        <time>2021-08-06T15:45:27.000Z</time>
      </trkpt>
      <trkpt lat="47.18525" lon="-1.7437">
        <ele>75</ele>
        <time>2021-08-06T15:45:29.000Z</time>
      </trkpt>
      <trkpt lat="47.18525" lon="-1.74385">
        <ele>74</ele>
        <time>2021-08-06T15:45:31.000Z</time>
      </trkpt>
      <trkpt lat="47.18525" lon="-1.74402">
        <ele>74</ele>
        <time>2021-08-06T15:45:33.000Z</time>
      </trkpt>
      <trkpt lat="47.18525" lon="-1.74419">
        <ele>75</ele>
        <time>2021-08-06T15:45:35.000Z</time>
      </trkpt>
      <trkpt lat="47.18525" lon="-1.74436">
        <ele>75</ele>
        <time>2021-08-06T15:45:37.000Z</time>
      </trkpt>
      <trkpt lat="47.18524" lon="-1.74453">
        <ele>75</ele>
        <time>2021-08-06T15:45:39.000Z</time>
      </trkpt>
      <trkpt lat="47.18524" lon="-1.74471">
        <ele>74</ele>
        <time>2021-08-06T15:45:41.000Z</time>
      </trkpt>
      <trkpt lat="47.18523" lon="-1.74488">
        <ele>74</ele>
        <time>2021-08-06T15:45:43.000Z</time>
      </trkpt>
      <trkpt lat="47.18522" lon="-1.74505">
        <ele>75</ele>
        <time>2021-08-06T15:45:45.000Z</time>
      </trkpt>
      <trkpt lat="47.1852" lon="-1.74523">
        <ele>74</ele>
        <time>2021-08-06T15:45:47.000Z</time>
      </trkpt>
      <trkpt lat="47.18519" lon="-1.74539">
        <ele>75</ele>
        <time>2021-08-06T15:45:49.000Z</time>
      </trkpt>
      <trkpt lat="47.18517" lon="-1.74557">
        <ele>75</ele>
        <time>2021-08-06T15:45:51.000Z</time>
      </trkpt>
      <trkpt lat="47.18515" lon="-1.74575">
        <ele>75</ele>
        <time>2021-08-06T15:45:53.000Z</time>
      </trkpt>
      <trkpt lat="47.18513" lon="-1.74593">
        <ele>75</ele>
        <time>2021-08-06T15:45:55.000Z</time>
      </trkpt>
      <trkpt lat="47.18511" lon="-1.74611">
        <ele>75</ele>
        <time>2021-08-06T15:45:57.000Z</time>
      </trkpt>
      <trkpt lat="47.18509" lon="-1.74628">
        <ele>74</ele>
        <time>2021-08-06T15:45:59.000Z</time>
      </trkpt>
      <trkpt lat="47.18508" lon="-1.74645">
        <ele>75</ele>
        <time>2021-08-06T15:46:01.000Z</time>
      </trkpt>
      <trkpt lat="47.18506" lon="-1.74663">
        <ele>75</ele>
        <time>2021-08-06T15:46:03.000Z</time>
      </trkpt>
      <trkpt lat="47.18504" lon="-1.74681">
        <ele>75</ele>
        <time>2021-08-06T15:46:05.000Z</time>
      </trkpt>
      <trkpt lat="47.18501" lon="-1.74698">
        <ele>76</ele>
        <time>2021-08-06T15:46:07.000Z</time>
      </trkpt>
      <trkpt lat="47.18499" lon="-1.74715">
        <ele>76</ele>
        <time>2021-08-06T15:46:09.000Z</time>
      </trkpt>
      <trkpt lat="47.18497" lon="-1.74733">
        <ele>76</ele>
        <time>2021-08-06T15:46:11.000Z</time>
      </trkpt>
      <trkpt lat="47.18495" lon="-1.74751">
        <ele>76</ele>
        <time>2021-08-06T15:46:13.000Z</time>
      </trkpt>
      <trkpt lat="47.18493" lon="-1.74769">
        <ele>75</ele>
        <time>2021-08-06T15:46:15.000Z</time>
      </trkpt>
      <trkpt lat="47.1849" lon="-1.74787">
        <ele>75</ele>
        <time>2021-08-06T15:46:17.000Z</time>
      </trkpt>
      <trkpt lat="47.18488" lon="-1.74804">
        <ele>75</ele>
        <time>2021-08-06T15:46:19.000Z</time>
      </trkpt>
      <trkpt lat="47.18485" lon="-1.74822">
        <ele>74</ele>
        <time>2021-08-06T15:46:21.000Z</time>
      </trkpt>
      <trkpt lat="47.18481" lon="-1.74839">
        <ele>74</ele>
        <time>2021-08-06T15:46:23.000Z</time>
      </trkpt>
      <trkpt lat="47.18478" lon="-1.74856">
        <ele>74</ele>
        <time>2021-08-06T15:46:25.000Z</time>
      </trkpt>
      <trkpt lat="47.18475" lon="-1.74874">
        <ele>74</ele>
        <time>2021-08-06T15:46:27.000Z</time>
      </trkpt>
      <trkpt lat="47.18472" lon="-1.74892">
        <ele>73</ele>
        <time>2021-08-06T15:46:29.000Z</time>
      </trkpt>
      <trkpt lat="47.18468" lon="-1.7491">
        <ele>73</ele>
        <time>2021-08-06T15:46:31.000Z</time>
      </trkpt>
      <trkpt lat="47.18464" lon="-1.74929">
        <ele>73</ele>
        <time>2021-08-06T15:46:33.000Z</time>
      </trkpt>
      <trkpt lat="47.1846" lon="-1.74948">
        <ele>72</ele>
        <time>2021-08-06T15:46:35.000Z</time>
      </trkpt>
      <trkpt lat="47.18457" lon="-1.74968">
        <ele>71</ele>
        <time>2021-08-06T15:46:37.000Z</time>
      </trkpt>
      <trkpt lat="47.18454" lon="-1.74987">
        <ele>71</ele>
        <time>2021-08-06T15:46:39.000Z</time>
      </trkpt>
      <trkpt lat="47.1845" lon="-1.75007">
        <ele>70</ele>
        <time>2021-08-06T15:46:41.000Z</time>
      </trkpt>
      <trkpt lat="47.18446" lon="-1.75027">
        <ele>70</ele>
        <time>2021-08-06T15:46:43.000Z</time>
      </trkpt>
      <trkpt lat="47.18442" lon="-1.75047">
        <ele>70</ele>
        <time>2021-08-06T15:46:45.000Z</time>
      </trkpt>
      <trkpt lat="47.18438" lon="-1.75067">
        <ele>69</ele>
        <time>2021-08-06T15:46:47.000Z</time>
      </trkpt>
      <trkpt lat="47.18435" lon="-1.75087">
        <ele>68</ele>
        <time>2021-08-06T15:46:49.000Z</time>
      </trkpt>
      <trkpt lat="47.18431" lon="-1.75106">
        <ele>68</ele>
        <time>2021-08-06T15:46:51.000Z</time>
      </trkpt>
      <trkpt lat="47.18427" lon="-1.75125">
        <ele>68</ele>
        <time>2021-08-06T15:46:53.000Z</time>
      </trkpt>
      <trkpt lat="47.18424" lon="-1.75144">
        <ele>68</ele>
        <time>2021-08-06T15:46:55.000Z</time>
      </trkpt>
      <trkpt lat="47.1842" lon="-1.75162">
        <ele>67</ele>
        <time>2021-08-06T15:46:57.000Z</time>
      </trkpt>
      <trkpt lat="47.18416" lon="-1.75181">
        <ele>67</ele>
        <time>2021-08-06T15:46:59.000Z</time>
      </trkpt>
      <trkpt lat="47.18413" lon="-1.75198">
        <ele>67</ele>
        <time>2021-08-06T15:47:01.000Z</time>
      </trkpt>
      <trkpt lat="47.18411" lon="-1.75215">
        <ele>67</ele>
        <time>2021-08-06T15:47:03.000Z</time>
      </trkpt>
      <trkpt lat="47.18408" lon="-1.75233">
        <ele>67</ele>
        <time>2021-08-06T15:47:05.000Z</time>
      </trkpt>
      <trkpt lat="47.18406" lon="-1.75251">
        <ele>67</ele>
        <time>2021-08-06T15:47:07.000Z</time>
      </trkpt>
      <trkpt lat="47.18403" lon="-1.75269">
        <ele>67</ele>
        <time>2021-08-06T15:47:09.000Z</time>
      </trkpt>
      <trkpt lat="47.18401" lon="-1.75286">
        <ele>67</ele>
        <time>2021-08-06T15:47:11.000Z</time>
      </trkpt>
      <trkpt lat="47.184" lon="-1.75304">
        <ele>67</ele>
        <time>2021-08-06T15:47:13.000Z</time>
      </trkpt>
      <trkpt lat="47.18398" lon="-1.75321">
        <ele>67</ele>
        <time>2021-08-06T15:47:15.000Z</time>
      </trkpt>
      <trkpt lat="47.18398" lon="-1.75339">
        <ele>67</ele>
        <time>2021-08-06T15:47:17.000Z</time>
      </trkpt>
      <trkpt lat="47.18397" lon="-1.75357">
        <ele>67</ele>
        <time>2021-08-06T15:47:19.000Z</time>
      </trkpt>
      <trkpt lat="47.18398" lon="-1.75374">
        <ele>66</ele>
        <time>2021-08-06T15:47:21.000Z</time>
      </trkpt>
      <trkpt lat="47.184" lon="-1.75391">
        <ele>66</ele>
        <time>2021-08-06T15:47:23.000Z</time>
      </trkpt>
      <trkpt lat="47.18402" lon="-1.75408">
        <ele>66</ele>
        <time>2021-08-06T15:47:25.000Z</time>
      </trkpt>
      <trkpt lat="47.18402" lon="-1.75426">
        <ele>66</ele>
        <time>2021-08-06T15:47:27.000Z</time>
      </trkpt>
      <trkpt lat="47.18399" lon="-1.75443">
        <ele>66</ele>
        <time>2021-08-06T15:47:29.000Z</time>
      </trkpt>
      <trkpt lat="47.18397" lon="-1.75459">
        <ele>66</ele>
        <time>2021-08-06T15:47:31.000Z</time>
      </trkpt>
      <trkpt lat="47.18397" lon="-1.75476">
        <ele>66</ele>
        <time>2021-08-06T15:47:33.000Z</time>
      </trkpt>
      <trkpt lat="47.18398" lon="-1.75492">
        <ele>66</ele>
        <time>2021-08-06T15:47:35.000Z</time>
      </trkpt>
      <trkpt lat="47.18399" lon="-1.75508">
        <ele>67</ele>
        <time>2021-08-06T15:47:37.000Z</time>
      </trkpt>
      <trkpt lat="47.184" lon="-1.75523">
        <ele>68</ele>
        <time>2021-08-06T15:47:39.000Z</time>
      </trkpt>
      <trkpt lat="47.18401" lon="-1.75538">
        <ele>68</ele>
        <time>2021-08-06T15:47:41.000Z</time>
      </trkpt>
      <trkpt lat="47.18402" lon="-1.75554">
        <ele>68</ele>
        <time>2021-08-06T15:47:43.000Z</time>
      </trkpt>
      <trkpt lat="47.18403" lon="-1.7557">
        <ele>69</ele>
        <time>2021-08-06T15:47:45.000Z</time>
      </trkpt>
      <trkpt lat="47.18404" lon="-1.75586">
        <ele>69</ele>
        <time>2021-08-06T15:47:47.000Z</time>
      </trkpt>
      <trkpt lat="47.18405" lon="-1.75602">
        <ele>69</ele>
        <time>2021-08-06T15:47:49.000Z</time>
      </trkpt>
      <trkpt lat="47.18406" lon="-1.75619">
        <ele>69</ele>
        <time>2021-08-06T15:47:51.000Z</time>
      </trkpt>
      <trkpt lat="47.18407" lon="-1.75635">
        <ele>70</ele>
        <time>2021-08-06T15:47:53.000Z</time>
      </trkpt>
      <trkpt lat="47.18408" lon="-1.7565">
        <ele>70</ele>
        <time>2021-08-06T15:47:55.000Z</time>
      </trkpt>
      <trkpt lat="47.18409" lon="-1.75667">
        <ele>70</ele>
        <time>2021-08-06T15:47:57.000Z</time>
      </trkpt>
      <trkpt lat="47.18409" lon="-1.75684">
        <ele>70</ele>
        <time>2021-08-06T15:47:59.000Z</time>
      </trkpt>
      <trkpt lat="47.18409" lon="-1.757">
        <ele>70</ele>
        <time>2021-08-06T15:48:01.000Z</time>
      </trkpt>
      <trkpt lat="47.18408" lon="-1.75716">
        <ele>70</ele>
        <time>2021-08-06T15:48:03.000Z</time>
      </trkpt>
      <trkpt lat="47.18408" lon="-1.75731">
        <ele>70</ele>
        <time>2021-08-06T15:48:05.000Z</time>
      </trkpt>
      <trkpt lat="47.18407" lon="-1.75746">
        <ele>70</ele>
        <time>2021-08-06T15:48:07.000Z</time>
      </trkpt>
      <trkpt lat="47.18406" lon="-1.75762">
        <ele>70</ele>
        <time>2021-08-06T15:48:09.000Z</time>
      </trkpt>
      <trkpt lat="47.18404" lon="-1.75778">
        <ele>70</ele>
        <time>2021-08-06T15:48:11.000Z</time>
      </trkpt>
      <trkpt lat="47.18403" lon="-1.75793">
        <ele>69</ele>
        <time>2021-08-06T15:48:13.000Z</time>
      </trkpt>
      <trkpt lat="47.18401" lon="-1.75809">
        <ele>69</ele>
        <time>2021-08-06T15:48:15.000Z</time>
      </trkpt>
      <trkpt lat="47.18399" lon="-1.75825">
        <ele>69</ele>
        <time>2021-08-06T15:48:17.000Z</time>
      </trkpt>
      <trkpt lat="47.18397" lon="-1.75842">
        <ele>69</ele>
        <time>2021-08-06T15:48:19.000Z</time>
      </trkpt>
      <trkpt lat="47.18395" lon="-1.75859">
        <ele>69</ele>
        <time>2021-08-06T15:48:21.000Z</time>
      </trkpt>
      <trkpt lat="47.18393" lon="-1.75876">
        <ele>68</ele>
        <time>2021-08-06T15:48:23.000Z</time>
      </trkpt>
      <trkpt lat="47.18391" lon="-1.75894">
        <ele>68</ele>
        <time>2021-08-06T15:48:25.000Z</time>
      </trkpt>
      <trkpt lat="47.18389" lon="-1.75912">
        <ele>67</ele>
        <time>2021-08-06T15:48:27.000Z</time>
      </trkpt>
      <trkpt lat="47.18387" lon="-1.7593">
        <ele>67</ele>
        <time>2021-08-06T15:48:29.000Z</time>
      </trkpt>
      <trkpt lat="47.18385" lon="-1.75948">
        <ele>67</ele>
        <time>2021-08-06T15:48:31.000Z</time>
      </trkpt>
      <trkpt lat="47.18382" lon="-1.75967">
        <ele>66</ele>
        <time>2021-08-06T15:48:33.000Z</time>
      </trkpt>
      <trkpt lat="47.1838" lon="-1.75986">
        <ele>66</ele>
        <time>2021-08-06T15:48:35.000Z</time>
      </trkpt>
      <trkpt lat="47.18378" lon="-1.76004">
        <ele>66</ele>
        <time>2021-08-06T15:48:37.000Z</time>
      </trkpt>
      <trkpt lat="47.18377" lon="-1.76023">
        <ele>66</ele>
        <time>2021-08-06T15:48:39.000Z</time>
      </trkpt>
      <trkpt lat="47.18374" lon="-1.76041">
        <ele>66</ele>
        <time>2021-08-06T15:48:41.000Z</time>
      </trkpt>
      <trkpt lat="47.18372" lon="-1.76059">
        <ele>66</ele>
        <time>2021-08-06T15:48:43.000Z</time>
      </trkpt>
      <trkpt lat="47.1837" lon="-1.76077">
        <ele>66</ele>
        <time>2021-08-06T15:48:45.000Z</time>
      </trkpt>
      <trkpt lat="47.18368" lon="-1.76096">
        <ele>65</ele>
        <time>2021-08-06T15:48:47.000Z</time>
      </trkpt>
      <trkpt lat="47.18365" lon="-1.76114">
        <ele>65</ele>
        <time>2021-08-06T15:48:49.000Z</time>
      </trkpt>
      <trkpt lat="47.18363" lon="-1.76133">
        <ele>65</ele>
        <time>2021-08-06T15:48:51.000Z</time>
      </trkpt>
      <trkpt lat="47.18361" lon="-1.76153">
        <ele>64</ele>
        <time>2021-08-06T15:48:53.000Z</time>
      </trkpt>
      <trkpt lat="47.18358" lon="-1.76172">
        <ele>64</ele>
        <time>2021-08-06T15:48:55.000Z</time>
      </trkpt>
      <trkpt lat="47.18356" lon="-1.76191">
        <ele>63</ele>
        <time>2021-08-06T15:48:57.000Z</time>
      </trkpt>
      <trkpt lat="47.18354" lon="-1.7621">
        <ele>63</ele>
        <time>2021-08-06T15:48:59.000Z</time>
      </trkpt>
      <trkpt lat="47.18352" lon="-1.76228">
        <ele>63</ele>
        <time>2021-08-06T15:49:01.000Z</time>
      </trkpt>
      <trkpt lat="47.1835" lon="-1.76247">
        <ele>63</ele>
        <time>2021-08-06T15:49:03.000Z</time>
      </trkpt>
      <trkpt lat="47.18348" lon="-1.76266">
        <ele>63</ele>
        <time>2021-08-06T15:49:05.000Z</time>
      </trkpt>
      <trkpt lat="47.18346" lon="-1.76285">
        <ele>62</ele>
        <time>2021-08-06T15:49:07.000Z</time>
      </trkpt>
      <trkpt lat="47.18345" lon="-1.76304">
        <ele>62</ele>
        <time>2021-08-06T15:49:09.000Z</time>
      </trkpt>
      <trkpt lat="47.18344" lon="-1.76322">
        <ele>62</ele>
        <time>2021-08-06T15:49:11.000Z</time>
      </trkpt>
      <trkpt lat="47.18343" lon="-1.7634">
        <ele>63</ele>
        <time>2021-08-06T15:49:13.000Z</time>
      </trkpt>
      <trkpt lat="47.18342" lon="-1.76358">
        <ele>63</ele>
        <time>2021-08-06T15:49:15.000Z</time>
      </trkpt>
      <trkpt lat="47.18342" lon="-1.76376">
        <ele>63</ele>
        <time>2021-08-06T15:49:17.000Z</time>
      </trkpt>
      <trkpt lat="47.18341" lon="-1.76393">
        <ele>63</ele>
        <time>2021-08-06T15:49:19.000Z</time>
      </trkpt>
      <trkpt lat="47.1834" lon="-1.76411">
        <ele>63</ele>
        <time>2021-08-06T15:49:21.000Z</time>
      </trkpt>
      <trkpt lat="47.18339" lon="-1.76429">
        <ele>63</ele>
        <time>2021-08-06T15:49:23.000Z</time>
      </trkpt>
      <trkpt lat="47.18338" lon="-1.76448">
        <ele>64</ele>
        <time>2021-08-06T15:49:25.000Z</time>
      </trkpt>
      <trkpt lat="47.18337" lon="-1.76466">
        <ele>64</ele>
        <time>2021-08-06T15:49:27.000Z</time>
      </trkpt>
      <trkpt lat="47.18336" lon="-1.76484">
        <ele>64</ele>
        <time>2021-08-06T15:49:29.000Z</time>
      </trkpt>
      <trkpt lat="47.18335" lon="-1.76502">
        <ele>64</ele>
        <time>2021-08-06T15:49:31.000Z</time>
      </trkpt>
      <trkpt lat="47.18335" lon="-1.76521">
        <ele>64</ele>
        <time>2021-08-06T15:49:33.000Z</time>
      </trkpt>
      <trkpt lat="47.18335" lon="-1.76538">
        <ele>64</ele>
        <time>2021-08-06T15:49:35.000Z</time>
      </trkpt>
      <trkpt lat="47.18336" lon="-1.76556">
        <ele>65</ele>
        <time>2021-08-06T15:49:37.000Z</time>
      </trkpt>
      <trkpt lat="47.18336" lon="-1.76573">
        <ele>65</ele>
        <time>2021-08-06T15:49:39.000Z</time>
      </trkpt>
      <trkpt lat="47.18337" lon="-1.76591">
        <ele>65</ele>
        <time>2021-08-06T15:49:41.000Z</time>
      </trkpt>
      <trkpt lat="47.18338" lon="-1.76609">
        <ele>66</ele>
        <time>2021-08-06T15:49:43.000Z</time>
      </trkpt>
      <trkpt lat="47.1834" lon="-1.76627">
        <ele>66</ele>
        <time>2021-08-06T15:49:45.000Z</time>
      </trkpt>
      <trkpt lat="47.18341" lon="-1.76644">
        <ele>66</ele>
        <time>2021-08-06T15:49:47.000Z</time>
      </trkpt>
      <trkpt lat="47.18343" lon="-1.76662">
        <ele>66</ele>
        <time>2021-08-06T15:49:49.000Z</time>
      </trkpt>
      <trkpt lat="47.18345" lon="-1.76679">
        <ele>66</ele>
        <time>2021-08-06T15:49:51.000Z</time>
      </trkpt>
      <trkpt lat="47.18346" lon="-1.76695">
        <ele>67</ele>
        <time>2021-08-06T15:49:53.000Z</time>
      </trkpt>
      <trkpt lat="47.18348" lon="-1.76712">
        <ele>67</ele>
        <time>2021-08-06T15:49:55.000Z</time>
      </trkpt>
      <trkpt lat="47.1835" lon="-1.76729">
        <ele>67</ele>
        <time>2021-08-06T15:49:57.000Z</time>
      </trkpt>
      <trkpt lat="47.18351" lon="-1.76746">
        <ele>67</ele>
        <time>2021-08-06T15:49:59.000Z</time>
      </trkpt>
      <trkpt lat="47.18353" lon="-1.76763">
        <ele>68</ele>
        <time>2021-08-06T15:50:01.000Z</time>
      </trkpt>
      <trkpt lat="47.18355" lon="-1.7678">
        <ele>68</ele>
        <time>2021-08-06T15:50:03.000Z</time>
      </trkpt>
      <trkpt lat="47.18356" lon="-1.76798">
        <ele>68</ele>
        <time>2021-08-06T15:50:05.000Z</time>
      </trkpt>
      <trkpt lat="47.18358" lon="-1.76815">
        <ele>68</ele>
        <time>2021-08-06T15:50:07.000Z</time>
      </trkpt>
      <trkpt lat="47.1836" lon="-1.76832">
        <ele>69</ele>
        <time>2021-08-06T15:50:09.000Z</time>
      </trkpt>
      <trkpt lat="47.18362" lon="-1.76849">
        <ele>69</ele>
        <time>2021-08-06T15:50:11.000Z</time>
      </trkpt>
      <trkpt lat="47.18364" lon="-1.76865">
        <ele>69</ele>
        <time>2021-08-06T15:50:13.000Z</time>
      </trkpt>
      <trkpt lat="47.18366" lon="-1.76881">
        <ele>69</ele>
        <time>2021-08-06T15:50:15.000Z</time>
      </trkpt>
      <trkpt lat="47.18367" lon="-1.76897">
        <ele>69</ele>
        <time>2021-08-06T15:50:17.000Z</time>
      </trkpt>
      <trkpt lat="47.18369" lon="-1.76913">
        <ele>69</ele>
        <time>2021-08-06T15:50:19.000Z</time>
      </trkpt>
      <trkpt lat="47.1837" lon="-1.76929">
        <ele>69</ele>
        <time>2021-08-06T15:50:21.000Z</time>
      </trkpt>
      <trkpt lat="47.18372" lon="-1.76945">
        <ele>70</ele>
        <time>2021-08-06T15:50:23.000Z</time>
      </trkpt>
      <trkpt lat="47.18373" lon="-1.7696">
        <ele>70</ele>
        <time>2021-08-06T15:50:25.000Z</time>
      </trkpt>
      <trkpt lat="47.18375" lon="-1.76975">
        <ele>71</ele>
        <time>2021-08-06T15:50:27.000Z</time>
      </trkpt>
      <trkpt lat="47.18376" lon="-1.7699">
        <ele>71</ele>
        <time>2021-08-06T15:50:29.000Z</time>
      </trkpt>
      <trkpt lat="47.18377" lon="-1.77005">
        <ele>71</ele>
        <time>2021-08-06T15:50:31.000Z</time>
      </trkpt>
      <trkpt lat="47.18377" lon="-1.77021">
        <ele>72</ele>
        <time>2021-08-06T15:50:33.000Z</time>
      </trkpt>
      <trkpt lat="47.18377" lon="-1.77037">
        <ele>72</ele>
        <time>2021-08-06T15:50:35.000Z</time>
      </trkpt>
      <trkpt lat="47.18376" lon="-1.77053">
        <ele>72</ele>
        <time>2021-08-06T15:50:37.000Z</time>
      </trkpt>
      <trkpt lat="47.18376" lon="-1.77069">
        <ele>72</ele>
        <time>2021-08-06T15:50:39.000Z</time>
      </trkpt>
      <trkpt lat="47.18375" lon="-1.77084">
        <ele>72</ele>
        <time>2021-08-06T15:50:41.000Z</time>
      </trkpt>
      <trkpt lat="47.18373" lon="-1.771">
        <ele>73</ele>
        <time>2021-08-06T15:50:43.000Z</time>
      </trkpt>
      <trkpt lat="47.18372" lon="-1.77115">
        <ele>73</ele>
        <time>2021-08-06T15:50:45.000Z</time>
      </trkpt>
      <trkpt lat="47.1837" lon="-1.77131">
        <ele>73</ele>
        <time>2021-08-06T15:50:47.000Z</time>
      </trkpt>
      <trkpt lat="47.18368" lon="-1.77147">
        <ele>74</ele>
        <time>2021-08-06T15:50:49.000Z</time>
      </trkpt>
      <trkpt lat="47.18367" lon="-1.77163">
        <ele>73</ele>
        <time>2021-08-06T15:50:51.000Z</time>
      </trkpt>
      <trkpt lat="47.18365" lon="-1.77178">
        <ele>74</ele>
        <time>2021-08-06T15:50:53.000Z</time>
      </trkpt>
      <trkpt lat="47.18364" lon="-1.77193">
        <ele>73</ele>
        <time>2021-08-06T15:50:55.000Z</time>
      </trkpt>
      <trkpt lat="47.18363" lon="-1.77208">
        <ele>73</ele>
        <time>2021-08-06T15:50:57.000Z</time>
      </trkpt>
      <trkpt lat="47.18362" lon="-1.77223">
        <ele>74</ele>
        <time>2021-08-06T15:50:59.000Z</time>
      </trkpt>
      <trkpt lat="47.18362" lon="-1.77239">
        <ele>74</ele>
        <time>2021-08-06T15:51:01.000Z</time>
      </trkpt>
      <trkpt lat="47.18362" lon="-1.77254">
        <ele>74</ele>
        <time>2021-08-06T15:51:03.000Z</time>
      </trkpt>
      <trkpt lat="47.18363" lon="-1.77271">
        <ele>74</ele>
        <time>2021-08-06T15:51:05.000Z</time>
      </trkpt>
      <trkpt lat="47.18364" lon="-1.77287">
        <ele>74</ele>
        <time>2021-08-06T15:51:07.000Z</time>
      </trkpt>
      <trkpt lat="47.18364" lon="-1.77303">
        <ele>74</ele>
        <time>2021-08-06T15:51:09.000Z</time>
      </trkpt>
      <trkpt lat="47.18365" lon="-1.7732">
        <ele>74</ele>
        <time>2021-08-06T15:51:11.000Z</time>
      </trkpt>
      <trkpt lat="47.18366" lon="-1.77337">
        <ele>74</ele>
        <time>2021-08-06T15:51:13.000Z</time>
      </trkpt>
      <trkpt lat="47.18367" lon="-1.77353">
        <ele>74</ele>
        <time>2021-08-06T15:51:15.000Z</time>
      </trkpt>
      <trkpt lat="47.18368" lon="-1.7737">
        <ele>74</ele>
        <time>2021-08-06T15:51:17.000Z</time>
      </trkpt>
      <trkpt lat="47.18368" lon="-1.77386">
        <ele>74</ele>
        <time>2021-08-06T15:51:19.000Z</time>
      </trkpt>
      <trkpt lat="47.1837" lon="-1.77404">
        <ele>74</ele>
        <time>2021-08-06T15:51:21.000Z</time>
      </trkpt>
      <trkpt lat="47.1837" lon="-1.77421">
        <ele>74</ele>
        <time>2021-08-06T15:51:23.000Z</time>
      </trkpt>
      <trkpt lat="47.18371" lon="-1.77438">
        <ele>74</ele>
        <time>2021-08-06T15:51:25.000Z</time>
      </trkpt>
      <trkpt lat="47.18372" lon="-1.77455">
        <ele>74</ele>
        <time>2021-08-06T15:51:27.000Z</time>
      </trkpt>
      <trkpt lat="47.18372" lon="-1.77472">
        <ele>74</ele>
        <time>2021-08-06T15:51:29.000Z</time>
      </trkpt>
      <trkpt lat="47.18372" lon="-1.77489">
        <ele>74</ele>
        <time>2021-08-06T15:51:31.000Z</time>
      </trkpt>
      <trkpt lat="47.18372" lon="-1.77507">
        <ele>74</ele>
        <time>2021-08-06T15:51:33.000Z</time>
      </trkpt>
      <trkpt lat="47.18371" lon="-1.77524">
        <ele>74</ele>
        <time>2021-08-06T15:51:35.000Z</time>
      </trkpt>
      <trkpt lat="47.1837" lon="-1.77541">
        <ele>74</ele>
        <time>2021-08-06T15:51:37.000Z</time>
      </trkpt>
      <trkpt lat="47.18367" lon="-1.77558">
        <ele>74</ele>
        <time>2021-08-06T15:51:39.000Z</time>
      </trkpt>
      <trkpt lat="47.18364" lon="-1.77574">
        <ele>74</ele>
        <time>2021-08-06T15:51:41.000Z</time>
      </trkpt>
      <trkpt lat="47.18359" lon="-1.7759">
        <ele>73</ele>
        <time>2021-08-06T15:51:43.000Z</time>
      </trkpt>
      <trkpt lat="47.18355" lon="-1.77606">
        <ele>73</ele>
        <time>2021-08-06T15:51:45.000Z</time>
      </trkpt>
      <trkpt lat="47.18349" lon="-1.77623">
        <ele>73</ele>
        <time>2021-08-06T15:51:47.000Z</time>
      </trkpt>
      <trkpt lat="47.18344" lon="-1.77639">
        <ele>73</ele>
        <time>2021-08-06T15:51:49.000Z</time>
      </trkpt>
      <trkpt lat="47.18339" lon="-1.77654">
        <ele>73</ele>
        <time>2021-08-06T15:51:51.000Z</time>
      </trkpt>
      <trkpt lat="47.18334" lon="-1.7767">
        <ele>73</ele>
        <time>2021-08-06T15:51:53.000Z</time>
      </trkpt>
      <trkpt lat="47.18329" lon="-1.77685">
        <ele>73</ele>
        <time>2021-08-06T15:51:55.000Z</time>
      </trkpt>
      <trkpt lat="47.18324" lon="-1.77701">
        <ele>73</ele>
        <time>2021-08-06T15:51:57.000Z</time>
      </trkpt>
      <trkpt lat="47.18319" lon="-1.77716">
        <ele>73</ele>
        <time>2021-08-06T15:51:59.000Z</time>
      </trkpt>
      <trkpt lat="47.18314" lon="-1.77731">
        <ele>72</ele>
        <time>2021-08-06T15:52:01.000Z</time>
      </trkpt>
      <trkpt lat="47.18309" lon="-1.77747">
        <ele>72</ele>
        <time>2021-08-06T15:52:03.000Z</time>
      </trkpt>
      <trkpt lat="47.18304" lon="-1.77762">
        <ele>72</ele>
        <time>2021-08-06T15:52:05.000Z</time>
      </trkpt>
      <trkpt lat="47.18298" lon="-1.77777">
        <ele>72</ele>
        <time>2021-08-06T15:52:07.000Z</time>
      </trkpt>
      <trkpt lat="47.18293" lon="-1.77793">
        <ele>72</ele>
        <time>2021-08-06T15:52:09.000Z</time>
      </trkpt>
      <trkpt lat="47.18289" lon="-1.77809">
        <ele>72</ele>
        <time>2021-08-06T15:52:11.000Z</time>
      </trkpt>
      <trkpt lat="47.18283" lon="-1.77825">
        <ele>72</ele>
        <time>2021-08-06T15:52:13.000Z</time>
      </trkpt>
      <trkpt lat="47.18278" lon="-1.77841">
        <ele>72</ele>
        <time>2021-08-06T15:52:15.000Z</time>
      </trkpt>
      <trkpt lat="47.18275" lon="-1.77856">
        <ele>72</ele>
        <time>2021-08-06T15:52:17.000Z</time>
      </trkpt>
      <trkpt lat="47.18278" lon="-1.77869">
        <ele>73</ele>
        <time>2021-08-06T15:52:19.000Z</time>
      </trkpt>
      <trkpt lat="47.18285" lon="-1.7788">
        <ele>73</ele>
        <time>2021-08-06T15:52:24.000Z</time>
      </trkpt>
      <trkpt lat="47.18293" lon="-1.77892">
        <ele>74</ele>
        <time>2021-08-06T15:52:27.000Z</time>
      </trkpt>
      <trkpt lat="47.18299" lon="-1.77903">
        <ele>74</ele>
        <time>2021-08-06T15:52:29.000Z</time>
      </trkpt>
      <trkpt lat="47.18298" lon="-1.77919">
        <ele>74</ele>
        <time>2021-08-06T15:52:31.000Z</time>
      </trkpt>
      <trkpt lat="47.18292" lon="-1.77933">
        <ele>74</ele>
        <time>2021-08-06T15:52:33.000Z</time>
      </trkpt>
      <trkpt lat="47.1828" lon="-1.77942">
        <ele>74</ele>
        <time>2021-08-06T15:52:35.000Z</time>
      </trkpt>
      <trkpt lat="47.18269" lon="-1.77951">
        <ele>74</ele>
        <time>2021-08-06T15:52:37.000Z</time>
      </trkpt>
      <trkpt lat="47.18259" lon="-1.77964">
        <ele>74</ele>
        <time>2021-08-06T15:52:39.000Z</time>
      </trkpt>
      <trkpt lat="47.1825" lon="-1.7798">
        <ele>74</ele>
        <time>2021-08-06T15:52:41.000Z</time>
      </trkpt>
      <trkpt lat="47.18241" lon="-1.77994">
        <ele>74</ele>
        <time>2021-08-06T15:52:43.000Z</time>
      </trkpt>
      <trkpt lat="47.18232" lon="-1.7801">
        <ele>74</ele>
        <time>2021-08-06T15:52:45.000Z</time>
      </trkpt>
      <trkpt lat="47.18224" lon="-1.78025">
        <ele>73</ele>
        <time>2021-08-06T15:52:47.000Z</time>
      </trkpt>
      <trkpt lat="47.18215" lon="-1.78041">
        <ele>74</ele>
        <time>2021-08-06T15:52:49.000Z</time>
      </trkpt>
      <trkpt lat="47.18206" lon="-1.78057">
        <ele>74</ele>
        <time>2021-08-06T15:52:51.000Z</time>
      </trkpt>
      <trkpt lat="47.18197" lon="-1.78073">
        <ele>74</ele>
        <time>2021-08-06T15:52:53.000Z</time>
      </trkpt>
      <trkpt lat="47.18189" lon="-1.7809">
        <ele>74</ele>
        <time>2021-08-06T15:52:55.000Z</time>
      </trkpt>
      <trkpt lat="47.1818" lon="-1.78105">
        <ele>74</ele>
        <time>2021-08-06T15:52:57.000Z</time>
      </trkpt>
      <trkpt lat="47.18171" lon="-1.78121">
        <ele>74</ele>
        <time>2021-08-06T15:52:59.000Z</time>
      </trkpt>
      <trkpt lat="47.18162" lon="-1.78137">
        <ele>74</ele>
        <time>2021-08-06T15:53:01.000Z</time>
      </trkpt>
      <trkpt lat="47.18154" lon="-1.78152">
        <ele>74</ele>
        <time>2021-08-06T15:53:03.000Z</time>
      </trkpt>
      <trkpt lat="47.18145" lon="-1.78167">
        <ele>74</ele>
        <time>2021-08-06T15:53:05.000Z</time>
      </trkpt>
      <trkpt lat="47.18136" lon="-1.78181">
        <ele>74</ele>
        <time>2021-08-06T15:53:07.000Z</time>
      </trkpt>
      <trkpt lat="47.18125" lon="-1.78194">
        <ele>74</ele>
        <time>2021-08-06T15:53:09.000Z</time>
      </trkpt>
      <trkpt lat="47.18115" lon="-1.78206">
        <ele>74</ele>
        <time>2021-08-06T15:53:11.000Z</time>
      </trkpt>
      <trkpt lat="47.18103" lon="-1.78217">
        <ele>74</ele>
        <time>2021-08-06T15:53:13.000Z</time>
      </trkpt>
      <trkpt lat="47.18091" lon="-1.78227">
        <ele>74</ele>
        <time>2021-08-06T15:53:15.000Z</time>
      </trkpt>
      <trkpt lat="47.18078" lon="-1.78235">
        <ele>73</ele>
        <time>2021-08-06T15:53:17.000Z</time>
      </trkpt>
      <trkpt lat="47.18065" lon="-1.78242">
        <ele>73</ele>
        <time>2021-08-06T15:53:19.000Z</time>
      </trkpt>
      <trkpt lat="47.18052" lon="-1.78247">
        <ele>73</ele>
        <time>2021-08-06T15:53:21.000Z</time>
      </trkpt>
      <trkpt lat="47.18038" lon="-1.7825">
        <ele>73</ele>
        <time>2021-08-06T15:53:23.000Z</time>
      </trkpt>
      <trkpt lat="47.18022" lon="-1.78253">
        <ele>73</ele>
        <time>2021-08-06T15:53:25.000Z</time>
      </trkpt>
      <trkpt lat="47.18008" lon="-1.78257">
        <ele>72</ele>
        <time>2021-08-06T15:53:27.000Z</time>
      </trkpt>
      <trkpt lat="47.17993" lon="-1.7826">
        <ele>72</ele>
        <time>2021-08-06T15:53:29.000Z</time>
      </trkpt>
      <trkpt lat="47.17978" lon="-1.78263">
        <ele>72</ele>
        <time>2021-08-06T15:53:31.000Z</time>
      </trkpt>
      <trkpt lat="47.17963" lon="-1.78265">
        <ele>71</ele>
        <time>2021-08-06T15:53:33.000Z</time>
      </trkpt>
      <trkpt lat="47.17947" lon="-1.78268">
        <ele>71</ele>
        <time>2021-08-06T15:53:35.000Z</time>
      </trkpt>
      <trkpt lat="47.17932" lon="-1.78272">
        <ele>70</ele>
        <time>2021-08-06T15:53:37.000Z</time>
      </trkpt>
      <trkpt lat="47.17917" lon="-1.78275">
        <ele>70</ele>
        <time>2021-08-06T15:53:39.000Z</time>
      </trkpt>
      <trkpt lat="47.17902" lon="-1.78278">
        <ele>70</ele>
        <time>2021-08-06T15:53:41.000Z</time>
      </trkpt>
      <trkpt lat="47.17887" lon="-1.78281">
        <ele>69</ele>
        <time>2021-08-06T15:53:43.000Z</time>
      </trkpt>
      <trkpt lat="47.17872" lon="-1.78285">
        <ele>69</ele>
        <time>2021-08-06T15:53:45.000Z</time>
      </trkpt>
      <trkpt lat="47.17857" lon="-1.78291">
        <ele>68</ele>
        <time>2021-08-06T15:53:47.000Z</time>
      </trkpt>
      <trkpt lat="47.17843" lon="-1.78299">
        <ele>68</ele>
        <time>2021-08-06T15:53:49.000Z</time>
      </trkpt>
      <trkpt lat="47.1783" lon="-1.78311">
        <ele>68</ele>
        <time>2021-08-06T15:53:51.000Z</time>
      </trkpt>
      <trkpt lat="47.17818" lon="-1.78326">
        <ele>68</ele>
        <time>2021-08-06T15:53:53.000Z</time>
      </trkpt>
      <trkpt lat="47.17809" lon="-1.78341">
        <ele>67</ele>
        <time>2021-08-06T15:53:55.000Z</time>
      </trkpt>
      <trkpt lat="47.17799" lon="-1.78357">
        <ele>67</ele>
        <time>2021-08-06T15:53:57.000Z</time>
      </trkpt>
      <trkpt lat="47.1779" lon="-1.78374">
        <ele>67</ele>
        <time>2021-08-06T15:53:59.000Z</time>
      </trkpt>
      <trkpt lat="47.17781" lon="-1.7839">
        <ele>67</ele>
        <time>2021-08-06T15:54:01.000Z</time>
      </trkpt>
      <trkpt lat="47.17772" lon="-1.78405">
        <ele>68</ele>
        <time>2021-08-06T15:54:03.000Z</time>
      </trkpt>
      <trkpt lat="47.17762" lon="-1.78422">
        <ele>67</ele>
        <time>2021-08-06T15:54:05.000Z</time>
      </trkpt>
      <trkpt lat="47.17753" lon="-1.78437">
        <ele>67</ele>
        <time>2021-08-06T15:54:07.000Z</time>
      </trkpt>
      <trkpt lat="47.17743" lon="-1.78453">
        <ele>67</ele>
        <time>2021-08-06T15:54:09.000Z</time>
      </trkpt>
      <trkpt lat="47.17733" lon="-1.78467">
        <ele>66</ele>
        <time>2021-08-06T15:54:11.000Z</time>
      </trkpt>
      <trkpt lat="47.17721" lon="-1.78481">
        <ele>67</ele>
        <time>2021-08-06T15:54:13.000Z</time>
      </trkpt>
      <trkpt lat="47.1771" lon="-1.78494">
        <ele>67</ele>
        <time>2021-08-06T15:54:15.000Z</time>
      </trkpt>
      <trkpt lat="47.17697" lon="-1.78507">
        <ele>66</ele>
        <time>2021-08-06T15:54:17.000Z</time>
      </trkpt>
      <trkpt lat="47.17685" lon="-1.7852">
        <ele>67</ele>
        <time>2021-08-06T15:54:19.000Z</time>
      </trkpt>
      <trkpt lat="47.17673" lon="-1.78534">
        <ele>66</ele>
        <time>2021-08-06T15:54:21.000Z</time>
      </trkpt>
      <trkpt lat="47.17661" lon="-1.78547">
        <ele>66</ele>
        <time>2021-08-06T15:54:23.000Z</time>
      </trkpt>
      <trkpt lat="47.17649" lon="-1.7856">
        <ele>65</ele>
        <time>2021-08-06T15:54:25.000Z</time>
      </trkpt>
      <trkpt lat="47.17637" lon="-1.78573">
        <ele>65</ele>
        <time>2021-08-06T15:54:27.000Z</time>
      </trkpt>
      <trkpt lat="47.17625" lon="-1.78586">
        <ele>65</ele>
        <time>2021-08-06T15:54:29.000Z</time>
      </trkpt>
      <trkpt lat="47.17613" lon="-1.78597">
        <ele>65</ele>
        <time>2021-08-06T15:54:31.000Z</time>
      </trkpt>
      <trkpt lat="47.176" lon="-1.78607">
        <ele>65</ele>
        <time>2021-08-06T15:54:33.000Z</time>
      </trkpt>
      <trkpt lat="47.17585" lon="-1.78616">
        <ele>65</ele>
        <time>2021-08-06T15:54:35.000Z</time>
      </trkpt>
      <trkpt lat="47.17571" lon="-1.78625">
        <ele>65</ele>
        <time>2021-08-06T15:54:37.000Z</time>
      </trkpt>
      <trkpt lat="47.17558" lon="-1.78633">
        <ele>65</ele>
        <time>2021-08-06T15:54:39.000Z</time>
      </trkpt>
      <trkpt lat="47.17544" lon="-1.78641">
        <ele>65</ele>
        <time>2021-08-06T15:54:41.000Z</time>
      </trkpt>
      <trkpt lat="47.17531" lon="-1.78649">
        <ele>65</ele>
        <time>2021-08-06T15:54:43.000Z</time>
      </trkpt>
      <trkpt lat="47.17517" lon="-1.78657">
        <ele>65</ele>
        <time>2021-08-06T15:54:45.000Z</time>
      </trkpt>
      <trkpt lat="47.17504" lon="-1.78665">
        <ele>65</ele>
        <time>2021-08-06T15:54:47.000Z</time>
      </trkpt>
      <trkpt lat="47.1749" lon="-1.78673">
        <ele>64</ele>
        <time>2021-08-06T15:54:49.000Z</time>
      </trkpt>
      <trkpt lat="47.17477" lon="-1.78682">
        <ele>64</ele>
        <time>2021-08-06T15:54:51.000Z</time>
      </trkpt>
      <trkpt lat="47.17464" lon="-1.7869">
        <ele>64</ele>
        <time>2021-08-06T15:54:53.000Z</time>
      </trkpt>
      <trkpt lat="47.17452" lon="-1.787">
        <ele>64</ele>
        <time>2021-08-06T15:54:55.000Z</time>
      </trkpt>
      <trkpt lat="47.17438" lon="-1.78704">
        <ele>63</ele>
        <time>2021-08-06T15:54:57.000Z</time>
      </trkpt>
      <trkpt lat="47.17424" lon="-1.78706">
        <ele>63</ele>
        <time>2021-08-06T15:54:59.000Z</time>
      </trkpt>
      <trkpt lat="47.17409" lon="-1.78711">
        <ele>63</ele>
        <time>2021-08-06T15:55:01.000Z</time>
      </trkpt>
      <trkpt lat="47.17396" lon="-1.78716">
        <ele>63</ele>
        <time>2021-08-06T15:55:03.000Z</time>
      </trkpt>
      <trkpt lat="47.17382" lon="-1.78722">
        <ele>62</ele>
        <time>2021-08-06T15:55:05.000Z</time>
      </trkpt>
      <trkpt lat="47.17369" lon="-1.7873">
        <ele>62</ele>
        <time>2021-08-06T15:55:07.000Z</time>
      </trkpt>
      <trkpt lat="47.17355" lon="-1.78736">
        <ele>62</ele>
        <time>2021-08-06T15:55:09.000Z</time>
      </trkpt>
      <trkpt lat="47.17341" lon="-1.78738">
        <ele>62</ele>
        <time>2021-08-06T15:55:11.000Z</time>
      </trkpt>
      <trkpt lat="47.17327" lon="-1.78742">
        <ele>61</ele>
        <time>2021-08-06T15:55:13.000Z</time>
      </trkpt>
      <trkpt lat="47.17313" lon="-1.78745">
        <ele>60</ele>
        <time>2021-08-06T15:55:15.000Z</time>
      </trkpt>
      <trkpt lat="47.17297" lon="-1.78748">
        <ele>60</ele>
        <time>2021-08-06T15:55:17.000Z</time>
      </trkpt>
      <trkpt lat="47.17281" lon="-1.78751">
        <ele>59</ele>
        <time>2021-08-06T15:55:19.000Z</time>
      </trkpt>
      <trkpt lat="47.17265" lon="-1.78755">
        <ele>58</ele>
        <time>2021-08-06T15:55:21.000Z</time>
      </trkpt>
      <trkpt lat="47.17249" lon="-1.78759">
        <ele>58</ele>
        <time>2021-08-06T15:55:23.000Z</time>
      </trkpt>
      <trkpt lat="47.17233" lon="-1.78763">
        <ele>58</ele>
        <time>2021-08-06T15:55:25.000Z</time>
      </trkpt>
      <trkpt lat="47.17208" lon="-1.78767">
        <ele>57</ele>
        <time>2021-08-06T15:55:28.000Z</time>
      </trkpt>
      <trkpt lat="47.17184" lon="-1.78764">
        <ele>57</ele>
        <time>2021-08-06T15:55:31.000Z</time>
      </trkpt>
      <trkpt lat="47.17169" lon="-1.78757">
        <ele>56</ele>
        <time>2021-08-06T15:55:33.000Z</time>
      </trkpt>
      <trkpt lat="47.17153" lon="-1.78747">
        <ele>55</ele>
        <time>2021-08-06T15:55:35.000Z</time>
      </trkpt>
      <trkpt lat="47.17139" lon="-1.78733">
        <ele>55</ele>
        <time>2021-08-06T15:55:37.000Z</time>
      </trkpt>
      <trkpt lat="47.1712" lon="-1.78708">
        <ele>55</ele>
        <time>2021-08-06T15:55:40.000Z</time>
      </trkpt>
      <trkpt lat="47.17108" lon="-1.78691">
        <ele>55</ele>
        <time>2021-08-06T15:55:42.000Z</time>
      </trkpt>
      <trkpt lat="47.17097" lon="-1.78676">
        <ele>56</ele>
        <time>2021-08-06T15:55:44.000Z</time>
      </trkpt>
      <trkpt lat="47.17081" lon="-1.78655">
        <ele>57</ele>
        <time>2021-08-06T15:55:47.000Z</time>
      </trkpt>
      <trkpt lat="47.17068" lon="-1.78634">
        <ele>58</ele>
        <time>2021-08-06T15:55:50.000Z</time>
      </trkpt>
      <trkpt lat="47.17058" lon="-1.78619">
        <ele>57</ele>
        <time>2021-08-06T15:55:52.000Z</time>
      </trkpt>
      <trkpt lat="47.17048" lon="-1.78605">
        <ele>57</ele>
        <time>2021-08-06T15:55:54.000Z</time>
      </trkpt>
      <trkpt lat="47.17037" lon="-1.7859">
        <ele>57</ele>
        <time>2021-08-06T15:55:56.000Z</time>
      </trkpt>
      <trkpt lat="47.17027" lon="-1.78575">
        <ele>57</ele>
        <time>2021-08-06T15:55:58.000Z</time>
      </trkpt>
      <trkpt lat="47.17012" lon="-1.78553">
        <ele>58</ele>
        <time>2021-08-06T15:56:01.000Z</time>
      </trkpt>
      <trkpt lat="47.17003" lon="-1.7854">
        <ele>59</ele>
        <time>2021-08-06T15:56:03.000Z</time>
      </trkpt>
      <trkpt lat="47.16994" lon="-1.78526">
        <ele>59</ele>
        <time>2021-08-06T15:56:05.000Z</time>
      </trkpt>
      <trkpt lat="47.16985" lon="-1.78513">
        <ele>60</ele>
        <time>2021-08-06T15:56:07.000Z</time>
      </trkpt>
      <trkpt lat="47.16977" lon="-1.78501">
        <ele>60</ele>
        <time>2021-08-06T15:56:09.000Z</time>
      </trkpt>
      <trkpt lat="47.16968" lon="-1.78489">
        <ele>61</ele>
        <time>2021-08-06T15:56:11.000Z</time>
      </trkpt>
      <trkpt lat="47.1696" lon="-1.78477">
        <ele>62</ele>
        <time>2021-08-06T15:56:13.000Z</time>
      </trkpt>
      <trkpt lat="47.16952" lon="-1.78464">
        <ele>63</ele>
        <time>2021-08-06T15:56:15.000Z</time>
      </trkpt>
      <trkpt lat="47.16943" lon="-1.78452">
        <ele>64</ele>
        <time>2021-08-06T15:56:17.000Z</time>
      </trkpt>
      <trkpt lat="47.16935" lon="-1.7844">
        <ele>64</ele>
        <time>2021-08-06T15:56:19.000Z</time>
      </trkpt>
      <trkpt lat="47.16926" lon="-1.78428">
        <ele>65</ele>
        <time>2021-08-06T15:56:21.000Z</time>
      </trkpt>
      <trkpt lat="47.16917" lon="-1.78415">
        <ele>66</ele>
        <time>2021-08-06T15:56:23.000Z</time>
      </trkpt>
      <trkpt lat="47.16908" lon="-1.78404">
        <ele>66</ele>
        <time>2021-08-06T15:56:25.000Z</time>
      </trkpt>
      <trkpt lat="47.16899" lon="-1.78392">
        <ele>66</ele>
        <time>2021-08-06T15:56:27.000Z</time>
      </trkpt>
      <trkpt lat="47.1689" lon="-1.7838">
        <ele>67</ele>
        <time>2021-08-06T15:56:29.000Z</time>
      </trkpt>
      <trkpt lat="47.1688" lon="-1.78371">
        <ele>67</ele>
        <time>2021-08-06T15:56:31.000Z</time>
      </trkpt>
      <trkpt lat="47.1687" lon="-1.7836">
        <ele>68</ele>
        <time>2021-08-06T15:56:33.000Z</time>
      </trkpt>
      <trkpt lat="47.1686" lon="-1.78351">
        <ele>69</ele>
        <time>2021-08-06T15:56:35.000Z</time>
      </trkpt>
      <trkpt lat="47.16848" lon="-1.78343">
        <ele>69</ele>
        <time>2021-08-06T15:56:37.000Z</time>
      </trkpt>
      <trkpt lat="47.16836" lon="-1.78338">
        <ele>69</ele>
        <time>2021-08-06T15:56:39.000Z</time>
      </trkpt>
      <trkpt lat="47.16822" lon="-1.78335">
        <ele>69</ele>
        <time>2021-08-06T15:56:41.000Z</time>
      </trkpt>
      <trkpt lat="47.16809" lon="-1.78334">
        <ele>69</ele>
        <time>2021-08-06T15:56:43.000Z</time>
      </trkpt>
      <trkpt lat="47.16795" lon="-1.78335">
        <ele>69</ele>
        <time>2021-08-06T15:56:45.000Z</time>
      </trkpt>
      <trkpt lat="47.16781" lon="-1.78337">
        <ele>69</ele>
        <time>2021-08-06T15:56:47.000Z</time>
      </trkpt>
      <trkpt lat="47.16767" lon="-1.7834">
        <ele>68</ele>
        <time>2021-08-06T15:56:49.000Z</time>
      </trkpt>
      <trkpt lat="47.16753" lon="-1.78343">
        <ele>67</ele>
        <time>2021-08-06T15:56:51.000Z</time>
      </trkpt>
      <trkpt lat="47.16738" lon="-1.78345">
        <ele>66</ele>
        <time>2021-08-06T15:56:53.000Z</time>
      </trkpt>
      <trkpt lat="47.16724" lon="-1.78348">
        <ele>65</ele>
        <time>2021-08-06T15:56:55.000Z</time>
      </trkpt>
      <trkpt lat="47.16709" lon="-1.78351">
        <ele>65</ele>
        <time>2021-08-06T15:56:57.000Z</time>
      </trkpt>
      <trkpt lat="47.16694" lon="-1.78353">
        <ele>64</ele>
        <time>2021-08-06T15:56:59.000Z</time>
      </trkpt>
      <trkpt lat="47.16679" lon="-1.78355">
        <ele>64</ele>
        <time>2021-08-06T15:57:01.000Z</time>
      </trkpt>
      <trkpt lat="47.16663" lon="-1.78359">
        <ele>63</ele>
        <time>2021-08-06T15:57:03.000Z</time>
      </trkpt>
      <trkpt lat="47.16646" lon="-1.78362">
        <ele>63</ele>
        <time>2021-08-06T15:57:05.000Z</time>
      </trkpt>
      <trkpt lat="47.16629" lon="-1.78365">
        <ele>62</ele>
        <time>2021-08-06T15:57:07.000Z</time>
      </trkpt>
      <trkpt lat="47.16613" lon="-1.78368">
        <ele>62</ele>
        <time>2021-08-06T15:57:09.000Z</time>
      </trkpt>
      <trkpt lat="47.16596" lon="-1.78371">
        <ele>61</ele>
        <time>2021-08-06T15:57:11.000Z</time>
      </trkpt>
      <trkpt lat="47.16579" lon="-1.78374">
        <ele>61</ele>
        <time>2021-08-06T15:57:13.000Z</time>
      </trkpt>
      <trkpt lat="47.16562" lon="-1.78377">
        <ele>60</ele>
        <time>2021-08-06T15:57:15.000Z</time>
      </trkpt>
      <trkpt lat="47.16545" lon="-1.78379">
        <ele>60</ele>
        <time>2021-08-06T15:57:17.000Z</time>
      </trkpt>
      <trkpt lat="47.16527" lon="-1.7838">
        <ele>59</ele>
        <time>2021-08-06T15:57:19.000Z</time>
      </trkpt>
      <trkpt lat="47.1651" lon="-1.78381">
        <ele>58</ele>
        <time>2021-08-06T15:57:21.000Z</time>
      </trkpt>
      <trkpt lat="47.16493" lon="-1.78382">
        <ele>57</ele>
        <time>2021-08-06T15:57:23.000Z</time>
      </trkpt>
      <trkpt lat="47.16475" lon="-1.78383">
        <ele>57</ele>
        <time>2021-08-06T15:57:25.000Z</time>
      </trkpt>
      <trkpt lat="47.16458" lon="-1.78384">
        <ele>57</ele>
        <time>2021-08-06T15:57:27.000Z</time>
      </trkpt>
      <trkpt lat="47.16441" lon="-1.78385">
        <ele>56</ele>
        <time>2021-08-06T15:57:29.000Z</time>
      </trkpt>
      <trkpt lat="47.16424" lon="-1.78386">
        <ele>56</ele>
        <time>2021-08-06T15:57:31.000Z</time>
      </trkpt>
      <trkpt lat="47.16407" lon="-1.78386">
        <ele>56</ele>
        <time>2021-08-06T15:57:33.000Z</time>
      </trkpt>
      <trkpt lat="47.1639" lon="-1.78387">
        <ele>56</ele>
        <time>2021-08-06T15:57:35.000Z</time>
      </trkpt>
      <trkpt lat="47.16374" lon="-1.78388">
        <ele>55</ele>
        <time>2021-08-06T15:57:37.000Z</time>
      </trkpt>
      <trkpt lat="47.16357" lon="-1.78389">
        <ele>55</ele>
        <time>2021-08-06T15:57:39.000Z</time>
      </trkpt>
      <trkpt lat="47.16342" lon="-1.7839">
        <ele>56</ele>
        <time>2021-08-06T15:57:41.000Z</time>
      </trkpt>
      <trkpt lat="47.16326" lon="-1.78391">
        <ele>55</ele>
        <time>2021-08-06T15:57:43.000Z</time>
      </trkpt>
      <trkpt lat="47.1631" lon="-1.78392">
        <ele>56</ele>
        <time>2021-08-06T15:57:45.000Z</time>
      </trkpt>
      <trkpt lat="47.16294" lon="-1.78394">
        <ele>56</ele>
        <time>2021-08-06T15:57:47.000Z</time>
      </trkpt>
      <trkpt lat="47.16279" lon="-1.78397">
        <ele>56</ele>
        <time>2021-08-06T15:57:49.000Z</time>
      </trkpt>
      <trkpt lat="47.16264" lon="-1.78399">
        <ele>56</ele>
        <time>2021-08-06T15:57:51.000Z</time>
      </trkpt>
      <trkpt lat="47.16248" lon="-1.78404">
        <ele>56</ele>
        <time>2021-08-06T15:57:53.000Z</time>
      </trkpt>
      <trkpt lat="47.16233" lon="-1.7841">
        <ele>55</ele>
        <time>2021-08-06T15:57:55.000Z</time>
      </trkpt>
      <trkpt lat="47.16218" lon="-1.78417">
        <ele>55</ele>
        <time>2021-08-06T15:57:57.000Z</time>
      </trkpt>
      <trkpt lat="47.16203" lon="-1.78427">
        <ele>55</ele>
        <time>2021-08-06T15:57:59.000Z</time>
      </trkpt>
      <trkpt lat="47.1619" lon="-1.78438">
        <ele>54</ele>
        <time>2021-08-06T15:58:01.000Z</time>
      </trkpt>
      <trkpt lat="47.16177" lon="-1.7845">
        <ele>54</ele>
        <time>2021-08-06T15:58:03.000Z</time>
      </trkpt>
      <trkpt lat="47.16166" lon="-1.78463">
        <ele>54</ele>
        <time>2021-08-06T15:58:05.000Z</time>
      </trkpt>
      <trkpt lat="47.16154" lon="-1.78476">
        <ele>54</ele>
        <time>2021-08-06T15:58:07.000Z</time>
      </trkpt>
      <trkpt lat="47.16143" lon="-1.7849">
        <ele>54</ele>
        <time>2021-08-06T15:58:09.000Z</time>
      </trkpt>
      <trkpt lat="47.16132" lon="-1.78505">
        <ele>53</ele>
        <time>2021-08-06T15:58:11.000Z</time>
      </trkpt>
      <trkpt lat="47.16122" lon="-1.7852">
        <ele>53</ele>
        <time>2021-08-06T15:58:13.000Z</time>
      </trkpt>
      <trkpt lat="47.16112" lon="-1.78537">
        <ele>54</ele>
        <time>2021-08-06T15:58:15.000Z</time>
      </trkpt>
      <trkpt lat="47.16103" lon="-1.78553">
        <ele>54</ele>
        <time>2021-08-06T15:58:17.000Z</time>
      </trkpt>
      <trkpt lat="47.16095" lon="-1.7857">
        <ele>54</ele>
        <time>2021-08-06T15:58:19.000Z</time>
      </trkpt>
      <trkpt lat="47.16087" lon="-1.78588">
        <ele>54</ele>
        <time>2021-08-06T15:58:21.000Z</time>
      </trkpt>
      <trkpt lat="47.1608" lon="-1.78606">
        <ele>54</ele>
        <time>2021-08-06T15:58:23.000Z</time>
      </trkpt>
      <trkpt lat="47.16073" lon="-1.78625">
        <ele>53</ele>
        <time>2021-08-06T15:58:25.000Z</time>
      </trkpt>
      <trkpt lat="47.16067" lon="-1.78645">
        <ele>54</ele>
        <time>2021-08-06T15:58:27.000Z</time>
      </trkpt>
      <trkpt lat="47.16062" lon="-1.78665">
        <ele>54</ele>
        <time>2021-08-06T15:58:29.000Z</time>
      </trkpt>
      <trkpt lat="47.16057" lon="-1.78684">
        <ele>54</ele>
        <time>2021-08-06T15:58:31.000Z</time>
      </trkpt>
      <trkpt lat="47.16053" lon="-1.78702">
        <ele>54</ele>
        <time>2021-08-06T15:58:33.000Z</time>
      </trkpt>
      <trkpt lat="47.16051" lon="-1.78721">
        <ele>53</ele>
        <time>2021-08-06T15:58:35.000Z</time>
      </trkpt>
      <trkpt lat="47.16048" lon="-1.7874">
        <ele>54</ele>
        <time>2021-08-06T15:58:37.000Z</time>
      </trkpt>
      <trkpt lat="47.16046" lon="-1.78759">
        <ele>54</ele>
        <time>2021-08-06T15:58:39.000Z</time>
      </trkpt>
      <trkpt lat="47.16044" lon="-1.78779">
        <ele>53</ele>
        <time>2021-08-06T15:58:41.000Z</time>
      </trkpt>
      <trkpt lat="47.16042" lon="-1.78799">
        <ele>53</ele>
        <time>2021-08-06T15:58:43.000Z</time>
      </trkpt>
      <trkpt lat="47.1604" lon="-1.78818">
        <ele>54</ele>
        <time>2021-08-06T15:58:45.000Z</time>
      </trkpt>
      <trkpt lat="47.16038" lon="-1.78838">
        <ele>54</ele>
        <time>2021-08-06T15:58:47.000Z</time>
      </trkpt>
      <trkpt lat="47.16036" lon="-1.78857">
        <ele>54</ele>
        <time>2021-08-06T15:58:49.000Z</time>
      </trkpt>
      <trkpt lat="47.16034" lon="-1.78875">
        <ele>55</ele>
        <time>2021-08-06T15:58:51.000Z</time>
      </trkpt>
      <trkpt lat="47.16033" lon="-1.78893">
        <ele>55</ele>
        <time>2021-08-06T15:58:53.000Z</time>
      </trkpt>
      <trkpt lat="47.16031" lon="-1.7891">
        <ele>55</ele>
        <time>2021-08-06T15:58:55.000Z</time>
      </trkpt>
      <trkpt lat="47.16029" lon="-1.78927">
        <ele>56</ele>
        <time>2021-08-06T15:58:57.000Z</time>
      </trkpt>
      <trkpt lat="47.16028" lon="-1.78945">
        <ele>56</ele>
        <time>2021-08-06T15:58:59.000Z</time>
      </trkpt>
      <trkpt lat="47.16026" lon="-1.78961">
        <ele>57</ele>
        <time>2021-08-06T15:59:01.000Z</time>
      </trkpt>
      <trkpt lat="47.16024" lon="-1.78978">
        <ele>57</ele>
        <time>2021-08-06T15:59:03.000Z</time>
      </trkpt>
      <trkpt lat="47.16023" lon="-1.78994">
        <ele>58</ele>
        <time>2021-08-06T15:59:05.000Z</time>
      </trkpt>
      <trkpt lat="47.16021" lon="-1.79009">
        <ele>58</ele>
        <time>2021-08-06T15:59:07.000Z</time>
      </trkpt>
      <trkpt lat="47.16017" lon="-1.79026">
        <ele>58</ele>
        <time>2021-08-06T15:59:09.000Z</time>
      </trkpt>
      <trkpt lat="47.16011" lon="-1.79041">
        <ele>59</ele>
        <time>2021-08-06T15:59:11.000Z</time>
      </trkpt>
      <trkpt lat="47.16004" lon="-1.79053">
        <ele>59</ele>
        <time>2021-08-06T15:59:13.000Z</time>
      </trkpt>
      <trkpt lat="47.15996" lon="-1.79065">
        <ele>59</ele>
        <time>2021-08-06T15:59:15.000Z</time>
      </trkpt>
      <trkpt lat="47.15988" lon="-1.79077">
        <ele>59</ele>
        <time>2021-08-06T15:59:17.000Z</time>
      </trkpt>
      <trkpt lat="47.15979" lon="-1.79089">
        <ele>59</ele>
        <time>2021-08-06T15:59:19.000Z</time>
      </trkpt>
      <trkpt lat="47.1597" lon="-1.791">
        <ele>59</ele>
        <time>2021-08-06T15:59:21.000Z</time>
      </trkpt>
      <trkpt lat="47.15962" lon="-1.79111">
        <ele>60</ele>
        <time>2021-08-06T15:59:23.000Z</time>
      </trkpt>
      <trkpt lat="47.15954" lon="-1.79122">
        <ele>60</ele>
        <time>2021-08-06T15:59:25.000Z</time>
      </trkpt>
      <trkpt lat="47.15947" lon="-1.79133">
        <ele>60</ele>
        <time>2021-08-06T15:59:27.000Z</time>
      </trkpt>
      <trkpt lat="47.15939" lon="-1.79145">
        <ele>60</ele>
        <time>2021-08-06T15:59:29.000Z</time>
      </trkpt>
      <trkpt lat="47.15932" lon="-1.79157">
        <ele>61</ele>
        <time>2021-08-06T15:59:31.000Z</time>
      </trkpt>
      <trkpt lat="47.15926" lon="-1.7917">
        <ele>61</ele>
        <time>2021-08-06T15:59:33.000Z</time>
      </trkpt>
      <trkpt lat="47.15921" lon="-1.79183">
        <ele>62</ele>
        <time>2021-08-06T15:59:35.000Z</time>
      </trkpt>
      <trkpt lat="47.15915" lon="-1.79195">
        <ele>63</ele>
        <time>2021-08-06T15:59:37.000Z</time>
      </trkpt>
      <trkpt lat="47.1591" lon="-1.79208">
        <ele>63</ele>
        <time>2021-08-06T15:59:39.000Z</time>
      </trkpt>
      <trkpt lat="47.15905" lon="-1.79221">
        <ele>64</ele>
        <time>2021-08-06T15:59:41.000Z</time>
      </trkpt>
      <trkpt lat="47.15901" lon="-1.79234">
        <ele>64</ele>
        <time>2021-08-06T15:59:43.000Z</time>
      </trkpt>
      <trkpt lat="47.15896" lon="-1.79246">
        <ele>65</ele>
        <time>2021-08-06T15:59:45.000Z</time>
      </trkpt>
      <trkpt lat="47.15892" lon="-1.79259">
        <ele>66</ele>
        <time>2021-08-06T15:59:47.000Z</time>
      </trkpt>
      <trkpt lat="47.15887" lon="-1.79272">
        <ele>66</ele>
        <time>2021-08-06T15:59:49.000Z</time>
      </trkpt>
      <trkpt lat="47.15883" lon="-1.79284">
        <ele>67</ele>
        <time>2021-08-06T15:59:51.000Z</time>
      </trkpt>
      <trkpt lat="47.15878" lon="-1.79296">
        <ele>67</ele>
        <time>2021-08-06T15:59:53.000Z</time>
      </trkpt>
      <trkpt lat="47.15873" lon="-1.79308">
        <ele>68</ele>
        <time>2021-08-06T15:59:55.000Z</time>
      </trkpt>
      <trkpt lat="47.15869" lon="-1.7932">
        <ele>69</ele>
        <time>2021-08-06T15:59:57.000Z</time>
      </trkpt>
      <trkpt lat="47.15865" lon="-1.79332">
        <ele>69</ele>
        <time>2021-08-06T15:59:59.000Z</time>
      </trkpt>
      <trkpt lat="47.1586" lon="-1.79344">
        <ele>70</ele>
        <time>2021-08-06T16:00:01.000Z</time>
      </trkpt>
      <trkpt lat="47.15856" lon="-1.79357">
        <ele>70</ele>
        <time>2021-08-06T16:00:03.000Z</time>
      </trkpt>
      <trkpt lat="47.15851" lon="-1.79368">
        <ele>70</ele>
        <time>2021-08-06T16:00:05.000Z</time>
      </trkpt>
      <trkpt lat="47.15847" lon="-1.7938">
        <ele>70</ele>
        <time>2021-08-06T16:00:07.000Z</time>
      </trkpt>
      <trkpt lat="47.15843" lon="-1.79392">
        <ele>71</ele>
        <time>2021-08-06T16:00:09.000Z</time>
      </trkpt>
      <trkpt lat="47.15838" lon="-1.79404">
        <ele>72</ele>
        <time>2021-08-06T16:00:11.000Z</time>
      </trkpt>
      <trkpt lat="47.15834" lon="-1.79416">
        <ele>72</ele>
        <time>2021-08-06T16:00:13.000Z</time>
      </trkpt>
      <trkpt lat="47.15829" lon="-1.79428">
        <ele>72</ele>
        <time>2021-08-06T16:00:15.000Z</time>
      </trkpt>
      <trkpt lat="47.15825" lon="-1.7944">
        <ele>73</ele>
        <time>2021-08-06T16:00:17.000Z</time>
      </trkpt>
      <trkpt lat="47.1582" lon="-1.79451">
        <ele>73</ele>
        <time>2021-08-06T16:00:19.000Z</time>
      </trkpt>
      <trkpt lat="47.15815" lon="-1.79462">
        <ele>74</ele>
        <time>2021-08-06T16:00:21.000Z</time>
      </trkpt>
      <trkpt lat="47.15808" lon="-1.79471">
        <ele>74</ele>
        <time>2021-08-06T16:00:23.000Z</time>
      </trkpt>
      <trkpt lat="47.15798" lon="-1.79484">
        <ele>75</ele>
        <time>2021-08-06T16:00:26.000Z</time>
      </trkpt>
      <trkpt lat="47.15791" lon="-1.79492">
        <ele>75</ele>
        <time>2021-08-06T16:00:28.000Z</time>
      </trkpt>
      <trkpt lat="47.15783" lon="-1.795">
        <ele>75</ele>
        <time>2021-08-06T16:00:30.000Z</time>
      </trkpt>
      <trkpt lat="47.15775" lon="-1.79507">
        <ele>75</ele>
        <time>2021-08-06T16:00:32.000Z</time>
      </trkpt>
      <trkpt lat="47.15766" lon="-1.79513">
        <ele>76</ele>
        <time>2021-08-06T16:00:34.000Z</time>
      </trkpt>
      <trkpt lat="47.15758" lon="-1.7952">
        <ele>76</ele>
        <time>2021-08-06T16:00:36.000Z</time>
      </trkpt>
      <trkpt lat="47.15749" lon="-1.79526">
        <ele>76</ele>
        <time>2021-08-06T16:00:38.000Z</time>
      </trkpt>
      <trkpt lat="47.1574" lon="-1.79533">
        <ele>76</ele>
        <time>2021-08-06T16:00:40.000Z</time>
      </trkpt>
      <trkpt lat="47.15731" lon="-1.7954">
        <ele>76</ele>
        <time>2021-08-06T16:00:42.000Z</time>
      </trkpt>
      <trkpt lat="47.15722" lon="-1.79548">
        <ele>76</ele>
        <time>2021-08-06T16:00:44.000Z</time>
      </trkpt>
      <trkpt lat="47.15713" lon="-1.79554">
        <ele>77</ele>
        <time>2021-08-06T16:00:46.000Z</time>
      </trkpt>
      <trkpt lat="47.15704" lon="-1.7956">
        <ele>77</ele>
        <time>2021-08-06T16:00:48.000Z</time>
      </trkpt>
      <trkpt lat="47.15696" lon="-1.79566">
        <ele>77</ele>
        <time>2021-08-06T16:00:50.000Z</time>
      </trkpt>
      <trkpt lat="47.15688" lon="-1.79573">
        <ele>78</ele>
        <time>2021-08-06T16:00:52.000Z</time>
      </trkpt>
      <trkpt lat="47.15679" lon="-1.79579">
        <ele>79</ele>
        <time>2021-08-06T16:00:54.000Z</time>
      </trkpt>
      <trkpt lat="47.15671" lon="-1.79585">
        <ele>80</ele>
        <time>2021-08-06T16:00:56.000Z</time>
      </trkpt>
      <trkpt lat="47.15662" lon="-1.79591">
        <ele>80</ele>
        <time>2021-08-06T16:00:58.000Z</time>
      </trkpt>
      <trkpt lat="47.15653" lon="-1.79598">
        <ele>80</ele>
        <time>2021-08-06T16:01:00.000Z</time>
      </trkpt>
      <trkpt lat="47.15645" lon="-1.79604">
        <ele>81</ele>
        <time>2021-08-06T16:01:02.000Z</time>
      </trkpt>
      <trkpt lat="47.15636" lon="-1.7961">
        <ele>81</ele>
        <time>2021-08-06T16:01:04.000Z</time>
      </trkpt>
      <trkpt lat="47.15628" lon="-1.79616">
        <ele>81</ele>
        <time>2021-08-06T16:01:06.000Z</time>
      </trkpt>
      <trkpt lat="47.15619" lon="-1.79622">
        <ele>82</ele>
        <time>2021-08-06T16:01:08.000Z</time>
      </trkpt>
      <trkpt lat="47.15607" lon="-1.79631">
        <ele>83</ele>
        <time>2021-08-06T16:01:11.000Z</time>
      </trkpt>
      <trkpt lat="47.15596" lon="-1.79639">
        <ele>84</ele>
        <time>2021-08-06T16:01:14.000Z</time>
      </trkpt>
      <trkpt lat="47.15584" lon="-1.79649">
        <ele>84</ele>
        <time>2021-08-06T16:01:17.000Z</time>
      </trkpt>
      <trkpt lat="47.15576" lon="-1.79655">
        <ele>84</ele>
        <time>2021-08-06T16:01:19.000Z</time>
      </trkpt>
      <trkpt lat="47.15564" lon="-1.79664">
        <ele>85</ele>
        <time>2021-08-06T16:01:22.000Z</time>
      </trkpt>
      <trkpt lat="47.15552" lon="-1.79673">
        <ele>86</ele>
        <time>2021-08-06T16:01:25.000Z</time>
      </trkpt>
      <trkpt lat="47.15541" lon="-1.79682">
        <ele>86</ele>
        <time>2021-08-06T16:01:28.000Z</time>
      </trkpt>
      <trkpt lat="47.15533" lon="-1.79688">
        <ele>87</ele>
        <time>2021-08-06T16:01:30.000Z</time>
      </trkpt>
      <trkpt lat="47.15524" lon="-1.79693">
        <ele>88</ele>
        <time>2021-08-06T16:01:32.000Z</time>
      </trkpt>
      <trkpt lat="47.15516" lon="-1.797">
        <ele>88</ele>
        <time>2021-08-06T16:01:34.000Z</time>
      </trkpt>
      <trkpt lat="47.15507" lon="-1.79706">
        <ele>89</ele>
        <time>2021-08-06T16:01:36.000Z</time>
      </trkpt>
      <trkpt lat="47.15498" lon="-1.79713">
        <ele>89</ele>
        <time>2021-08-06T16:01:38.000Z</time>
      </trkpt>
      <trkpt lat="47.15489" lon="-1.79719">
        <ele>90</ele>
        <time>2021-08-06T16:01:40.000Z</time>
      </trkpt>
      <trkpt lat="47.1548" lon="-1.79726">
        <ele>90</ele>
        <time>2021-08-06T16:01:42.000Z</time>
      </trkpt>
      <trkpt lat="47.15471" lon="-1.79733">
        <ele>90</ele>
        <time>2021-08-06T16:01:44.000Z</time>
      </trkpt>
      <trkpt lat="47.15462" lon="-1.79739">
        <ele>91</ele>
        <time>2021-08-06T16:01:46.000Z</time>
      </trkpt>
      <trkpt lat="47.15453" lon="-1.79747">
        <ele>91</ele>
        <time>2021-08-06T16:01:48.000Z</time>
      </trkpt>
      <trkpt lat="47.15445" lon="-1.79755">
        <ele>91</ele>
        <time>2021-08-06T16:01:50.000Z</time>
      </trkpt>
      <trkpt lat="47.15435" lon="-1.79763">
        <ele>92</ele>
        <time>2021-08-06T16:01:52.000Z</time>
      </trkpt>
      <trkpt lat="47.15426" lon="-1.79771">
        <ele>92</ele>
        <time>2021-08-06T16:01:54.000Z</time>
      </trkpt>
      <trkpt lat="47.15417" lon="-1.79779">
        <ele>92</ele>
        <time>2021-08-06T16:01:56.000Z</time>
      </trkpt>
      <trkpt lat="47.15408" lon="-1.79786">
        <ele>92</ele>
        <time>2021-08-06T16:01:58.000Z</time>
      </trkpt>
      <trkpt lat="47.15399" lon="-1.79793">
        <ele>93</ele>
        <time>2021-08-06T16:02:00.000Z</time>
      </trkpt>
      <trkpt lat="47.15389" lon="-1.79801">
        <ele>93</ele>
        <time>2021-08-06T16:02:02.000Z</time>
      </trkpt>
      <trkpt lat="47.15381" lon="-1.79808">
        <ele>93</ele>
        <time>2021-08-06T16:02:04.000Z</time>
      </trkpt>
      <trkpt lat="47.15372" lon="-1.79816">
        <ele>94</ele>
        <time>2021-08-06T16:02:06.000Z</time>
      </trkpt>
      <trkpt lat="47.15363" lon="-1.79823">
        <ele>94</ele>
        <time>2021-08-06T16:02:08.000Z</time>
      </trkpt>
      <trkpt lat="47.15354" lon="-1.7983">
        <ele>95</ele>
        <time>2021-08-06T16:02:10.000Z</time>
      </trkpt>
      <trkpt lat="47.15345" lon="-1.79838">
        <ele>95</ele>
        <time>2021-08-06T16:02:12.000Z</time>
      </trkpt>
      <trkpt lat="47.15337" lon="-1.79846">
        <ele>96</ele>
        <time>2021-08-06T16:02:14.000Z</time>
      </trkpt>
      <trkpt lat="47.15328" lon="-1.79853">
        <ele>96</ele>
        <time>2021-08-06T16:02:16.000Z</time>
      </trkpt>
      <trkpt lat="47.15319" lon="-1.79861">
        <ele>96</ele>
        <time>2021-08-06T16:02:18.000Z</time>
      </trkpt>
      <trkpt lat="47.1531" lon="-1.79869">
        <ele>97</ele>
        <time>2021-08-06T16:02:20.000Z</time>
      </trkpt>
      <trkpt lat="47.15301" lon="-1.79877">
        <ele>97</ele>
        <time>2021-08-06T16:02:22.000Z</time>
      </trkpt>
      <trkpt lat="47.15291" lon="-1.79885">
        <ele>97</ele>
        <time>2021-08-06T16:02:24.000Z</time>
      </trkpt>
      <trkpt lat="47.15282" lon="-1.79894">
        <ele>98</ele>
        <time>2021-08-06T16:02:26.000Z</time>
      </trkpt>
      <trkpt lat="47.15272" lon="-1.79902">
        <ele>98</ele>
        <time>2021-08-06T16:02:28.000Z</time>
      </trkpt>
      <trkpt lat="47.15262" lon="-1.79911">
        <ele>97</ele>
        <time>2021-08-06T16:02:30.000Z</time>
      </trkpt>
      <trkpt lat="47.15251" lon="-1.7992">
        <ele>97</ele>
        <time>2021-08-06T16:02:32.000Z</time>
      </trkpt>
      <trkpt lat="47.1524" lon="-1.79929">
        <ele>97</ele>
        <time>2021-08-06T16:02:34.000Z</time>
      </trkpt>
      <trkpt lat="47.15229" lon="-1.79939">
        <ele>97</ele>
        <time>2021-08-06T16:02:36.000Z</time>
      </trkpt>
      <trkpt lat="47.15218" lon="-1.7995">
        <ele>97</ele>
        <time>2021-08-06T16:02:38.000Z</time>
      </trkpt>
      <trkpt lat="47.15207" lon="-1.7996">
        <ele>97</ele>
        <time>2021-08-06T16:02:40.000Z</time>
      </trkpt>
      <trkpt lat="47.15195" lon="-1.7997">
        <ele>97</ele>
        <time>2021-08-06T16:02:42.000Z</time>
      </trkpt>
      <trkpt lat="47.15184" lon="-1.7998">
        <ele>97</ele>
        <time>2021-08-06T16:02:44.000Z</time>
      </trkpt>
      <trkpt lat="47.15173" lon="-1.7999">
        <ele>97</ele>
        <time>2021-08-06T16:02:46.000Z</time>
      </trkpt>
      <trkpt lat="47.15162" lon="-1.80001">
        <ele>97</ele>
        <time>2021-08-06T16:02:48.000Z</time>
      </trkpt>
      <trkpt lat="47.15151" lon="-1.80012">
        <ele>97</ele>
        <time>2021-08-06T16:02:50.000Z</time>
      </trkpt>
      <trkpt lat="47.15142" lon="-1.80024">
        <ele>97</ele>
        <time>2021-08-06T16:02:52.000Z</time>
      </trkpt>
      <trkpt lat="47.15133" lon="-1.80038">
        <ele>97</ele>
        <time>2021-08-06T16:02:54.000Z</time>
      </trkpt>
      <trkpt lat="47.15124" lon="-1.80052">
        <ele>97</ele>
        <time>2021-08-06T16:02:56.000Z</time>
      </trkpt>
      <trkpt lat="47.15117" lon="-1.80068">
        <ele>97</ele>
        <time>2021-08-06T16:02:58.000Z</time>
      </trkpt>
      <trkpt lat="47.1511" lon="-1.80085">
        <ele>97</ele>
        <time>2021-08-06T16:03:00.000Z</time>
      </trkpt>
      <trkpt lat="47.15104" lon="-1.80101">
        <ele>97</ele>
        <time>2021-08-06T16:03:02.000Z</time>
      </trkpt>
      <trkpt lat="47.15097" lon="-1.80117">
        <ele>97</ele>
        <time>2021-08-06T16:03:04.000Z</time>
      </trkpt>
      <trkpt lat="47.15091" lon="-1.80134">
        <ele>96</ele>
        <time>2021-08-06T16:03:06.000Z</time>
      </trkpt>
      <trkpt lat="47.15084" lon="-1.8015">
        <ele>96</ele>
        <time>2021-08-06T16:03:08.000Z</time>
      </trkpt>
      <trkpt lat="47.15077" lon="-1.80167">
        <ele>96</ele>
        <time>2021-08-06T16:03:10.000Z</time>
      </trkpt>
      <trkpt lat="47.1507" lon="-1.80184">
        <ele>96</ele>
        <time>2021-08-06T16:03:12.000Z</time>
      </trkpt>
      <trkpt lat="47.15064" lon="-1.80202">
        <ele>96</ele>
        <time>2021-08-06T16:03:14.000Z</time>
      </trkpt>
      <trkpt lat="47.15056" lon="-1.80219">
        <ele>96</ele>
        <time>2021-08-06T16:03:16.000Z</time>
      </trkpt>
      <trkpt lat="47.1505" lon="-1.80236">
        <ele>96</ele>
        <time>2021-08-06T16:03:18.000Z</time>
      </trkpt>
      <trkpt lat="47.15043" lon="-1.80252">
        <ele>96</ele>
        <time>2021-08-06T16:03:20.000Z</time>
      </trkpt>
      <trkpt lat="47.15036" lon="-1.80269">
        <ele>96</ele>
        <time>2021-08-06T16:03:22.000Z</time>
      </trkpt>
      <trkpt lat="47.15029" lon="-1.80286">
        <ele>96</ele>
        <time>2021-08-06T16:03:24.000Z</time>
      </trkpt>
      <trkpt lat="47.15022" lon="-1.80303">
        <ele>96</ele>
        <time>2021-08-06T16:03:26.000Z</time>
      </trkpt>
      <trkpt lat="47.15015" lon="-1.80319">
        <ele>96</ele>
        <time>2021-08-06T16:03:28.000Z</time>
      </trkpt>
      <trkpt lat="47.15008" lon="-1.80336">
        <ele>95</ele>
        <time>2021-08-06T16:03:30.000Z</time>
      </trkpt>
      <trkpt lat="47.15" lon="-1.80353">
        <ele>95</ele>
        <time>2021-08-06T16:03:32.000Z</time>
      </trkpt>
      <trkpt lat="47.14992" lon="-1.80369">
        <ele>95</ele>
        <time>2021-08-06T16:03:34.000Z</time>
      </trkpt>
      <trkpt lat="47.14983" lon="-1.80384">
        <ele>95</ele>
        <time>2021-08-06T16:03:36.000Z</time>
      </trkpt>
      <trkpt lat="47.14973" lon="-1.80399">
        <ele>95</ele>
        <time>2021-08-06T16:03:38.000Z</time>
      </trkpt>
      <trkpt lat="47.14963" lon="-1.80412">
        <ele>94</ele>
        <time>2021-08-06T16:03:40.000Z</time>
      </trkpt>
      <trkpt lat="47.14952" lon="-1.80424">
        <ele>94</ele>
        <time>2021-08-06T16:03:42.000Z</time>
      </trkpt>
      <trkpt lat="47.14941" lon="-1.80436">
        <ele>94</ele>
        <time>2021-08-06T16:03:44.000Z</time>
      </trkpt>
      <trkpt lat="47.1493" lon="-1.80446">
        <ele>94</ele>
        <time>2021-08-06T16:03:46.000Z</time>
      </trkpt>
      <trkpt lat="47.14919" lon="-1.80455">
        <ele>94</ele>
        <time>2021-08-06T16:03:48.000Z</time>
      </trkpt>
      <trkpt lat="47.14906" lon="-1.80463">
        <ele>94</ele>
        <time>2021-08-06T16:03:50.000Z</time>
      </trkpt>
      <trkpt lat="47.14893" lon="-1.80471">
        <ele>93</ele>
        <time>2021-08-06T16:03:52.000Z</time>
      </trkpt>
      <trkpt lat="47.1488" lon="-1.80478">
        <ele>93</ele>
        <time>2021-08-06T16:03:54.000Z</time>
      </trkpt>
      <trkpt lat="47.14868" lon="-1.80486">
        <ele>93</ele>
        <time>2021-08-06T16:03:56.000Z</time>
      </trkpt>
      <trkpt lat="47.14855" lon="-1.80494">
        <ele>93</ele>
        <time>2021-08-06T16:03:58.000Z</time>
      </trkpt>
      <trkpt lat="47.14842" lon="-1.80501">
        <ele>93</ele>
        <time>2021-08-06T16:04:00.000Z</time>
      </trkpt>
      <trkpt lat="47.14829" lon="-1.80509">
        <ele>93</ele>
        <time>2021-08-06T16:04:02.000Z</time>
      </trkpt>
      <trkpt lat="47.14816" lon="-1.80516">
        <ele>93</ele>
        <time>2021-08-06T16:04:04.000Z</time>
      </trkpt>
      <trkpt lat="47.14803" lon="-1.80524">
        <ele>92</ele>
        <time>2021-08-06T16:04:06.000Z</time>
      </trkpt>
      <trkpt lat="47.1479" lon="-1.80532">
        <ele>92</ele>
        <time>2021-08-06T16:04:08.000Z</time>
      </trkpt>
      <trkpt lat="47.14777" lon="-1.8054">
        <ele>93</ele>
        <time>2021-08-06T16:04:10.000Z</time>
      </trkpt>
      <trkpt lat="47.14764" lon="-1.80548">
        <ele>93</ele>
        <time>2021-08-06T16:04:12.000Z</time>
      </trkpt>
      <trkpt lat="47.14751" lon="-1.80555">
        <ele>92</ele>
        <time>2021-08-06T16:04:14.000Z</time>
      </trkpt>
      <trkpt lat="47.14737" lon="-1.80564">
        <ele>92</ele>
        <time>2021-08-06T16:04:16.000Z</time>
      </trkpt>
      <trkpt lat="47.14723" lon="-1.80572">
        <ele>91</ele>
        <time>2021-08-06T16:04:18.000Z</time>
      </trkpt>
      <trkpt lat="47.1471" lon="-1.8058">
        <ele>91</ele>
        <time>2021-08-06T16:04:20.000Z</time>
      </trkpt>
      <trkpt lat="47.14696" lon="-1.80588">
        <ele>91</ele>
        <time>2021-08-06T16:04:22.000Z</time>
      </trkpt>
      <trkpt lat="47.14682" lon="-1.80597">
        <ele>92</ele>
        <time>2021-08-06T16:04:24.000Z</time>
      </trkpt>
      <trkpt lat="47.14668" lon="-1.80605">
        <ele>91</ele>
        <time>2021-08-06T16:04:26.000Z</time>
      </trkpt>
      <trkpt lat="47.14654" lon="-1.80613">
        <ele>91</ele>
        <time>2021-08-06T16:04:28.000Z</time>
      </trkpt>
      <trkpt lat="47.14639" lon="-1.80622">
        <ele>91</ele>
        <time>2021-08-06T16:04:30.000Z</time>
      </trkpt>
      <trkpt lat="47.14625" lon="-1.80631">
        <ele>91</ele>
        <time>2021-08-06T16:04:32.000Z</time>
      </trkpt>
      <trkpt lat="47.14611" lon="-1.80641">
        <ele>91</ele>
        <time>2021-08-06T16:04:34.000Z</time>
      </trkpt>
      <trkpt lat="47.14598" lon="-1.80652">
        <ele>91</ele>
        <time>2021-08-06T16:04:36.000Z</time>
      </trkpt>
      <trkpt lat="47.14585" lon="-1.80663">
        <ele>91</ele>
        <time>2021-08-06T16:04:38.000Z</time>
      </trkpt>
      <trkpt lat="47.14572" lon="-1.80676">
        <ele>91</ele>
        <time>2021-08-06T16:04:40.000Z</time>
      </trkpt>
      <trkpt lat="47.1456" lon="-1.80688">
        <ele>91</ele>
        <time>2021-08-06T16:04:42.000Z</time>
      </trkpt>
      <trkpt lat="47.14548" lon="-1.80701">
        <ele>90</ele>
        <time>2021-08-06T16:04:44.000Z</time>
      </trkpt>
      <trkpt lat="47.14536" lon="-1.80714">
        <ele>90</ele>
        <time>2021-08-06T16:04:46.000Z</time>
      </trkpt>
      <trkpt lat="47.14524" lon="-1.80728">
        <ele>90</ele>
        <time>2021-08-06T16:04:48.000Z</time>
      </trkpt>
      <trkpt lat="47.14513" lon="-1.80741">
        <ele>90</ele>
        <time>2021-08-06T16:04:50.000Z</time>
      </trkpt>
      <trkpt lat="47.14501" lon="-1.80754">
        <ele>90</ele>
        <time>2021-08-06T16:04:52.000Z</time>
      </trkpt>
      <trkpt lat="47.1449" lon="-1.80767">
        <ele>89</ele>
        <time>2021-08-06T16:04:54.000Z</time>
      </trkpt>
      <trkpt lat="47.14478" lon="-1.80779">
        <ele>89</ele>
        <time>2021-08-06T16:04:56.000Z</time>
      </trkpt>
      <trkpt lat="47.14466" lon="-1.80791">
        <ele>90</ele>
        <time>2021-08-06T16:04:58.000Z</time>
      </trkpt>
      <trkpt lat="47.14454" lon="-1.80803">
        <ele>90</ele>
        <time>2021-08-06T16:05:00.000Z</time>
      </trkpt>
      <trkpt lat="47.14442" lon="-1.80816">
        <ele>89</ele>
        <time>2021-08-06T16:05:02.000Z</time>
      </trkpt>
      <trkpt lat="47.14431" lon="-1.80829">
        <ele>89</ele>
        <time>2021-08-06T16:05:04.000Z</time>
      </trkpt>
      <trkpt lat="47.1442" lon="-1.80842">
        <ele>89</ele>
        <time>2021-08-06T16:05:06.000Z</time>
      </trkpt>
      <trkpt lat="47.14409" lon="-1.80857">
        <ele>89</ele>
        <time>2021-08-06T16:05:08.000Z</time>
      </trkpt>
      <trkpt lat="47.144" lon="-1.80873">
        <ele>89</ele>
        <time>2021-08-06T16:05:10.000Z</time>
      </trkpt>
      <trkpt lat="47.14391" lon="-1.8089">
        <ele>89</ele>
        <time>2021-08-06T16:05:12.000Z</time>
      </trkpt>
      <trkpt lat="47.14383" lon="-1.80908">
        <ele>89</ele>
        <time>2021-08-06T16:05:14.000Z</time>
      </trkpt>
      <trkpt lat="47.14376" lon="-1.80926">
        <ele>90</ele>
        <time>2021-08-06T16:05:16.000Z</time>
      </trkpt>
      <trkpt lat="47.14368" lon="-1.80943">
        <ele>90</ele>
        <time>2021-08-06T16:05:18.000Z</time>
      </trkpt>
      <trkpt lat="47.14361" lon="-1.80961">
        <ele>90</ele>
        <time>2021-08-06T16:05:20.000Z</time>
      </trkpt>
      <trkpt lat="47.14354" lon="-1.80978">
        <ele>90</ele>
        <time>2021-08-06T16:05:22.000Z</time>
      </trkpt>
      <trkpt lat="47.14346" lon="-1.80995">
        <ele>90</ele>
        <time>2021-08-06T16:05:24.000Z</time>
      </trkpt>
      <trkpt lat="47.14338" lon="-1.81012">
        <ele>90</ele>
        <time>2021-08-06T16:05:26.000Z</time>
      </trkpt>
      <trkpt lat="47.1433" lon="-1.8103">
        <ele>90</ele>
        <time>2021-08-06T16:05:28.000Z</time>
      </trkpt>
      <trkpt lat="47.14323" lon="-1.81047">
        <ele>90</ele>
        <time>2021-08-06T16:05:30.000Z</time>
      </trkpt>
      <trkpt lat="47.14315" lon="-1.81065">
        <ele>89</ele>
        <time>2021-08-06T16:05:32.000Z</time>
      </trkpt>
      <trkpt lat="47.14307" lon="-1.81083">
        <ele>89</ele>
        <time>2021-08-06T16:05:34.000Z</time>
      </trkpt>
      <trkpt lat="47.14299" lon="-1.811">
        <ele>89</ele>
        <time>2021-08-06T16:05:36.000Z</time>
      </trkpt>
      <trkpt lat="47.14292" lon="-1.81118">
        <ele>89</ele>
        <time>2021-08-06T16:05:38.000Z</time>
      </trkpt>
      <trkpt lat="47.14285" lon="-1.81135">
        <ele>89</ele>
        <time>2021-08-06T16:05:40.000Z</time>
      </trkpt>
      <trkpt lat="47.14278" lon="-1.81153">
        <ele>89</ele>
        <time>2021-08-06T16:05:42.000Z</time>
      </trkpt>
      <trkpt lat="47.14272" lon="-1.81171">
        <ele>89</ele>
        <time>2021-08-06T16:05:44.000Z</time>
      </trkpt>
      <trkpt lat="47.14265" lon="-1.81188">
        <ele>89</ele>
        <time>2021-08-06T16:05:46.000Z</time>
      </trkpt>
      <trkpt lat="47.14259" lon="-1.81206">
        <ele>89</ele>
        <time>2021-08-06T16:05:48.000Z</time>
      </trkpt>
      <trkpt lat="47.14252" lon="-1.81225">
        <ele>89</ele>
        <time>2021-08-06T16:05:50.000Z</time>
      </trkpt>
      <trkpt lat="47.14246" lon="-1.81243">
        <ele>89</ele>
        <time>2021-08-06T16:05:52.000Z</time>
      </trkpt>
      <trkpt lat="47.14239" lon="-1.81261">
        <ele>89</ele>
        <time>2021-08-06T16:05:54.000Z</time>
      </trkpt>
      <trkpt lat="47.14234" lon="-1.81278">
        <ele>89</ele>
        <time>2021-08-06T16:05:56.000Z</time>
      </trkpt>
      <trkpt lat="47.14228" lon="-1.81296">
        <ele>89</ele>
        <time>2021-08-06T16:05:58.000Z</time>
      </trkpt>
      <trkpt lat="47.14221" lon="-1.81314">
        <ele>89</ele>
        <time>2021-08-06T16:06:00.000Z</time>
      </trkpt>
      <trkpt lat="47.14215" lon="-1.81333">
        <ele>88</ele>
        <time>2021-08-06T16:06:02.000Z</time>
      </trkpt>
      <trkpt lat="47.14208" lon="-1.81352">
        <ele>89</ele>
        <time>2021-08-06T16:06:04.000Z</time>
      </trkpt>
      <trkpt lat="47.14202" lon="-1.81371">
        <ele>89</ele>
        <time>2021-08-06T16:06:06.000Z</time>
      </trkpt>
      <trkpt lat="47.14195" lon="-1.81389">
        <ele>89</ele>
        <time>2021-08-06T16:06:08.000Z</time>
      </trkpt>
      <trkpt lat="47.14189" lon="-1.81408">
        <ele>89</ele>
        <time>2021-08-06T16:06:10.000Z</time>
      </trkpt>
      <trkpt lat="47.14184" lon="-1.81428">
        <ele>89</ele>
        <time>2021-08-06T16:06:12.000Z</time>
      </trkpt>
      <trkpt lat="47.14178" lon="-1.81446">
        <ele>89</ele>
        <time>2021-08-06T16:06:14.000Z</time>
      </trkpt>
      <trkpt lat="47.14172" lon="-1.81464">
        <ele>89</ele>
        <time>2021-08-06T16:06:16.000Z</time>
      </trkpt>
      <trkpt lat="47.14165" lon="-1.81483">
        <ele>89</ele>
        <time>2021-08-06T16:06:18.000Z</time>
      </trkpt>
      <trkpt lat="47.14159" lon="-1.81502">
        <ele>89</ele>
        <time>2021-08-06T16:06:20.000Z</time>
      </trkpt>
      <trkpt lat="47.14153" lon="-1.81521">
        <ele>88</ele>
        <time>2021-08-06T16:06:22.000Z</time>
      </trkpt>
      <trkpt lat="47.14147" lon="-1.81539">
        <ele>88</ele>
        <time>2021-08-06T16:06:24.000Z</time>
      </trkpt>
      <trkpt lat="47.14142" lon="-1.81559">
        <ele>88</ele>
        <time>2021-08-06T16:06:26.000Z</time>
      </trkpt>
      <trkpt lat="47.14137" lon="-1.81579">
        <ele>88</ele>
        <time>2021-08-06T16:06:28.000Z</time>
      </trkpt>
      <trkpt lat="47.14131" lon="-1.81599">
        <ele>89</ele>
        <time>2021-08-06T16:06:30.000Z</time>
      </trkpt>
      <trkpt lat="47.14126" lon="-1.81618">
        <ele>88</ele>
        <time>2021-08-06T16:06:32.000Z</time>
      </trkpt>
      <trkpt lat="47.14122" lon="-1.81637">
        <ele>88</ele>
        <time>2021-08-06T16:06:34.000Z</time>
      </trkpt>
      <trkpt lat="47.14117" lon="-1.81656">
        <ele>88</ele>
        <time>2021-08-06T16:06:36.000Z</time>
      </trkpt>
      <trkpt lat="47.14112" lon="-1.81675">
        <ele>87</ele>
        <time>2021-08-06T16:06:38.000Z</time>
      </trkpt>
      <trkpt lat="47.14107" lon="-1.81696">
        <ele>87</ele>
        <time>2021-08-06T16:06:40.000Z</time>
      </trkpt>
      <trkpt lat="47.14102" lon="-1.81715">
        <ele>87</ele>
        <time>2021-08-06T16:06:42.000Z</time>
      </trkpt>
      <trkpt lat="47.14098" lon="-1.81735">
        <ele>86</ele>
        <time>2021-08-06T16:06:44.000Z</time>
      </trkpt>
      <trkpt lat="47.14093" lon="-1.81755">
        <ele>86</ele>
        <time>2021-08-06T16:06:46.000Z</time>
      </trkpt>
      <trkpt lat="47.14088" lon="-1.81775">
        <ele>86</ele>
        <time>2021-08-06T16:06:48.000Z</time>
      </trkpt>
      <trkpt lat="47.14083" lon="-1.81795">
        <ele>86</ele>
        <time>2021-08-06T16:06:50.000Z</time>
      </trkpt>
      <trkpt lat="47.14078" lon="-1.81815">
        <ele>86</ele>
        <time>2021-08-06T16:06:52.000Z</time>
      </trkpt>
      <trkpt lat="47.14073" lon="-1.81834">
        <ele>86</ele>
        <time>2021-08-06T16:06:54.000Z</time>
      </trkpt>
      <trkpt lat="47.14068" lon="-1.81854">
        <ele>85</ele>
        <time>2021-08-06T16:06:56.000Z</time>
      </trkpt>
      <trkpt lat="47.14063" lon="-1.81873">
        <ele>85</ele>
        <time>2021-08-06T16:06:58.000Z</time>
      </trkpt>
      <trkpt lat="47.14059" lon="-1.81892">
        <ele>84</ele>
        <time>2021-08-06T16:07:00.000Z</time>
      </trkpt>
      <trkpt lat="47.14054" lon="-1.81912">
        <ele>84</ele>
        <time>2021-08-06T16:07:02.000Z</time>
      </trkpt>
      <trkpt lat="47.14049" lon="-1.81931">
        <ele>83</ele>
        <time>2021-08-06T16:07:04.000Z</time>
      </trkpt>
      <trkpt lat="47.14045" lon="-1.81951">
        <ele>83</ele>
        <time>2021-08-06T16:07:06.000Z</time>
      </trkpt>
      <trkpt lat="47.1404" lon="-1.8197">
        <ele>82</ele>
        <time>2021-08-06T16:07:08.000Z</time>
      </trkpt>
      <trkpt lat="47.14035" lon="-1.81989">
        <ele>82</ele>
        <time>2021-08-06T16:07:10.000Z</time>
      </trkpt>
      <trkpt lat="47.14028" lon="-1.82008">
        <ele>82</ele>
        <time>2021-08-06T16:07:12.000Z</time>
      </trkpt>
      <trkpt lat="47.1402" lon="-1.82027">
        <ele>82</ele>
        <time>2021-08-06T16:07:14.000Z</time>
      </trkpt>
      <trkpt lat="47.14011" lon="-1.82044">
        <ele>82</ele>
        <time>2021-08-06T16:07:16.000Z</time>
      </trkpt>
      <trkpt lat="47.13999" lon="-1.82059">
        <ele>81</ele>
        <time>2021-08-06T16:07:18.000Z</time>
      </trkpt>
      <trkpt lat="47.13987" lon="-1.82075">
        <ele>81</ele>
        <time>2021-08-06T16:07:20.000Z</time>
      </trkpt>
      <trkpt lat="47.13975" lon="-1.8209">
        <ele>81</ele>
        <time>2021-08-06T16:07:22.000Z</time>
      </trkpt>
      <trkpt lat="47.13964" lon="-1.82106">
        <ele>81</ele>
        <time>2021-08-06T16:07:24.000Z</time>
      </trkpt>
      <trkpt lat="47.13951" lon="-1.82122">
        <ele>80</ele>
        <time>2021-08-06T16:07:26.000Z</time>
      </trkpt>
      <trkpt lat="47.13939" lon="-1.82138">
        <ele>80</ele>
        <time>2021-08-06T16:07:28.000Z</time>
      </trkpt>
      <trkpt lat="47.13927" lon="-1.82153">
        <ele>80</ele>
        <time>2021-08-06T16:07:30.000Z</time>
      </trkpt>
      <trkpt lat="47.13915" lon="-1.82169">
        <ele>79</ele>
        <time>2021-08-06T16:07:32.000Z</time>
      </trkpt>
      <trkpt lat="47.13904" lon="-1.82185">
        <ele>78</ele>
        <time>2021-08-06T16:07:34.000Z</time>
      </trkpt>
      <trkpt lat="47.13892" lon="-1.82201">
        <ele>78</ele>
        <time>2021-08-06T16:07:36.000Z</time>
      </trkpt>
      <trkpt lat="47.1388" lon="-1.82216">
        <ele>78</ele>
        <time>2021-08-06T16:07:38.000Z</time>
      </trkpt>
      <trkpt lat="47.13869" lon="-1.82231">
        <ele>77</ele>
        <time>2021-08-06T16:07:40.000Z</time>
      </trkpt>
      <trkpt lat="47.13858" lon="-1.82246">
        <ele>77</ele>
        <time>2021-08-06T16:07:42.000Z</time>
      </trkpt>
      <trkpt lat="47.13847" lon="-1.8226">
        <ele>78</ele>
        <time>2021-08-06T16:07:44.000Z</time>
      </trkpt>
      <trkpt lat="47.13836" lon="-1.82274">
        <ele>78</ele>
        <time>2021-08-06T16:07:46.000Z</time>
      </trkpt>
      <trkpt lat="47.13824" lon="-1.82286">
        <ele>78</ele>
        <time>2021-08-06T16:07:48.000Z</time>
      </trkpt>
      <trkpt lat="47.13811" lon="-1.82294">
        <ele>78</ele>
        <time>2021-08-06T16:07:50.000Z</time>
      </trkpt>
      <trkpt lat="47.13798" lon="-1.82298">
        <ele>78</ele>
        <time>2021-08-06T16:07:52.000Z</time>
      </trkpt>
      <trkpt lat="47.13784" lon="-1.823">
        <ele>77</ele>
        <time>2021-08-06T16:07:54.000Z</time>
      </trkpt>
      <trkpt lat="47.13771" lon="-1.823">
        <ele>77</ele>
        <time>2021-08-06T16:07:56.000Z</time>
      </trkpt>
      <trkpt lat="47.13757" lon="-1.823">
        <ele>77</ele>
        <time>2021-08-06T16:07:58.000Z</time>
      </trkpt>
      <trkpt lat="47.13743" lon="-1.82301">
        <ele>77</ele>
        <time>2021-08-06T16:08:00.000Z</time>
      </trkpt>
      <trkpt lat="47.13728" lon="-1.82302">
        <ele>78</ele>
        <time>2021-08-06T16:08:02.000Z</time>
      </trkpt>
      <trkpt lat="47.13714" lon="-1.82304">
        <ele>78</ele>
        <time>2021-08-06T16:08:04.000Z</time>
      </trkpt>
      <trkpt lat="47.137" lon="-1.82307">
        <ele>78</ele>
        <time>2021-08-06T16:08:06.000Z</time>
      </trkpt>
      <trkpt lat="47.13686" lon="-1.82313">
        <ele>78</ele>
        <time>2021-08-06T16:08:08.000Z</time>
      </trkpt>
      <trkpt lat="47.13673" lon="-1.82322">
        <ele>78</ele>
        <time>2021-08-06T16:08:10.000Z</time>
      </trkpt>
      <trkpt lat="47.13661" lon="-1.82333">
        <ele>77</ele>
        <time>2021-08-06T16:08:12.000Z</time>
      </trkpt>
      <trkpt lat="47.13649" lon="-1.82346">
        <ele>76</ele>
        <time>2021-08-06T16:08:14.000Z</time>
      </trkpt>
      <trkpt lat="47.13638" lon="-1.82359">
        <ele>76</ele>
        <time>2021-08-06T16:08:16.000Z</time>
      </trkpt>
      <trkpt lat="47.13626" lon="-1.82372">
        <ele>75</ele>
        <time>2021-08-06T16:08:18.000Z</time>
      </trkpt>
      <trkpt lat="47.13615" lon="-1.82387">
        <ele>75</ele>
        <time>2021-08-06T16:08:20.000Z</time>
      </trkpt>
      <trkpt lat="47.13603" lon="-1.82401">
        <ele>75</ele>
        <time>2021-08-06T16:08:22.000Z</time>
      </trkpt>
      <trkpt lat="47.13592" lon="-1.82415">
        <ele>75</ele>
        <time>2021-08-06T16:08:24.000Z</time>
      </trkpt>
      <trkpt lat="47.13581" lon="-1.82428">
        <ele>75</ele>
        <time>2021-08-06T16:08:26.000Z</time>
      </trkpt>
      <trkpt lat="47.1357" lon="-1.82443">
        <ele>75</ele>
        <time>2021-08-06T16:08:28.000Z</time>
      </trkpt>
      <trkpt lat="47.13559" lon="-1.82457">
        <ele>75</ele>
        <time>2021-08-06T16:08:30.000Z</time>
      </trkpt>
      <trkpt lat="47.13547" lon="-1.82472">
        <ele>75</ele>
        <time>2021-08-06T16:08:32.000Z</time>
      </trkpt>
      <trkpt lat="47.13536" lon="-1.82487">
        <ele>74</ele>
        <time>2021-08-06T16:08:34.000Z</time>
      </trkpt>
      <trkpt lat="47.13518" lon="-1.82509">
        <ele>74</ele>
        <time>2021-08-06T16:08:37.000Z</time>
      </trkpt>
      <trkpt lat="47.13505" lon="-1.82525">
        <ele>73</ele>
        <time>2021-08-06T16:08:39.000Z</time>
      </trkpt>
      <trkpt lat="47.13487" lon="-1.82548">
        <ele>72</ele>
        <time>2021-08-06T16:08:42.000Z</time>
      </trkpt>
      <trkpt lat="47.13474" lon="-1.82565">
        <ele>72</ele>
        <time>2021-08-06T16:08:44.000Z</time>
      </trkpt>
      <trkpt lat="47.13462" lon="-1.82582">
        <ele>71</ele>
        <time>2021-08-06T16:08:46.000Z</time>
      </trkpt>
      <trkpt lat="47.13445" lon="-1.82609">
        <ele>71</ele>
        <time>2021-08-06T16:08:49.000Z</time>
      </trkpt>
      <trkpt lat="47.13427" lon="-1.82636">
        <ele>70</ele>
        <time>2021-08-06T16:08:52.000Z</time>
      </trkpt>
      <trkpt lat="47.13409" lon="-1.82662">
        <ele>69</ele>
        <time>2021-08-06T16:08:55.000Z</time>
      </trkpt>
      <trkpt lat="47.13398" lon="-1.8268">
        <ele>68</ele>
        <time>2021-08-06T16:08:57.000Z</time>
      </trkpt>
      <trkpt lat="47.13386" lon="-1.82698">
        <ele>67</ele>
        <time>2021-08-06T16:08:59.000Z</time>
      </trkpt>
      <trkpt lat="47.13379" lon="-1.82707">
        <ele>66</ele>
        <time>2021-08-06T16:09:00.000Z</time>
      </trkpt>
      <trkpt lat="47.13367" lon="-1.82726">
        <ele>65</ele>
        <time>2021-08-06T16:09:02.000Z</time>
      </trkpt>
      <trkpt lat="47.1336" lon="-1.82735">
        <ele>65</ele>
        <time>2021-08-06T16:09:03.000Z</time>
      </trkpt>
      <trkpt lat="47.13345" lon="-1.82754">
        <ele>64</ele>
        <time>2021-08-06T16:09:05.000Z</time>
      </trkpt>
      <trkpt lat="47.13337" lon="-1.82762">
        <ele>63</ele>
        <time>2021-08-06T16:09:06.000Z</time>
      </trkpt>
      <trkpt lat="47.13321" lon="-1.82778">
        <ele>62</ele>
        <time>2021-08-06T16:09:08.000Z</time>
      </trkpt>
      <trkpt lat="47.13313" lon="-1.82786">
        <ele>62</ele>
        <time>2021-08-06T16:09:09.000Z</time>
      </trkpt>
      <trkpt lat="47.13305" lon="-1.82794">
        <ele>61</ele>
        <time>2021-08-06T16:09:10.000Z</time>
      </trkpt>
      <trkpt lat="47.13297" lon="-1.82801">
        <ele>61</ele>
        <time>2021-08-06T16:09:11.000Z</time>
      </trkpt>
      <trkpt lat="47.13289" lon="-1.82809">
        <ele>61</ele>
        <time>2021-08-06T16:09:12.000Z</time>
      </trkpt>
      <trkpt lat="47.13281" lon="-1.82817">
        <ele>60</ele>
        <time>2021-08-06T16:09:13.000Z</time>
      </trkpt>
      <trkpt lat="47.13273" lon="-1.82826">
        <ele>59</ele>
        <time>2021-08-06T16:09:14.000Z</time>
      </trkpt>
      <trkpt lat="47.13265" lon="-1.82835">
        <ele>59</ele>
        <time>2021-08-06T16:09:15.000Z</time>
      </trkpt>
      <trkpt lat="47.13257" lon="-1.82845">
        <ele>58</ele>
        <time>2021-08-06T16:09:16.000Z</time>
      </trkpt>
      <trkpt lat="47.13249" lon="-1.82855">
        <ele>58</ele>
        <time>2021-08-06T16:09:17.000Z</time>
      </trkpt>
      <trkpt lat="47.13242" lon="-1.82865">
        <ele>58</ele>
        <time>2021-08-06T16:09:18.000Z</time>
      </trkpt>
      <trkpt lat="47.13235" lon="-1.82875">
        <ele>58</ele>
        <time>2021-08-06T16:09:19.000Z</time>
      </trkpt>
      <trkpt lat="47.13228" lon="-1.82886">
        <ele>58</ele>
        <time>2021-08-06T16:09:20.000Z</time>
      </trkpt>
      <trkpt lat="47.13221" lon="-1.82896">
        <ele>58</ele>
        <time>2021-08-06T16:09:21.000Z</time>
      </trkpt>
      <trkpt lat="47.13214" lon="-1.82905">
        <ele>57</ele>
        <time>2021-08-06T16:09:22.000Z</time>
      </trkpt>
      <trkpt lat="47.13206" lon="-1.82912">
        <ele>58</ele>
        <time>2021-08-06T16:09:23.000Z</time>
      </trkpt>
      <trkpt lat="47.13191" lon="-1.82924">
        <ele>58</ele>
        <time>2021-08-06T16:09:25.000Z</time>
      </trkpt>
      <trkpt lat="47.13176" lon="-1.82935">
        <ele>58</ele>
        <time>2021-08-06T16:09:27.000Z</time>
      </trkpt>
      <trkpt lat="47.13164" lon="-1.82945">
        <ele>58</ele>
        <time>2021-08-06T16:09:29.000Z</time>
      </trkpt>
      <trkpt lat="47.13151" lon="-1.82953">
        <ele>58</ele>
        <time>2021-08-06T16:09:31.000Z</time>
      </trkpt>
      <trkpt lat="47.13138" lon="-1.82962">
        <ele>58</ele>
        <time>2021-08-06T16:09:33.000Z</time>
      </trkpt>
      <trkpt lat="47.13127" lon="-1.82972">
        <ele>59</ele>
        <time>2021-08-06T16:09:35.000Z</time>
      </trkpt>
      <trkpt lat="47.13116" lon="-1.82983">
        <ele>60</ele>
        <time>2021-08-06T16:09:37.000Z</time>
      </trkpt>
      <trkpt lat="47.13106" lon="-1.82995">
        <ele>61</ele>
        <time>2021-08-06T16:09:39.000Z</time>
      </trkpt>
      <trkpt lat="47.13098" lon="-1.83011">
        <ele>61</ele>
        <time>2021-08-06T16:09:41.000Z</time>
      </trkpt>
      <trkpt lat="47.1309" lon="-1.83025">
        <ele>61</ele>
        <time>2021-08-06T16:09:43.000Z</time>
      </trkpt>
      <trkpt lat="47.1308" lon="-1.83038">
        <ele>61</ele>
        <time>2021-08-06T16:09:45.000Z</time>
      </trkpt>
      <trkpt lat="47.13074" lon="-1.83055">
        <ele>61</ele>
        <time>2021-08-06T16:09:47.000Z</time>
      </trkpt>
      <trkpt lat="47.13072" lon="-1.83074">
        <ele>61</ele>
        <time>2021-08-06T16:09:49.000Z</time>
      </trkpt>
      <trkpt lat="47.13073" lon="-1.83095">
        <ele>61</ele>
        <time>2021-08-06T16:09:51.000Z</time>
      </trkpt>
      <trkpt lat="47.13074" lon="-1.83115">
        <ele>60</ele>
        <time>2021-08-06T16:09:53.000Z</time>
      </trkpt>
      <trkpt lat="47.13077" lon="-1.83136">
        <ele>59</ele>
        <time>2021-08-06T16:09:55.000Z</time>
      </trkpt>
      <trkpt lat="47.1308" lon="-1.83157">
        <ele>59</ele>
        <time>2021-08-06T16:09:57.000Z</time>
      </trkpt>
      <trkpt lat="47.13084" lon="-1.83177">
        <ele>58</ele>
        <time>2021-08-06T16:09:59.000Z</time>
      </trkpt>
      <trkpt lat="47.13091" lon="-1.83197">
        <ele>58</ele>
        <time>2021-08-06T16:10:01.000Z</time>
      </trkpt>
      <trkpt lat="47.13099" lon="-1.83216">
        <ele>58</ele>
        <time>2021-08-06T16:10:03.000Z</time>
      </trkpt>
      <trkpt lat="47.13107" lon="-1.83234">
        <ele>57</ele>
        <time>2021-08-06T16:10:05.000Z</time>
      </trkpt>
      <trkpt lat="47.13116" lon="-1.83251">
        <ele>57</ele>
        <time>2021-08-06T16:10:07.000Z</time>
      </trkpt>
      <trkpt lat="47.13126" lon="-1.83268">
        <ele>57</ele>
        <time>2021-08-06T16:10:09.000Z</time>
      </trkpt>
      <trkpt lat="47.13134" lon="-1.83286">
        <ele>57</ele>
        <time>2021-08-06T16:10:11.000Z</time>
      </trkpt>
      <trkpt lat="47.13143" lon="-1.83303">
        <ele>58</ele>
        <time>2021-08-06T16:10:13.000Z</time>
      </trkpt>
      <trkpt lat="47.1315" lon="-1.83319">
        <ele>58</ele>
        <time>2021-08-06T16:10:15.000Z</time>
      </trkpt>
      <trkpt lat="47.13155" lon="-1.83334">
        <ele>59</ele>
        <time>2021-08-06T16:10:17.000Z</time>
      </trkpt>
      <trkpt lat="47.13159" lon="-1.83349">
        <ele>59</ele>
        <time>2021-08-06T16:10:19.000Z</time>
      </trkpt>
      <trkpt lat="47.13163" lon="-1.83364">
        <ele>60</ele>
        <time>2021-08-06T16:10:21.000Z</time>
      </trkpt>
      <trkpt lat="47.13166" lon="-1.83378">
        <ele>60</ele>
        <time>2021-08-06T16:10:23.000Z</time>
      </trkpt>
      <trkpt lat="47.13169" lon="-1.83394">
        <ele>60</ele>
        <time>2021-08-06T16:10:25.000Z</time>
      </trkpt>
      <trkpt lat="47.13171" lon="-1.83409">
        <ele>61</ele>
        <time>2021-08-06T16:10:27.000Z</time>
      </trkpt>
      <trkpt lat="47.13172" lon="-1.83424">
        <ele>61</ele>
        <time>2021-08-06T16:10:29.000Z</time>
      </trkpt>
      <trkpt lat="47.13172" lon="-1.83439">
        <ele>62</ele>
        <time>2021-08-06T16:10:31.000Z</time>
      </trkpt>
      <trkpt lat="47.13173" lon="-1.83454">
        <ele>62</ele>
        <time>2021-08-06T16:10:33.000Z</time>
      </trkpt>
      <trkpt lat="47.13174" lon="-1.83469">
        <ele>63</ele>
        <time>2021-08-06T16:10:35.000Z</time>
      </trkpt>
      <trkpt lat="47.13178" lon="-1.83483">
        <ele>63</ele>
        <time>2021-08-06T16:10:37.000Z</time>
      </trkpt>
      <trkpt lat="47.13184" lon="-1.83497">
        <ele>63</ele>
        <time>2021-08-06T16:10:39.000Z</time>
      </trkpt>
      <trkpt lat="47.13187" lon="-1.83512">
        <ele>63</ele>
        <time>2021-08-06T16:10:41.000Z</time>
      </trkpt>
      <trkpt lat="47.13185" lon="-1.83528">
        <ele>63</ele>
        <time>2021-08-06T16:10:43.000Z</time>
      </trkpt>
      <trkpt lat="47.13178" lon="-1.83541">
        <ele>63</ele>
        <time>2021-08-06T16:10:45.000Z</time>
      </trkpt>
      <trkpt lat="47.13167" lon="-1.83548">
        <ele>63</ele>
        <time>2021-08-06T16:10:47.000Z</time>
      </trkpt>
      <trkpt lat="47.13155" lon="-1.83546">
        <ele>62</ele>
        <time>2021-08-06T16:10:49.000Z</time>
      </trkpt>
      <trkpt lat="47.13144" lon="-1.83539">
        <ele>62</ele>
        <time>2021-08-06T16:10:51.000Z</time>
      </trkpt>
      <trkpt lat="47.13131" lon="-1.83536">
        <ele>62</ele>
        <time>2021-08-06T16:10:53.000Z</time>
      </trkpt>
      <trkpt lat="47.13118" lon="-1.83543">
        <ele>62</ele>
        <time>2021-08-06T16:10:55.000Z</time>
      </trkpt>
      <trkpt lat="47.13105" lon="-1.8355">
        <ele>62</ele>
        <time>2021-08-06T16:10:57.000Z</time>
      </trkpt>
      <trkpt lat="47.13093" lon="-1.83557">
        <ele>61</ele>
        <time>2021-08-06T16:10:59.000Z</time>
      </trkpt>
      <trkpt lat="47.13081" lon="-1.83564">
        <ele>61</ele>
        <time>2021-08-06T16:11:01.000Z</time>
      </trkpt>
      <trkpt lat="47.13071" lon="-1.83575">
        <ele>61</ele>
        <time>2021-08-06T16:11:03.000Z</time>
      </trkpt>
      <trkpt lat="47.13065" lon="-1.8359">
        <ele>60</ele>
        <time>2021-08-06T16:11:05.000Z</time>
      </trkpt>
      <trkpt lat="47.13057" lon="-1.83604">
        <ele>60</ele>
        <time>2021-08-06T16:11:07.000Z</time>
      </trkpt>
      <trkpt lat="47.13046" lon="-1.83612">
        <ele>60</ele>
        <time>2021-08-06T16:11:09.000Z</time>
      </trkpt>
      <trkpt lat="47.13034" lon="-1.83609">
        <ele>59</ele>
        <time>2021-08-06T16:11:11.000Z</time>
      </trkpt>
      <trkpt lat="47.13025" lon="-1.83597">
        <ele>60</ele>
        <time>2021-08-06T16:11:13.000Z</time>
      </trkpt>
      <trkpt lat="47.1302" lon="-1.83579">
        <ele>60</ele>
        <time>2021-08-06T16:11:15.000Z</time>
      </trkpt>
      <trkpt lat="47.13021" lon="-1.8356">
        <ele>60</ele>
        <time>2021-08-06T16:11:17.000Z</time>
      </trkpt>
      <trkpt lat="47.13016" lon="-1.83543">
        <ele>60</ele>
        <time>2021-08-06T16:11:19.000Z</time>
      </trkpt>
      <trkpt lat="47.13011" lon="-1.83524">
        <ele>59</ele>
        <time>2021-08-06T16:11:21.000Z</time>
      </trkpt>
      <trkpt lat="47.13006" lon="-1.83504">
        <ele>59</ele>
        <time>2021-08-06T16:11:23.000Z</time>
      </trkpt>
      <trkpt lat="47.13004" lon="-1.83482">
        <ele>58</ele>
        <time>2021-08-06T16:11:25.000Z</time>
      </trkpt>
      <trkpt lat="47.13002" lon="-1.83458">
        <ele>57</ele>
        <time>2021-08-06T16:11:27.000Z</time>
      </trkpt>
      <trkpt lat="47.13002" lon="-1.83434">
        <ele>56</ele>
        <time>2021-08-06T16:11:29.000Z</time>
      </trkpt>
      <trkpt lat="47.13003" lon="-1.8341">
        <ele>56</ele>
        <time>2021-08-06T16:11:31.000Z</time>
      </trkpt>
      <trkpt lat="47.13003" lon="-1.83386">
        <ele>56</ele>
        <time>2021-08-06T16:11:33.000Z</time>
      </trkpt>
      <trkpt lat="47.13003" lon="-1.83363">
        <ele>56</ele>
        <time>2021-08-06T16:11:35.000Z</time>
      </trkpt>
      <trkpt lat="47.13004" lon="-1.83339">
        <ele>56</ele>
        <time>2021-08-06T16:11:37.000Z</time>
      </trkpt>
      <trkpt lat="47.13004" lon="-1.83317">
        <ele>56</ele>
        <time>2021-08-06T16:11:39.000Z</time>
      </trkpt>
      <trkpt lat="47.13005" lon="-1.83296">
        <ele>56</ele>
        <time>2021-08-06T16:11:41.000Z</time>
      </trkpt>
      <trkpt lat="47.13005" lon="-1.83276">
        <ele>57</ele>
        <time>2021-08-06T16:11:43.000Z</time>
      </trkpt>
      <trkpt lat="47.13005" lon="-1.83257">
        <ele>57</ele>
        <time>2021-08-06T16:11:45.000Z</time>
      </trkpt>
      <trkpt lat="47.13005" lon="-1.83237">
        <ele>58</ele>
        <time>2021-08-06T16:11:47.000Z</time>
      </trkpt>
      <trkpt lat="47.13006" lon="-1.83219">
        <ele>59</ele>
        <time>2021-08-06T16:11:49.000Z</time>
      </trkpt>
      <trkpt lat="47.13006" lon="-1.832">
        <ele>60</ele>
        <time>2021-08-06T16:11:51.000Z</time>
      </trkpt>
      <trkpt lat="47.13006" lon="-1.83181">
        <ele>60</ele>
        <time>2021-08-06T16:11:53.000Z</time>
      </trkpt>
      <trkpt lat="47.13006" lon="-1.83162">
        <ele>61</ele>
        <time>2021-08-06T16:11:55.000Z</time>
      </trkpt>
      <trkpt lat="47.13004" lon="-1.83143">
        <ele>61</ele>
        <time>2021-08-06T16:11:57.000Z</time>
      </trkpt>
      <trkpt lat="47.12998" lon="-1.83127">
        <ele>60</ele>
        <time>2021-08-06T16:11:59.000Z</time>
      </trkpt>
      <trkpt lat="47.12987" lon="-1.8312">
        <ele>60</ele>
        <time>2021-08-06T16:12:01.000Z</time>
      </trkpt>
      <trkpt lat="47.12974" lon="-1.83123">
        <ele>61</ele>
        <time>2021-08-06T16:12:03.000Z</time>
      </trkpt>
      <trkpt lat="47.12962" lon="-1.83131">
        <ele>60</ele>
        <time>2021-08-06T16:12:05.000Z</time>
      </trkpt>
      <trkpt lat="47.12952" lon="-1.83142">
        <ele>60</ele>
        <time>2021-08-06T16:12:07.000Z</time>
      </trkpt>
      <trkpt lat="47.12942" lon="-1.83156">
        <ele>60</ele>
        <time>2021-08-06T16:12:09.000Z</time>
      </trkpt>
      <trkpt lat="47.12932" lon="-1.83169">
        <ele>60</ele>
        <time>2021-08-06T16:12:11.000Z</time>
      </trkpt>
      <trkpt lat="47.12922" lon="-1.83182">
        <ele>59</ele>
        <time>2021-08-06T16:12:13.000Z</time>
      </trkpt>
      <trkpt lat="47.12913" lon="-1.83196">
        <ele>59</ele>
        <time>2021-08-06T16:12:15.000Z</time>
      </trkpt>
      <trkpt lat="47.12903" lon="-1.83209">
        <ele>58</ele>
        <time>2021-08-06T16:12:17.000Z</time>
      </trkpt>
      <trkpt lat="47.12892" lon="-1.83222">
        <ele>58</ele>
        <time>2021-08-06T16:12:19.000Z</time>
      </trkpt>
      <trkpt lat="47.1288" lon="-1.83233">
        <ele>57</ele>
        <time>2021-08-06T16:12:21.000Z</time>
      </trkpt>
      <trkpt lat="47.12867" lon="-1.83242">
        <ele>56</ele>
        <time>2021-08-06T16:12:23.000Z</time>
      </trkpt>
      <trkpt lat="47.12853" lon="-1.83248">
        <ele>56</ele>
        <time>2021-08-06T16:12:25.000Z</time>
      </trkpt>
      <trkpt lat="47.12839" lon="-1.83251">
        <ele>55</ele>
        <time>2021-08-06T16:12:27.000Z</time>
      </trkpt>
      <trkpt lat="47.12825" lon="-1.83251">
        <ele>55</ele>
        <time>2021-08-06T16:12:29.000Z</time>
      </trkpt>
      <trkpt lat="47.12812" lon="-1.8325">
        <ele>55</ele>
        <time>2021-08-06T16:12:31.000Z</time>
      </trkpt>
      <trkpt lat="47.12799" lon="-1.83253">
        <ele>55</ele>
        <time>2021-08-06T16:12:33.000Z</time>
      </trkpt>
      <trkpt lat="47.12789" lon="-1.83266">
        <ele>55</ele>
        <time>2021-08-06T16:12:35.000Z</time>
      </trkpt>
      <trkpt lat="47.1278" lon="-1.8328">
        <ele>55</ele>
        <time>2021-08-06T16:12:37.000Z</time>
      </trkpt>
      <trkpt lat="47.12771" lon="-1.83294">
        <ele>56</ele>
        <time>2021-08-06T16:12:39.000Z</time>
      </trkpt>
      <trkpt lat="47.12761" lon="-1.83307">
        <ele>56</ele>
        <time>2021-08-06T16:12:41.000Z</time>
      </trkpt>
      <trkpt lat="47.12752" lon="-1.83319">
        <ele>56</ele>
        <time>2021-08-06T16:12:43.000Z</time>
      </trkpt>
      <trkpt lat="47.12743" lon="-1.83331">
        <ele>56</ele>
        <time>2021-08-06T16:12:45.000Z</time>
      </trkpt>
      <trkpt lat="47.12733" lon="-1.83343">
        <ele>57</ele>
        <time>2021-08-06T16:12:47.000Z</time>
      </trkpt>
      <trkpt lat="47.12722" lon="-1.83352">
        <ele>57</ele>
        <time>2021-08-06T16:12:49.000Z</time>
      </trkpt>
      <trkpt lat="47.12709" lon="-1.83361">
        <ele>58</ele>
        <time>2021-08-06T16:12:51.000Z</time>
      </trkpt>
      <trkpt lat="47.12696" lon="-1.83367">
        <ele>58</ele>
        <time>2021-08-06T16:12:53.000Z</time>
      </trkpt>
      <trkpt lat="47.12682" lon="-1.83371">
        <ele>59</ele>
        <time>2021-08-06T16:12:55.000Z</time>
      </trkpt>
      <trkpt lat="47.12669" lon="-1.83374">
        <ele>60</ele>
        <time>2021-08-06T16:12:57.000Z</time>
      </trkpt>
      <trkpt lat="47.12656" lon="-1.83375">
        <ele>60</ele>
        <time>2021-08-06T16:12:59.000Z</time>
      </trkpt>
      <trkpt lat="47.12643" lon="-1.83376">
        <ele>60</ele>
        <time>2021-08-06T16:13:01.000Z</time>
      </trkpt>
      <trkpt lat="47.1263" lon="-1.83377">
        <ele>61</ele>
        <time>2021-08-06T16:13:03.000Z</time>
      </trkpt>
      <trkpt lat="47.12616" lon="-1.83378">
        <ele>61</ele>
        <time>2021-08-06T16:13:05.000Z</time>
      </trkpt>
      <trkpt lat="47.12603" lon="-1.8338">
        <ele>61</ele>
        <time>2021-08-06T16:13:07.000Z</time>
      </trkpt>
      <trkpt lat="47.12591" lon="-1.83382">
        <ele>61</ele>
        <time>2021-08-06T16:13:09.000Z</time>
      </trkpt>
      <trkpt lat="47.12578" lon="-1.83385">
        <ele>61</ele>
        <time>2021-08-06T16:13:11.000Z</time>
      </trkpt>
      <trkpt lat="47.12565" lon="-1.83387">
        <ele>61</ele>
        <time>2021-08-06T16:13:13.000Z</time>
      </trkpt>
      <trkpt lat="47.12553" lon="-1.83392">
        <ele>61</ele>
        <time>2021-08-06T16:13:15.000Z</time>
      </trkpt>
      <trkpt lat="47.1254" lon="-1.83397">
        <ele>61</ele>
        <time>2021-08-06T16:13:17.000Z</time>
      </trkpt>
      <trkpt lat="47.12528" lon="-1.83402">
        <ele>61</ele>
        <time>2021-08-06T16:13:19.000Z</time>
      </trkpt>
      <trkpt lat="47.12515" lon="-1.83408">
        <ele>61</ele>
        <time>2021-08-06T16:13:21.000Z</time>
      </trkpt>
      <trkpt lat="47.12502" lon="-1.83414">
        <ele>61</ele>
        <time>2021-08-06T16:13:23.000Z</time>
      </trkpt>
      <trkpt lat="47.12489" lon="-1.8342">
        <ele>61</ele>
        <time>2021-08-06T16:13:25.000Z</time>
      </trkpt>
      <trkpt lat="47.12477" lon="-1.83427">
        <ele>60</ele>
        <time>2021-08-06T16:13:27.000Z</time>
      </trkpt>
      <trkpt lat="47.12464" lon="-1.83433">
        <ele>60</ele>
        <time>2021-08-06T16:13:29.000Z</time>
      </trkpt>
      <trkpt lat="47.12452" lon="-1.83439">
        <ele>60</ele>
        <time>2021-08-06T16:13:31.000Z</time>
      </trkpt>
      <trkpt lat="47.12439" lon="-1.83445">
        <ele>60</ele>
        <time>2021-08-06T16:13:33.000Z</time>
      </trkpt>
      <trkpt lat="47.12427" lon="-1.83451">
        <ele>60</ele>
        <time>2021-08-06T16:13:35.000Z</time>
      </trkpt>
      <trkpt lat="47.12414" lon="-1.83457">
        <ele>60</ele>
        <time>2021-08-06T16:13:37.000Z</time>
      </trkpt>
      <trkpt lat="47.12402" lon="-1.83464">
        <ele>60</ele>
        <time>2021-08-06T16:13:39.000Z</time>
      </trkpt>
      <trkpt lat="47.12389" lon="-1.8347">
        <ele>60</ele>
        <time>2021-08-06T16:13:41.000Z</time>
      </trkpt>
      <trkpt lat="47.12376" lon="-1.83476">
        <ele>60</ele>
        <time>2021-08-06T16:13:43.000Z</time>
      </trkpt>
      <trkpt lat="47.12364" lon="-1.83483">
        <ele>60</ele>
        <time>2021-08-06T16:13:45.000Z</time>
      </trkpt>
      <trkpt lat="47.12351" lon="-1.83489">
        <ele>60</ele>
        <time>2021-08-06T16:13:47.000Z</time>
      </trkpt>
      <trkpt lat="47.12338" lon="-1.83495">
        <ele>60</ele>
        <time>2021-08-06T16:13:49.000Z</time>
      </trkpt>
      <trkpt lat="47.12325" lon="-1.83501">
        <ele>60</ele>
        <time>2021-08-06T16:13:51.000Z</time>
      </trkpt>
      <trkpt lat="47.12312" lon="-1.83507">
        <ele>61</ele>
        <time>2021-08-06T16:13:53.000Z</time>
      </trkpt>
      <trkpt lat="47.12299" lon="-1.83514">
        <ele>61</ele>
        <time>2021-08-06T16:13:55.000Z</time>
      </trkpt>
      <trkpt lat="47.12286" lon="-1.8352">
        <ele>61</ele>
        <time>2021-08-06T16:13:57.000Z</time>
      </trkpt>
      <trkpt lat="47.12274" lon="-1.83527">
        <ele>62</ele>
        <time>2021-08-06T16:13:59.000Z</time>
      </trkpt>
      <trkpt lat="47.12261" lon="-1.83534">
        <ele>62</ele>
        <time>2021-08-06T16:14:01.000Z</time>
      </trkpt>
      <trkpt lat="47.12249" lon="-1.83542">
        <ele>63</ele>
        <time>2021-08-06T16:14:03.000Z</time>
      </trkpt>
      <trkpt lat="47.12237" lon="-1.8355">
        <ele>63</ele>
        <time>2021-08-06T16:14:05.000Z</time>
      </trkpt>
      <trkpt lat="47.12225" lon="-1.83559">
        <ele>63</ele>
        <time>2021-08-06T16:14:07.000Z</time>
      </trkpt>
      <trkpt lat="47.12214" lon="-1.83568">
        <ele>63</ele>
        <time>2021-08-06T16:14:09.000Z</time>
      </trkpt>
      <trkpt lat="47.12203" lon="-1.83578">
        <ele>63</ele>
        <time>2021-08-06T16:14:11.000Z</time>
      </trkpt>
      <trkpt lat="47.12192" lon="-1.83588">
        <ele>64</ele>
        <time>2021-08-06T16:14:13.000Z</time>
      </trkpt>
      <trkpt lat="47.12181" lon="-1.83598">
        <ele>64</ele>
        <time>2021-08-06T16:14:15.000Z</time>
      </trkpt>
      <trkpt lat="47.1217" lon="-1.83608">
        <ele>64</ele>
        <time>2021-08-06T16:14:17.000Z</time>
      </trkpt>
      <trkpt lat="47.12158" lon="-1.83617">
        <ele>64</ele>
        <time>2021-08-06T16:14:19.000Z</time>
      </trkpt>
      <trkpt lat="47.12147" lon="-1.83627">
        <ele>64</ele>
        <time>2021-08-06T16:14:21.000Z</time>
      </trkpt>
      <trkpt lat="47.12135" lon="-1.83637">
        <ele>64</ele>
        <time>2021-08-06T16:14:23.000Z</time>
      </trkpt>
      <trkpt lat="47.12124" lon="-1.83648">
        <ele>64</ele>
        <time>2021-08-06T16:14:25.000Z</time>
      </trkpt>
      <trkpt lat="47.12113" lon="-1.83658">
        <ele>64</ele>
        <time>2021-08-06T16:14:27.000Z</time>
      </trkpt>
      <trkpt lat="47.12101" lon="-1.83668">
        <ele>64</ele>
        <time>2021-08-06T16:14:29.000Z</time>
      </trkpt>
      <trkpt lat="47.1209" lon="-1.83678">
        <ele>64</ele>
        <time>2021-08-06T16:14:31.000Z</time>
      </trkpt>
      <trkpt lat="47.12078" lon="-1.83687">
        <ele>64</ele>
        <time>2021-08-06T16:14:33.000Z</time>
      </trkpt>
      <trkpt lat="47.12067" lon="-1.83698">
        <ele>64</ele>
        <time>2021-08-06T16:14:35.000Z</time>
      </trkpt>
      <trkpt lat="47.12057" lon="-1.83708">
        <ele>63</ele>
        <time>2021-08-06T16:14:37.000Z</time>
      </trkpt>
      <trkpt lat="47.12046" lon="-1.83718">
        <ele>63</ele>
        <time>2021-08-06T16:14:39.000Z</time>
      </trkpt>
      <trkpt lat="47.12035" lon="-1.83727">
        <ele>63</ele>
        <time>2021-08-06T16:14:41.000Z</time>
      </trkpt>
      <trkpt lat="47.12024" lon="-1.83737">
        <ele>63</ele>
        <time>2021-08-06T16:14:43.000Z</time>
      </trkpt>
      <trkpt lat="47.12012" lon="-1.83745">
        <ele>63</ele>
        <time>2021-08-06T16:14:45.000Z</time>
      </trkpt>
      <trkpt lat="47.12" lon="-1.83753">
        <ele>63</ele>
        <time>2021-08-06T16:14:47.000Z</time>
      </trkpt>
      <trkpt lat="47.11986" lon="-1.83757">
        <ele>63</ele>
        <time>2021-08-06T16:14:49.000Z</time>
      </trkpt>
      <trkpt lat="47.11973" lon="-1.83759">
        <ele>63</ele>
        <time>2021-08-06T16:14:51.000Z</time>
      </trkpt>
      <trkpt lat="47.1196" lon="-1.83759">
        <ele>63</ele>
        <time>2021-08-06T16:14:53.000Z</time>
      </trkpt>
      <trkpt lat="47.11947" lon="-1.83759">
        <ele>62</ele>
        <time>2021-08-06T16:14:55.000Z</time>
      </trkpt>
      <trkpt lat="47.11934" lon="-1.83762">
        <ele>62</ele>
        <time>2021-08-06T16:14:57.000Z</time>
      </trkpt>
      <trkpt lat="47.11921" lon="-1.83766">
        <ele>61</ele>
        <time>2021-08-06T16:14:59.000Z</time>
      </trkpt>
      <trkpt lat="47.11909" lon="-1.83774">
        <ele>61</ele>
        <time>2021-08-06T16:15:01.000Z</time>
      </trkpt>
      <trkpt lat="47.11897" lon="-1.83783">
        <ele>61</ele>
        <time>2021-08-06T16:15:03.000Z</time>
      </trkpt>
      <trkpt lat="47.11886" lon="-1.83793">
        <ele>61</ele>
        <time>2021-08-06T16:15:05.000Z</time>
      </trkpt>
      <trkpt lat="47.11874" lon="-1.83803">
        <ele>61</ele>
        <time>2021-08-06T16:15:07.000Z</time>
      </trkpt>
      <trkpt lat="47.11863" lon="-1.83814">
        <ele>61</ele>
        <time>2021-08-06T16:15:09.000Z</time>
      </trkpt>
      <trkpt lat="47.11851" lon="-1.83824">
        <ele>60</ele>
        <time>2021-08-06T16:15:11.000Z</time>
      </trkpt>
      <trkpt lat="47.11839" lon="-1.83835">
        <ele>60</ele>
        <time>2021-08-06T16:15:13.000Z</time>
      </trkpt>
      <trkpt lat="47.11828" lon="-1.83845">
        <ele>60</ele>
        <time>2021-08-06T16:15:15.000Z</time>
      </trkpt>
      <trkpt lat="47.11815" lon="-1.83856">
        <ele>59</ele>
        <time>2021-08-06T16:15:17.000Z</time>
      </trkpt>
      <trkpt lat="47.11803" lon="-1.83867">
        <ele>59</ele>
        <time>2021-08-06T16:15:19.000Z</time>
      </trkpt>
      <trkpt lat="47.11791" lon="-1.83878">
        <ele>58</ele>
        <time>2021-08-06T16:15:21.000Z</time>
      </trkpt>
      <trkpt lat="47.11779" lon="-1.83889">
        <ele>58</ele>
        <time>2021-08-06T16:15:23.000Z</time>
      </trkpt>
      <trkpt lat="47.11767" lon="-1.83903">
        <ele>58</ele>
        <time>2021-08-06T16:15:25.000Z</time>
      </trkpt>
      <trkpt lat="47.11757" lon="-1.83918">
        <ele>58</ele>
        <time>2021-08-06T16:15:27.000Z</time>
      </trkpt>
      <trkpt lat="47.11748" lon="-1.83935">
        <ele>57</ele>
        <time>2021-08-06T16:15:29.000Z</time>
      </trkpt>
      <trkpt lat="47.11739" lon="-1.83952">
        <ele>57</ele>
        <time>2021-08-06T16:15:31.000Z</time>
      </trkpt>
      <trkpt lat="47.1173" lon="-1.83969">
        <ele>56</ele>
        <time>2021-08-06T16:15:33.000Z</time>
      </trkpt>
      <trkpt lat="47.11721" lon="-1.83986">
        <ele>56</ele>
        <time>2021-08-06T16:15:35.000Z</time>
      </trkpt>
      <trkpt lat="47.1171" lon="-1.84001">
        <ele>56</ele>
        <time>2021-08-06T16:15:37.000Z</time>
      </trkpt>
      <trkpt lat="47.11699" lon="-1.84016">
        <ele>55</ele>
        <time>2021-08-06T16:15:39.000Z</time>
      </trkpt>
      <trkpt lat="47.11687" lon="-1.8403">
        <ele>55</ele>
        <time>2021-08-06T16:15:41.000Z</time>
      </trkpt>
      <trkpt lat="47.11675" lon="-1.84044">
        <ele>54</ele>
        <time>2021-08-06T16:15:43.000Z</time>
      </trkpt>
      <trkpt lat="47.11662" lon="-1.84058">
        <ele>54</ele>
        <time>2021-08-06T16:15:45.000Z</time>
      </trkpt>
      <trkpt lat="47.1165" lon="-1.84072">
        <ele>54</ele>
        <time>2021-08-06T16:15:47.000Z</time>
      </trkpt>
      <trkpt lat="47.11638" lon="-1.84086">
        <ele>54</ele>
        <time>2021-08-06T16:15:49.000Z</time>
      </trkpt>
      <trkpt lat="47.11626" lon="-1.84099">
        <ele>54</ele>
        <time>2021-08-06T16:15:51.000Z</time>
      </trkpt>
      <trkpt lat="47.11614" lon="-1.84113">
        <ele>55</ele>
        <time>2021-08-06T16:15:53.000Z</time>
      </trkpt>
      <trkpt lat="47.11602" lon="-1.84126">
        <ele>54</ele>
        <time>2021-08-06T16:15:55.000Z</time>
      </trkpt>
      <trkpt lat="47.11591" lon="-1.84139">
        <ele>54</ele>
        <time>2021-08-06T16:15:57.000Z</time>
      </trkpt>
      <trkpt lat="47.1158" lon="-1.84152">
        <ele>54</ele>
        <time>2021-08-06T16:15:59.000Z</time>
      </trkpt>
      <trkpt lat="47.11568" lon="-1.84165">
        <ele>54</ele>
        <time>2021-08-06T16:16:01.000Z</time>
      </trkpt>
      <trkpt lat="47.11557" lon="-1.84177">
        <ele>54</ele>
        <time>2021-08-06T16:16:03.000Z</time>
      </trkpt>
      <trkpt lat="47.11546" lon="-1.84189">
        <ele>53</ele>
        <time>2021-08-06T16:16:05.000Z</time>
      </trkpt>
      <trkpt lat="47.11535" lon="-1.84202">
        <ele>54</ele>
        <time>2021-08-06T16:16:07.000Z</time>
      </trkpt>
      <trkpt lat="47.11525" lon="-1.84214">
        <ele>54</ele>
        <time>2021-08-06T16:16:09.000Z</time>
      </trkpt>
      <trkpt lat="47.11513" lon="-1.84227">
        <ele>54</ele>
        <time>2021-08-06T16:16:11.000Z</time>
      </trkpt>
      <trkpt lat="47.11502" lon="-1.8424">
        <ele>54</ele>
        <time>2021-08-06T16:16:13.000Z</time>
      </trkpt>
      <trkpt lat="47.11491" lon="-1.84253">
        <ele>54</ele>
        <time>2021-08-06T16:16:15.000Z</time>
      </trkpt>
      <trkpt lat="47.11479" lon="-1.84266">
        <ele>54</ele>
        <time>2021-08-06T16:16:17.000Z</time>
      </trkpt>
      <trkpt lat="47.11468" lon="-1.84279">
        <ele>54</ele>
        <time>2021-08-06T16:16:19.000Z</time>
      </trkpt>
      <trkpt lat="47.11457" lon="-1.84291">
        <ele>54</ele>
        <time>2021-08-06T16:16:21.000Z</time>
      </trkpt>
      <trkpt lat="47.11446" lon="-1.84303">
        <ele>54</ele>
        <time>2021-08-06T16:16:23.000Z</time>
      </trkpt>
      <trkpt lat="47.11436" lon="-1.84316">
        <ele>54</ele>
        <time>2021-08-06T16:16:25.000Z</time>
      </trkpt>
      <trkpt lat="47.11425" lon="-1.8433">
        <ele>54</ele>
        <time>2021-08-06T16:16:27.000Z</time>
      </trkpt>
      <trkpt lat="47.11416" lon="-1.84345">
        <ele>54</ele>
        <time>2021-08-06T16:16:29.000Z</time>
      </trkpt>
      <trkpt lat="47.11407" lon="-1.8436">
        <ele>54</ele>
        <time>2021-08-06T16:16:31.000Z</time>
      </trkpt>
      <trkpt lat="47.11399" lon="-1.84374">
        <ele>53</ele>
        <time>2021-08-06T16:16:33.000Z</time>
      </trkpt>
      <trkpt lat="47.1139" lon="-1.8439">
        <ele>53</ele>
        <time>2021-08-06T16:16:35.000Z</time>
      </trkpt>
      <trkpt lat="47.11382" lon="-1.84404">
        <ele>53</ele>
        <time>2021-08-06T16:16:37.000Z</time>
      </trkpt>
      <trkpt lat="47.11373" lon="-1.84419">
        <ele>54</ele>
        <time>2021-08-06T16:16:39.000Z</time>
      </trkpt>
      <trkpt lat="47.11365" lon="-1.84433">
        <ele>54</ele>
        <time>2021-08-06T16:16:41.000Z</time>
      </trkpt>
      <trkpt lat="47.11356" lon="-1.84447">
        <ele>54</ele>
        <time>2021-08-06T16:16:43.000Z</time>
      </trkpt>
      <trkpt lat="47.11347" lon="-1.84461">
        <ele>54</ele>
        <time>2021-08-06T16:16:45.000Z</time>
      </trkpt>
      <trkpt lat="47.11338" lon="-1.84476">
        <ele>54</ele>
        <time>2021-08-06T16:16:47.000Z</time>
      </trkpt>
      <trkpt lat="47.11329" lon="-1.8449">
        <ele>54</ele>
        <time>2021-08-06T16:16:49.000Z</time>
      </trkpt>
      <trkpt lat="47.1132" lon="-1.84504">
        <ele>55</ele>
        <time>2021-08-06T16:16:51.000Z</time>
      </trkpt>
      <trkpt lat="47.11311" lon="-1.84518">
        <ele>55</ele>
        <time>2021-08-06T16:16:53.000Z</time>
      </trkpt>
      <trkpt lat="47.11302" lon="-1.84531">
        <ele>55</ele>
        <time>2021-08-06T16:16:55.000Z</time>
      </trkpt>
      <trkpt lat="47.11293" lon="-1.84544">
        <ele>55</ele>
        <time>2021-08-06T16:16:57.000Z</time>
      </trkpt>
      <trkpt lat="47.11283" lon="-1.84559">
        <ele>56</ele>
        <time>2021-08-06T16:16:59.000Z</time>
      </trkpt>
      <trkpt lat="47.11274" lon="-1.84572">
        <ele>55</ele>
        <time>2021-08-06T16:17:01.000Z</time>
      </trkpt>
      <trkpt lat="47.11266" lon="-1.84585">
        <ele>55</ele>
        <time>2021-08-06T16:17:03.000Z</time>
      </trkpt>
      <trkpt lat="47.11258" lon="-1.84598">
        <ele>55</ele>
        <time>2021-08-06T16:17:05.000Z</time>
      </trkpt>
      <trkpt lat="47.1125" lon="-1.8461">
        <ele>55</ele>
        <time>2021-08-06T16:17:07.000Z</time>
      </trkpt>
      <trkpt lat="47.11241" lon="-1.84622">
        <ele>55</ele>
        <time>2021-08-06T16:17:09.000Z</time>
      </trkpt>
      <trkpt lat="47.11233" lon="-1.84634">
        <ele>56</ele>
        <time>2021-08-06T16:17:11.000Z</time>
      </trkpt>
      <trkpt lat="47.11225" lon="-1.84646">
        <ele>56</ele>
        <time>2021-08-06T16:17:13.000Z</time>
      </trkpt>
      <trkpt lat="47.11216" lon="-1.84658">
        <ele>55</ele>
        <time>2021-08-06T16:17:15.000Z</time>
      </trkpt>
      <trkpt lat="47.11207" lon="-1.84669">
        <ele>55</ele>
        <time>2021-08-06T16:17:17.000Z</time>
      </trkpt>
      <trkpt lat="47.11198" lon="-1.8468">
        <ele>55</ele>
        <time>2021-08-06T16:17:19.000Z</time>
      </trkpt>
      <trkpt lat="47.11188" lon="-1.84691">
        <ele>56</ele>
        <time>2021-08-06T16:17:21.000Z</time>
      </trkpt>
      <trkpt lat="47.11178" lon="-1.847">
        <ele>56</ele>
        <time>2021-08-06T16:17:23.000Z</time>
      </trkpt>
      <trkpt lat="47.11167" lon="-1.84711">
        <ele>56</ele>
        <time>2021-08-06T16:17:25.000Z</time>
      </trkpt>
      <trkpt lat="47.11157" lon="-1.84721">
        <ele>56</ele>
        <time>2021-08-06T16:17:27.000Z</time>
      </trkpt>
      <trkpt lat="47.11146" lon="-1.84731">
        <ele>57</ele>
        <time>2021-08-06T16:17:29.000Z</time>
      </trkpt>
      <trkpt lat="47.11136" lon="-1.84741">
        <ele>57</ele>
        <time>2021-08-06T16:17:31.000Z</time>
      </trkpt>
      <trkpt lat="47.11125" lon="-1.84752">
        <ele>57</ele>
        <time>2021-08-06T16:17:33.000Z</time>
      </trkpt>
      <trkpt lat="47.11114" lon="-1.84761">
        <ele>57</ele>
        <time>2021-08-06T16:17:35.000Z</time>
      </trkpt>
      <trkpt lat="47.11103" lon="-1.84771">
        <ele>56</ele>
        <time>2021-08-06T16:17:37.000Z</time>
      </trkpt>
      <trkpt lat="47.11092" lon="-1.84781">
        <ele>56</ele>
        <time>2021-08-06T16:17:39.000Z</time>
      </trkpt>
      <trkpt lat="47.11082" lon="-1.84791">
        <ele>57</ele>
        <time>2021-08-06T16:17:41.000Z</time>
      </trkpt>
      <trkpt lat="47.11072" lon="-1.84801">
        <ele>56</ele>
        <time>2021-08-06T16:17:43.000Z</time>
      </trkpt>
      <trkpt lat="47.11061" lon="-1.84811">
        <ele>56</ele>
        <time>2021-08-06T16:17:45.000Z</time>
      </trkpt>
      <trkpt lat="47.1105" lon="-1.84822">
        <ele>56</ele>
        <time>2021-08-06T16:17:47.000Z</time>
      </trkpt>
      <trkpt lat="47.11039" lon="-1.84833">
        <ele>56</ele>
        <time>2021-08-06T16:17:49.000Z</time>
      </trkpt>
      <trkpt lat="47.11028" lon="-1.84844">
        <ele>56</ele>
        <time>2021-08-06T16:17:51.000Z</time>
      </trkpt>
      <trkpt lat="47.11018" lon="-1.84856">
        <ele>56</ele>
        <time>2021-08-06T16:17:53.000Z</time>
      </trkpt>
      <trkpt lat="47.11008" lon="-1.8487">
        <ele>56</ele>
        <time>2021-08-06T16:17:55.000Z</time>
      </trkpt>
      <trkpt lat="47.11" lon="-1.84887">
        <ele>55</ele>
        <time>2021-08-06T16:17:57.000Z</time>
      </trkpt>
      <trkpt lat="47.10994" lon="-1.84904">
        <ele>54</ele>
        <time>2021-08-06T16:17:59.000Z</time>
      </trkpt>
      <trkpt lat="47.1099" lon="-1.84923">
        <ele>54</ele>
        <time>2021-08-06T16:18:01.000Z</time>
      </trkpt>
      <trkpt lat="47.10988" lon="-1.84942">
        <ele>54</ele>
        <time>2021-08-06T16:18:03.000Z</time>
      </trkpt>
      <trkpt lat="47.10987" lon="-1.84961">
        <ele>54</ele>
        <time>2021-08-06T16:18:05.000Z</time>
      </trkpt>
      <trkpt lat="47.10985" lon="-1.8498">
        <ele>53</ele>
        <time>2021-08-06T16:18:07.000Z</time>
      </trkpt>
      <trkpt lat="47.10984" lon="-1.84999">
        <ele>53</ele>
        <time>2021-08-06T16:18:09.000Z</time>
      </trkpt>
      <trkpt lat="47.10984" lon="-1.85018">
        <ele>53</ele>
        <time>2021-08-06T16:18:11.000Z</time>
      </trkpt>
      <trkpt lat="47.10983" lon="-1.85036">
        <ele>54</ele>
        <time>2021-08-06T16:18:13.000Z</time>
      </trkpt>
      <trkpt lat="47.10982" lon="-1.85054">
        <ele>54</ele>
        <time>2021-08-06T16:18:15.000Z</time>
      </trkpt>
      <trkpt lat="47.10982" lon="-1.85073">
        <ele>54</ele>
        <time>2021-08-06T16:18:17.000Z</time>
      </trkpt>
      <trkpt lat="47.10981" lon="-1.85092">
        <ele>54</ele>
        <time>2021-08-06T16:18:19.000Z</time>
      </trkpt>
      <trkpt lat="47.10979" lon="-1.85111">
        <ele>54</ele>
        <time>2021-08-06T16:18:21.000Z</time>
      </trkpt>
      <trkpt lat="47.10977" lon="-1.85129">
        <ele>54</ele>
        <time>2021-08-06T16:18:23.000Z</time>
      </trkpt>
      <trkpt lat="47.10974" lon="-1.85146">
        <ele>54</ele>
        <time>2021-08-06T16:18:25.000Z</time>
      </trkpt>
      <trkpt lat="47.10971" lon="-1.85164">
        <ele>55</ele>
        <time>2021-08-06T16:18:27.000Z</time>
      </trkpt>
      <trkpt lat="47.10967" lon="-1.85182">
        <ele>55</ele>
        <time>2021-08-06T16:18:29.000Z</time>
      </trkpt>
      <trkpt lat="47.10963" lon="-1.85199">
        <ele>55</ele>
        <time>2021-08-06T16:18:31.000Z</time>
      </trkpt>
      <trkpt lat="47.10958" lon="-1.85216">
        <ele>55</ele>
        <time>2021-08-06T16:18:33.000Z</time>
      </trkpt>
      <trkpt lat="47.10952" lon="-1.85234">
        <ele>55</ele>
        <time>2021-08-06T16:18:35.000Z</time>
      </trkpt>
      <trkpt lat="47.10947" lon="-1.8525">
        <ele>54</ele>
        <time>2021-08-06T16:18:37.000Z</time>
      </trkpt>
      <trkpt lat="47.10942" lon="-1.85267">
        <ele>54</ele>
        <time>2021-08-06T16:18:39.000Z</time>
      </trkpt>
      <trkpt lat="47.10938" lon="-1.85284">
        <ele>53</ele>
        <time>2021-08-06T16:18:41.000Z</time>
      </trkpt>
      <trkpt lat="47.10934" lon="-1.853">
        <ele>53</ele>
        <time>2021-08-06T16:18:43.000Z</time>
      </trkpt>
      <trkpt lat="47.10929" lon="-1.85317">
        <ele>53</ele>
        <time>2021-08-06T16:18:45.000Z</time>
      </trkpt>
      <trkpt lat="47.10925" lon="-1.85334">
        <ele>53</ele>
        <time>2021-08-06T16:18:47.000Z</time>
      </trkpt>
      <trkpt lat="47.1092" lon="-1.85351">
        <ele>53</ele>
        <time>2021-08-06T16:18:49.000Z</time>
      </trkpt>
      <trkpt lat="47.10915" lon="-1.85369">
        <ele>54</ele>
        <time>2021-08-06T16:18:51.000Z</time>
      </trkpt>
      <trkpt lat="47.1091" lon="-1.85385">
        <ele>54</ele>
        <time>2021-08-06T16:18:53.000Z</time>
      </trkpt>
      <trkpt lat="47.10905" lon="-1.85402">
        <ele>54</ele>
        <time>2021-08-06T16:18:55.000Z</time>
      </trkpt>
      <trkpt lat="47.109" lon="-1.85419">
        <ele>54</ele>
        <time>2021-08-06T16:18:57.000Z</time>
      </trkpt>
      <trkpt lat="47.10895" lon="-1.85437">
        <ele>54</ele>
        <time>2021-08-06T16:18:59.000Z</time>
      </trkpt>
      <trkpt lat="47.1089" lon="-1.85454">
        <ele>55</ele>
        <time>2021-08-06T16:19:01.000Z</time>
      </trkpt>
      <trkpt lat="47.10884" lon="-1.85472">
        <ele>54</ele>
        <time>2021-08-06T16:19:03.000Z</time>
      </trkpt>
      <trkpt lat="47.10879" lon="-1.85489">
        <ele>54</ele>
        <time>2021-08-06T16:19:05.000Z</time>
      </trkpt>
      <trkpt lat="47.10874" lon="-1.85507">
        <ele>54</ele>
        <time>2021-08-06T16:19:07.000Z</time>
      </trkpt>
      <trkpt lat="47.10869" lon="-1.85524">
        <ele>54</ele>
        <time>2021-08-06T16:19:09.000Z</time>
      </trkpt>
      <trkpt lat="47.10864" lon="-1.85541">
        <ele>54</ele>
        <time>2021-08-06T16:19:11.000Z</time>
      </trkpt>
      <trkpt lat="47.10859" lon="-1.85559">
        <ele>55</ele>
        <time>2021-08-06T16:19:13.000Z</time>
      </trkpt>
      <trkpt lat="47.10854" lon="-1.85577">
        <ele>54</ele>
        <time>2021-08-06T16:19:15.000Z</time>
      </trkpt>
      <trkpt lat="47.1085" lon="-1.85594">
        <ele>55</ele>
        <time>2021-08-06T16:19:17.000Z</time>
      </trkpt>
      <trkpt lat="47.10846" lon="-1.85613">
        <ele>55</ele>
        <time>2021-08-06T16:19:19.000Z</time>
      </trkpt>
      <trkpt lat="47.10843" lon="-1.85631">
        <ele>56</ele>
        <time>2021-08-06T16:19:21.000Z</time>
      </trkpt>
      <trkpt lat="47.10839" lon="-1.8565">
        <ele>55</ele>
        <time>2021-08-06T16:19:23.000Z</time>
      </trkpt>
      <trkpt lat="47.10836" lon="-1.85668">
        <ele>56</ele>
        <time>2021-08-06T16:19:25.000Z</time>
      </trkpt>
      <trkpt lat="47.10833" lon="-1.85687">
        <ele>56</ele>
        <time>2021-08-06T16:19:27.000Z</time>
      </trkpt>
      <trkpt lat="47.10829" lon="-1.85705">
        <ele>56</ele>
        <time>2021-08-06T16:19:29.000Z</time>
      </trkpt>
      <trkpt lat="47.10825" lon="-1.85723">
        <ele>55</ele>
        <time>2021-08-06T16:19:31.000Z</time>
      </trkpt>
      <trkpt lat="47.10822" lon="-1.85741">
        <ele>55</ele>
        <time>2021-08-06T16:19:33.000Z</time>
      </trkpt>
      <trkpt lat="47.10819" lon="-1.85759">
        <ele>55</ele>
        <time>2021-08-06T16:19:35.000Z</time>
      </trkpt>
      <trkpt lat="47.10817" lon="-1.85776">
        <ele>55</ele>
        <time>2021-08-06T16:19:37.000Z</time>
      </trkpt>
      <trkpt lat="47.10814" lon="-1.85792">
        <ele>55</ele>
        <time>2021-08-06T16:19:39.000Z</time>
      </trkpt>
      <trkpt lat="47.1081" lon="-1.85809">
        <ele>54</ele>
        <time>2021-08-06T16:19:41.000Z</time>
      </trkpt>
      <trkpt lat="47.10805" lon="-1.85826">
        <ele>54</ele>
        <time>2021-08-06T16:19:43.000Z</time>
      </trkpt>
      <trkpt lat="47.10801" lon="-1.85844">
        <ele>55</ele>
        <time>2021-08-06T16:19:45.000Z</time>
      </trkpt>
      <trkpt lat="47.10796" lon="-1.85861">
        <ele>55</ele>
        <time>2021-08-06T16:19:47.000Z</time>
      </trkpt>
      <trkpt lat="47.10791" lon="-1.85879">
        <ele>56</ele>
        <time>2021-08-06T16:19:49.000Z</time>
      </trkpt>
      <trkpt lat="47.10786" lon="-1.85896">
        <ele>55</ele>
        <time>2021-08-06T16:19:51.000Z</time>
      </trkpt>
      <trkpt lat="47.10781" lon="-1.85913">
        <ele>55</ele>
        <time>2021-08-06T16:19:53.000Z</time>
      </trkpt>
      <trkpt lat="47.10775" lon="-1.85929">
        <ele>55</ele>
        <time>2021-08-06T16:19:55.000Z</time>
      </trkpt>
      <trkpt lat="47.1077" lon="-1.85946">
        <ele>55</ele>
        <time>2021-08-06T16:19:57.000Z</time>
      </trkpt>
      <trkpt lat="47.10765" lon="-1.85962">
        <ele>55</ele>
        <time>2021-08-06T16:19:59.000Z</time>
      </trkpt>
      <trkpt lat="47.10761" lon="-1.85978">
        <ele>55</ele>
        <time>2021-08-06T16:20:01.000Z</time>
      </trkpt>
      <trkpt lat="47.10757" lon="-1.85995">
        <ele>56</ele>
        <time>2021-08-06T16:20:03.000Z</time>
      </trkpt>
      <trkpt lat="47.10751" lon="-1.86013">
        <ele>56</ele>
        <time>2021-08-06T16:20:05.000Z</time>
      </trkpt>
      <trkpt lat="47.10744" lon="-1.8603">
        <ele>57</ele>
        <time>2021-08-06T16:20:07.000Z</time>
      </trkpt>
      <trkpt lat="47.10736" lon="-1.86045">
        <ele>57</ele>
        <time>2021-08-06T16:20:09.000Z</time>
      </trkpt>
      <trkpt lat="47.10727" lon="-1.86058">
        <ele>57</ele>
        <time>2021-08-06T16:20:11.000Z</time>
      </trkpt>
      <trkpt lat="47.10718" lon="-1.86071">
        <ele>57</ele>
        <time>2021-08-06T16:20:13.000Z</time>
      </trkpt>
      <trkpt lat="47.10709" lon="-1.86084">
        <ele>57</ele>
        <time>2021-08-06T16:20:15.000Z</time>
      </trkpt>
      <trkpt lat="47.107" lon="-1.86096">
        <ele>56</ele>
        <time>2021-08-06T16:20:17.000Z</time>
      </trkpt>
      <trkpt lat="47.1069" lon="-1.86108">
        <ele>56</ele>
        <time>2021-08-06T16:20:19.000Z</time>
      </trkpt>
      <trkpt lat="47.10682" lon="-1.86119">
        <ele>56</ele>
        <time>2021-08-06T16:20:21.000Z</time>
      </trkpt>
      <trkpt lat="47.10672" lon="-1.86131">
        <ele>56</ele>
        <time>2021-08-06T16:20:23.000Z</time>
      </trkpt>
      <trkpt lat="47.10663" lon="-1.86142">
        <ele>56</ele>
        <time>2021-08-06T16:20:25.000Z</time>
      </trkpt>
      <trkpt lat="47.10654" lon="-1.86154">
        <ele>56</ele>
        <time>2021-08-06T16:20:27.000Z</time>
      </trkpt>
      <trkpt lat="47.10645" lon="-1.86166">
        <ele>56</ele>
        <time>2021-08-06T16:20:29.000Z</time>
      </trkpt>
      <trkpt lat="47.10636" lon="-1.86178">
        <ele>56</ele>
        <time>2021-08-06T16:20:31.000Z</time>
      </trkpt>
      <trkpt lat="47.10627" lon="-1.8619">
        <ele>56</ele>
        <time>2021-08-06T16:20:33.000Z</time>
      </trkpt>
      <trkpt lat="47.10618" lon="-1.86202">
        <ele>56</ele>
        <time>2021-08-06T16:20:35.000Z</time>
      </trkpt>
      <trkpt lat="47.10609" lon="-1.86214">
        <ele>56</ele>
        <time>2021-08-06T16:20:37.000Z</time>
      </trkpt>
      <trkpt lat="47.106" lon="-1.86225">
        <ele>57</ele>
        <time>2021-08-06T16:20:39.000Z</time>
      </trkpt>
      <trkpt lat="47.10592" lon="-1.86237">
        <ele>57</ele>
        <time>2021-08-06T16:20:41.000Z</time>
      </trkpt>
      <trkpt lat="47.10583" lon="-1.86249">
        <ele>57</ele>
        <time>2021-08-06T16:20:43.000Z</time>
      </trkpt>
      <trkpt lat="47.10574" lon="-1.86261">
        <ele>57</ele>
        <time>2021-08-06T16:20:45.000Z</time>
      </trkpt>
      <trkpt lat="47.10564" lon="-1.86272">
        <ele>58</ele>
        <time>2021-08-06T16:20:47.000Z</time>
      </trkpt>
      <trkpt lat="47.10557" lon="-1.86283">
        <ele>58</ele>
        <time>2021-08-06T16:20:49.000Z</time>
      </trkpt>
      <trkpt lat="47.10549" lon="-1.86295">
        <ele>59</ele>
        <time>2021-08-06T16:20:51.000Z</time>
      </trkpt>
      <trkpt lat="47.10541" lon="-1.86306">
        <ele>59</ele>
        <time>2021-08-06T16:20:53.000Z</time>
      </trkpt>
      <trkpt lat="47.10533" lon="-1.86317">
        <ele>59</ele>
        <time>2021-08-06T16:20:55.000Z</time>
      </trkpt>
      <trkpt lat="47.10524" lon="-1.86328">
        <ele>60</ele>
        <time>2021-08-06T16:20:57.000Z</time>
      </trkpt>
      <trkpt lat="47.10516" lon="-1.86339">
        <ele>60</ele>
        <time>2021-08-06T16:20:59.000Z</time>
      </trkpt>
      <trkpt lat="47.10508" lon="-1.8635">
        <ele>60</ele>
        <time>2021-08-06T16:21:01.000Z</time>
      </trkpt>
      <trkpt lat="47.10498" lon="-1.86359">
        <ele>60</ele>
        <time>2021-08-06T16:21:03.000Z</time>
      </trkpt>
      <trkpt lat="47.10488" lon="-1.86367">
        <ele>61</ele>
        <time>2021-08-06T16:21:05.000Z</time>
      </trkpt>
      <trkpt lat="47.10478" lon="-1.86375">
        <ele>61</ele>
        <time>2021-08-06T16:21:07.000Z</time>
      </trkpt>
      <trkpt lat="47.10467" lon="-1.86382">
        <ele>61</ele>
        <time>2021-08-06T16:21:09.000Z</time>
      </trkpt>
      <trkpt lat="47.10457" lon="-1.8639">
        <ele>61</ele>
        <time>2021-08-06T16:21:11.000Z</time>
      </trkpt>
      <trkpt lat="47.10447" lon="-1.86398">
        <ele>61</ele>
        <time>2021-08-06T16:21:13.000Z</time>
      </trkpt>
      <trkpt lat="47.10437" lon="-1.86405">
        <ele>61</ele>
        <time>2021-08-06T16:21:15.000Z</time>
      </trkpt>
      <trkpt lat="47.10426" lon="-1.86412">
        <ele>61</ele>
        <time>2021-08-06T16:21:17.000Z</time>
      </trkpt>
      <trkpt lat="47.10415" lon="-1.8642">
        <ele>61</ele>
        <time>2021-08-06T16:21:19.000Z</time>
      </trkpt>
      <trkpt lat="47.10405" lon="-1.86428">
        <ele>61</ele>
        <time>2021-08-06T16:21:21.000Z</time>
      </trkpt>
      <trkpt lat="47.10395" lon="-1.86434">
        <ele>61</ele>
        <time>2021-08-06T16:21:23.000Z</time>
      </trkpt>
      <trkpt lat="47.10384" lon="-1.86441">
        <ele>61</ele>
        <time>2021-08-06T16:21:25.000Z</time>
      </trkpt>
      <trkpt lat="47.10373" lon="-1.86448">
        <ele>61</ele>
        <time>2021-08-06T16:21:27.000Z</time>
      </trkpt>
      <trkpt lat="47.10362" lon="-1.86452">
        <ele>60</ele>
        <time>2021-08-06T16:21:29.000Z</time>
      </trkpt>
      <trkpt lat="47.10351" lon="-1.86457">
        <ele>60</ele>
        <time>2021-08-06T16:21:31.000Z</time>
      </trkpt>
      <trkpt lat="47.10341" lon="-1.86462">
        <ele>60</ele>
        <time>2021-08-06T16:21:33.000Z</time>
      </trkpt>
      <trkpt lat="47.10332" lon="-1.86472">
        <ele>60</ele>
        <time>2021-08-06T16:21:36.000Z</time>
      </trkpt>
      <trkpt lat="47.10335" lon="-1.86493">
        <ele>60</ele>
        <time>2021-08-06T16:21:39.000Z</time>
      </trkpt>
      <trkpt lat="47.1033" lon="-1.86506">
        <ele>60</ele>
        <time>2021-08-06T16:21:41.000Z</time>
      </trkpt>
      <trkpt lat="47.10317" lon="-1.8651">
        <ele>60</ele>
        <time>2021-08-06T16:21:43.000Z</time>
      </trkpt>
      <trkpt lat="47.10306" lon="-1.8651">
        <ele>61</ele>
        <time>2021-08-06T16:21:45.000Z</time>
      </trkpt>
      <trkpt lat="47.10294" lon="-1.86511">
        <ele>61</ele>
        <time>2021-08-06T16:21:47.000Z</time>
      </trkpt>
      <trkpt lat="47.10283" lon="-1.86516">
        <ele>61</ele>
        <time>2021-08-06T16:21:49.000Z</time>
      </trkpt>
      <trkpt lat="47.10272" lon="-1.86516">
        <ele>61</ele>
        <time>2021-08-06T16:21:51.000Z</time>
      </trkpt>
      <trkpt lat="47.10265" lon="-1.86503">
        <ele>62</ele>
        <time>2021-08-06T16:21:53.000Z</time>
      </trkpt>
      <trkpt lat="47.10259" lon="-1.86488">
        <ele>61</ele>
        <time>2021-08-06T16:21:55.000Z</time>
      </trkpt>
      <trkpt lat="47.1025" lon="-1.86474">
        <ele>61</ele>
        <time>2021-08-06T16:21:57.000Z</time>
      </trkpt>
      <trkpt lat="47.10238" lon="-1.86473">
        <ele>61</ele>
        <time>2021-08-06T16:21:59.000Z</time>
      </trkpt>
      <trkpt lat="47.10221" lon="-1.86483">
        <ele>60</ele>
        <time>2021-08-06T16:22:02.000Z</time>
      </trkpt>
      <trkpt lat="47.10209" lon="-1.8649">
        <ele>61</ele>
        <time>2021-08-06T16:22:04.000Z</time>
      </trkpt>
      <trkpt lat="47.10199" lon="-1.86496">
        <ele>61</ele>
        <time>2021-08-06T16:22:06.000Z</time>
      </trkpt>
      <trkpt lat="47.10188" lon="-1.865">
        <ele>61</ele>
        <time>2021-08-06T16:22:08.000Z</time>
      </trkpt>
      <trkpt lat="47.10177" lon="-1.86505">
        <ele>61</ele>
        <time>2021-08-06T16:22:10.000Z</time>
      </trkpt>
      <trkpt lat="47.10167" lon="-1.86511">
        <ele>61</ele>
        <time>2021-08-06T16:22:12.000Z</time>
      </trkpt>
      <trkpt lat="47.10156" lon="-1.86518">
        <ele>61</ele>
        <time>2021-08-06T16:22:14.000Z</time>
      </trkpt>
      <trkpt lat="47.10145" lon="-1.86523">
        <ele>61</ele>
        <time>2021-08-06T16:22:16.000Z</time>
      </trkpt>
      <trkpt lat="47.10134" lon="-1.86526">
        <ele>62</ele>
        <time>2021-08-06T16:22:18.000Z</time>
      </trkpt>
      <trkpt lat="47.10123" lon="-1.86529">
        <ele>62</ele>
        <time>2021-08-06T16:22:20.000Z</time>
      </trkpt>
      <trkpt lat="47.10111" lon="-1.86532">
        <ele>62</ele>
        <time>2021-08-06T16:22:22.000Z</time>
      </trkpt>
      <trkpt lat="47.101" lon="-1.86535">
        <ele>63</ele>
        <time>2021-08-06T16:22:24.000Z</time>
      </trkpt>
      <trkpt lat="47.10089" lon="-1.86539">
        <ele>63</ele>
        <time>2021-08-06T16:22:26.000Z</time>
      </trkpt>
      <trkpt lat="47.10078" lon="-1.86542">
        <ele>63</ele>
        <time>2021-08-06T16:22:28.000Z</time>
      </trkpt>
      <trkpt lat="47.10062" lon="-1.86549">
        <ele>63</ele>
        <time>2021-08-06T16:22:31.000Z</time>
      </trkpt>
      <trkpt lat="47.10051" lon="-1.86557">
        <ele>63</ele>
        <time>2021-08-06T16:22:33.000Z</time>
      </trkpt>
      <trkpt lat="47.10041" lon="-1.86563">
        <ele>63</ele>
        <time>2021-08-06T16:22:35.000Z</time>
      </trkpt>
      <trkpt lat="47.10031" lon="-1.86571">
        <ele>63</ele>
        <time>2021-08-06T16:22:37.000Z</time>
      </trkpt>
      <trkpt lat="47.10023" lon="-1.86579">
        <ele>63</ele>
        <time>2021-08-06T16:22:39.000Z</time>
      </trkpt>
      <trkpt lat="47.10014" lon="-1.86587">
        <ele>64</ele>
        <time>2021-08-06T16:22:41.000Z</time>
      </trkpt>
      <trkpt lat="47.10005" lon="-1.86595">
        <ele>64</ele>
        <time>2021-08-06T16:22:43.000Z</time>
      </trkpt>
      <trkpt lat="47.09996" lon="-1.86604">
        <ele>63</ele>
        <time>2021-08-06T16:22:45.000Z</time>
      </trkpt>
      <trkpt lat="47.09987" lon="-1.86613">
        <ele>63</ele>
        <time>2021-08-06T16:22:47.000Z</time>
      </trkpt>
      <trkpt lat="47.09982" lon="-1.86627">
        <ele>63</ele>
        <time>2021-08-06T16:22:49.000Z</time>
      </trkpt>
      <trkpt lat="47.09977" lon="-1.8664">
        <ele>63</ele>
        <time>2021-08-06T16:22:51.000Z</time>
      </trkpt>
      <trkpt lat="47.09967" lon="-1.86647">
        <ele>63</ele>
        <time>2021-08-06T16:22:53.000Z</time>
      </trkpt>
      <trkpt lat="47.09956" lon="-1.8665">
        <ele>63</ele>
        <time>2021-08-06T16:22:55.000Z</time>
      </trkpt>
      <trkpt lat="47.09945" lon="-1.86653">
        <ele>63</ele>
        <time>2021-08-06T16:22:57.000Z</time>
      </trkpt>
      <trkpt lat="47.09935" lon="-1.8666">
        <ele>64</ele>
        <time>2021-08-06T16:22:59.000Z</time>
      </trkpt>
      <trkpt lat="47.09926" lon="-1.8667">
        <ele>64</ele>
        <time>2021-08-06T16:23:01.000Z</time>
      </trkpt>
      <trkpt lat="47.09917" lon="-1.86679">
        <ele>64</ele>
        <time>2021-08-06T16:23:03.000Z</time>
      </trkpt>
      <trkpt lat="47.09907" lon="-1.86689">
        <ele>64</ele>
        <time>2021-08-06T16:23:05.000Z</time>
      </trkpt>
      <trkpt lat="47.09899" lon="-1.86699">
        <ele>65</ele>
        <time>2021-08-06T16:23:07.000Z</time>
      </trkpt>
      <trkpt lat="47.0989" lon="-1.86709">
        <ele>64</ele>
        <time>2021-08-06T16:23:09.000Z</time>
      </trkpt>
      <trkpt lat="47.09879" lon="-1.86716">
        <ele>64</ele>
        <time>2021-08-06T16:23:11.000Z</time>
      </trkpt>
      <trkpt lat="47.09869" lon="-1.86721">
        <ele>64</ele>
        <time>2021-08-06T16:23:13.000Z</time>
      </trkpt>
      <trkpt lat="47.09859" lon="-1.86727">
        <ele>65</ele>
        <time>2021-08-06T16:23:15.000Z</time>
      </trkpt>
      <trkpt lat="47.09849" lon="-1.86734">
        <ele>65</ele>
        <time>2021-08-06T16:23:17.000Z</time>
      </trkpt>
      <trkpt lat="47.09838" lon="-1.8674">
        <ele>65</ele>
        <time>2021-08-06T16:23:19.000Z</time>
      </trkpt>
      <trkpt lat="47.09828" lon="-1.86746">
        <ele>65</ele>
        <time>2021-08-06T16:23:21.000Z</time>
      </trkpt>
      <trkpt lat="47.09817" lon="-1.86751">
        <ele>64</ele>
        <time>2021-08-06T16:23:23.000Z</time>
      </trkpt>
      <trkpt lat="47.09807" lon="-1.86757">
        <ele>64</ele>
        <time>2021-08-06T16:23:25.000Z</time>
      </trkpt>
      <trkpt lat="47.09796" lon="-1.86763">
        <ele>64</ele>
        <time>2021-08-06T16:23:27.000Z</time>
      </trkpt>
      <trkpt lat="47.09785" lon="-1.86768">
        <ele>64</ele>
        <time>2021-08-06T16:23:29.000Z</time>
      </trkpt>
      <trkpt lat="47.09774" lon="-1.86773">
        <ele>64</ele>
        <time>2021-08-06T16:23:31.000Z</time>
      </trkpt>
      <trkpt lat="47.09763" lon="-1.86779">
        <ele>64</ele>
        <time>2021-08-06T16:23:33.000Z</time>
      </trkpt>
      <trkpt lat="47.09752" lon="-1.86785">
        <ele>64</ele>
        <time>2021-08-06T16:23:35.000Z</time>
      </trkpt>
      <trkpt lat="47.09742" lon="-1.86791">
        <ele>65</ele>
        <time>2021-08-06T16:23:37.000Z</time>
      </trkpt>
      <trkpt lat="47.09731" lon="-1.86796">
        <ele>65</ele>
        <time>2021-08-06T16:23:39.000Z</time>
      </trkpt>
      <trkpt lat="47.09721" lon="-1.86802">
        <ele>65</ele>
        <time>2021-08-06T16:23:41.000Z</time>
      </trkpt>
      <trkpt lat="47.09711" lon="-1.86808">
        <ele>65</ele>
        <time>2021-08-06T16:23:43.000Z</time>
      </trkpt>
      <trkpt lat="47.09701" lon="-1.86816">
        <ele>65</ele>
        <time>2021-08-06T16:23:45.000Z</time>
      </trkpt>
      <trkpt lat="47.09691" lon="-1.86823">
        <ele>65</ele>
        <time>2021-08-06T16:23:47.000Z</time>
      </trkpt>
      <trkpt lat="47.09681" lon="-1.86831">
        <ele>64</ele>
        <time>2021-08-06T16:23:49.000Z</time>
      </trkpt>
      <trkpt lat="47.09672" lon="-1.8684">
        <ele>64</ele>
        <time>2021-08-06T16:23:51.000Z</time>
      </trkpt>
      <trkpt lat="47.09662" lon="-1.86849">
        <ele>64</ele>
        <time>2021-08-06T16:23:53.000Z</time>
      </trkpt>
      <trkpt lat="47.09653" lon="-1.86858">
        <ele>64</ele>
        <time>2021-08-06T16:23:55.000Z</time>
      </trkpt>
      <trkpt lat="47.09643" lon="-1.86868">
        <ele>64</ele>
        <time>2021-08-06T16:23:57.000Z</time>
      </trkpt>
      <trkpt lat="47.09633" lon="-1.86876">
        <ele>64</ele>
        <time>2021-08-06T16:23:59.000Z</time>
      </trkpt>
      <trkpt lat="47.09623" lon="-1.86886">
        <ele>65</ele>
        <time>2021-08-06T16:24:01.000Z</time>
      </trkpt>
      <trkpt lat="47.09613" lon="-1.86895">
        <ele>65</ele>
        <time>2021-08-06T16:24:03.000Z</time>
      </trkpt>
      <trkpt lat="47.09603" lon="-1.86904">
        <ele>64</ele>
        <time>2021-08-06T16:24:05.000Z</time>
      </trkpt>
      <trkpt lat="47.09594" lon="-1.86913">
        <ele>64</ele>
        <time>2021-08-06T16:24:07.000Z</time>
      </trkpt>
      <trkpt lat="47.09584" lon="-1.86923">
        <ele>65</ele>
        <time>2021-08-06T16:24:09.000Z</time>
      </trkpt>
      <trkpt lat="47.09574" lon="-1.86932">
        <ele>64</ele>
        <time>2021-08-06T16:24:11.000Z</time>
      </trkpt>
      <trkpt lat="47.09564" lon="-1.86941">
        <ele>64</ele>
        <time>2021-08-06T16:24:13.000Z</time>
      </trkpt>
      <trkpt lat="47.09553" lon="-1.86951">
        <ele>64</ele>
        <time>2021-08-06T16:24:15.000Z</time>
      </trkpt>
      <trkpt lat="47.09543" lon="-1.86961">
        <ele>64</ele>
        <time>2021-08-06T16:24:17.000Z</time>
      </trkpt>
      <trkpt lat="47.09534" lon="-1.86971">
        <ele>64</ele>
        <time>2021-08-06T16:24:19.000Z</time>
      </trkpt>
      <trkpt lat="47.09524" lon="-1.86981">
        <ele>64</ele>
        <time>2021-08-06T16:24:21.000Z</time>
      </trkpt>
      <trkpt lat="47.09515" lon="-1.86993">
        <ele>64</ele>
        <time>2021-08-06T16:24:23.000Z</time>
      </trkpt>
      <trkpt lat="47.09505" lon="-1.87004">
        <ele>64</ele>
        <time>2021-08-06T16:24:25.000Z</time>
      </trkpt>
      <trkpt lat="47.09496" lon="-1.87015">
        <ele>63</ele>
        <time>2021-08-06T16:24:27.000Z</time>
      </trkpt>
      <trkpt lat="47.09487" lon="-1.87027">
        <ele>63</ele>
        <time>2021-08-06T16:24:29.000Z</time>
      </trkpt>
      <trkpt lat="47.09478" lon="-1.87039">
        <ele>64</ele>
        <time>2021-08-06T16:24:31.000Z</time>
      </trkpt>
      <trkpt lat="47.09469" lon="-1.8705">
        <ele>64</ele>
        <time>2021-08-06T16:24:33.000Z</time>
      </trkpt>
      <trkpt lat="47.09459" lon="-1.87062">
        <ele>64</ele>
        <time>2021-08-06T16:24:35.000Z</time>
      </trkpt>
      <trkpt lat="47.09449" lon="-1.87074">
        <ele>64</ele>
        <time>2021-08-06T16:24:37.000Z</time>
      </trkpt>
      <trkpt lat="47.0944" lon="-1.87086">
        <ele>63</ele>
        <time>2021-08-06T16:24:39.000Z</time>
      </trkpt>
      <trkpt lat="47.0943" lon="-1.87099">
        <ele>64</ele>
        <time>2021-08-06T16:24:41.000Z</time>
      </trkpt>
      <trkpt lat="47.0942" lon="-1.87111">
        <ele>63</ele>
        <time>2021-08-06T16:24:43.000Z</time>
      </trkpt>
      <trkpt lat="47.0941" lon="-1.87123">
        <ele>64</ele>
        <time>2021-08-06T16:24:45.000Z</time>
      </trkpt>
      <trkpt lat="47.09401" lon="-1.87134">
        <ele>64</ele>
        <time>2021-08-06T16:24:47.000Z</time>
      </trkpt>
      <trkpt lat="47.09391" lon="-1.87146">
        <ele>64</ele>
        <time>2021-08-06T16:24:49.000Z</time>
      </trkpt>
      <trkpt lat="47.09381" lon="-1.87158">
        <ele>64</ele>
        <time>2021-08-06T16:24:51.000Z</time>
      </trkpt>
      <trkpt lat="47.09372" lon="-1.87169">
        <ele>64</ele>
        <time>2021-08-06T16:24:53.000Z</time>
      </trkpt>
      <trkpt lat="47.09363" lon="-1.87181">
        <ele>65</ele>
        <time>2021-08-06T16:24:55.000Z</time>
      </trkpt>
      <trkpt lat="47.09353" lon="-1.87193">
        <ele>65</ele>
        <time>2021-08-06T16:24:57.000Z</time>
      </trkpt>
      <trkpt lat="47.09344" lon="-1.87206">
        <ele>65</ele>
        <time>2021-08-06T16:24:59.000Z</time>
      </trkpt>
      <trkpt lat="47.09335" lon="-1.87218">
        <ele>65</ele>
        <time>2021-08-06T16:25:01.000Z</time>
      </trkpt>
      <trkpt lat="47.09326" lon="-1.8723">
        <ele>64</ele>
        <time>2021-08-06T16:25:03.000Z</time>
      </trkpt>
      <trkpt lat="47.09317" lon="-1.87242">
        <ele>64</ele>
        <time>2021-08-06T16:25:05.000Z</time>
      </trkpt>
      <trkpt lat="47.09307" lon="-1.87253">
        <ele>64</ele>
        <time>2021-08-06T16:25:07.000Z</time>
      </trkpt>
      <trkpt lat="47.09298" lon="-1.87266">
        <ele>64</ele>
        <time>2021-08-06T16:25:09.000Z</time>
      </trkpt>
      <trkpt lat="47.09288" lon="-1.87278">
        <ele>64</ele>
        <time>2021-08-06T16:25:11.000Z</time>
      </trkpt>
      <trkpt lat="47.09279" lon="-1.8729">
        <ele>64</ele>
        <time>2021-08-06T16:25:13.000Z</time>
      </trkpt>
      <trkpt lat="47.0927" lon="-1.87301">
        <ele>64</ele>
        <time>2021-08-06T16:25:15.000Z</time>
      </trkpt>
      <trkpt lat="47.0926" lon="-1.87313">
        <ele>64</ele>
        <time>2021-08-06T16:25:17.000Z</time>
      </trkpt>
      <trkpt lat="47.0925" lon="-1.87325">
        <ele>64</ele>
        <time>2021-08-06T16:25:19.000Z</time>
      </trkpt>
      <trkpt lat="47.09241" lon="-1.87338">
        <ele>64</ele>
        <time>2021-08-06T16:25:21.000Z</time>
      </trkpt>
      <trkpt lat="47.09231" lon="-1.8735">
        <ele>64</ele>
        <time>2021-08-06T16:25:23.000Z</time>
      </trkpt>
      <trkpt lat="47.09221" lon="-1.87362">
        <ele>64</ele>
        <time>2021-08-06T16:25:25.000Z</time>
      </trkpt>
      <trkpt lat="47.09211" lon="-1.87375">
        <ele>64</ele>
        <time>2021-08-06T16:25:27.000Z</time>
      </trkpt>
      <trkpt lat="47.09201" lon="-1.87386">
        <ele>64</ele>
        <time>2021-08-06T16:25:29.000Z</time>
      </trkpt>
      <trkpt lat="47.09192" lon="-1.87398">
        <ele>65</ele>
        <time>2021-08-06T16:25:31.000Z</time>
      </trkpt>
      <trkpt lat="47.09183" lon="-1.87409">
        <ele>65</ele>
        <time>2021-08-06T16:25:33.000Z</time>
      </trkpt>
      <trkpt lat="47.09174" lon="-1.87421">
        <ele>65</ele>
        <time>2021-08-06T16:25:35.000Z</time>
      </trkpt>
      <trkpt lat="47.09164" lon="-1.87433">
        <ele>65</ele>
        <time>2021-08-06T16:25:37.000Z</time>
      </trkpt>
      <trkpt lat="47.09155" lon="-1.87444">
        <ele>65</ele>
        <time>2021-08-06T16:25:39.000Z</time>
      </trkpt>
      <trkpt lat="47.09146" lon="-1.87455">
        <ele>65</ele>
        <time>2021-08-06T16:25:41.000Z</time>
      </trkpt>
      <trkpt lat="47.09138" lon="-1.87467">
        <ele>66</ele>
        <time>2021-08-06T16:25:43.000Z</time>
      </trkpt>
      <trkpt lat="47.09129" lon="-1.87478">
        <ele>66</ele>
        <time>2021-08-06T16:25:45.000Z</time>
      </trkpt>
      <trkpt lat="47.0912" lon="-1.87489">
        <ele>66</ele>
        <time>2021-08-06T16:25:47.000Z</time>
      </trkpt>
      <trkpt lat="47.09111" lon="-1.87501">
        <ele>66</ele>
        <time>2021-08-06T16:25:49.000Z</time>
      </trkpt>
      <trkpt lat="47.09102" lon="-1.87513">
        <ele>66</ele>
        <time>2021-08-06T16:25:51.000Z</time>
      </trkpt>
      <trkpt lat="47.09094" lon="-1.87525">
        <ele>66</ele>
        <time>2021-08-06T16:25:53.000Z</time>
      </trkpt>
      <trkpt lat="47.09085" lon="-1.87537">
        <ele>66</ele>
        <time>2021-08-06T16:25:55.000Z</time>
      </trkpt>
      <trkpt lat="47.09077" lon="-1.8755">
        <ele>66</ele>
        <time>2021-08-06T16:25:57.000Z</time>
      </trkpt>
      <trkpt lat="47.09068" lon="-1.87563">
        <ele>66</ele>
        <time>2021-08-06T16:25:59.000Z</time>
      </trkpt>
      <trkpt lat="47.0906" lon="-1.87575">
        <ele>66</ele>
        <time>2021-08-06T16:26:01.000Z</time>
      </trkpt>
      <trkpt lat="47.09051" lon="-1.87588">
        <ele>66</ele>
        <time>2021-08-06T16:26:03.000Z</time>
      </trkpt>
      <trkpt lat="47.09042" lon="-1.876">
        <ele>66</ele>
        <time>2021-08-06T16:26:05.000Z</time>
      </trkpt>
      <trkpt lat="47.09033" lon="-1.87612">
        <ele>67</ele>
        <time>2021-08-06T16:26:07.000Z</time>
      </trkpt>
      <trkpt lat="47.09023" lon="-1.87624">
        <ele>67</ele>
        <time>2021-08-06T16:26:09.000Z</time>
      </trkpt>
      <trkpt lat="47.09014" lon="-1.87636">
        <ele>68</ele>
        <time>2021-08-06T16:26:11.000Z</time>
      </trkpt>
      <trkpt lat="47.09005" lon="-1.87646">
        <ele>68</ele>
        <time>2021-08-06T16:26:13.000Z</time>
      </trkpt>
      <trkpt lat="47.08995" lon="-1.87657">
        <ele>68</ele>
        <time>2021-08-06T16:26:15.000Z</time>
      </trkpt>
      <trkpt lat="47.08985" lon="-1.87668">
        <ele>68</ele>
        <time>2021-08-06T16:26:17.000Z</time>
      </trkpt>
      <trkpt lat="47.08975" lon="-1.87678">
        <ele>68</ele>
        <time>2021-08-06T16:26:19.000Z</time>
      </trkpt>
      <trkpt lat="47.08966" lon="-1.87689">
        <ele>68</ele>
        <time>2021-08-06T16:26:21.000Z</time>
      </trkpt>
      <trkpt lat="47.08957" lon="-1.877">
        <ele>68</ele>
        <time>2021-08-06T16:26:23.000Z</time>
      </trkpt>
      <trkpt lat="47.08948" lon="-1.87711">
        <ele>68</ele>
        <time>2021-08-06T16:26:25.000Z</time>
      </trkpt>
      <trkpt lat="47.08939" lon="-1.87721">
        <ele>68</ele>
        <time>2021-08-06T16:26:27.000Z</time>
      </trkpt>
      <trkpt lat="47.0893" lon="-1.87732">
        <ele>68</ele>
        <time>2021-08-06T16:26:29.000Z</time>
      </trkpt>
      <trkpt lat="47.08921" lon="-1.87744">
        <ele>68</ele>
        <time>2021-08-06T16:26:31.000Z</time>
      </trkpt>
      <trkpt lat="47.08913" lon="-1.87755">
        <ele>68</ele>
        <time>2021-08-06T16:26:33.000Z</time>
      </trkpt>
      <trkpt lat="47.08904" lon="-1.87766">
        <ele>68</ele>
        <time>2021-08-06T16:26:35.000Z</time>
      </trkpt>
      <trkpt lat="47.08896" lon="-1.87777">
        <ele>69</ele>
        <time>2021-08-06T16:26:37.000Z</time>
      </trkpt>
      <trkpt lat="47.08887" lon="-1.87789">
        <ele>69</ele>
        <time>2021-08-06T16:26:39.000Z</time>
      </trkpt>
      <trkpt lat="47.08878" lon="-1.878">
        <ele>69</ele>
        <time>2021-08-06T16:26:41.000Z</time>
      </trkpt>
      <trkpt lat="47.08869" lon="-1.87811">
        <ele>69</ele>
        <time>2021-08-06T16:26:43.000Z</time>
      </trkpt>
      <trkpt lat="47.0886" lon="-1.87823">
        <ele>69</ele>
        <time>2021-08-06T16:26:45.000Z</time>
      </trkpt>
      <trkpt lat="47.08852" lon="-1.87833">
        <ele>69</ele>
        <time>2021-08-06T16:26:47.000Z</time>
      </trkpt>
      <trkpt lat="47.08843" lon="-1.87845">
        <ele>69</ele>
        <time>2021-08-06T16:26:49.000Z</time>
      </trkpt>
      <trkpt lat="47.08834" lon="-1.87856">
        <ele>69</ele>
        <time>2021-08-06T16:26:51.000Z</time>
      </trkpt>
      <trkpt lat="47.08825" lon="-1.87868">
        <ele>69</ele>
        <time>2021-08-06T16:26:53.000Z</time>
      </trkpt>
      <trkpt lat="47.08816" lon="-1.8788">
        <ele>69</ele>
        <time>2021-08-06T16:26:55.000Z</time>
      </trkpt>
      <trkpt lat="47.08807" lon="-1.87891">
        <ele>69</ele>
        <time>2021-08-06T16:26:57.000Z</time>
      </trkpt>
      <trkpt lat="47.08798" lon="-1.87902">
        <ele>70</ele>
        <time>2021-08-06T16:26:59.000Z</time>
      </trkpt>
      <trkpt lat="47.0879" lon="-1.87914">
        <ele>70</ele>
        <time>2021-08-06T16:27:01.000Z</time>
      </trkpt>
      <trkpt lat="47.0878" lon="-1.87926">
        <ele>70</ele>
        <time>2021-08-06T16:27:03.000Z</time>
      </trkpt>
      <trkpt lat="47.08771" lon="-1.87937">
        <ele>70</ele>
        <time>2021-08-06T16:27:05.000Z</time>
      </trkpt>
      <trkpt lat="47.08763" lon="-1.87949">
        <ele>70</ele>
        <time>2021-08-06T16:27:07.000Z</time>
      </trkpt>
      <trkpt lat="47.08754" lon="-1.8796">
        <ele>70</ele>
        <time>2021-08-06T16:27:09.000Z</time>
      </trkpt>
      <trkpt lat="47.08745" lon="-1.87971">
        <ele>70</ele>
        <time>2021-08-06T16:27:11.000Z</time>
      </trkpt>
      <trkpt lat="47.08737" lon="-1.87982">
        <ele>71</ele>
        <time>2021-08-06T16:27:13.000Z</time>
      </trkpt>
      <trkpt lat="47.08728" lon="-1.87994">
        <ele>71</ele>
        <time>2021-08-06T16:27:15.000Z</time>
      </trkpt>
      <trkpt lat="47.0872" lon="-1.88005">
        <ele>71</ele>
        <time>2021-08-06T16:27:17.000Z</time>
      </trkpt>
      <trkpt lat="47.08711" lon="-1.88016">
        <ele>71</ele>
        <time>2021-08-06T16:27:19.000Z</time>
      </trkpt>
      <trkpt lat="47.08702" lon="-1.88027">
        <ele>72</ele>
        <time>2021-08-06T16:27:21.000Z</time>
      </trkpt>
      <trkpt lat="47.08694" lon="-1.88038">
        <ele>72</ele>
        <time>2021-08-06T16:27:23.000Z</time>
      </trkpt>
      <trkpt lat="47.08685" lon="-1.88049">
        <ele>72</ele>
        <time>2021-08-06T16:27:25.000Z</time>
      </trkpt>
      <trkpt lat="47.08677" lon="-1.88061">
        <ele>72</ele>
        <time>2021-08-06T16:27:27.000Z</time>
      </trkpt>
      <trkpt lat="47.08668" lon="-1.88072">
        <ele>72</ele>
        <time>2021-08-06T16:27:29.000Z</time>
      </trkpt>
      <trkpt lat="47.0866" lon="-1.88083">
        <ele>72</ele>
        <time>2021-08-06T16:27:31.000Z</time>
      </trkpt>
      <trkpt lat="47.08651" lon="-1.88094">
        <ele>72</ele>
        <time>2021-08-06T16:27:33.000Z</time>
      </trkpt>
      <trkpt lat="47.08643" lon="-1.88104">
        <ele>72</ele>
        <time>2021-08-06T16:27:35.000Z</time>
      </trkpt>
      <trkpt lat="47.08633" lon="-1.88116">
        <ele>72</ele>
        <time>2021-08-06T16:27:37.000Z</time>
      </trkpt>
      <trkpt lat="47.08624" lon="-1.88127">
        <ele>73</ele>
        <time>2021-08-06T16:27:39.000Z</time>
      </trkpt>
      <trkpt lat="47.08615" lon="-1.88139">
        <ele>72</ele>
        <time>2021-08-06T16:27:41.000Z</time>
      </trkpt>
      <trkpt lat="47.08606" lon="-1.88151">
        <ele>72</ele>
        <time>2021-08-06T16:27:43.000Z</time>
      </trkpt>
      <trkpt lat="47.08597" lon="-1.88163">
        <ele>72</ele>
        <time>2021-08-06T16:27:45.000Z</time>
      </trkpt>
      <trkpt lat="47.08588" lon="-1.88174">
        <ele>72</ele>
        <time>2021-08-06T16:27:47.000Z</time>
      </trkpt>
      <trkpt lat="47.08579" lon="-1.88186">
        <ele>72</ele>
        <time>2021-08-06T16:27:49.000Z</time>
      </trkpt>
      <trkpt lat="47.0857" lon="-1.88197">
        <ele>72</ele>
        <time>2021-08-06T16:27:51.000Z</time>
      </trkpt>
      <trkpt lat="47.08561" lon="-1.88208">
        <ele>73</ele>
        <time>2021-08-06T16:27:53.000Z</time>
      </trkpt>
      <trkpt lat="47.08552" lon="-1.88219">
        <ele>72</ele>
        <time>2021-08-06T16:27:55.000Z</time>
      </trkpt>
      <trkpt lat="47.08542" lon="-1.8823">
        <ele>72</ele>
        <time>2021-08-06T16:27:57.000Z</time>
      </trkpt>
      <trkpt lat="47.08531" lon="-1.8824">
        <ele>72</ele>
        <time>2021-08-06T16:27:59.000Z</time>
      </trkpt>
      <trkpt lat="47.08522" lon="-1.8825">
        <ele>72</ele>
        <time>2021-08-06T16:28:01.000Z</time>
      </trkpt>
      <trkpt lat="47.08512" lon="-1.88259">
        <ele>72</ele>
        <time>2021-08-06T16:28:03.000Z</time>
      </trkpt>
      <trkpt lat="47.08501" lon="-1.88268">
        <ele>72</ele>
        <time>2021-08-06T16:28:05.000Z</time>
      </trkpt>
      <trkpt lat="47.08491" lon="-1.88278">
        <ele>72</ele>
        <time>2021-08-06T16:28:07.000Z</time>
      </trkpt>
      <trkpt lat="47.08481" lon="-1.88288">
        <ele>72</ele>
        <time>2021-08-06T16:28:09.000Z</time>
      </trkpt>
      <trkpt lat="47.0847" lon="-1.88297">
        <ele>72</ele>
        <time>2021-08-06T16:28:11.000Z</time>
      </trkpt>
      <trkpt lat="47.0846" lon="-1.88307">
        <ele>72</ele>
        <time>2021-08-06T16:28:13.000Z</time>
      </trkpt>
      <trkpt lat="47.0845" lon="-1.88316">
        <ele>73</ele>
        <time>2021-08-06T16:28:15.000Z</time>
      </trkpt>
      <trkpt lat="47.08439" lon="-1.88326">
        <ele>73</ele>
        <time>2021-08-06T16:28:17.000Z</time>
      </trkpt>
      <trkpt lat="47.08429" lon="-1.88335">
        <ele>73</ele>
        <time>2021-08-06T16:28:19.000Z</time>
      </trkpt>
      <trkpt lat="47.08419" lon="-1.88345">
        <ele>74</ele>
        <time>2021-08-06T16:28:21.000Z</time>
      </trkpt>
      <trkpt lat="47.08409" lon="-1.88354">
        <ele>74</ele>
        <time>2021-08-06T16:28:23.000Z</time>
      </trkpt>
      <trkpt lat="47.08398" lon="-1.88364">
        <ele>74</ele>
        <time>2021-08-06T16:28:25.000Z</time>
      </trkpt>
      <trkpt lat="47.08388" lon="-1.88373">
        <ele>74</ele>
        <time>2021-08-06T16:28:27.000Z</time>
      </trkpt>
      <trkpt lat="47.08378" lon="-1.88382">
        <ele>74</ele>
        <time>2021-08-06T16:28:29.000Z</time>
      </trkpt>
      <trkpt lat="47.08368" lon="-1.88392">
        <ele>74</ele>
        <time>2021-08-06T16:28:31.000Z</time>
      </trkpt>
      <trkpt lat="47.08358" lon="-1.884">
        <ele>74</ele>
        <time>2021-08-06T16:28:33.000Z</time>
      </trkpt>
      <trkpt lat="47.08347" lon="-1.88409">
        <ele>74</ele>
        <time>2021-08-06T16:28:35.000Z</time>
      </trkpt>
      <trkpt lat="47.08336" lon="-1.88418">
        <ele>73</ele>
        <time>2021-08-06T16:28:37.000Z</time>
      </trkpt>
      <trkpt lat="47.08325" lon="-1.88426">
        <ele>73</ele>
        <time>2021-08-06T16:28:39.000Z</time>
      </trkpt>
      <trkpt lat="47.08315" lon="-1.88434">
        <ele>73</ele>
        <time>2021-08-06T16:28:41.000Z</time>
      </trkpt>
      <trkpt lat="47.08304" lon="-1.88441">
        <ele>73</ele>
        <time>2021-08-06T16:28:43.000Z</time>
      </trkpt>
      <trkpt lat="47.08293" lon="-1.88448">
        <ele>73</ele>
        <time>2021-08-06T16:28:45.000Z</time>
      </trkpt>
      <trkpt lat="47.08281" lon="-1.88454">
        <ele>73</ele>
        <time>2021-08-06T16:28:47.000Z</time>
      </trkpt>
      <trkpt lat="47.0827" lon="-1.8846">
        <ele>73</ele>
        <time>2021-08-06T16:28:49.000Z</time>
      </trkpt>
      <trkpt lat="47.08258" lon="-1.88466">
        <ele>73</ele>
        <time>2021-08-06T16:28:51.000Z</time>
      </trkpt>
      <trkpt lat="47.08247" lon="-1.88471">
        <ele>73</ele>
        <time>2021-08-06T16:28:53.000Z</time>
      </trkpt>
      <trkpt lat="47.08235" lon="-1.88476">
        <ele>74</ele>
        <time>2021-08-06T16:28:55.000Z</time>
      </trkpt>
      <trkpt lat="47.08224" lon="-1.88481">
        <ele>74</ele>
        <time>2021-08-06T16:28:57.000Z</time>
      </trkpt>
      <trkpt lat="47.08212" lon="-1.88486">
        <ele>74</ele>
        <time>2021-08-06T16:28:59.000Z</time>
      </trkpt>
      <trkpt lat="47.08201" lon="-1.88491">
        <ele>74</ele>
        <time>2021-08-06T16:29:01.000Z</time>
      </trkpt>
      <trkpt lat="47.08189" lon="-1.88496">
        <ele>74</ele>
        <time>2021-08-06T16:29:03.000Z</time>
      </trkpt>
      <trkpt lat="47.08178" lon="-1.88501">
        <ele>74</ele>
        <time>2021-08-06T16:29:05.000Z</time>
      </trkpt>
      <trkpt lat="47.08166" lon="-1.88505">
        <ele>75</ele>
        <time>2021-08-06T16:29:07.000Z</time>
      </trkpt>
      <trkpt lat="47.08154" lon="-1.8851">
        <ele>75</ele>
        <time>2021-08-06T16:29:09.000Z</time>
      </trkpt>
      <trkpt lat="47.08142" lon="-1.88514">
        <ele>75</ele>
        <time>2021-08-06T16:29:11.000Z</time>
      </trkpt>
      <trkpt lat="47.0813" lon="-1.88518">
        <ele>75</ele>
        <time>2021-08-06T16:29:13.000Z</time>
      </trkpt>
      <trkpt lat="47.08117" lon="-1.88522">
        <ele>75</ele>
        <time>2021-08-06T16:29:15.000Z</time>
      </trkpt>
      <trkpt lat="47.08104" lon="-1.88526">
        <ele>75</ele>
        <time>2021-08-06T16:29:17.000Z</time>
      </trkpt>
      <trkpt lat="47.08092" lon="-1.88529">
        <ele>75</ele>
        <time>2021-08-06T16:29:19.000Z</time>
      </trkpt>
      <trkpt lat="47.08079" lon="-1.88532">
        <ele>75</ele>
        <time>2021-08-06T16:29:21.000Z</time>
      </trkpt>
      <trkpt lat="47.08066" lon="-1.88536">
        <ele>75</ele>
        <time>2021-08-06T16:29:23.000Z</time>
      </trkpt>
      <trkpt lat="47.08053" lon="-1.88538">
        <ele>75</ele>
        <time>2021-08-06T16:29:25.000Z</time>
      </trkpt>
      <trkpt lat="47.0804" lon="-1.88541">
        <ele>74</ele>
        <time>2021-08-06T16:29:27.000Z</time>
      </trkpt>
      <trkpt lat="47.08028" lon="-1.88544">
        <ele>74</ele>
        <time>2021-08-06T16:29:29.000Z</time>
      </trkpt>
      <trkpt lat="47.08015" lon="-1.88547">
        <ele>74</ele>
        <time>2021-08-06T16:29:31.000Z</time>
      </trkpt>
      <trkpt lat="47.08003" lon="-1.88549">
        <ele>74</ele>
        <time>2021-08-06T16:29:33.000Z</time>
      </trkpt>
      <trkpt lat="47.07991" lon="-1.88551">
        <ele>74</ele>
        <time>2021-08-06T16:29:35.000Z</time>
      </trkpt>
      <trkpt lat="47.07978" lon="-1.88554">
        <ele>75</ele>
        <time>2021-08-06T16:29:37.000Z</time>
      </trkpt>
      <trkpt lat="47.07965" lon="-1.88557">
        <ele>74</ele>
        <time>2021-08-06T16:29:39.000Z</time>
      </trkpt>
      <trkpt lat="47.07953" lon="-1.8856">
        <ele>75</ele>
        <time>2021-08-06T16:29:41.000Z</time>
      </trkpt>
      <trkpt lat="47.0794" lon="-1.88562">
        <ele>75</ele>
        <time>2021-08-06T16:29:43.000Z</time>
      </trkpt>
      <trkpt lat="47.07928" lon="-1.88565">
        <ele>75</ele>
        <time>2021-08-06T16:29:45.000Z</time>
      </trkpt>
      <trkpt lat="47.07916" lon="-1.88568">
        <ele>75</ele>
        <time>2021-08-06T16:29:47.000Z</time>
      </trkpt>
      <trkpt lat="47.07904" lon="-1.88571">
        <ele>75</ele>
        <time>2021-08-06T16:29:49.000Z</time>
      </trkpt>
      <trkpt lat="47.07891" lon="-1.88573">
        <ele>75</ele>
        <time>2021-08-06T16:29:51.000Z</time>
      </trkpt>
      <trkpt lat="47.07879" lon="-1.88576">
        <ele>75</ele>
        <time>2021-08-06T16:29:53.000Z</time>
      </trkpt>
      <trkpt lat="47.07866" lon="-1.88579">
        <ele>75</ele>
        <time>2021-08-06T16:29:55.000Z</time>
      </trkpt>
      <trkpt lat="47.07853" lon="-1.88582">
        <ele>75</ele>
        <time>2021-08-06T16:29:57.000Z</time>
      </trkpt>
      <trkpt lat="47.07841" lon="-1.88586">
        <ele>75</ele>
        <time>2021-08-06T16:29:59.000Z</time>
      </trkpt>
      <trkpt lat="47.07829" lon="-1.88589">
        <ele>75</ele>
        <time>2021-08-06T16:30:01.000Z</time>
      </trkpt>
      <trkpt lat="47.07817" lon="-1.88593">
        <ele>75</ele>
        <time>2021-08-06T16:30:03.000Z</time>
      </trkpt>
      <trkpt lat="47.07804" lon="-1.88597">
        <ele>76</ele>
        <time>2021-08-06T16:30:05.000Z</time>
      </trkpt>
      <trkpt lat="47.07793" lon="-1.88603">
        <ele>76</ele>
        <time>2021-08-06T16:30:07.000Z</time>
      </trkpt>
      <trkpt lat="47.07781" lon="-1.88609">
        <ele>76</ele>
        <time>2021-08-06T16:30:09.000Z</time>
      </trkpt>
      <trkpt lat="47.07769" lon="-1.88616">
        <ele>76</ele>
        <time>2021-08-06T16:30:11.000Z</time>
      </trkpt>
      <trkpt lat="47.07757" lon="-1.88623">
        <ele>75</ele>
        <time>2021-08-06T16:30:13.000Z</time>
      </trkpt>
      <trkpt lat="47.07746" lon="-1.88632">
        <ele>75</ele>
        <time>2021-08-06T16:30:15.000Z</time>
      </trkpt>
      <trkpt lat="47.07736" lon="-1.88642">
        <ele>75</ele>
        <time>2021-08-06T16:30:17.000Z</time>
      </trkpt>
      <trkpt lat="47.07727" lon="-1.88654">
        <ele>75</ele>
        <time>2021-08-06T16:30:19.000Z</time>
      </trkpt>
      <trkpt lat="47.07718" lon="-1.88666">
        <ele>74</ele>
        <time>2021-08-06T16:30:21.000Z</time>
      </trkpt>
      <trkpt lat="47.07709" lon="-1.88678">
        <ele>74</ele>
        <time>2021-08-06T16:30:23.000Z</time>
      </trkpt>
      <trkpt lat="47.07701" lon="-1.88692">
        <ele>74</ele>
        <time>2021-08-06T16:30:25.000Z</time>
      </trkpt>
      <trkpt lat="47.07693" lon="-1.88705">
        <ele>74</ele>
        <time>2021-08-06T16:30:27.000Z</time>
      </trkpt>
      <trkpt lat="47.07684" lon="-1.88718">
        <ele>74</ele>
        <time>2021-08-06T16:30:29.000Z</time>
      </trkpt>
      <trkpt lat="47.07674" lon="-1.88731">
        <ele>74</ele>
        <time>2021-08-06T16:30:31.000Z</time>
      </trkpt>
      <trkpt lat="47.07664" lon="-1.88743">
        <ele>74</ele>
        <time>2021-08-06T16:30:33.000Z</time>
      </trkpt>
      <trkpt lat="47.07655" lon="-1.88755">
        <ele>74</ele>
        <time>2021-08-06T16:30:35.000Z</time>
      </trkpt>
      <trkpt lat="47.07644" lon="-1.88767">
        <ele>73</ele>
        <time>2021-08-06T16:30:37.000Z</time>
      </trkpt>
      <trkpt lat="47.07633" lon="-1.88778">
        <ele>73</ele>
        <time>2021-08-06T16:30:39.000Z</time>
      </trkpt>
      <trkpt lat="47.07623" lon="-1.88789">
        <ele>73</ele>
        <time>2021-08-06T16:30:41.000Z</time>
      </trkpt>
      <trkpt lat="47.07613" lon="-1.888">
        <ele>73</ele>
        <time>2021-08-06T16:30:43.000Z</time>
      </trkpt>
      <trkpt lat="47.07604" lon="-1.88811">
        <ele>73</ele>
        <time>2021-08-06T16:30:45.000Z</time>
      </trkpt>
      <trkpt lat="47.07594" lon="-1.88823">
        <ele>73</ele>
        <time>2021-08-06T16:30:47.000Z</time>
      </trkpt>
      <trkpt lat="47.07584" lon="-1.88833">
        <ele>73</ele>
        <time>2021-08-06T16:30:49.000Z</time>
      </trkpt>
      <trkpt lat="47.07574" lon="-1.88845">
        <ele>73</ele>
        <time>2021-08-06T16:30:51.000Z</time>
      </trkpt>
      <trkpt lat="47.07564" lon="-1.88857">
        <ele>73</ele>
        <time>2021-08-06T16:30:53.000Z</time>
      </trkpt>
      <trkpt lat="47.07554" lon="-1.88868">
        <ele>74</ele>
        <time>2021-08-06T16:30:55.000Z</time>
      </trkpt>
      <trkpt lat="47.07544" lon="-1.88879">
        <ele>73</ele>
        <time>2021-08-06T16:30:57.000Z</time>
      </trkpt>
      <trkpt lat="47.07533" lon="-1.8889">
        <ele>73</ele>
        <time>2021-08-06T16:30:59.000Z</time>
      </trkpt>
      <trkpt lat="47.07522" lon="-1.88903">
        <ele>73</ele>
        <time>2021-08-06T16:31:01.000Z</time>
      </trkpt>
      <trkpt lat="47.07512" lon="-1.88914">
        <ele>73</ele>
        <time>2021-08-06T16:31:03.000Z</time>
      </trkpt>
      <trkpt lat="47.07502" lon="-1.88925">
        <ele>73</ele>
        <time>2021-08-06T16:31:05.000Z</time>
      </trkpt>
      <trkpt lat="47.07492" lon="-1.88937">
        <ele>73</ele>
        <time>2021-08-06T16:31:07.000Z</time>
      </trkpt>
      <trkpt lat="47.07483" lon="-1.88948">
        <ele>72</ele>
        <time>2021-08-06T16:31:09.000Z</time>
      </trkpt>
      <trkpt lat="47.07475" lon="-1.88958">
        <ele>73</ele>
        <time>2021-08-06T16:31:11.000Z</time>
      </trkpt>
      <trkpt lat="47.07467" lon="-1.88966">
        <ele>73</ele>
        <time>2021-08-06T16:31:13.000Z</time>
      </trkpt>
      <trkpt lat="47.07456" lon="-1.88977">
        <ele>73</ele>
        <time>2021-08-06T16:31:16.000Z</time>
      </trkpt>
      <trkpt lat="47.07447" lon="-1.88987">
        <ele>74</ele>
        <time>2021-08-06T16:31:19.000Z</time>
      </trkpt>
      <trkpt lat="47.07438" lon="-1.88995">
        <ele>74</ele>
        <time>2021-08-06T16:31:21.000Z</time>
      </trkpt>
      <trkpt lat="47.07428" lon="-1.89002">
        <ele>74</ele>
        <time>2021-08-06T16:31:23.000Z</time>
      </trkpt>
      <trkpt lat="47.07417" lon="-1.8901">
        <ele>73</ele>
        <time>2021-08-06T16:31:25.000Z</time>
      </trkpt>
      <trkpt lat="47.07406" lon="-1.89017">
        <ele>73</ele>
        <time>2021-08-06T16:31:27.000Z</time>
      </trkpt>
      <trkpt lat="47.07395" lon="-1.89025">
        <ele>74</ele>
        <time>2021-08-06T16:31:29.000Z</time>
      </trkpt>
      <trkpt lat="47.07384" lon="-1.89032">
        <ele>74</ele>
        <time>2021-08-06T16:31:31.000Z</time>
      </trkpt>
      <trkpt lat="47.07372" lon="-1.89039">
        <ele>74</ele>
        <time>2021-08-06T16:31:33.000Z</time>
      </trkpt>
      <trkpt lat="47.07361" lon="-1.89047">
        <ele>74</ele>
        <time>2021-08-06T16:31:35.000Z</time>
      </trkpt>
      <trkpt lat="47.07349" lon="-1.89054">
        <ele>74</ele>
        <time>2021-08-06T16:31:37.000Z</time>
      </trkpt>
      <trkpt lat="47.07338" lon="-1.89062">
        <ele>74</ele>
        <time>2021-08-06T16:31:39.000Z</time>
      </trkpt>
      <trkpt lat="47.07326" lon="-1.89066">
        <ele>75</ele>
        <time>2021-08-06T16:31:41.000Z</time>
      </trkpt>
      <trkpt lat="47.07314" lon="-1.89067">
        <ele>74</ele>
        <time>2021-08-06T16:31:43.000Z</time>
      </trkpt>
      <trkpt lat="47.07302" lon="-1.89066">
        <ele>74</ele>
        <time>2021-08-06T16:31:45.000Z</time>
      </trkpt>
      <trkpt lat="47.0729" lon="-1.89062">
        <ele>74</ele>
        <time>2021-08-06T16:31:47.000Z</time>
      </trkpt>
      <trkpt lat="47.07278" lon="-1.89059">
        <ele>74</ele>
        <time>2021-08-06T16:31:49.000Z</time>
      </trkpt>
      <trkpt lat="47.07265" lon="-1.89056">
        <ele>74</ele>
        <time>2021-08-06T16:31:51.000Z</time>
      </trkpt>
      <trkpt lat="47.07253" lon="-1.89052">
        <ele>73</ele>
        <time>2021-08-06T16:31:53.000Z</time>
      </trkpt>
      <trkpt lat="47.07241" lon="-1.8905">
        <ele>74</ele>
        <time>2021-08-06T16:31:55.000Z</time>
      </trkpt>
      <trkpt lat="47.07228" lon="-1.8905">
        <ele>74</ele>
        <time>2021-08-06T16:31:57.000Z</time>
      </trkpt>
      <trkpt lat="47.07215" lon="-1.8905">
        <ele>73</ele>
        <time>2021-08-06T16:31:59.000Z</time>
      </trkpt>
      <trkpt lat="47.07202" lon="-1.89052">
        <ele>73</ele>
        <time>2021-08-06T16:32:01.000Z</time>
      </trkpt>
      <trkpt lat="47.07189" lon="-1.89054">
        <ele>74</ele>
        <time>2021-08-06T16:32:03.000Z</time>
      </trkpt>
      <trkpt lat="47.07177" lon="-1.89056">
        <ele>73</ele>
        <time>2021-08-06T16:32:05.000Z</time>
      </trkpt>
      <trkpt lat="47.07165" lon="-1.89059">
        <ele>74</ele>
        <time>2021-08-06T16:32:07.000Z</time>
      </trkpt>
      <trkpt lat="47.07152" lon="-1.89061">
        <ele>74</ele>
        <time>2021-08-06T16:32:09.000Z</time>
      </trkpt>
      <trkpt lat="47.07139" lon="-1.89064">
        <ele>74</ele>
        <time>2021-08-06T16:32:11.000Z</time>
      </trkpt>
      <trkpt lat="47.07127" lon="-1.89068">
        <ele>73</ele>
        <time>2021-08-06T16:32:13.000Z</time>
      </trkpt>
      <trkpt lat="47.07114" lon="-1.89071">
        <ele>73</ele>
        <time>2021-08-06T16:32:15.000Z</time>
      </trkpt>
      <trkpt lat="47.07102" lon="-1.89074">
        <ele>73</ele>
        <time>2021-08-06T16:32:17.000Z</time>
      </trkpt>
      <trkpt lat="47.07089" lon="-1.89076">
        <ele>73</ele>
        <time>2021-08-06T16:32:19.000Z</time>
      </trkpt>
      <trkpt lat="47.07075" lon="-1.89078">
        <ele>73</ele>
        <time>2021-08-06T16:32:21.000Z</time>
      </trkpt>
      <trkpt lat="47.07062" lon="-1.89081">
        <ele>73</ele>
        <time>2021-08-06T16:32:23.000Z</time>
      </trkpt>
      <trkpt lat="47.07049" lon="-1.89083">
        <ele>72</ele>
        <time>2021-08-06T16:32:25.000Z</time>
      </trkpt>
      <trkpt lat="47.07036" lon="-1.89086">
        <ele>72</ele>
        <time>2021-08-06T16:32:27.000Z</time>
      </trkpt>
      <trkpt lat="47.07023" lon="-1.89088">
        <ele>72</ele>
        <time>2021-08-06T16:32:29.000Z</time>
      </trkpt>
      <trkpt lat="47.0701" lon="-1.8909">
        <ele>71</ele>
        <time>2021-08-06T16:32:31.000Z</time>
      </trkpt>
      <trkpt lat="47.06996" lon="-1.89093">
        <ele>71</ele>
        <time>2021-08-06T16:32:33.000Z</time>
      </trkpt>
      <trkpt lat="47.06982" lon="-1.89097">
        <ele>71</ele>
        <time>2021-08-06T16:32:35.000Z</time>
      </trkpt>
      <trkpt lat="47.06967" lon="-1.89099">
        <ele>71</ele>
        <time>2021-08-06T16:32:37.000Z</time>
      </trkpt>
      <trkpt lat="47.06954" lon="-1.89102">
        <ele>71</ele>
        <time>2021-08-06T16:32:39.000Z</time>
      </trkpt>
      <trkpt lat="47.0694" lon="-1.89104">
        <ele>71</ele>
        <time>2021-08-06T16:32:41.000Z</time>
      </trkpt>
      <trkpt lat="47.06925" lon="-1.89107">
        <ele>70</ele>
        <time>2021-08-06T16:32:43.000Z</time>
      </trkpt>
      <trkpt lat="47.06911" lon="-1.8911">
        <ele>70</ele>
        <time>2021-08-06T16:32:45.000Z</time>
      </trkpt>
      <trkpt lat="47.06896" lon="-1.89113">
        <ele>69</ele>
        <time>2021-08-06T16:32:47.000Z</time>
      </trkpt>
      <trkpt lat="47.06882" lon="-1.89116">
        <ele>69</ele>
        <time>2021-08-06T16:32:49.000Z</time>
      </trkpt>
      <trkpt lat="47.06867" lon="-1.89119">
        <ele>69</ele>
        <time>2021-08-06T16:32:51.000Z</time>
      </trkpt>
      <trkpt lat="47.06853" lon="-1.89122">
        <ele>69</ele>
        <time>2021-08-06T16:32:53.000Z</time>
      </trkpt>
      <trkpt lat="47.06839" lon="-1.89125">
        <ele>69</ele>
        <time>2021-08-06T16:32:55.000Z</time>
      </trkpt>
      <trkpt lat="47.06825" lon="-1.89127">
        <ele>69</ele>
        <time>2021-08-06T16:32:57.000Z</time>
      </trkpt>
      <trkpt lat="47.06811" lon="-1.8913">
        <ele>70</ele>
        <time>2021-08-06T16:32:59.000Z</time>
      </trkpt>
      <trkpt lat="47.06797" lon="-1.89133">
        <ele>70</ele>
        <time>2021-08-06T16:33:01.000Z</time>
      </trkpt>
      <trkpt lat="47.06783" lon="-1.89136">
        <ele>70</ele>
        <time>2021-08-06T16:33:03.000Z</time>
      </trkpt>
      <trkpt lat="47.06769" lon="-1.89139">
        <ele>69</ele>
        <time>2021-08-06T16:33:05.000Z</time>
      </trkpt>
      <trkpt lat="47.06756" lon="-1.89141">
        <ele>69</ele>
        <time>2021-08-06T16:33:07.000Z</time>
      </trkpt>
      <trkpt lat="47.06743" lon="-1.89144">
        <ele>70</ele>
        <time>2021-08-06T16:33:09.000Z</time>
      </trkpt>
      <trkpt lat="47.0673" lon="-1.89146">
        <ele>70</ele>
        <time>2021-08-06T16:33:11.000Z</time>
      </trkpt>
      <trkpt lat="47.06717" lon="-1.89148">
        <ele>70</ele>
        <time>2021-08-06T16:33:13.000Z</time>
      </trkpt>
      <trkpt lat="47.06704" lon="-1.89151">
        <ele>70</ele>
        <time>2021-08-06T16:33:15.000Z</time>
      </trkpt>
      <trkpt lat="47.06691" lon="-1.89152">
        <ele>70</ele>
        <time>2021-08-06T16:33:17.000Z</time>
      </trkpt>
      <trkpt lat="47.06678" lon="-1.89153">
        <ele>70</ele>
        <time>2021-08-06T16:33:19.000Z</time>
      </trkpt>
      <trkpt lat="47.06665" lon="-1.89153">
        <ele>70</ele>
        <time>2021-08-06T16:33:21.000Z</time>
      </trkpt>
      <trkpt lat="47.06652" lon="-1.89153">
        <ele>70</ele>
        <time>2021-08-06T16:33:23.000Z</time>
      </trkpt>
      <trkpt lat="47.06638" lon="-1.89151">
        <ele>70</ele>
        <time>2021-08-06T16:33:25.000Z</time>
      </trkpt>
      <trkpt lat="47.06625" lon="-1.8915">
        <ele>70</ele>
        <time>2021-08-06T16:33:27.000Z</time>
      </trkpt>
      <trkpt lat="47.06611" lon="-1.8915">
        <ele>70</ele>
        <time>2021-08-06T16:33:29.000Z</time>
      </trkpt>
      <trkpt lat="47.06599" lon="-1.8915">
        <ele>70</ele>
        <time>2021-08-06T16:33:31.000Z</time>
      </trkpt>
      <trkpt lat="47.06585" lon="-1.89149">
        <ele>70</ele>
        <time>2021-08-06T16:33:33.000Z</time>
      </trkpt>
      <trkpt lat="47.06572" lon="-1.89149">
        <ele>70</ele>
        <time>2021-08-06T16:33:35.000Z</time>
      </trkpt>
      <trkpt lat="47.0656" lon="-1.89147">
        <ele>70</ele>
        <time>2021-08-06T16:33:37.000Z</time>
      </trkpt>
      <trkpt lat="47.06547" lon="-1.89146">
        <ele>70</ele>
        <time>2021-08-06T16:33:39.000Z</time>
      </trkpt>
      <trkpt lat="47.06534" lon="-1.89145">
        <ele>70</ele>
        <time>2021-08-06T16:33:41.000Z</time>
      </trkpt>
      <trkpt lat="47.06521" lon="-1.89143">
        <ele>70</ele>
        <time>2021-08-06T16:33:43.000Z</time>
      </trkpt>
      <trkpt lat="47.06508" lon="-1.89142">
        <ele>70</ele>
        <time>2021-08-06T16:33:45.000Z</time>
      </trkpt>
      <trkpt lat="47.06496" lon="-1.89139">
        <ele>70</ele>
        <time>2021-08-06T16:33:47.000Z</time>
      </trkpt>
      <trkpt lat="47.06483" lon="-1.89137">
        <ele>71</ele>
        <time>2021-08-06T16:33:49.000Z</time>
      </trkpt>
      <trkpt lat="47.0647" lon="-1.89134">
        <ele>71</ele>
        <time>2021-08-06T16:33:51.000Z</time>
      </trkpt>
      <trkpt lat="47.06457" lon="-1.89132">
        <ele>71</ele>
        <time>2021-08-06T16:33:53.000Z</time>
      </trkpt>
      <trkpt lat="47.06444" lon="-1.89133">
        <ele>71</ele>
        <time>2021-08-06T16:33:55.000Z</time>
      </trkpt>
      <trkpt lat="47.0643" lon="-1.89135">
        <ele>71</ele>
        <time>2021-08-06T16:33:57.000Z</time>
      </trkpt>
      <trkpt lat="47.06417" lon="-1.89137">
        <ele>71</ele>
        <time>2021-08-06T16:33:59.000Z</time>
      </trkpt>
      <trkpt lat="47.06405" lon="-1.89138">
        <ele>71</ele>
        <time>2021-08-06T16:34:01.000Z</time>
      </trkpt>
      <trkpt lat="47.06392" lon="-1.89141">
        <ele>70</ele>
        <time>2021-08-06T16:34:03.000Z</time>
      </trkpt>
      <trkpt lat="47.0638" lon="-1.89144">
        <ele>71</ele>
        <time>2021-08-06T16:34:05.000Z</time>
      </trkpt>
      <trkpt lat="47.06367" lon="-1.89147">
        <ele>71</ele>
        <time>2021-08-06T16:34:07.000Z</time>
      </trkpt>
      <trkpt lat="47.06355" lon="-1.8915">
        <ele>71</ele>
        <time>2021-08-06T16:34:09.000Z</time>
      </trkpt>
      <trkpt lat="47.06344" lon="-1.89152">
        <ele>72</ele>
        <time>2021-08-06T16:34:11.000Z</time>
      </trkpt>
      <trkpt lat="47.06333" lon="-1.89154">
        <ele>72</ele>
        <time>2021-08-06T16:34:13.000Z</time>
      </trkpt>
      <trkpt lat="47.06321" lon="-1.89157">
        <ele>72</ele>
        <time>2021-08-06T16:34:15.000Z</time>
      </trkpt>
      <trkpt lat="47.06309" lon="-1.89159">
        <ele>72</ele>
        <time>2021-08-06T16:34:17.000Z</time>
      </trkpt>
      <trkpt lat="47.06296" lon="-1.89162">
        <ele>72</ele>
        <time>2021-08-06T16:34:19.000Z</time>
      </trkpt>
      <trkpt lat="47.06284" lon="-1.89164">
        <ele>72</ele>
        <time>2021-08-06T16:34:21.000Z</time>
      </trkpt>
      <trkpt lat="47.06272" lon="-1.89167">
        <ele>72</ele>
        <time>2021-08-06T16:34:23.000Z</time>
      </trkpt>
      <trkpt lat="47.0626" lon="-1.8917">
        <ele>73</ele>
        <time>2021-08-06T16:34:25.000Z</time>
      </trkpt>
      <trkpt lat="47.06248" lon="-1.89172">
        <ele>73</ele>
        <time>2021-08-06T16:34:27.000Z</time>
      </trkpt>
      <trkpt lat="47.06236" lon="-1.89174">
        <ele>72</ele>
        <time>2021-08-06T16:34:29.000Z</time>
      </trkpt>
      <trkpt lat="47.06224" lon="-1.89177">
        <ele>73</ele>
        <time>2021-08-06T16:34:31.000Z</time>
      </trkpt>
      <trkpt lat="47.06211" lon="-1.8918">
        <ele>73</ele>
        <time>2021-08-06T16:34:33.000Z</time>
      </trkpt>
      <trkpt lat="47.06199" lon="-1.89183">
        <ele>72</ele>
        <time>2021-08-06T16:34:35.000Z</time>
      </trkpt>
      <trkpt lat="47.06187" lon="-1.89185">
        <ele>73</ele>
        <time>2021-08-06T16:34:37.000Z</time>
      </trkpt>
      <trkpt lat="47.06176" lon="-1.89187">
        <ele>73</ele>
        <time>2021-08-06T16:34:39.000Z</time>
      </trkpt>
      <trkpt lat="47.06164" lon="-1.8919">
        <ele>73</ele>
        <time>2021-08-06T16:34:41.000Z</time>
      </trkpt>
      <trkpt lat="47.06152" lon="-1.89192">
        <ele>74</ele>
        <time>2021-08-06T16:34:43.000Z</time>
      </trkpt>
      <trkpt lat="47.0614" lon="-1.89194">
        <ele>74</ele>
        <time>2021-08-06T16:34:45.000Z</time>
      </trkpt>
      <trkpt lat="47.06129" lon="-1.89197">
        <ele>74</ele>
        <time>2021-08-06T16:34:47.000Z</time>
      </trkpt>
      <trkpt lat="47.06117" lon="-1.892">
        <ele>74</ele>
        <time>2021-08-06T16:34:49.000Z</time>
      </trkpt>
      <trkpt lat="47.06104" lon="-1.89202">
        <ele>74</ele>
        <time>2021-08-06T16:34:51.000Z</time>
      </trkpt>
      <trkpt lat="47.06092" lon="-1.89204">
        <ele>74</ele>
        <time>2021-08-06T16:34:53.000Z</time>
      </trkpt>
      <trkpt lat="47.0608" lon="-1.89207">
        <ele>75</ele>
        <time>2021-08-06T16:34:55.000Z</time>
      </trkpt>
      <trkpt lat="47.06068" lon="-1.89209">
        <ele>75</ele>
        <time>2021-08-06T16:34:57.000Z</time>
      </trkpt>
      <trkpt lat="47.06055" lon="-1.89212">
        <ele>74</ele>
        <time>2021-08-06T16:34:59.000Z</time>
      </trkpt>
      <trkpt lat="47.06043" lon="-1.89215">
        <ele>75</ele>
        <time>2021-08-06T16:35:01.000Z</time>
      </trkpt>
      <trkpt lat="47.06031" lon="-1.89217">
        <ele>75</ele>
        <time>2021-08-06T16:35:03.000Z</time>
      </trkpt>
      <trkpt lat="47.0602" lon="-1.8922">
        <ele>76</ele>
        <time>2021-08-06T16:35:05.000Z</time>
      </trkpt>
      <trkpt lat="47.06008" lon="-1.89222">
        <ele>76</ele>
        <time>2021-08-06T16:35:07.000Z</time>
      </trkpt>
      <trkpt lat="47.05996" lon="-1.89225">
        <ele>76</ele>
        <time>2021-08-06T16:35:09.000Z</time>
      </trkpt>
      <trkpt lat="47.05984" lon="-1.89227">
        <ele>76</ele>
        <time>2021-08-06T16:35:11.000Z</time>
      </trkpt>
      <trkpt lat="47.05972" lon="-1.8923">
        <ele>76</ele>
        <time>2021-08-06T16:35:13.000Z</time>
      </trkpt>
      <trkpt lat="47.0596" lon="-1.89233">
        <ele>76</ele>
        <time>2021-08-06T16:35:15.000Z</time>
      </trkpt>
      <trkpt lat="47.05948" lon="-1.89235">
        <ele>77</ele>
        <time>2021-08-06T16:35:17.000Z</time>
      </trkpt>
      <trkpt lat="47.05936" lon="-1.89238">
        <ele>77</ele>
        <time>2021-08-06T16:35:19.000Z</time>
      </trkpt>
      <trkpt lat="47.05923" lon="-1.89241">
        <ele>77</ele>
        <time>2021-08-06T16:35:21.000Z</time>
      </trkpt>
      <trkpt lat="47.05911" lon="-1.89245">
        <ele>77</ele>
        <time>2021-08-06T16:35:23.000Z</time>
      </trkpt>
      <trkpt lat="47.05899" lon="-1.8925">
        <ele>77</ele>
        <time>2021-08-06T16:35:25.000Z</time>
      </trkpt>
      <trkpt lat="47.05888" lon="-1.89255">
        <ele>77</ele>
        <time>2021-08-06T16:35:27.000Z</time>
      </trkpt>
      <trkpt lat="47.05876" lon="-1.8926">
        <ele>77</ele>
        <time>2021-08-06T16:35:29.000Z</time>
      </trkpt>
      <trkpt lat="47.05866" lon="-1.89266">
        <ele>77</ele>
        <time>2021-08-06T16:35:31.000Z</time>
      </trkpt>
      <trkpt lat="47.05855" lon="-1.89271">
        <ele>77</ele>
        <time>2021-08-06T16:35:33.000Z</time>
      </trkpt>
      <trkpt lat="47.05844" lon="-1.89277">
        <ele>76</ele>
        <time>2021-08-06T16:35:35.000Z</time>
      </trkpt>
      <trkpt lat="47.05834" lon="-1.89283">
        <ele>76</ele>
        <time>2021-08-06T16:35:37.000Z</time>
      </trkpt>
      <trkpt lat="47.05823" lon="-1.89289">
        <ele>76</ele>
        <time>2021-08-06T16:35:39.000Z</time>
      </trkpt>
      <trkpt lat="47.05806" lon="-1.89298">
        <ele>76</ele>
        <time>2021-08-06T16:35:42.000Z</time>
      </trkpt>
      <trkpt lat="47.05795" lon="-1.89304">
        <ele>76</ele>
        <time>2021-08-06T16:35:44.000Z</time>
      </trkpt>
      <trkpt lat="47.05784" lon="-1.8931">
        <ele>77</ele>
        <time>2021-08-06T16:35:46.000Z</time>
      </trkpt>
      <trkpt lat="47.05769" lon="-1.89317">
        <ele>77</ele>
        <time>2021-08-06T16:35:49.000Z</time>
      </trkpt>
      <trkpt lat="47.05759" lon="-1.89321">
        <ele>77</ele>
        <time>2021-08-06T16:35:51.000Z</time>
      </trkpt>
      <trkpt lat="47.05749" lon="-1.89324">
        <ele>77</ele>
        <time>2021-08-06T16:35:53.000Z</time>
      </trkpt>
      <trkpt lat="47.05737" lon="-1.89325">
        <ele>77</ele>
        <time>2021-08-06T16:35:55.000Z</time>
      </trkpt>
      <trkpt lat="47.05725" lon="-1.89326">
        <ele>76</ele>
        <time>2021-08-06T16:35:57.000Z</time>
      </trkpt>
      <trkpt lat="47.05707" lon="-1.89327">
        <ele>77</ele>
        <time>2021-08-06T16:36:00.000Z</time>
      </trkpt>
      <trkpt lat="47.05696" lon="-1.89328">
        <ele>77</ele>
        <time>2021-08-06T16:36:02.000Z</time>
      </trkpt>
      <trkpt lat="47.05683" lon="-1.89328">
        <ele>77</ele>
        <time>2021-08-06T16:36:04.000Z</time>
      </trkpt>
      <trkpt lat="47.05671" lon="-1.89329">
        <ele>77</ele>
        <time>2021-08-06T16:36:06.000Z</time>
      </trkpt>
      <trkpt lat="47.05658" lon="-1.8933">
        <ele>77</ele>
        <time>2021-08-06T16:36:08.000Z</time>
      </trkpt>
      <trkpt lat="47.05646" lon="-1.89331">
        <ele>77</ele>
        <time>2021-08-06T16:36:10.000Z</time>
      </trkpt>
      <trkpt lat="47.05633" lon="-1.89332">
        <ele>78</ele>
        <time>2021-08-06T16:36:12.000Z</time>
      </trkpt>
      <trkpt lat="47.05621" lon="-1.89333">
        <ele>77</ele>
        <time>2021-08-06T16:36:14.000Z</time>
      </trkpt>
      <trkpt lat="47.05608" lon="-1.89334">
        <ele>78</ele>
        <time>2021-08-06T16:36:16.000Z</time>
      </trkpt>
      <trkpt lat="47.05595" lon="-1.89335">
        <ele>78</ele>
        <time>2021-08-06T16:36:18.000Z</time>
      </trkpt>
      <trkpt lat="47.05582" lon="-1.89336">
        <ele>78</ele>
        <time>2021-08-06T16:36:20.000Z</time>
      </trkpt>
      <trkpt lat="47.05569" lon="-1.89336">
        <ele>78</ele>
        <time>2021-08-06T16:36:22.000Z</time>
      </trkpt>
      <trkpt lat="47.05556" lon="-1.89336">
        <ele>77</ele>
        <time>2021-08-06T16:36:24.000Z</time>
      </trkpt>
      <trkpt lat="47.05543" lon="-1.89337">
        <ele>77</ele>
        <time>2021-08-06T16:36:26.000Z</time>
      </trkpt>
      <trkpt lat="47.05531" lon="-1.89339">
        <ele>78</ele>
        <time>2021-08-06T16:36:28.000Z</time>
      </trkpt>
      <trkpt lat="47.05518" lon="-1.8934">
        <ele>78</ele>
        <time>2021-08-06T16:36:30.000Z</time>
      </trkpt>
      <trkpt lat="47.05505" lon="-1.89342">
        <ele>78</ele>
        <time>2021-08-06T16:36:32.000Z</time>
      </trkpt>
      <trkpt lat="47.05493" lon="-1.89345">
        <ele>77</ele>
        <time>2021-08-06T16:36:34.000Z</time>
      </trkpt>
      <trkpt lat="47.0548" lon="-1.89348">
        <ele>77</ele>
        <time>2021-08-06T16:36:36.000Z</time>
      </trkpt>
      <trkpt lat="47.05467" lon="-1.89351">
        <ele>77</ele>
        <time>2021-08-06T16:36:38.000Z</time>
      </trkpt>
      <trkpt lat="47.05454" lon="-1.89354">
        <ele>77</ele>
        <time>2021-08-06T16:36:40.000Z</time>
      </trkpt>
      <trkpt lat="47.05441" lon="-1.89356">
        <ele>77</ele>
        <time>2021-08-06T16:36:42.000Z</time>
      </trkpt>
      <trkpt lat="47.05428" lon="-1.89357">
        <ele>77</ele>
        <time>2021-08-06T16:36:44.000Z</time>
      </trkpt>
      <trkpt lat="47.05416" lon="-1.89357">
        <ele>78</ele>
        <time>2021-08-06T16:36:46.000Z</time>
      </trkpt>
      <trkpt lat="47.05403" lon="-1.89355">
        <ele>78</ele>
        <time>2021-08-06T16:36:48.000Z</time>
      </trkpt>
      <trkpt lat="47.05391" lon="-1.89353">
        <ele>78</ele>
        <time>2021-08-06T16:36:50.000Z</time>
      </trkpt>
      <trkpt lat="47.05378" lon="-1.8935">
        <ele>78</ele>
        <time>2021-08-06T16:36:52.000Z</time>
      </trkpt>
      <trkpt lat="47.05365" lon="-1.89348">
        <ele>78</ele>
        <time>2021-08-06T16:36:54.000Z</time>
      </trkpt>
      <trkpt lat="47.05352" lon="-1.89346">
        <ele>79</ele>
        <time>2021-08-06T16:36:56.000Z</time>
      </trkpt>
      <trkpt lat="47.05339" lon="-1.89344">
        <ele>79</ele>
        <time>2021-08-06T16:36:58.000Z</time>
      </trkpt>
      <trkpt lat="47.05327" lon="-1.89341">
        <ele>79</ele>
        <time>2021-08-06T16:37:00.000Z</time>
      </trkpt>
      <trkpt lat="47.05315" lon="-1.89339">
        <ele>79</ele>
        <time>2021-08-06T16:37:02.000Z</time>
      </trkpt>
      <trkpt lat="47.05302" lon="-1.89336">
        <ele>79</ele>
        <time>2021-08-06T16:37:04.000Z</time>
      </trkpt>
      <trkpt lat="47.05289" lon="-1.89333">
        <ele>79</ele>
        <time>2021-08-06T16:37:06.000Z</time>
      </trkpt>
      <trkpt lat="47.05276" lon="-1.89331">
        <ele>78</ele>
        <time>2021-08-06T16:37:08.000Z</time>
      </trkpt>
      <trkpt lat="47.05264" lon="-1.89327">
        <ele>78</ele>
        <time>2021-08-06T16:37:10.000Z</time>
      </trkpt>
      <trkpt lat="47.05251" lon="-1.89324">
        <ele>77</ele>
        <time>2021-08-06T16:37:12.000Z</time>
      </trkpt>
      <trkpt lat="47.05239" lon="-1.89322">
        <ele>77</ele>
        <time>2021-08-06T16:37:14.000Z</time>
      </trkpt>
      <trkpt lat="47.05226" lon="-1.8932">
        <ele>77</ele>
        <time>2021-08-06T16:37:16.000Z</time>
      </trkpt>
      <trkpt lat="47.05214" lon="-1.89318">
        <ele>78</ele>
        <time>2021-08-06T16:37:18.000Z</time>
      </trkpt>
      <trkpt lat="47.05202" lon="-1.89317">
        <ele>78</ele>
        <time>2021-08-06T16:37:20.000Z</time>
      </trkpt>
      <trkpt lat="47.05189" lon="-1.89317">
        <ele>78</ele>
        <time>2021-08-06T16:37:22.000Z</time>
      </trkpt>
      <trkpt lat="47.05176" lon="-1.89318">
        <ele>77</ele>
        <time>2021-08-06T16:37:24.000Z</time>
      </trkpt>
      <trkpt lat="47.05162" lon="-1.8932">
        <ele>77</ele>
        <time>2021-08-06T16:37:26.000Z</time>
      </trkpt>
      <trkpt lat="47.0515" lon="-1.89323">
        <ele>77</ele>
        <time>2021-08-06T16:37:28.000Z</time>
      </trkpt>
      <trkpt lat="47.05137" lon="-1.89325">
        <ele>77</ele>
        <time>2021-08-06T16:37:30.000Z</time>
      </trkpt>
      <trkpt lat="47.05125" lon="-1.89327">
        <ele>77</ele>
        <time>2021-08-06T16:37:32.000Z</time>
      </trkpt>
      <trkpt lat="47.05112" lon="-1.89329">
        <ele>77</ele>
        <time>2021-08-06T16:37:34.000Z</time>
      </trkpt>
      <trkpt lat="47.05099" lon="-1.89331">
        <ele>77</ele>
        <time>2021-08-06T16:37:36.000Z</time>
      </trkpt>
      <trkpt lat="47.05086" lon="-1.89334">
        <ele>77</ele>
        <time>2021-08-06T16:37:38.000Z</time>
      </trkpt>
      <trkpt lat="47.05073" lon="-1.89336">
        <ele>77</ele>
        <time>2021-08-06T16:37:40.000Z</time>
      </trkpt>
      <trkpt lat="47.0506" lon="-1.89337">
        <ele>77</ele>
        <time>2021-08-06T16:37:42.000Z</time>
      </trkpt>
      <trkpt lat="47.05047" lon="-1.89336">
        <ele>77</ele>
        <time>2021-08-06T16:37:44.000Z</time>
      </trkpt>
      <trkpt lat="47.05035" lon="-1.89334">
        <ele>77</ele>
        <time>2021-08-06T16:37:46.000Z</time>
      </trkpt>
      <trkpt lat="47.05022" lon="-1.8933">
        <ele>77</ele>
        <time>2021-08-06T16:37:48.000Z</time>
      </trkpt>
      <trkpt lat="47.05009" lon="-1.89326">
        <ele>77</ele>
        <time>2021-08-06T16:37:50.000Z</time>
      </trkpt>
      <trkpt lat="47.04996" lon="-1.89322">
        <ele>77</ele>
        <time>2021-08-06T16:37:52.000Z</time>
      </trkpt>
      <trkpt lat="47.04983" lon="-1.8932">
        <ele>77</ele>
        <time>2021-08-06T16:37:54.000Z</time>
      </trkpt>
      <trkpt lat="47.0497" lon="-1.8932">
        <ele>77</ele>
        <time>2021-08-06T16:37:56.000Z</time>
      </trkpt>
      <trkpt lat="47.04957" lon="-1.89322">
        <ele>76</ele>
        <time>2021-08-06T16:37:58.000Z</time>
      </trkpt>
      <trkpt lat="47.04943" lon="-1.89325">
        <ele>77</ele>
        <time>2021-08-06T16:38:00.000Z</time>
      </trkpt>
      <trkpt lat="47.0493" lon="-1.89329">
        <ele>77</ele>
        <time>2021-08-06T16:38:02.000Z</time>
      </trkpt>
      <trkpt lat="47.04918" lon="-1.89332">
        <ele>77</ele>
        <time>2021-08-06T16:38:04.000Z</time>
      </trkpt>
      <trkpt lat="47.04905" lon="-1.89336">
        <ele>77</ele>
        <time>2021-08-06T16:38:06.000Z</time>
      </trkpt>
      <trkpt lat="47.04894" lon="-1.89339">
        <ele>77</ele>
        <time>2021-08-06T16:38:08.000Z</time>
      </trkpt>
      <trkpt lat="47.04882" lon="-1.89342">
        <ele>78</ele>
        <time>2021-08-06T16:38:10.000Z</time>
      </trkpt>
      <trkpt lat="47.04871" lon="-1.89346">
        <ele>78</ele>
        <time>2021-08-06T16:38:12.000Z</time>
      </trkpt>
      <trkpt lat="47.04859" lon="-1.89349">
        <ele>78</ele>
        <time>2021-08-06T16:38:14.000Z</time>
      </trkpt>
      <trkpt lat="47.04847" lon="-1.89353">
        <ele>79</ele>
        <time>2021-08-06T16:38:16.000Z</time>
      </trkpt>
      <trkpt lat="47.04835" lon="-1.89356">
        <ele>79</ele>
        <time>2021-08-06T16:38:18.000Z</time>
      </trkpt>
      <trkpt lat="47.04824" lon="-1.89359">
        <ele>79</ele>
        <time>2021-08-06T16:38:20.000Z</time>
      </trkpt>
      <trkpt lat="47.04812" lon="-1.89363">
        <ele>79</ele>
        <time>2021-08-06T16:38:22.000Z</time>
      </trkpt>
      <trkpt lat="47.048" lon="-1.89367">
        <ele>79</ele>
        <time>2021-08-06T16:38:24.000Z</time>
      </trkpt>
      <trkpt lat="47.04789" lon="-1.89371">
        <ele>79</ele>
        <time>2021-08-06T16:38:26.000Z</time>
      </trkpt>
      <trkpt lat="47.04777" lon="-1.89376">
        <ele>79</ele>
        <time>2021-08-06T16:38:28.000Z</time>
      </trkpt>
      <trkpt lat="47.04765" lon="-1.89381">
        <ele>79</ele>
        <time>2021-08-06T16:38:30.000Z</time>
      </trkpt>
      <trkpt lat="47.04753" lon="-1.89387">
        <ele>79</ele>
        <time>2021-08-06T16:38:32.000Z</time>
      </trkpt>
      <trkpt lat="47.04742" lon="-1.89393">
        <ele>79</ele>
        <time>2021-08-06T16:38:34.000Z</time>
      </trkpt>
      <trkpt lat="47.0473" lon="-1.89399">
        <ele>79</ele>
        <time>2021-08-06T16:38:36.000Z</time>
      </trkpt>
      <trkpt lat="47.04718" lon="-1.89405">
        <ele>79</ele>
        <time>2021-08-06T16:38:38.000Z</time>
      </trkpt>
      <trkpt lat="47.04706" lon="-1.89411">
        <ele>79</ele>
        <time>2021-08-06T16:38:40.000Z</time>
      </trkpt>
      <trkpt lat="47.04694" lon="-1.89416">
        <ele>79</ele>
        <time>2021-08-06T16:38:42.000Z</time>
      </trkpt>
      <trkpt lat="47.04682" lon="-1.89421">
        <ele>79</ele>
        <time>2021-08-06T16:38:44.000Z</time>
      </trkpt>
      <trkpt lat="47.0467" lon="-1.89427">
        <ele>79</ele>
        <time>2021-08-06T16:38:46.000Z</time>
      </trkpt>
      <trkpt lat="47.04659" lon="-1.89432">
        <ele>79</ele>
        <time>2021-08-06T16:38:48.000Z</time>
      </trkpt>
      <trkpt lat="47.04647" lon="-1.89438">
        <ele>80</ele>
        <time>2021-08-06T16:38:50.000Z</time>
      </trkpt>
      <trkpt lat="47.04635" lon="-1.89444">
        <ele>79</ele>
        <time>2021-08-06T16:38:52.000Z</time>
      </trkpt>
      <trkpt lat="47.04623" lon="-1.8945">
        <ele>80</ele>
        <time>2021-08-06T16:38:54.000Z</time>
      </trkpt>
      <trkpt lat="47.04611" lon="-1.89455">
        <ele>80</ele>
        <time>2021-08-06T16:38:56.000Z</time>
      </trkpt>
      <trkpt lat="47.04599" lon="-1.89459">
        <ele>80</ele>
        <time>2021-08-06T16:38:58.000Z</time>
      </trkpt>
      <trkpt lat="47.04586" lon="-1.89462">
        <ele>80</ele>
        <time>2021-08-06T16:39:00.000Z</time>
      </trkpt>
      <trkpt lat="47.04573" lon="-1.89466">
        <ele>80</ele>
        <time>2021-08-06T16:39:02.000Z</time>
      </trkpt>
      <trkpt lat="47.0456" lon="-1.89469">
        <ele>80</ele>
        <time>2021-08-06T16:39:04.000Z</time>
      </trkpt>
      <trkpt lat="47.04548" lon="-1.89471">
        <ele>80</ele>
        <time>2021-08-06T16:39:06.000Z</time>
      </trkpt>
      <trkpt lat="47.04535" lon="-1.89474">
        <ele>80</ele>
        <time>2021-08-06T16:39:08.000Z</time>
      </trkpt>
      <trkpt lat="47.04522" lon="-1.89477">
        <ele>80</ele>
        <time>2021-08-06T16:39:10.000Z</time>
      </trkpt>
      <trkpt lat="47.04509" lon="-1.89479">
        <ele>80</ele>
        <time>2021-08-06T16:39:12.000Z</time>
      </trkpt>
      <trkpt lat="47.04496" lon="-1.89482">
        <ele>81</ele>
        <time>2021-08-06T16:39:14.000Z</time>
      </trkpt>
      <trkpt lat="47.04484" lon="-1.89484">
        <ele>81</ele>
        <time>2021-08-06T16:39:16.000Z</time>
      </trkpt>
      <trkpt lat="47.04471" lon="-1.89487">
        <ele>81</ele>
        <time>2021-08-06T16:39:18.000Z</time>
      </trkpt>
      <trkpt lat="47.04457" lon="-1.89491">
        <ele>80</ele>
        <time>2021-08-06T16:39:20.000Z</time>
      </trkpt>
      <trkpt lat="47.04444" lon="-1.89493">
        <ele>80</ele>
        <time>2021-08-06T16:39:22.000Z</time>
      </trkpt>
      <trkpt lat="47.04431" lon="-1.89496">
        <ele>80</ele>
        <time>2021-08-06T16:39:24.000Z</time>
      </trkpt>
      <trkpt lat="47.04418" lon="-1.895">
        <ele>80</ele>
        <time>2021-08-06T16:39:26.000Z</time>
      </trkpt>
      <trkpt lat="47.04405" lon="-1.89502">
        <ele>80</ele>
        <time>2021-08-06T16:39:28.000Z</time>
      </trkpt>
      <trkpt lat="47.04393" lon="-1.89504">
        <ele>80</ele>
        <time>2021-08-06T16:39:30.000Z</time>
      </trkpt>
      <trkpt lat="47.04381" lon="-1.89506">
        <ele>80</ele>
        <time>2021-08-06T16:39:32.000Z</time>
      </trkpt>
      <trkpt lat="47.04368" lon="-1.89507">
        <ele>80</ele>
        <time>2021-08-06T16:39:34.000Z</time>
      </trkpt>
      <trkpt lat="47.04355" lon="-1.89508">
        <ele>80</ele>
        <time>2021-08-06T16:39:36.000Z</time>
      </trkpt>
      <trkpt lat="47.04342" lon="-1.89509">
        <ele>80</ele>
        <time>2021-08-06T16:39:38.000Z</time>
      </trkpt>
      <trkpt lat="47.0433" lon="-1.89511">
        <ele>81</ele>
        <time>2021-08-06T16:39:40.000Z</time>
      </trkpt>
      <trkpt lat="47.04318" lon="-1.89512">
        <ele>81</ele>
        <time>2021-08-06T16:39:42.000Z</time>
      </trkpt>
      <trkpt lat="47.04305" lon="-1.89514">
        <ele>81</ele>
        <time>2021-08-06T16:39:44.000Z</time>
      </trkpt>
      <trkpt lat="47.04292" lon="-1.89516">
        <ele>81</ele>
        <time>2021-08-06T16:39:46.000Z</time>
      </trkpt>
      <trkpt lat="47.0428" lon="-1.8952">
        <ele>81</ele>
        <time>2021-08-06T16:39:48.000Z</time>
      </trkpt>
      <trkpt lat="47.04268" lon="-1.89523">
        <ele>81</ele>
        <time>2021-08-06T16:39:50.000Z</time>
      </trkpt>
      <trkpt lat="47.04256" lon="-1.89527">
        <ele>81</ele>
        <time>2021-08-06T16:39:52.000Z</time>
      </trkpt>
      <trkpt lat="47.04244" lon="-1.8953">
        <ele>81</ele>
        <time>2021-08-06T16:39:54.000Z</time>
      </trkpt>
      <trkpt lat="47.04233" lon="-1.89534">
        <ele>82</ele>
        <time>2021-08-06T16:39:56.000Z</time>
      </trkpt>
      <trkpt lat="47.04221" lon="-1.89537">
        <ele>82</ele>
        <time>2021-08-06T16:39:58.000Z</time>
      </trkpt>
      <trkpt lat="47.04209" lon="-1.89541">
        <ele>82</ele>
        <time>2021-08-06T16:40:00.000Z</time>
      </trkpt>
      <trkpt lat="47.04197" lon="-1.89545">
        <ele>82</ele>
        <time>2021-08-06T16:40:02.000Z</time>
      </trkpt>
      <trkpt lat="47.04185" lon="-1.89548">
        <ele>82</ele>
        <time>2021-08-06T16:40:04.000Z</time>
      </trkpt>
      <trkpt lat="47.04174" lon="-1.89552">
        <ele>82</ele>
        <time>2021-08-06T16:40:06.000Z</time>
      </trkpt>
      <trkpt lat="47.04162" lon="-1.89555">
        <ele>82</ele>
        <time>2021-08-06T16:40:08.000Z</time>
      </trkpt>
      <trkpt lat="47.04151" lon="-1.89558">
        <ele>82</ele>
        <time>2021-08-06T16:40:10.000Z</time>
      </trkpt>
      <trkpt lat="47.0414" lon="-1.89562">
        <ele>82</ele>
        <time>2021-08-06T16:40:12.000Z</time>
      </trkpt>
      <trkpt lat="47.04128" lon="-1.89565">
        <ele>82</ele>
        <time>2021-08-06T16:40:14.000Z</time>
      </trkpt>
      <trkpt lat="47.04116" lon="-1.89569">
        <ele>82</ele>
        <time>2021-08-06T16:40:16.000Z</time>
      </trkpt>
      <trkpt lat="47.04105" lon="-1.89573">
        <ele>82</ele>
        <time>2021-08-06T16:40:18.000Z</time>
      </trkpt>
      <trkpt lat="47.04093" lon="-1.89577">
        <ele>82</ele>
        <time>2021-08-06T16:40:20.000Z</time>
      </trkpt>
      <trkpt lat="47.04081" lon="-1.8958">
        <ele>83</ele>
        <time>2021-08-06T16:40:22.000Z</time>
      </trkpt>
      <trkpt lat="47.0407" lon="-1.89584">
        <ele>83</ele>
        <time>2021-08-06T16:40:24.000Z</time>
      </trkpt>
      <trkpt lat="47.04058" lon="-1.89587">
        <ele>84</ele>
        <time>2021-08-06T16:40:26.000Z</time>
      </trkpt>
      <trkpt lat="47.04046" lon="-1.89592">
        <ele>84</ele>
        <time>2021-08-06T16:40:28.000Z</time>
      </trkpt>
      <trkpt lat="47.04034" lon="-1.89596">
        <ele>84</ele>
        <time>2021-08-06T16:40:30.000Z</time>
      </trkpt>
      <trkpt lat="47.04022" lon="-1.896">
        <ele>85</ele>
        <time>2021-08-06T16:40:32.000Z</time>
      </trkpt>
      <trkpt lat="47.0401" lon="-1.89603">
        <ele>85</ele>
        <time>2021-08-06T16:40:34.000Z</time>
      </trkpt>
      <trkpt lat="47.03998" lon="-1.89607">
        <ele>85</ele>
        <time>2021-08-06T16:40:36.000Z</time>
      </trkpt>
      <trkpt lat="47.03986" lon="-1.89611">
        <ele>85</ele>
        <time>2021-08-06T16:40:38.000Z</time>
      </trkpt>
      <trkpt lat="47.03974" lon="-1.89614">
        <ele>85</ele>
        <time>2021-08-06T16:40:40.000Z</time>
      </trkpt>
      <trkpt lat="47.03963" lon="-1.89618">
        <ele>85</ele>
        <time>2021-08-06T16:40:42.000Z</time>
      </trkpt>
      <trkpt lat="47.03951" lon="-1.89621">
        <ele>86</ele>
        <time>2021-08-06T16:40:44.000Z</time>
      </trkpt>
      <trkpt lat="47.03939" lon="-1.89625">
        <ele>86</ele>
        <time>2021-08-06T16:40:46.000Z</time>
      </trkpt>
      <trkpt lat="47.03927" lon="-1.89629">
        <ele>85</ele>
        <time>2021-08-06T16:40:48.000Z</time>
      </trkpt>
      <trkpt lat="47.03916" lon="-1.89633">
        <ele>86</ele>
        <time>2021-08-06T16:40:50.000Z</time>
      </trkpt>
      <trkpt lat="47.03906" lon="-1.89636">
        <ele>86</ele>
        <time>2021-08-06T16:40:52.000Z</time>
      </trkpt>
      <trkpt lat="47.03895" lon="-1.89639">
        <ele>86</ele>
        <time>2021-08-06T16:40:54.000Z</time>
      </trkpt>
      <trkpt lat="47.03884" lon="-1.89643">
        <ele>86</ele>
        <time>2021-08-06T16:40:56.000Z</time>
      </trkpt>
      <trkpt lat="47.03872" lon="-1.89647">
        <ele>86</ele>
        <time>2021-08-06T16:40:58.000Z</time>
      </trkpt>
      <trkpt lat="47.03861" lon="-1.8965">
        <ele>86</ele>
        <time>2021-08-06T16:41:00.000Z</time>
      </trkpt>
      <trkpt lat="47.03849" lon="-1.89654">
        <ele>86</ele>
        <time>2021-08-06T16:41:02.000Z</time>
      </trkpt>
      <trkpt lat="47.03838" lon="-1.89658">
        <ele>86</ele>
        <time>2021-08-06T16:41:04.000Z</time>
      </trkpt>
      <trkpt lat="47.03827" lon="-1.89661">
        <ele>86</ele>
        <time>2021-08-06T16:41:06.000Z</time>
      </trkpt>
      <trkpt lat="47.03816" lon="-1.89664">
        <ele>86</ele>
        <time>2021-08-06T16:41:08.000Z</time>
      </trkpt>
      <trkpt lat="47.03804" lon="-1.89668">
        <ele>86</ele>
        <time>2021-08-06T16:41:10.000Z</time>
      </trkpt>
      <trkpt lat="47.03793" lon="-1.89671">
        <ele>86</ele>
        <time>2021-08-06T16:41:12.000Z</time>
      </trkpt>
      <trkpt lat="47.03781" lon="-1.89675">
        <ele>86</ele>
        <time>2021-08-06T16:41:14.000Z</time>
      </trkpt>
      <trkpt lat="47.0377" lon="-1.89681">
        <ele>86</ele>
        <time>2021-08-06T16:41:16.000Z</time>
      </trkpt>
      <trkpt lat="47.03758" lon="-1.89686">
        <ele>86</ele>
        <time>2021-08-06T16:41:18.000Z</time>
      </trkpt>
      <trkpt lat="47.03746" lon="-1.89693">
        <ele>86</ele>
        <time>2021-08-06T16:41:20.000Z</time>
      </trkpt>
      <trkpt lat="47.03735" lon="-1.897">
        <ele>86</ele>
        <time>2021-08-06T16:41:22.000Z</time>
      </trkpt>
      <trkpt lat="47.03725" lon="-1.89709">
        <ele>86</ele>
        <time>2021-08-06T16:41:24.000Z</time>
      </trkpt>
      <trkpt lat="47.03715" lon="-1.89719">
        <ele>86</ele>
        <time>2021-08-06T16:41:26.000Z</time>
      </trkpt>
      <trkpt lat="47.03705" lon="-1.89729">
        <ele>86</ele>
        <time>2021-08-06T16:41:28.000Z</time>
      </trkpt>
      <trkpt lat="47.03695" lon="-1.89739">
        <ele>86</ele>
        <time>2021-08-06T16:41:30.000Z</time>
      </trkpt>
      <trkpt lat="47.03685" lon="-1.89749">
        <ele>86</ele>
        <time>2021-08-06T16:41:32.000Z</time>
      </trkpt>
      <trkpt lat="47.03674" lon="-1.89759">
        <ele>86</ele>
        <time>2021-08-06T16:41:34.000Z</time>
      </trkpt>
      <trkpt lat="47.03663" lon="-1.89769">
        <ele>86</ele>
        <time>2021-08-06T16:41:36.000Z</time>
      </trkpt>
      <trkpt lat="47.03653" lon="-1.89779">
        <ele>86</ele>
        <time>2021-08-06T16:41:38.000Z</time>
      </trkpt>
      <trkpt lat="47.03643" lon="-1.89789">
        <ele>85</ele>
        <time>2021-08-06T16:41:40.000Z</time>
      </trkpt>
      <trkpt lat="47.03632" lon="-1.89799">
        <ele>85</ele>
        <time>2021-08-06T16:41:42.000Z</time>
      </trkpt>
      <trkpt lat="47.03622" lon="-1.89809">
        <ele>85</ele>
        <time>2021-08-06T16:41:44.000Z</time>
      </trkpt>
      <trkpt lat="47.03612" lon="-1.89818">
        <ele>85</ele>
        <time>2021-08-06T16:41:46.000Z</time>
      </trkpt>
      <trkpt lat="47.03602" lon="-1.89829">
        <ele>85</ele>
        <time>2021-08-06T16:41:48.000Z</time>
      </trkpt>
      <trkpt lat="47.03592" lon="-1.89839">
        <ele>85</ele>
        <time>2021-08-06T16:41:50.000Z</time>
      </trkpt>
      <trkpt lat="47.03582" lon="-1.89849">
        <ele>85</ele>
        <time>2021-08-06T16:41:52.000Z</time>
      </trkpt>
      <trkpt lat="47.03571" lon="-1.89859">
        <ele>85</ele>
        <time>2021-08-06T16:41:54.000Z</time>
      </trkpt>
      <trkpt lat="47.03561" lon="-1.89869">
        <ele>85</ele>
        <time>2021-08-06T16:41:56.000Z</time>
      </trkpt>
      <trkpt lat="47.0355" lon="-1.89878">
        <ele>84</ele>
        <time>2021-08-06T16:41:58.000Z</time>
      </trkpt>
      <trkpt lat="47.03538" lon="-1.89888">
        <ele>84</ele>
        <time>2021-08-06T16:42:00.000Z</time>
      </trkpt>
      <trkpt lat="47.03527" lon="-1.899">
        <ele>83</ele>
        <time>2021-08-06T16:42:02.000Z</time>
      </trkpt>
      <trkpt lat="47.03517" lon="-1.89911">
        <ele>83</ele>
        <time>2021-08-06T16:42:04.000Z</time>
      </trkpt>
      <trkpt lat="47.03506" lon="-1.89922">
        <ele>83</ele>
        <time>2021-08-06T16:42:06.000Z</time>
      </trkpt>
      <trkpt lat="47.03494" lon="-1.89933">
        <ele>82</ele>
        <time>2021-08-06T16:42:08.000Z</time>
      </trkpt>
      <trkpt lat="47.03483" lon="-1.89944">
        <ele>81</ele>
        <time>2021-08-06T16:42:10.000Z</time>
      </trkpt>
      <trkpt lat="47.03471" lon="-1.89955">
        <ele>81</ele>
        <time>2021-08-06T16:42:12.000Z</time>
      </trkpt>
      <trkpt lat="47.0346" lon="-1.89966">
        <ele>80</ele>
        <time>2021-08-06T16:42:14.000Z</time>
      </trkpt>
      <trkpt lat="47.03448" lon="-1.89977">
        <ele>80</ele>
        <time>2021-08-06T16:42:16.000Z</time>
      </trkpt>
      <trkpt lat="47.03437" lon="-1.89988">
        <ele>80</ele>
        <time>2021-08-06T16:42:18.000Z</time>
      </trkpt>
      <trkpt lat="47.03425" lon="-1.89999">
        <ele>79</ele>
        <time>2021-08-06T16:42:20.000Z</time>
      </trkpt>
      <trkpt lat="47.03413" lon="-1.90011">
        <ele>79</ele>
        <time>2021-08-06T16:42:22.000Z</time>
      </trkpt>
      <trkpt lat="47.03402" lon="-1.90022">
        <ele>78</ele>
        <time>2021-08-06T16:42:24.000Z</time>
      </trkpt>
      <trkpt lat="47.0339" lon="-1.90034">
        <ele>77</ele>
        <time>2021-08-06T16:42:26.000Z</time>
      </trkpt>
      <trkpt lat="47.03378" lon="-1.90045">
        <ele>77</ele>
        <time>2021-08-06T16:42:28.000Z</time>
      </trkpt>
      <trkpt lat="47.03366" lon="-1.90057">
        <ele>77</ele>
        <time>2021-08-06T16:42:30.000Z</time>
      </trkpt>
      <trkpt lat="47.03354" lon="-1.90069">
        <ele>77</ele>
        <time>2021-08-06T16:42:32.000Z</time>
      </trkpt>
      <trkpt lat="47.03341" lon="-1.90082">
        <ele>75</ele>
        <time>2021-08-06T16:42:34.000Z</time>
      </trkpt>
      <trkpt lat="47.03328" lon="-1.90094">
        <ele>74</ele>
        <time>2021-08-06T16:42:36.000Z</time>
      </trkpt>
      <trkpt lat="47.03314" lon="-1.90107">
        <ele>73</ele>
        <time>2021-08-06T16:42:38.000Z</time>
      </trkpt>
      <trkpt lat="47.03301" lon="-1.90121">
        <ele>72</ele>
        <time>2021-08-06T16:42:40.000Z</time>
      </trkpt>
      <trkpt lat="47.03287" lon="-1.90134">
        <ele>72</ele>
        <time>2021-08-06T16:42:42.000Z</time>
      </trkpt>
      <trkpt lat="47.03274" lon="-1.90148">
        <ele>70</ele>
        <time>2021-08-06T16:42:44.000Z</time>
      </trkpt>
      <trkpt lat="47.03264" lon="-1.90166">
        <ele>69</ele>
        <time>2021-08-06T16:42:46.000Z</time>
      </trkpt>
      <trkpt lat="47.0326" lon="-1.9019">
        <ele>69</ele>
        <time>2021-08-06T16:42:48.000Z</time>
      </trkpt>
      <trkpt lat="47.03257" lon="-1.90213">
        <ele>68</ele>
        <time>2021-08-06T16:42:50.000Z</time>
      </trkpt>
      <trkpt lat="47.03252" lon="-1.90234">
        <ele>68</ele>
        <time>2021-08-06T16:42:52.000Z</time>
      </trkpt>
      <trkpt lat="47.03244" lon="-1.90253">
        <ele>66</ele>
        <time>2021-08-06T16:42:54.000Z</time>
      </trkpt>
      <trkpt lat="47.03234" lon="-1.90269">
        <ele>66</ele>
        <time>2021-08-06T16:42:56.000Z</time>
      </trkpt>
      <trkpt lat="47.03223" lon="-1.90284">
        <ele>65</ele>
        <time>2021-08-06T16:42:58.000Z</time>
      </trkpt>
      <trkpt lat="47.03212" lon="-1.90299">
        <ele>65</ele>
        <time>2021-08-06T16:43:00.000Z</time>
      </trkpt>
      <trkpt lat="47.03202" lon="-1.90313">
        <ele>65</ele>
        <time>2021-08-06T16:43:02.000Z</time>
      </trkpt>
      <trkpt lat="47.03191" lon="-1.90326">
        <ele>65</ele>
        <time>2021-08-06T16:43:04.000Z</time>
      </trkpt>
      <trkpt lat="47.03179" lon="-1.90339">
        <ele>64</ele>
        <time>2021-08-06T16:43:06.000Z</time>
      </trkpt>
      <trkpt lat="47.03168" lon="-1.90351">
        <ele>64</ele>
        <time>2021-08-06T16:43:08.000Z</time>
      </trkpt>
      <trkpt lat="47.03157" lon="-1.90363">
        <ele>64</ele>
        <time>2021-08-06T16:43:10.000Z</time>
      </trkpt>
      <trkpt lat="47.03145" lon="-1.90374">
        <ele>64</ele>
        <time>2021-08-06T16:43:12.000Z</time>
      </trkpt>
      <trkpt lat="47.03133" lon="-1.90383">
        <ele>63</ele>
        <time>2021-08-06T16:43:14.000Z</time>
      </trkpt>
      <trkpt lat="47.03121" lon="-1.90392">
        <ele>63</ele>
        <time>2021-08-06T16:43:16.000Z</time>
      </trkpt>
      <trkpt lat="47.03108" lon="-1.904">
        <ele>63</ele>
        <time>2021-08-06T16:43:18.000Z</time>
      </trkpt>
      <trkpt lat="47.03094" lon="-1.90408">
        <ele>62</ele>
        <time>2021-08-06T16:43:20.000Z</time>
      </trkpt>
      <trkpt lat="47.03081" lon="-1.90416">
        <ele>61</ele>
        <time>2021-08-06T16:43:22.000Z</time>
      </trkpt>
      <trkpt lat="47.03068" lon="-1.90424">
        <ele>61</ele>
        <time>2021-08-06T16:43:24.000Z</time>
      </trkpt>
      <trkpt lat="47.03055" lon="-1.90432">
        <ele>60</ele>
        <time>2021-08-06T16:43:26.000Z</time>
      </trkpt>
      <trkpt lat="47.03042" lon="-1.90441">
        <ele>60</ele>
        <time>2021-08-06T16:43:28.000Z</time>
      </trkpt>
      <trkpt lat="47.03029" lon="-1.9045">
        <ele>59</ele>
        <time>2021-08-06T16:43:30.000Z</time>
      </trkpt>
      <trkpt lat="47.03016" lon="-1.90461">
        <ele>58</ele>
        <time>2021-08-06T16:43:32.000Z</time>
      </trkpt>
      <trkpt lat="47.03005" lon="-1.90472">
        <ele>58</ele>
        <time>2021-08-06T16:43:34.000Z</time>
      </trkpt>
      <trkpt lat="47.02996" lon="-1.90486">
        <ele>58</ele>
        <time>2021-08-06T16:43:36.000Z</time>
      </trkpt>
      <trkpt lat="47.02987" lon="-1.90498">
        <ele>57</ele>
        <time>2021-08-06T16:43:38.000Z</time>
      </trkpt>
      <trkpt lat="47.02975" lon="-1.90499">
        <ele>57</ele>
        <time>2021-08-06T16:43:40.000Z</time>
      </trkpt>
      <trkpt lat="47.02961" lon="-1.90501">
        <ele>56</ele>
        <time>2021-08-06T16:43:42.000Z</time>
      </trkpt>
      <trkpt lat="47.0295" lon="-1.90513">
        <ele>56</ele>
        <time>2021-08-06T16:43:44.000Z</time>
      </trkpt>
      <trkpt lat="47.02943" lon="-1.90529">
        <ele>56</ele>
        <time>2021-08-06T16:43:46.000Z</time>
      </trkpt>
      <trkpt lat="47.02937" lon="-1.90547">
        <ele>56</ele>
        <time>2021-08-06T16:43:48.000Z</time>
      </trkpt>
      <trkpt lat="47.02931" lon="-1.90565">
        <ele>56</ele>
        <time>2021-08-06T16:43:50.000Z</time>
      </trkpt>
      <trkpt lat="47.02925" lon="-1.90583">
        <ele>56</ele>
        <time>2021-08-06T16:43:52.000Z</time>
      </trkpt>
      <trkpt lat="47.02919" lon="-1.906">
        <ele>56</ele>
        <time>2021-08-06T16:43:54.000Z</time>
      </trkpt>
      <trkpt lat="47.02913" lon="-1.90617">
        <ele>55</ele>
        <time>2021-08-06T16:43:56.000Z</time>
      </trkpt>
      <trkpt lat="47.02907" lon="-1.90634">
        <ele>55</ele>
        <time>2021-08-06T16:43:58.000Z</time>
      </trkpt>
      <trkpt lat="47.02901" lon="-1.90651">
        <ele>55</ele>
        <time>2021-08-06T16:44:00.000Z</time>
      </trkpt>
      <trkpt lat="47.02895" lon="-1.90669">
        <ele>55</ele>
        <time>2021-08-06T16:44:02.000Z</time>
      </trkpt>
      <trkpt lat="47.02888" lon="-1.90686">
        <ele>55</ele>
        <time>2021-08-06T16:44:04.000Z</time>
      </trkpt>
      <trkpt lat="47.02882" lon="-1.90703">
        <ele>55</ele>
        <time>2021-08-06T16:44:06.000Z</time>
      </trkpt>
      <trkpt lat="47.02876" lon="-1.9072">
        <ele>55</ele>
        <time>2021-08-06T16:44:08.000Z</time>
      </trkpt>
      <trkpt lat="47.0287" lon="-1.90737">
        <ele>54</ele>
        <time>2021-08-06T16:44:10.000Z</time>
      </trkpt>
      <trkpt lat="47.02864" lon="-1.90754">
        <ele>54</ele>
        <time>2021-08-06T16:44:12.000Z</time>
      </trkpt>
      <trkpt lat="47.02858" lon="-1.90772">
        <ele>54</ele>
        <time>2021-08-06T16:44:14.000Z</time>
      </trkpt>
      <trkpt lat="47.02851" lon="-1.9079">
        <ele>53</ele>
        <time>2021-08-06T16:44:16.000Z</time>
      </trkpt>
      <trkpt lat="47.02845" lon="-1.90808">
        <ele>53</ele>
        <time>2021-08-06T16:44:18.000Z</time>
      </trkpt>
      <trkpt lat="47.02839" lon="-1.90826">
        <ele>53</ele>
        <time>2021-08-06T16:44:20.000Z</time>
      </trkpt>
      <trkpt lat="47.02833" lon="-1.90844">
        <ele>52</ele>
        <time>2021-08-06T16:44:22.000Z</time>
      </trkpt>
      <trkpt lat="47.02827" lon="-1.90862">
        <ele>52</ele>
        <time>2021-08-06T16:44:24.000Z</time>
      </trkpt>
      <trkpt lat="47.02821" lon="-1.9088">
        <ele>52</ele>
        <time>2021-08-06T16:44:26.000Z</time>
      </trkpt>
      <trkpt lat="47.02814" lon="-1.90896">
        <ele>52</ele>
        <time>2021-08-06T16:44:28.000Z</time>
      </trkpt>
      <trkpt lat="47.02808" lon="-1.90914">
        <ele>52</ele>
        <time>2021-08-06T16:44:30.000Z</time>
      </trkpt>
      <trkpt lat="47.02802" lon="-1.90931">
        <ele>52</ele>
        <time>2021-08-06T16:44:32.000Z</time>
      </trkpt>
      <trkpt lat="47.02796" lon="-1.90948">
        <ele>52</ele>
        <time>2021-08-06T16:44:34.000Z</time>
      </trkpt>
      <trkpt lat="47.0279" lon="-1.90965">
        <ele>53</ele>
        <time>2021-08-06T16:44:36.000Z</time>
      </trkpt>
      <trkpt lat="47.02784" lon="-1.90982">
        <ele>53</ele>
        <time>2021-08-06T16:44:38.000Z</time>
      </trkpt>
      <trkpt lat="47.02778" lon="-1.90998">
        <ele>52</ele>
        <time>2021-08-06T16:44:40.000Z</time>
      </trkpt>
      <trkpt lat="47.02772" lon="-1.91013">
        <ele>52</ele>
        <time>2021-08-06T16:44:42.000Z</time>
      </trkpt>
      <trkpt lat="47.02766" lon="-1.91029">
        <ele>52</ele>
        <time>2021-08-06T16:44:44.000Z</time>
      </trkpt>
      <trkpt lat="47.02761" lon="-1.91045">
        <ele>52</ele>
        <time>2021-08-06T16:44:46.000Z</time>
      </trkpt>
      <trkpt lat="47.02754" lon="-1.91061">
        <ele>53</ele>
        <time>2021-08-06T16:44:48.000Z</time>
      </trkpt>
      <trkpt lat="47.02747" lon="-1.91077">
        <ele>53</ele>
        <time>2021-08-06T16:44:50.000Z</time>
      </trkpt>
      <trkpt lat="47.0274" lon="-1.91091">
        <ele>53</ele>
        <time>2021-08-06T16:44:52.000Z</time>
      </trkpt>
      <trkpt lat="47.02732" lon="-1.91105">
        <ele>54</ele>
        <time>2021-08-06T16:44:54.000Z</time>
      </trkpt>
      <trkpt lat="47.02724" lon="-1.91117">
        <ele>53</ele>
        <time>2021-08-06T16:44:56.000Z</time>
      </trkpt>
      <trkpt lat="47.02714" lon="-1.91128">
        <ele>53</ele>
        <time>2021-08-06T16:44:58.000Z</time>
      </trkpt>
      <trkpt lat="47.02705" lon="-1.91139">
        <ele>53</ele>
        <time>2021-08-06T16:45:00.000Z</time>
      </trkpt>
      <trkpt lat="47.02695" lon="-1.91148">
        <ele>53</ele>
        <time>2021-08-06T16:45:02.000Z</time>
      </trkpt>
      <trkpt lat="47.02684" lon="-1.91158">
        <ele>53</ele>
        <time>2021-08-06T16:45:04.000Z</time>
      </trkpt>
      <trkpt lat="47.02673" lon="-1.91166">
        <ele>52</ele>
        <time>2021-08-06T16:45:06.000Z</time>
      </trkpt>
      <trkpt lat="47.02662" lon="-1.91176">
        <ele>52</ele>
        <time>2021-08-06T16:45:08.000Z</time>
      </trkpt>
      <trkpt lat="47.02651" lon="-1.91185">
        <ele>52</ele>
        <time>2021-08-06T16:45:10.000Z</time>
      </trkpt>
      <trkpt lat="47.0264" lon="-1.91194">
        <ele>52</ele>
        <time>2021-08-06T16:45:12.000Z</time>
      </trkpt>
      <trkpt lat="47.02629" lon="-1.91202">
        <ele>52</ele>
        <time>2021-08-06T16:45:14.000Z</time>
      </trkpt>
      <trkpt lat="47.02618" lon="-1.91211">
        <ele>52</ele>
        <time>2021-08-06T16:45:16.000Z</time>
      </trkpt>
      <trkpt lat="47.02607" lon="-1.9122">
        <ele>52</ele>
        <time>2021-08-06T16:45:18.000Z</time>
      </trkpt>
      <trkpt lat="47.02595" lon="-1.91228">
        <ele>52</ele>
        <time>2021-08-06T16:45:20.000Z</time>
      </trkpt>
      <trkpt lat="47.02584" lon="-1.91238">
        <ele>51</ele>
        <time>2021-08-06T16:45:22.000Z</time>
      </trkpt>
      <trkpt lat="47.02573" lon="-1.91247">
        <ele>51</ele>
        <time>2021-08-06T16:45:24.000Z</time>
      </trkpt>
      <trkpt lat="47.02562" lon="-1.91255">
        <ele>51</ele>
        <time>2021-08-06T16:45:26.000Z</time>
      </trkpt>
      <trkpt lat="47.0255" lon="-1.91264">
        <ele>51</ele>
        <time>2021-08-06T16:45:28.000Z</time>
      </trkpt>
      <trkpt lat="47.02539" lon="-1.91273">
        <ele>51</ele>
        <time>2021-08-06T16:45:30.000Z</time>
      </trkpt>
      <trkpt lat="47.02528" lon="-1.91282">
        <ele>51</ele>
        <time>2021-08-06T16:45:32.000Z</time>
      </trkpt>
      <trkpt lat="47.02516" lon="-1.91292">
        <ele>51</ele>
        <time>2021-08-06T16:45:34.000Z</time>
      </trkpt>
      <trkpt lat="47.02505" lon="-1.91302">
        <ele>51</ele>
        <time>2021-08-06T16:45:36.000Z</time>
      </trkpt>
      <trkpt lat="47.02494" lon="-1.91311">
        <ele>51</ele>
        <time>2021-08-06T16:45:38.000Z</time>
      </trkpt>
      <trkpt lat="47.02483" lon="-1.9132">
        <ele>51</ele>
        <time>2021-08-06T16:45:40.000Z</time>
      </trkpt>
      <trkpt lat="47.02471" lon="-1.91329">
        <ele>51</ele>
        <time>2021-08-06T16:45:42.000Z</time>
      </trkpt>
      <trkpt lat="47.0246" lon="-1.91339">
        <ele>51</ele>
        <time>2021-08-06T16:45:44.000Z</time>
      </trkpt>
      <trkpt lat="47.02449" lon="-1.91347">
        <ele>51</ele>
        <time>2021-08-06T16:45:46.000Z</time>
      </trkpt>
      <trkpt lat="47.02438" lon="-1.91357">
        <ele>51</ele>
        <time>2021-08-06T16:45:48.000Z</time>
      </trkpt>
      <trkpt lat="47.02427" lon="-1.91366">
        <ele>51</ele>
        <time>2021-08-06T16:45:50.000Z</time>
      </trkpt>
      <trkpt lat="47.02415" lon="-1.91374">
        <ele>50</ele>
        <time>2021-08-06T16:45:52.000Z</time>
      </trkpt>
      <trkpt lat="47.02404" lon="-1.91384">
        <ele>51</ele>
        <time>2021-08-06T16:45:54.000Z</time>
      </trkpt>
      <trkpt lat="47.02392" lon="-1.91393">
        <ele>51</ele>
        <time>2021-08-06T16:45:56.000Z</time>
      </trkpt>
      <trkpt lat="47.02381" lon="-1.91402">
        <ele>51</ele>
        <time>2021-08-06T16:45:58.000Z</time>
      </trkpt>
      <trkpt lat="47.02369" lon="-1.91411">
        <ele>50</ele>
        <time>2021-08-06T16:46:00.000Z</time>
      </trkpt>
      <trkpt lat="47.02358" lon="-1.9142">
        <ele>50</ele>
        <time>2021-08-06T16:46:02.000Z</time>
      </trkpt>
      <trkpt lat="47.02347" lon="-1.91429">
        <ele>50</ele>
        <time>2021-08-06T16:46:04.000Z</time>
      </trkpt>
      <trkpt lat="47.02335" lon="-1.91439">
        <ele>50</ele>
        <time>2021-08-06T16:46:06.000Z</time>
      </trkpt>
      <trkpt lat="47.02324" lon="-1.91447">
        <ele>51</ele>
        <time>2021-08-06T16:46:08.000Z</time>
      </trkpt>
      <trkpt lat="47.02313" lon="-1.91456">
        <ele>51</ele>
        <time>2021-08-06T16:46:10.000Z</time>
      </trkpt>
      <trkpt lat="47.02301" lon="-1.91465">
        <ele>51</ele>
        <time>2021-08-06T16:46:12.000Z</time>
      </trkpt>
      <trkpt lat="47.0229" lon="-1.91475">
        <ele>51</ele>
        <time>2021-08-06T16:46:14.000Z</time>
      </trkpt>
      <trkpt lat="47.02278" lon="-1.91484">
        <ele>51</ele>
        <time>2021-08-06T16:46:16.000Z</time>
      </trkpt>
      <trkpt lat="47.02267" lon="-1.91494">
        <ele>51</ele>
        <time>2021-08-06T16:46:18.000Z</time>
      </trkpt>
      <trkpt lat="47.02256" lon="-1.91502">
        <ele>51</ele>
        <time>2021-08-06T16:46:20.000Z</time>
      </trkpt>
      <trkpt lat="47.02245" lon="-1.91511">
        <ele>51</ele>
        <time>2021-08-06T16:46:22.000Z</time>
      </trkpt>
      <trkpt lat="47.02234" lon="-1.91521">
        <ele>51</ele>
        <time>2021-08-06T16:46:24.000Z</time>
      </trkpt>
      <trkpt lat="47.02222" lon="-1.91529">
        <ele>51</ele>
        <time>2021-08-06T16:46:26.000Z</time>
      </trkpt>
      <trkpt lat="47.0221" lon="-1.91539">
        <ele>51</ele>
        <time>2021-08-06T16:46:28.000Z</time>
      </trkpt>
      <trkpt lat="47.02199" lon="-1.91548">
        <ele>51</ele>
        <time>2021-08-06T16:46:30.000Z</time>
      </trkpt>
      <trkpt lat="47.02188" lon="-1.91557">
        <ele>51</ele>
        <time>2021-08-06T16:46:32.000Z</time>
      </trkpt>
      <trkpt lat="47.02177" lon="-1.91566">
        <ele>50</ele>
        <time>2021-08-06T16:46:34.000Z</time>
      </trkpt>
      <trkpt lat="47.02166" lon="-1.91574">
        <ele>50</ele>
        <time>2021-08-06T16:46:36.000Z</time>
      </trkpt>
      <trkpt lat="47.02155" lon="-1.91583">
        <ele>50</ele>
        <time>2021-08-06T16:46:38.000Z</time>
      </trkpt>
      <trkpt lat="47.02144" lon="-1.91592">
        <ele>50</ele>
        <time>2021-08-06T16:46:40.000Z</time>
      </trkpt>
      <trkpt lat="47.02133" lon="-1.91601">
        <ele>50</ele>
        <time>2021-08-06T16:46:42.000Z</time>
      </trkpt>
      <trkpt lat="47.02122" lon="-1.9161">
        <ele>50</ele>
        <time>2021-08-06T16:46:44.000Z</time>
      </trkpt>
      <trkpt lat="47.02111" lon="-1.91618">
        <ele>50</ele>
        <time>2021-08-06T16:46:46.000Z</time>
      </trkpt>
      <trkpt lat="47.021" lon="-1.91627">
        <ele>50</ele>
        <time>2021-08-06T16:46:48.000Z</time>
      </trkpt>
      <trkpt lat="47.02089" lon="-1.91636">
        <ele>50</ele>
        <time>2021-08-06T16:46:50.000Z</time>
      </trkpt>
      <trkpt lat="47.02078" lon="-1.91645">
        <ele>51</ele>
        <time>2021-08-06T16:46:52.000Z</time>
      </trkpt>
      <trkpt lat="47.02066" lon="-1.91655">
        <ele>51</ele>
        <time>2021-08-06T16:46:54.000Z</time>
      </trkpt>
      <trkpt lat="47.02055" lon="-1.91664">
        <ele>51</ele>
        <time>2021-08-06T16:46:56.000Z</time>
      </trkpt>
      <trkpt lat="47.02043" lon="-1.91674">
        <ele>51</ele>
        <time>2021-08-06T16:46:58.000Z</time>
      </trkpt>
      <trkpt lat="47.02031" lon="-1.91683">
        <ele>51</ele>
        <time>2021-08-06T16:47:00.000Z</time>
      </trkpt>
      <trkpt lat="47.0202" lon="-1.91692">
        <ele>51</ele>
        <time>2021-08-06T16:47:02.000Z</time>
      </trkpt>
      <trkpt lat="47.02008" lon="-1.91701">
        <ele>50</ele>
        <time>2021-08-06T16:47:04.000Z</time>
      </trkpt>
      <trkpt lat="47.01997" lon="-1.91711">
        <ele>50</ele>
        <time>2021-08-06T16:47:06.000Z</time>
      </trkpt>
      <trkpt lat="47.01985" lon="-1.91719">
        <ele>51</ele>
        <time>2021-08-06T16:47:08.000Z</time>
      </trkpt>
      <trkpt lat="47.01974" lon="-1.91728">
        <ele>51</ele>
        <time>2021-08-06T16:47:10.000Z</time>
      </trkpt>
      <trkpt lat="47.01962" lon="-1.91738">
        <ele>51</ele>
        <time>2021-08-06T16:47:12.000Z</time>
      </trkpt>
      <trkpt lat="47.0195" lon="-1.91748">
        <ele>51</ele>
        <time>2021-08-06T16:47:14.000Z</time>
      </trkpt>
      <trkpt lat="47.01938" lon="-1.91757">
        <ele>51</ele>
        <time>2021-08-06T16:47:16.000Z</time>
      </trkpt>
      <trkpt lat="47.01927" lon="-1.91766">
        <ele>51</ele>
        <time>2021-08-06T16:47:18.000Z</time>
      </trkpt>
      <trkpt lat="47.01915" lon="-1.91775">
        <ele>51</ele>
        <time>2021-08-06T16:47:20.000Z</time>
      </trkpt>
      <trkpt lat="47.01903" lon="-1.91785">
        <ele>51</ele>
        <time>2021-08-06T16:47:22.000Z</time>
      </trkpt>
      <trkpt lat="47.01892" lon="-1.91794">
        <ele>51</ele>
        <time>2021-08-06T16:47:24.000Z</time>
      </trkpt>
      <trkpt lat="47.0188" lon="-1.91804">
        <ele>51</ele>
        <time>2021-08-06T16:47:26.000Z</time>
      </trkpt>
      <trkpt lat="47.01869" lon="-1.91813">
        <ele>51</ele>
        <time>2021-08-06T16:47:28.000Z</time>
      </trkpt>
      <trkpt lat="47.01857" lon="-1.91822">
        <ele>51</ele>
        <time>2021-08-06T16:47:30.000Z</time>
      </trkpt>
      <trkpt lat="47.01846" lon="-1.91831">
        <ele>51</ele>
        <time>2021-08-06T16:47:32.000Z</time>
      </trkpt>
      <trkpt lat="47.01836" lon="-1.9184">
        <ele>51</ele>
        <time>2021-08-06T16:47:34.000Z</time>
      </trkpt>
      <trkpt lat="47.01825" lon="-1.91849">
        <ele>51</ele>
        <time>2021-08-06T16:47:36.000Z</time>
      </trkpt>
      <trkpt lat="47.01814" lon="-1.91858">
        <ele>51</ele>
        <time>2021-08-06T16:47:38.000Z</time>
      </trkpt>
      <trkpt lat="47.01803" lon="-1.91866">
        <ele>51</ele>
        <time>2021-08-06T16:47:40.000Z</time>
      </trkpt>
      <trkpt lat="47.01791" lon="-1.91875">
        <ele>50</ele>
        <time>2021-08-06T16:47:42.000Z</time>
      </trkpt>
      <trkpt lat="47.0178" lon="-1.91884">
        <ele>50</ele>
        <time>2021-08-06T16:47:44.000Z</time>
      </trkpt>
      <trkpt lat="47.01769" lon="-1.91893">
        <ele>50</ele>
        <time>2021-08-06T16:47:46.000Z</time>
      </trkpt>
      <trkpt lat="47.01758" lon="-1.91902">
        <ele>50</ele>
        <time>2021-08-06T16:47:48.000Z</time>
      </trkpt>
      <trkpt lat="47.01746" lon="-1.91911">
        <ele>50</ele>
        <time>2021-08-06T16:47:50.000Z</time>
      </trkpt>
      <trkpt lat="47.01735" lon="-1.9192">
        <ele>50</ele>
        <time>2021-08-06T16:47:52.000Z</time>
      </trkpt>
      <trkpt lat="47.01724" lon="-1.9193">
        <ele>50</ele>
        <time>2021-08-06T16:47:54.000Z</time>
      </trkpt>
      <trkpt lat="47.01713" lon="-1.91939">
        <ele>50</ele>
        <time>2021-08-06T16:47:56.000Z</time>
      </trkpt>
      <trkpt lat="47.01702" lon="-1.91948">
        <ele>51</ele>
        <time>2021-08-06T16:47:58.000Z</time>
      </trkpt>
      <trkpt lat="47.0169" lon="-1.91957">
        <ele>51</ele>
        <time>2021-08-06T16:48:00.000Z</time>
      </trkpt>
      <trkpt lat="47.01679" lon="-1.91966">
        <ele>50</ele>
        <time>2021-08-06T16:48:02.000Z</time>
      </trkpt>
      <trkpt lat="47.01668" lon="-1.91975">
        <ele>51</ele>
        <time>2021-08-06T16:48:04.000Z</time>
      </trkpt>
      <trkpt lat="47.01657" lon="-1.91984">
        <ele>51</ele>
        <time>2021-08-06T16:48:06.000Z</time>
      </trkpt>
      <trkpt lat="47.01645" lon="-1.91992">
        <ele>51</ele>
        <time>2021-08-06T16:48:08.000Z</time>
      </trkpt>
      <trkpt lat="47.01634" lon="-1.92001">
        <ele>51</ele>
        <time>2021-08-06T16:48:10.000Z</time>
      </trkpt>
      <trkpt lat="47.01622" lon="-1.92011">
        <ele>51</ele>
        <time>2021-08-06T16:48:12.000Z</time>
      </trkpt>
      <trkpt lat="47.01611" lon="-1.92021">
        <ele>51</ele>
        <time>2021-08-06T16:48:14.000Z</time>
      </trkpt>
      <trkpt lat="47.016" lon="-1.9203">
        <ele>51</ele>
        <time>2021-08-06T16:48:16.000Z</time>
      </trkpt>
      <trkpt lat="47.01588" lon="-1.92039">
        <ele>52</ele>
        <time>2021-08-06T16:48:18.000Z</time>
      </trkpt>
      <trkpt lat="47.01577" lon="-1.92048">
        <ele>51</ele>
        <time>2021-08-06T16:48:20.000Z</time>
      </trkpt>
      <trkpt lat="47.01565" lon="-1.92058">
        <ele>51</ele>
        <time>2021-08-06T16:48:22.000Z</time>
      </trkpt>
      <trkpt lat="47.01553" lon="-1.92068">
        <ele>51</ele>
        <time>2021-08-06T16:48:24.000Z</time>
      </trkpt>
      <trkpt lat="47.01542" lon="-1.92078">
        <ele>51</ele>
        <time>2021-08-06T16:48:26.000Z</time>
      </trkpt>
      <trkpt lat="47.0153" lon="-1.92087">
        <ele>51</ele>
        <time>2021-08-06T16:48:28.000Z</time>
      </trkpt>
      <trkpt lat="47.01519" lon="-1.92095">
        <ele>51</ele>
        <time>2021-08-06T16:48:30.000Z</time>
      </trkpt>
      <trkpt lat="47.01502" lon="-1.92107">
        <ele>51</ele>
        <time>2021-08-06T16:48:33.000Z</time>
      </trkpt>
      <trkpt lat="47.01491" lon="-1.92115">
        <ele>51</ele>
        <time>2021-08-06T16:48:35.000Z</time>
      </trkpt>
      <trkpt lat="47.0148" lon="-1.92124">
        <ele>51</ele>
        <time>2021-08-06T16:48:37.000Z</time>
      </trkpt>
      <trkpt lat="47.01469" lon="-1.92133">
        <ele>51</ele>
        <time>2021-08-06T16:48:39.000Z</time>
      </trkpt>
      <trkpt lat="47.01458" lon="-1.92141">
        <ele>51</ele>
        <time>2021-08-06T16:48:41.000Z</time>
      </trkpt>
      <trkpt lat="47.01446" lon="-1.9215">
        <ele>51</ele>
        <time>2021-08-06T16:48:43.000Z</time>
      </trkpt>
      <trkpt lat="47.01436" lon="-1.9216">
        <ele>51</ele>
        <time>2021-08-06T16:48:45.000Z</time>
      </trkpt>
      <trkpt lat="47.01425" lon="-1.9217">
        <ele>51</ele>
        <time>2021-08-06T16:48:47.000Z</time>
      </trkpt>
      <trkpt lat="47.01413" lon="-1.92178">
        <ele>51</ele>
        <time>2021-08-06T16:48:49.000Z</time>
      </trkpt>
      <trkpt lat="47.01402" lon="-1.92187">
        <ele>50</ele>
        <time>2021-08-06T16:48:51.000Z</time>
      </trkpt>
      <trkpt lat="47.0139" lon="-1.92197">
        <ele>50</ele>
        <time>2021-08-06T16:48:53.000Z</time>
      </trkpt>
      <trkpt lat="47.01378" lon="-1.92207">
        <ele>50</ele>
        <time>2021-08-06T16:48:55.000Z</time>
      </trkpt>
      <trkpt lat="47.01368" lon="-1.92215">
        <ele>50</ele>
        <time>2021-08-06T16:48:57.000Z</time>
      </trkpt>
      <trkpt lat="47.01357" lon="-1.92224">
        <ele>50</ele>
        <time>2021-08-06T16:48:59.000Z</time>
      </trkpt>
      <trkpt lat="47.01346" lon="-1.92233">
        <ele>50</ele>
        <time>2021-08-06T16:49:01.000Z</time>
      </trkpt>
      <trkpt lat="47.01336" lon="-1.92241">
        <ele>51</ele>
        <time>2021-08-06T16:49:03.000Z</time>
      </trkpt>
      <trkpt lat="47.01325" lon="-1.92251">
        <ele>51</ele>
        <time>2021-08-06T16:49:05.000Z</time>
      </trkpt>
      <trkpt lat="47.01314" lon="-1.9226">
        <ele>51</ele>
        <time>2021-08-06T16:49:07.000Z</time>
      </trkpt>
      <trkpt lat="47.01303" lon="-1.92268">
        <ele>51</ele>
        <time>2021-08-06T16:49:09.000Z</time>
      </trkpt>
      <trkpt lat="47.01292" lon="-1.92277">
        <ele>50</ele>
        <time>2021-08-06T16:49:11.000Z</time>
      </trkpt>
      <trkpt lat="47.01282" lon="-1.92286">
        <ele>51</ele>
        <time>2021-08-06T16:49:13.000Z</time>
      </trkpt>
      <trkpt lat="47.01272" lon="-1.92294">
        <ele>50</ele>
        <time>2021-08-06T16:49:15.000Z</time>
      </trkpt>
      <trkpt lat="47.01261" lon="-1.92302">
        <ele>50</ele>
        <time>2021-08-06T16:49:17.000Z</time>
      </trkpt>
      <trkpt lat="47.01251" lon="-1.9231">
        <ele>51</ele>
        <time>2021-08-06T16:49:19.000Z</time>
      </trkpt>
      <trkpt lat="47.01241" lon="-1.92319">
        <ele>50</ele>
        <time>2021-08-06T16:49:21.000Z</time>
      </trkpt>
      <trkpt lat="47.01231" lon="-1.92327">
        <ele>51</ele>
        <time>2021-08-06T16:49:23.000Z</time>
      </trkpt>
      <trkpt lat="47.01221" lon="-1.92334">
        <ele>51</ele>
        <time>2021-08-06T16:49:25.000Z</time>
      </trkpt>
      <trkpt lat="47.0121" lon="-1.92342">
        <ele>51</ele>
        <time>2021-08-06T16:49:27.000Z</time>
      </trkpt>
      <trkpt lat="47.01199" lon="-1.92349">
        <ele>51</ele>
        <time>2021-08-06T16:49:29.000Z</time>
      </trkpt>
      <trkpt lat="47.01188" lon="-1.92356">
        <ele>51</ele>
        <time>2021-08-06T16:49:31.000Z</time>
      </trkpt>
      <trkpt lat="47.01178" lon="-1.92363">
        <ele>51</ele>
        <time>2021-08-06T16:49:33.000Z</time>
      </trkpt>
      <trkpt lat="47.01166" lon="-1.92369">
        <ele>51</ele>
        <time>2021-08-06T16:49:35.000Z</time>
      </trkpt>
      <trkpt lat="47.01155" lon="-1.92374">
        <ele>51</ele>
        <time>2021-08-06T16:49:37.000Z</time>
      </trkpt>
      <trkpt lat="47.01144" lon="-1.9238">
        <ele>51</ele>
        <time>2021-08-06T16:49:39.000Z</time>
      </trkpt>
      <trkpt lat="47.01133" lon="-1.92384">
        <ele>51</ele>
        <time>2021-08-06T16:49:41.000Z</time>
      </trkpt>
      <trkpt lat="47.01122" lon="-1.92388">
        <ele>51</ele>
        <time>2021-08-06T16:49:43.000Z</time>
      </trkpt>
      <trkpt lat="47.01111" lon="-1.92393">
        <ele>51</ele>
        <time>2021-08-06T16:49:45.000Z</time>
      </trkpt>
      <trkpt lat="47.01099" lon="-1.92395">
        <ele>51</ele>
        <time>2021-08-06T16:49:47.000Z</time>
      </trkpt>
      <trkpt lat="47.01087" lon="-1.92398">
        <ele>52</ele>
        <time>2021-08-06T16:49:49.000Z</time>
      </trkpt>
      <trkpt lat="47.01075" lon="-1.924">
        <ele>52</ele>
        <time>2021-08-06T16:49:51.000Z</time>
      </trkpt>
      <trkpt lat="47.01062" lon="-1.92401">
        <ele>52</ele>
        <time>2021-08-06T16:49:53.000Z</time>
      </trkpt>
      <trkpt lat="47.0105" lon="-1.92402">
        <ele>52</ele>
        <time>2021-08-06T16:49:55.000Z</time>
      </trkpt>
      <trkpt lat="47.01038" lon="-1.92402">
        <ele>52</ele>
        <time>2021-08-06T16:49:57.000Z</time>
      </trkpt>
      <trkpt lat="47.01025" lon="-1.92402">
        <ele>52</ele>
        <time>2021-08-06T16:49:59.000Z</time>
      </trkpt>
      <trkpt lat="47.01013" lon="-1.92401">
        <ele>52</ele>
        <time>2021-08-06T16:50:01.000Z</time>
      </trkpt>
      <trkpt lat="47.01001" lon="-1.924">
        <ele>52</ele>
        <time>2021-08-06T16:50:03.000Z</time>
      </trkpt>
      <trkpt lat="47.00989" lon="-1.92399">
        <ele>52</ele>
        <time>2021-08-06T16:50:05.000Z</time>
      </trkpt>
      <trkpt lat="47.00977" lon="-1.92398">
        <ele>52</ele>
        <time>2021-08-06T16:50:07.000Z</time>
      </trkpt>
      <trkpt lat="47.00965" lon="-1.92397">
        <ele>52</ele>
        <time>2021-08-06T16:50:09.000Z</time>
      </trkpt>
      <trkpt lat="47.00953" lon="-1.92395">
        <ele>52</ele>
        <time>2021-08-06T16:50:11.000Z</time>
      </trkpt>
      <trkpt lat="47.00941" lon="-1.92394">
        <ele>52</ele>
        <time>2021-08-06T16:50:13.000Z</time>
      </trkpt>
      <trkpt lat="47.00929" lon="-1.92392">
        <ele>52</ele>
        <time>2021-08-06T16:50:15.000Z</time>
      </trkpt>
      <trkpt lat="47.00916" lon="-1.92392">
        <ele>52</ele>
        <time>2021-08-06T16:50:17.000Z</time>
      </trkpt>
      <trkpt lat="47.00904" lon="-1.9239">
        <ele>52</ele>
        <time>2021-08-06T16:50:19.000Z</time>
      </trkpt>
      <trkpt lat="47.00892" lon="-1.92389">
        <ele>52</ele>
        <time>2021-08-06T16:50:21.000Z</time>
      </trkpt>
      <trkpt lat="47.0088" lon="-1.92388">
        <ele>53</ele>
        <time>2021-08-06T16:50:23.000Z</time>
      </trkpt>
      <trkpt lat="47.00867" lon="-1.92386">
        <ele>53</ele>
        <time>2021-08-06T16:50:25.000Z</time>
      </trkpt>
      <trkpt lat="47.00854" lon="-1.92385">
        <ele>53</ele>
        <time>2021-08-06T16:50:27.000Z</time>
      </trkpt>
      <trkpt lat="47.00841" lon="-1.92383">
        <ele>52</ele>
        <time>2021-08-06T16:50:29.000Z</time>
      </trkpt>
      <trkpt lat="47.00829" lon="-1.92382">
        <ele>52</ele>
        <time>2021-08-06T16:50:31.000Z</time>
      </trkpt>
      <trkpt lat="47.00816" lon="-1.9238">
        <ele>52</ele>
        <time>2021-08-06T16:50:33.000Z</time>
      </trkpt>
      <trkpt lat="47.00804" lon="-1.92379">
        <ele>52</ele>
        <time>2021-08-06T16:50:35.000Z</time>
      </trkpt>
      <trkpt lat="47.00791" lon="-1.92377">
        <ele>52</ele>
        <time>2021-08-06T16:50:37.000Z</time>
      </trkpt>
      <trkpt lat="47.00779" lon="-1.92376">
        <ele>52</ele>
        <time>2021-08-06T16:50:39.000Z</time>
      </trkpt>
      <trkpt lat="47.00768" lon="-1.92375">
        <ele>52</ele>
        <time>2021-08-06T16:50:41.000Z</time>
      </trkpt>
      <trkpt lat="47.00756" lon="-1.92373">
        <ele>52</ele>
        <time>2021-08-06T16:50:43.000Z</time>
      </trkpt>
      <trkpt lat="47.00744" lon="-1.92372">
        <ele>52</ele>
        <time>2021-08-06T16:50:45.000Z</time>
      </trkpt>
      <trkpt lat="47.00731" lon="-1.9237">
        <ele>52</ele>
        <time>2021-08-06T16:50:47.000Z</time>
      </trkpt>
      <trkpt lat="47.00719" lon="-1.92369">
        <ele>52</ele>
        <time>2021-08-06T16:50:49.000Z</time>
      </trkpt>
      <trkpt lat="47.00707" lon="-1.92368">
        <ele>53</ele>
        <time>2021-08-06T16:50:51.000Z</time>
      </trkpt>
      <trkpt lat="47.00695" lon="-1.92367">
        <ele>53</ele>
        <time>2021-08-06T16:50:53.000Z</time>
      </trkpt>
      <trkpt lat="47.00683" lon="-1.92366">
        <ele>53</ele>
        <time>2021-08-06T16:50:55.000Z</time>
      </trkpt>
      <trkpt lat="47.0067" lon="-1.92364">
        <ele>53</ele>
        <time>2021-08-06T16:50:57.000Z</time>
      </trkpt>
      <trkpt lat="47.00657" lon="-1.92363">
        <ele>53</ele>
        <time>2021-08-06T16:50:59.000Z</time>
      </trkpt>
      <trkpt lat="47.00644" lon="-1.92362">
        <ele>53</ele>
        <time>2021-08-06T16:51:01.000Z</time>
      </trkpt>
      <trkpt lat="47.00632" lon="-1.9236">
        <ele>53</ele>
        <time>2021-08-06T16:51:03.000Z</time>
      </trkpt>
      <trkpt lat="47.00619" lon="-1.92359">
        <ele>54</ele>
        <time>2021-08-06T16:51:05.000Z</time>
      </trkpt>
      <trkpt lat="47.00607" lon="-1.92357">
        <ele>53</ele>
        <time>2021-08-06T16:51:07.000Z</time>
      </trkpt>
      <trkpt lat="47.00594" lon="-1.92356">
        <ele>53</ele>
        <time>2021-08-06T16:51:09.000Z</time>
      </trkpt>
      <trkpt lat="47.00581" lon="-1.92354">
        <ele>53</ele>
        <time>2021-08-06T16:51:11.000Z</time>
      </trkpt>
      <trkpt lat="47.00568" lon="-1.92353">
        <ele>53</ele>
        <time>2021-08-06T16:51:13.000Z</time>
      </trkpt>
      <trkpt lat="47.00555" lon="-1.92352">
        <ele>53</ele>
        <time>2021-08-06T16:51:15.000Z</time>
      </trkpt>
      <trkpt lat="47.00543" lon="-1.9235">
        <ele>53</ele>
        <time>2021-08-06T16:51:17.000Z</time>
      </trkpt>
      <trkpt lat="47.00531" lon="-1.92349">
        <ele>53</ele>
        <time>2021-08-06T16:51:19.000Z</time>
      </trkpt>
      <trkpt lat="47.00518" lon="-1.92347">
        <ele>53</ele>
        <time>2021-08-06T16:51:21.000Z</time>
      </trkpt>
      <trkpt lat="47.00505" lon="-1.92346">
        <ele>53</ele>
        <time>2021-08-06T16:51:23.000Z</time>
      </trkpt>
      <trkpt lat="47.00492" lon="-1.92345">
        <ele>53</ele>
        <time>2021-08-06T16:51:25.000Z</time>
      </trkpt>
      <trkpt lat="47.0048" lon="-1.92344">
        <ele>53</ele>
        <time>2021-08-06T16:51:27.000Z</time>
      </trkpt>
      <trkpt lat="47.00467" lon="-1.92342">
        <ele>53</ele>
        <time>2021-08-06T16:51:29.000Z</time>
      </trkpt>
      <trkpt lat="47.00454" lon="-1.92341">
        <ele>52</ele>
        <time>2021-08-06T16:51:31.000Z</time>
      </trkpt>
      <trkpt lat="47.00442" lon="-1.9234">
        <ele>52</ele>
        <time>2021-08-06T16:51:33.000Z</time>
      </trkpt>
      <trkpt lat="47.00429" lon="-1.92339">
        <ele>52</ele>
        <time>2021-08-06T16:51:35.000Z</time>
      </trkpt>
      <trkpt lat="47.00416" lon="-1.92337">
        <ele>52</ele>
        <time>2021-08-06T16:51:37.000Z</time>
      </trkpt>
      <trkpt lat="47.00404" lon="-1.92336">
        <ele>52</ele>
        <time>2021-08-06T16:51:39.000Z</time>
      </trkpt>
      <trkpt lat="47.00391" lon="-1.92335">
        <ele>52</ele>
        <time>2021-08-06T16:51:41.000Z</time>
      </trkpt>
      <trkpt lat="47.00379" lon="-1.92333">
        <ele>53</ele>
        <time>2021-08-06T16:51:43.000Z</time>
      </trkpt>
      <trkpt lat="47.00367" lon="-1.92332">
        <ele>53</ele>
        <time>2021-08-06T16:51:45.000Z</time>
      </trkpt>
      <trkpt lat="47.00355" lon="-1.92331">
        <ele>53</ele>
        <time>2021-08-06T16:51:47.000Z</time>
      </trkpt>
      <trkpt lat="47.00342" lon="-1.9233">
        <ele>53</ele>
        <time>2021-08-06T16:51:49.000Z</time>
      </trkpt>
      <trkpt lat="47.00329" lon="-1.92328">
        <ele>53</ele>
        <time>2021-08-06T16:51:51.000Z</time>
      </trkpt>
      <trkpt lat="47.00316" lon="-1.92327">
        <ele>53</ele>
        <time>2021-08-06T16:51:53.000Z</time>
      </trkpt>
      <trkpt lat="47.00304" lon="-1.92325">
        <ele>53</ele>
        <time>2021-08-06T16:51:55.000Z</time>
      </trkpt>
      <trkpt lat="47.0029" lon="-1.92324">
        <ele>53</ele>
        <time>2021-08-06T16:51:57.000Z</time>
      </trkpt>
      <trkpt lat="47.00277" lon="-1.92322">
        <ele>53</ele>
        <time>2021-08-06T16:51:59.000Z</time>
      </trkpt>
      <trkpt lat="47.00265" lon="-1.9232">
        <ele>53</ele>
        <time>2021-08-06T16:52:01.000Z</time>
      </trkpt>
      <trkpt lat="47.00252" lon="-1.92319">
        <ele>53</ele>
        <time>2021-08-06T16:52:03.000Z</time>
      </trkpt>
      <trkpt lat="47.0024" lon="-1.92318">
        <ele>53</ele>
        <time>2021-08-06T16:52:05.000Z</time>
      </trkpt>
      <trkpt lat="47.00227" lon="-1.92316">
        <ele>53</ele>
        <time>2021-08-06T16:52:07.000Z</time>
      </trkpt>
      <trkpt lat="47.00214" lon="-1.92315">
        <ele>53</ele>
        <time>2021-08-06T16:52:09.000Z</time>
      </trkpt>
      <trkpt lat="47.00202" lon="-1.92314">
        <ele>53</ele>
        <time>2021-08-06T16:52:11.000Z</time>
      </trkpt>
      <trkpt lat="47.00189" lon="-1.92312">
        <ele>53</ele>
        <time>2021-08-06T16:52:13.000Z</time>
      </trkpt>
      <trkpt lat="47.00177" lon="-1.92311">
        <ele>53</ele>
        <time>2021-08-06T16:52:15.000Z</time>
      </trkpt>
      <trkpt lat="47.00164" lon="-1.9231">
        <ele>53</ele>
        <time>2021-08-06T16:52:17.000Z</time>
      </trkpt>
      <trkpt lat="47.00152" lon="-1.92308">
        <ele>52</ele>
        <time>2021-08-06T16:52:19.000Z</time>
      </trkpt>
      <trkpt lat="47.00139" lon="-1.92307">
        <ele>52</ele>
        <time>2021-08-06T16:52:21.000Z</time>
      </trkpt>
      <trkpt lat="47.00127" lon="-1.92305">
        <ele>53</ele>
        <time>2021-08-06T16:52:23.000Z</time>
      </trkpt>
      <trkpt lat="47.00114" lon="-1.92304">
        <ele>52</ele>
        <time>2021-08-06T16:52:25.000Z</time>
      </trkpt>
      <trkpt lat="47.00102" lon="-1.92303">
        <ele>52</ele>
        <time>2021-08-06T16:52:27.000Z</time>
      </trkpt>
      <trkpt lat="47.0009" lon="-1.92301">
        <ele>52</ele>
        <time>2021-08-06T16:52:29.000Z</time>
      </trkpt>
      <trkpt lat="47.00078" lon="-1.923">
        <ele>52</ele>
        <time>2021-08-06T16:52:31.000Z</time>
      </trkpt>
      <trkpt lat="47.00066" lon="-1.92299">
        <ele>52</ele>
        <time>2021-08-06T16:52:33.000Z</time>
      </trkpt>
      <trkpt lat="47.00053" lon="-1.92297">
        <ele>52</ele>
        <time>2021-08-06T16:52:35.000Z</time>
      </trkpt>
      <trkpt lat="47.00041" lon="-1.92295">
        <ele>52</ele>
        <time>2021-08-06T16:52:37.000Z</time>
      </trkpt>
      <trkpt lat="47.00028" lon="-1.92294">
        <ele>52</ele>
        <time>2021-08-06T16:52:39.000Z</time>
      </trkpt>
      <trkpt lat="47.00016" lon="-1.92293">
        <ele>52</ele>
        <time>2021-08-06T16:52:41.000Z</time>
      </trkpt>
      <trkpt lat="47.00003" lon="-1.92291">
        <ele>52</ele>
        <time>2021-08-06T16:52:43.000Z</time>
      </trkpt>
      <trkpt lat="46.9999" lon="-1.9229">
        <ele>52</ele>
        <time>2021-08-06T16:52:45.000Z</time>
      </trkpt>
      <trkpt lat="46.99977" lon="-1.92289">
        <ele>52</ele>
        <time>2021-08-06T16:52:47.000Z</time>
      </trkpt>
      <trkpt lat="46.99964" lon="-1.92287">
        <ele>53</ele>
        <time>2021-08-06T16:52:49.000Z</time>
      </trkpt>
      <trkpt lat="46.99951" lon="-1.92285">
        <ele>52</ele>
        <time>2021-08-06T16:52:51.000Z</time>
      </trkpt>
      <trkpt lat="46.99938" lon="-1.92282">
        <ele>52</ele>
        <time>2021-08-06T16:52:53.000Z</time>
      </trkpt>
      <trkpt lat="46.99926" lon="-1.92278">
        <ele>52</ele>
        <time>2021-08-06T16:52:55.000Z</time>
      </trkpt>
      <trkpt lat="46.99913" lon="-1.92273">
        <ele>52</ele>
        <time>2021-08-06T16:52:57.000Z</time>
      </trkpt>
      <trkpt lat="46.99901" lon="-1.92267">
        <ele>52</ele>
        <time>2021-08-06T16:52:59.000Z</time>
      </trkpt>
      <trkpt lat="46.99888" lon="-1.9226">
        <ele>52</ele>
        <time>2021-08-06T16:53:01.000Z</time>
      </trkpt>
      <trkpt lat="46.99877" lon="-1.92252">
        <ele>52</ele>
        <time>2021-08-06T16:53:03.000Z</time>
      </trkpt>
      <trkpt lat="46.99865" lon="-1.92244">
        <ele>52</ele>
        <time>2021-08-06T16:53:05.000Z</time>
      </trkpt>
      <trkpt lat="46.99854" lon="-1.92236">
        <ele>52</ele>
        <time>2021-08-06T16:53:07.000Z</time>
      </trkpt>
      <trkpt lat="46.99843" lon="-1.92226">
        <ele>52</ele>
        <time>2021-08-06T16:53:09.000Z</time>
      </trkpt>
      <trkpt lat="46.99832" lon="-1.92217">
        <ele>52</ele>
        <time>2021-08-06T16:53:11.000Z</time>
      </trkpt>
      <trkpt lat="46.99821" lon="-1.92206">
        <ele>53</ele>
        <time>2021-08-06T16:53:13.000Z</time>
      </trkpt>
      <trkpt lat="46.9981" lon="-1.92195">
        <ele>52</ele>
        <time>2021-08-06T16:53:15.000Z</time>
      </trkpt>
      <trkpt lat="46.998" lon="-1.92183">
        <ele>52</ele>
        <time>2021-08-06T16:53:17.000Z</time>
      </trkpt>
      <trkpt lat="46.99789" lon="-1.92172">
        <ele>52</ele>
        <time>2021-08-06T16:53:19.000Z</time>
      </trkpt>
      <trkpt lat="46.99779" lon="-1.9216">
        <ele>52</ele>
        <time>2021-08-06T16:53:21.000Z</time>
      </trkpt>
      <trkpt lat="46.99768" lon="-1.9215">
        <ele>52</ele>
        <time>2021-08-06T16:53:23.000Z</time>
      </trkpt>
      <trkpt lat="46.99757" lon="-1.92138">
        <ele>52</ele>
        <time>2021-08-06T16:53:25.000Z</time>
      </trkpt>
      <trkpt lat="46.99747" lon="-1.92128">
        <ele>52</ele>
        <time>2021-08-06T16:53:27.000Z</time>
      </trkpt>
      <trkpt lat="46.99737" lon="-1.92117">
        <ele>52</ele>
        <time>2021-08-06T16:53:29.000Z</time>
      </trkpt>
      <trkpt lat="46.99727" lon="-1.92107">
        <ele>52</ele>
        <time>2021-08-06T16:53:31.000Z</time>
      </trkpt>
      <trkpt lat="46.99716" lon="-1.92096">
        <ele>52</ele>
        <time>2021-08-06T16:53:33.000Z</time>
      </trkpt>
      <trkpt lat="46.99706" lon="-1.92085">
        <ele>52</ele>
        <time>2021-08-06T16:53:35.000Z</time>
      </trkpt>
      <trkpt lat="46.99696" lon="-1.92075">
        <ele>52</ele>
        <time>2021-08-06T16:53:37.000Z</time>
      </trkpt>
      <trkpt lat="46.99685" lon="-1.92064">
        <ele>52</ele>
        <time>2021-08-06T16:53:39.000Z</time>
      </trkpt>
      <trkpt lat="46.99675" lon="-1.92053">
        <ele>52</ele>
        <time>2021-08-06T16:53:41.000Z</time>
      </trkpt>
      <trkpt lat="46.99665" lon="-1.92043">
        <ele>52</ele>
        <time>2021-08-06T16:53:43.000Z</time>
      </trkpt>
      <trkpt lat="46.99654" lon="-1.92032">
        <ele>52</ele>
        <time>2021-08-06T16:53:45.000Z</time>
      </trkpt>
      <trkpt lat="46.99643" lon="-1.92021">
        <ele>52</ele>
        <time>2021-08-06T16:53:47.000Z</time>
      </trkpt>
      <trkpt lat="46.99633" lon="-1.9201">
        <ele>52</ele>
        <time>2021-08-06T16:53:49.000Z</time>
      </trkpt>
      <trkpt lat="46.99622" lon="-1.92">
        <ele>52</ele>
        <time>2021-08-06T16:53:51.000Z</time>
      </trkpt>
      <trkpt lat="46.99612" lon="-1.91989">
        <ele>52</ele>
        <time>2021-08-06T16:53:53.000Z</time>
      </trkpt>
      <trkpt lat="46.99601" lon="-1.91978">
        <ele>52</ele>
        <time>2021-08-06T16:53:55.000Z</time>
      </trkpt>
      <trkpt lat="46.99591" lon="-1.91968">
        <ele>52</ele>
        <time>2021-08-06T16:53:57.000Z</time>
      </trkpt>
      <trkpt lat="46.9958" lon="-1.91957">
        <ele>52</ele>
        <time>2021-08-06T16:53:59.000Z</time>
      </trkpt>
      <trkpt lat="46.9957" lon="-1.91945">
        <ele>52</ele>
        <time>2021-08-06T16:54:01.000Z</time>
      </trkpt>
      <trkpt lat="46.99559" lon="-1.91935">
        <ele>52</ele>
        <time>2021-08-06T16:54:03.000Z</time>
      </trkpt>
      <trkpt lat="46.99549" lon="-1.91924">
        <ele>52</ele>
        <time>2021-08-06T16:54:05.000Z</time>
      </trkpt>
      <trkpt lat="46.99539" lon="-1.91913">
        <ele>52</ele>
        <time>2021-08-06T16:54:07.000Z</time>
      </trkpt>
      <trkpt lat="46.99528" lon="-1.91902">
        <ele>52</ele>
        <time>2021-08-06T16:54:09.000Z</time>
      </trkpt>
      <trkpt lat="46.99518" lon="-1.91892">
        <ele>52</ele>
        <time>2021-08-06T16:54:11.000Z</time>
      </trkpt>
      <trkpt lat="46.99507" lon="-1.91881">
        <ele>52</ele>
        <time>2021-08-06T16:54:13.000Z</time>
      </trkpt>
      <trkpt lat="46.99497" lon="-1.91871">
        <ele>52</ele>
        <time>2021-08-06T16:54:15.000Z</time>
      </trkpt>
      <trkpt lat="46.99486" lon="-1.9186">
        <ele>52</ele>
        <time>2021-08-06T16:54:17.000Z</time>
      </trkpt>
      <trkpt lat="46.99476" lon="-1.91849">
        <ele>52</ele>
        <time>2021-08-06T16:54:19.000Z</time>
      </trkpt>
      <trkpt lat="46.99465" lon="-1.91839">
        <ele>52</ele>
        <time>2021-08-06T16:54:21.000Z</time>
      </trkpt>
      <trkpt lat="46.99455" lon="-1.91828">
        <ele>52</ele>
        <time>2021-08-06T16:54:23.000Z</time>
      </trkpt>
      <trkpt lat="46.99444" lon="-1.91817">
        <ele>52</ele>
        <time>2021-08-06T16:54:25.000Z</time>
      </trkpt>
      <trkpt lat="46.99433" lon="-1.91806">
        <ele>52</ele>
        <time>2021-08-06T16:54:27.000Z</time>
      </trkpt>
      <trkpt lat="46.99423" lon="-1.91795">
        <ele>51</ele>
        <time>2021-08-06T16:54:29.000Z</time>
      </trkpt>
      <trkpt lat="46.99413" lon="-1.91784">
        <ele>51</ele>
        <time>2021-08-06T16:54:31.000Z</time>
      </trkpt>
      <trkpt lat="46.99402" lon="-1.91773">
        <ele>51</ele>
        <time>2021-08-06T16:54:33.000Z</time>
      </trkpt>
      <trkpt lat="46.99392" lon="-1.91763">
        <ele>51</ele>
        <time>2021-08-06T16:54:35.000Z</time>
      </trkpt>
      <trkpt lat="46.99381" lon="-1.91752">
        <ele>51</ele>
        <time>2021-08-06T16:54:37.000Z</time>
      </trkpt>
      <trkpt lat="46.99371" lon="-1.91742">
        <ele>52</ele>
        <time>2021-08-06T16:54:39.000Z</time>
      </trkpt>
      <trkpt lat="46.9936" lon="-1.91731">
        <ele>52</ele>
        <time>2021-08-06T16:54:41.000Z</time>
      </trkpt>
      <trkpt lat="46.9935" lon="-1.9172">
        <ele>52</ele>
        <time>2021-08-06T16:54:43.000Z</time>
      </trkpt>
      <trkpt lat="46.99339" lon="-1.9171">
        <ele>52</ele>
        <time>2021-08-06T16:54:45.000Z</time>
      </trkpt>
      <trkpt lat="46.99328" lon="-1.917">
        <ele>52</ele>
        <time>2021-08-06T16:54:47.000Z</time>
      </trkpt>
      <trkpt lat="46.99318" lon="-1.9169">
        <ele>52</ele>
        <time>2021-08-06T16:54:49.000Z</time>
      </trkpt>
      <trkpt lat="46.99308" lon="-1.91679">
        <ele>52</ele>
        <time>2021-08-06T16:54:51.000Z</time>
      </trkpt>
      <trkpt lat="46.99299" lon="-1.91668">
        <ele>52</ele>
        <time>2021-08-06T16:54:53.000Z</time>
      </trkpt>
      <trkpt lat="46.99289" lon="-1.91657">
        <ele>52</ele>
        <time>2021-08-06T16:54:55.000Z</time>
      </trkpt>
      <trkpt lat="46.99279" lon="-1.91647">
        <ele>52</ele>
        <time>2021-08-06T16:54:57.000Z</time>
      </trkpt>
      <trkpt lat="46.99268" lon="-1.91637">
        <ele>52</ele>
        <time>2021-08-06T16:54:59.000Z</time>
      </trkpt>
      <trkpt lat="46.99256" lon="-1.91629">
        <ele>53</ele>
        <time>2021-08-06T16:55:01.000Z</time>
      </trkpt>
      <trkpt lat="46.99244" lon="-1.91626">
        <ele>53</ele>
        <time>2021-08-06T16:55:03.000Z</time>
      </trkpt>
      <trkpt lat="46.99233" lon="-1.91626">
        <ele>53</ele>
        <time>2021-08-06T16:55:05.000Z</time>
      </trkpt>
      <trkpt lat="46.99222" lon="-1.91626">
        <ele>53</ele>
        <time>2021-08-06T16:55:07.000Z</time>
      </trkpt>
      <trkpt lat="46.99212" lon="-1.91626">
        <ele>53</ele>
        <time>2021-08-06T16:55:09.000Z</time>
      </trkpt>
      <trkpt lat="46.992" lon="-1.91618">
        <ele>53</ele>
        <time>2021-08-06T16:55:12.000Z</time>
      </trkpt>
      <trkpt lat="46.992" lon="-1.916">
        <ele>53</ele>
        <time>2021-08-06T16:55:14.000Z</time>
      </trkpt>
      <trkpt lat="46.99199" lon="-1.91582">
        <ele>53</ele>
        <time>2021-08-06T16:55:16.000Z</time>
      </trkpt>
      <trkpt lat="46.99199" lon="-1.91562">
        <ele>53</ele>
        <time>2021-08-06T16:55:18.000Z</time>
      </trkpt>
      <trkpt lat="46.99195" lon="-1.91543">
        <ele>52</ele>
        <time>2021-08-06T16:55:20.000Z</time>
      </trkpt>
      <trkpt lat="46.99187" lon="-1.91527">
        <ele>52</ele>
        <time>2021-08-06T16:55:22.000Z</time>
      </trkpt>
      <trkpt lat="46.99177" lon="-1.91515">
        <ele>52</ele>
        <time>2021-08-06T16:55:24.000Z</time>
      </trkpt>
      <trkpt lat="46.99166" lon="-1.91504">
        <ele>52</ele>
        <time>2021-08-06T16:55:26.000Z</time>
      </trkpt>
      <trkpt lat="46.99156" lon="-1.91492">
        <ele>52</ele>
        <time>2021-08-06T16:55:28.000Z</time>
      </trkpt>
      <trkpt lat="46.99145" lon="-1.9148">
        <ele>52</ele>
        <time>2021-08-06T16:55:30.000Z</time>
      </trkpt>
      <trkpt lat="46.99134" lon="-1.91467">
        <ele>52</ele>
        <time>2021-08-06T16:55:32.000Z</time>
      </trkpt>
      <trkpt lat="46.99124" lon="-1.91456">
        <ele>52</ele>
        <time>2021-08-06T16:55:34.000Z</time>
      </trkpt>
      <trkpt lat="46.99114" lon="-1.91444">
        <ele>52</ele>
        <time>2021-08-06T16:55:36.000Z</time>
      </trkpt>
      <trkpt lat="46.99104" lon="-1.91431">
        <ele>52</ele>
        <time>2021-08-06T16:55:38.000Z</time>
      </trkpt>
      <trkpt lat="46.99093" lon="-1.91419">
        <ele>51</ele>
        <time>2021-08-06T16:55:40.000Z</time>
      </trkpt>
      <trkpt lat="46.99082" lon="-1.91407">
        <ele>52</ele>
        <time>2021-08-06T16:55:42.000Z</time>
      </trkpt>
      <trkpt lat="46.99071" lon="-1.91394">
        <ele>51</ele>
        <time>2021-08-06T16:55:44.000Z</time>
      </trkpt>
      <trkpt lat="46.99061" lon="-1.91383">
        <ele>52</ele>
        <time>2021-08-06T16:55:46.000Z</time>
      </trkpt>
      <trkpt lat="46.9905" lon="-1.9137">
        <ele>51</ele>
        <time>2021-08-06T16:55:48.000Z</time>
      </trkpt>
      <trkpt lat="46.99039" lon="-1.91359">
        <ele>51</ele>
        <time>2021-08-06T16:55:50.000Z</time>
      </trkpt>
      <trkpt lat="46.99029" lon="-1.91346">
        <ele>51</ele>
        <time>2021-08-06T16:55:52.000Z</time>
      </trkpt>
      <trkpt lat="46.99019" lon="-1.91334">
        <ele>51</ele>
        <time>2021-08-06T16:55:54.000Z</time>
      </trkpt>
      <trkpt lat="46.99008" lon="-1.91322">
        <ele>51</ele>
        <time>2021-08-06T16:55:56.000Z</time>
      </trkpt>
      <trkpt lat="46.98998" lon="-1.9131">
        <ele>51</ele>
        <time>2021-08-06T16:55:58.000Z</time>
      </trkpt>
      <trkpt lat="46.98988" lon="-1.91299">
        <ele>51</ele>
        <time>2021-08-06T16:56:00.000Z</time>
      </trkpt>
      <trkpt lat="46.98978" lon="-1.91287">
        <ele>51</ele>
        <time>2021-08-06T16:56:02.000Z</time>
      </trkpt>
      <trkpt lat="46.98968" lon="-1.91275">
        <ele>51</ele>
        <time>2021-08-06T16:56:04.000Z</time>
      </trkpt>
      <trkpt lat="46.98957" lon="-1.91263">
        <ele>51</ele>
        <time>2021-08-06T16:56:06.000Z</time>
      </trkpt>
      <trkpt lat="46.98947" lon="-1.91252">
        <ele>51</ele>
        <time>2021-08-06T16:56:08.000Z</time>
      </trkpt>
      <trkpt lat="46.98937" lon="-1.91239">
        <ele>51</ele>
        <time>2021-08-06T16:56:10.000Z</time>
      </trkpt>
      <trkpt lat="46.98926" lon="-1.91228">
        <ele>52</ele>
        <time>2021-08-06T16:56:12.000Z</time>
      </trkpt>
      <trkpt lat="46.98916" lon="-1.91216">
        <ele>52</ele>
        <time>2021-08-06T16:56:14.000Z</time>
      </trkpt>
      <trkpt lat="46.98905" lon="-1.91204">
        <ele>52</ele>
        <time>2021-08-06T16:56:16.000Z</time>
      </trkpt>
      <trkpt lat="46.98895" lon="-1.91192">
        <ele>52</ele>
        <time>2021-08-06T16:56:18.000Z</time>
      </trkpt>
      <trkpt lat="46.98886" lon="-1.91181">
        <ele>52</ele>
        <time>2021-08-06T16:56:20.000Z</time>
      </trkpt>
      <trkpt lat="46.98875" lon="-1.91169">
        <ele>52</ele>
        <time>2021-08-06T16:56:22.000Z</time>
      </trkpt>
      <trkpt lat="46.98865" lon="-1.91157">
        <ele>52</ele>
        <time>2021-08-06T16:56:24.000Z</time>
      </trkpt>
      <trkpt lat="46.98855" lon="-1.91145">
        <ele>52</ele>
        <time>2021-08-06T16:56:26.000Z</time>
      </trkpt>
      <trkpt lat="46.98845" lon="-1.91133">
        <ele>51</ele>
        <time>2021-08-06T16:56:28.000Z</time>
      </trkpt>
      <trkpt lat="46.98834" lon="-1.91121">
        <ele>52</ele>
        <time>2021-08-06T16:56:30.000Z</time>
      </trkpt>
      <trkpt lat="46.98824" lon="-1.91109">
        <ele>52</ele>
        <time>2021-08-06T16:56:32.000Z</time>
      </trkpt>
      <trkpt lat="46.98813" lon="-1.91097">
        <ele>52</ele>
        <time>2021-08-06T16:56:34.000Z</time>
      </trkpt>
      <trkpt lat="46.98803" lon="-1.91085">
        <ele>52</ele>
        <time>2021-08-06T16:56:36.000Z</time>
      </trkpt>
      <trkpt lat="46.98792" lon="-1.91074">
        <ele>53</ele>
        <time>2021-08-06T16:56:38.000Z</time>
      </trkpt>
      <trkpt lat="46.98781" lon="-1.91062">
        <ele>53</ele>
        <time>2021-08-06T16:56:40.000Z</time>
      </trkpt>
      <trkpt lat="46.98771" lon="-1.9105">
        <ele>53</ele>
        <time>2021-08-06T16:56:42.000Z</time>
      </trkpt>
      <trkpt lat="46.9876" lon="-1.91037">
        <ele>52</ele>
        <time>2021-08-06T16:56:44.000Z</time>
      </trkpt>
      <trkpt lat="46.9875" lon="-1.91025">
        <ele>52</ele>
        <time>2021-08-06T16:56:46.000Z</time>
      </trkpt>
      <trkpt lat="46.9874" lon="-1.91013">
        <ele>52</ele>
        <time>2021-08-06T16:56:48.000Z</time>
      </trkpt>
      <trkpt lat="46.9873" lon="-1.91001">
        <ele>51</ele>
        <time>2021-08-06T16:56:50.000Z</time>
      </trkpt>
      <trkpt lat="46.9872" lon="-1.90989">
        <ele>51</ele>
        <time>2021-08-06T16:56:52.000Z</time>
      </trkpt>
      <trkpt lat="46.98709" lon="-1.90977">
        <ele>51</ele>
        <time>2021-08-06T16:56:54.000Z</time>
      </trkpt>
      <trkpt lat="46.98699" lon="-1.90965">
        <ele>51</ele>
        <time>2021-08-06T16:56:56.000Z</time>
      </trkpt>
      <trkpt lat="46.98689" lon="-1.90954">
        <ele>51</ele>
        <time>2021-08-06T16:56:58.000Z</time>
      </trkpt>
      <trkpt lat="46.98679" lon="-1.90942">
        <ele>51</ele>
        <time>2021-08-06T16:57:00.000Z</time>
      </trkpt>
      <trkpt lat="46.98668" lon="-1.9093">
        <ele>51</ele>
        <time>2021-08-06T16:57:02.000Z</time>
      </trkpt>
      <trkpt lat="46.98658" lon="-1.90918">
        <ele>51</ele>
        <time>2021-08-06T16:57:04.000Z</time>
      </trkpt>
      <trkpt lat="46.98648" lon="-1.90906">
        <ele>51</ele>
        <time>2021-08-06T16:57:06.000Z</time>
      </trkpt>
      <trkpt lat="46.98638" lon="-1.90894">
        <ele>51</ele>
        <time>2021-08-06T16:57:08.000Z</time>
      </trkpt>
      <trkpt lat="46.98628" lon="-1.90882">
        <ele>51</ele>
        <time>2021-08-06T16:57:10.000Z</time>
      </trkpt>
      <trkpt lat="46.98618" lon="-1.90871">
        <ele>51</ele>
        <time>2021-08-06T16:57:12.000Z</time>
      </trkpt>
      <trkpt lat="46.98607" lon="-1.90859">
        <ele>51</ele>
        <time>2021-08-06T16:57:14.000Z</time>
      </trkpt>
      <trkpt lat="46.98597" lon="-1.90847">
        <ele>51</ele>
        <time>2021-08-06T16:57:16.000Z</time>
      </trkpt>
      <trkpt lat="46.98586" lon="-1.90835">
        <ele>51</ele>
        <time>2021-08-06T16:57:18.000Z</time>
      </trkpt>
      <trkpt lat="46.98576" lon="-1.90823">
        <ele>51</ele>
        <time>2021-08-06T16:57:20.000Z</time>
      </trkpt>
      <trkpt lat="46.98566" lon="-1.90812">
        <ele>51</ele>
        <time>2021-08-06T16:57:22.000Z</time>
      </trkpt>
      <trkpt lat="46.98556" lon="-1.908">
        <ele>51</ele>
        <time>2021-08-06T16:57:24.000Z</time>
      </trkpt>
      <trkpt lat="46.98546" lon="-1.90787">
        <ele>50</ele>
        <time>2021-08-06T16:57:26.000Z</time>
      </trkpt>
      <trkpt lat="46.98536" lon="-1.90776">
        <ele>51</ele>
        <time>2021-08-06T16:57:28.000Z</time>
      </trkpt>
      <trkpt lat="46.98526" lon="-1.90765">
        <ele>51</ele>
        <time>2021-08-06T16:57:30.000Z</time>
      </trkpt>
      <trkpt lat="46.98518" lon="-1.90754">
        <ele>51</ele>
        <time>2021-08-06T16:57:32.000Z</time>
      </trkpt>
      <trkpt lat="46.98509" lon="-1.90744">
        <ele>51</ele>
        <time>2021-08-06T16:57:34.000Z</time>
      </trkpt>
      <trkpt lat="46.98501" lon="-1.90735">
        <ele>51</ele>
        <time>2021-08-06T16:57:36.000Z</time>
      </trkpt>
      <trkpt lat="46.98492" lon="-1.90726">
        <ele>51</ele>
        <time>2021-08-06T16:57:39.000Z</time>
      </trkpt>
      <trkpt lat="46.98494" lon="-1.90712">
        <ele>54</ele>
        <time>2021-08-06T16:59:09.000Z</time>
      </trkpt>
      <trkpt lat="46.98502" lon="-1.907">
        <ele>54</ele>
        <time>2021-08-06T16:59:13.000Z</time>
      </trkpt>
      <trkpt lat="46.9851" lon="-1.90689">
        <ele>54</ele>
        <time>2021-08-06T16:59:16.000Z</time>
      </trkpt>
      <trkpt lat="46.98516" lon="-1.9068">
        <ele>53</ele>
        <time>2021-08-06T16:59:18.000Z</time>
      </trkpt>
      <trkpt lat="46.98524" lon="-1.90671">
        <ele>53</ele>
        <time>2021-08-06T16:59:20.000Z</time>
      </trkpt>
      <trkpt lat="46.98532" lon="-1.9066">
        <ele>53</ele>
        <time>2021-08-06T16:59:22.000Z</time>
      </trkpt>
      <trkpt lat="46.9854" lon="-1.90648">
        <ele>52</ele>
        <time>2021-08-06T16:59:24.000Z</time>
      </trkpt>
      <trkpt lat="46.98549" lon="-1.90637">
        <ele>52</ele>
        <time>2021-08-06T16:59:26.000Z</time>
      </trkpt>
      <trkpt lat="46.98557" lon="-1.90625">
        <ele>52</ele>
        <time>2021-08-06T16:59:28.000Z</time>
      </trkpt>
      <trkpt lat="46.98566" lon="-1.90613">
        <ele>52</ele>
        <time>2021-08-06T16:59:30.000Z</time>
      </trkpt>
      <trkpt lat="46.98575" lon="-1.90601">
        <ele>52</ele>
        <time>2021-08-06T16:59:32.000Z</time>
      </trkpt>
      <trkpt lat="46.98584" lon="-1.90587">
        <ele>52</ele>
        <time>2021-08-06T16:59:34.000Z</time>
      </trkpt>
      <trkpt lat="46.98594" lon="-1.90574">
        <ele>52</ele>
        <time>2021-08-06T16:59:36.000Z</time>
      </trkpt>
      <trkpt lat="46.98603" lon="-1.90561">
        <ele>51</ele>
        <time>2021-08-06T16:59:38.000Z</time>
      </trkpt>
      <trkpt lat="46.98613" lon="-1.90548">
        <ele>51</ele>
        <time>2021-08-06T16:59:40.000Z</time>
      </trkpt>
      <trkpt lat="46.98622" lon="-1.90534">
        <ele>51</ele>
        <time>2021-08-06T16:59:42.000Z</time>
      </trkpt>
      <trkpt lat="46.98632" lon="-1.9052">
        <ele>51</ele>
        <time>2021-08-06T16:59:44.000Z</time>
      </trkpt>
      <trkpt lat="46.98642" lon="-1.90505">
        <ele>51</ele>
        <time>2021-08-06T16:59:46.000Z</time>
      </trkpt>
      <trkpt lat="46.98652" lon="-1.90491">
        <ele>51</ele>
        <time>2021-08-06T16:59:48.000Z</time>
      </trkpt>
      <trkpt lat="46.98661" lon="-1.90477">
        <ele>52</ele>
        <time>2021-08-06T16:59:50.000Z</time>
      </trkpt>
      <trkpt lat="46.98671" lon="-1.90462">
        <ele>52</ele>
        <time>2021-08-06T16:59:52.000Z</time>
      </trkpt>
      <trkpt lat="46.98681" lon="-1.90448">
        <ele>52</ele>
        <time>2021-08-06T16:59:54.000Z</time>
      </trkpt>
      <trkpt lat="46.98691" lon="-1.90435">
        <ele>52</ele>
        <time>2021-08-06T16:59:56.000Z</time>
      </trkpt>
      <trkpt lat="46.98702" lon="-1.90423">
        <ele>51</ele>
        <time>2021-08-06T16:59:58.000Z</time>
      </trkpt>
      <trkpt lat="46.98714" lon="-1.90413">
        <ele>51</ele>
        <time>2021-08-06T17:00:00.000Z</time>
      </trkpt>
      <trkpt lat="46.98726" lon="-1.90403">
        <ele>51</ele>
        <time>2021-08-06T17:00:02.000Z</time>
      </trkpt>
      <trkpt lat="46.98738" lon="-1.90394">
        <ele>51</ele>
        <time>2021-08-06T17:00:04.000Z</time>
      </trkpt>
      <trkpt lat="46.9875" lon="-1.90386">
        <ele>51</ele>
        <time>2021-08-06T17:00:06.000Z</time>
      </trkpt>
      <trkpt lat="46.98762" lon="-1.90377">
        <ele>51</ele>
        <time>2021-08-06T17:00:08.000Z</time>
      </trkpt>
      <trkpt lat="46.98774" lon="-1.90365">
        <ele>51</ele>
        <time>2021-08-06T17:00:10.000Z</time>
      </trkpt>
      <trkpt lat="46.98785" lon="-1.90354">
        <ele>51</ele>
        <time>2021-08-06T17:00:12.000Z</time>
      </trkpt>
      <trkpt lat="46.98796" lon="-1.90343">
        <ele>51</ele>
        <time>2021-08-06T17:00:14.000Z</time>
      </trkpt>
      <trkpt lat="46.98807" lon="-1.90331">
        <ele>51</ele>
        <time>2021-08-06T17:00:16.000Z</time>
      </trkpt>
      <trkpt lat="46.98819" lon="-1.90321">
        <ele>51</ele>
        <time>2021-08-06T17:00:18.000Z</time>
      </trkpt>
      <trkpt lat="46.9883" lon="-1.90312">
        <ele>51</ele>
        <time>2021-08-06T17:00:20.000Z</time>
      </trkpt>
      <trkpt lat="46.98843" lon="-1.90303">
        <ele>51</ele>
        <time>2021-08-06T17:00:22.000Z</time>
      </trkpt>
      <trkpt lat="46.98855" lon="-1.90295">
        <ele>51</ele>
        <time>2021-08-06T17:00:24.000Z</time>
      </trkpt>
      <trkpt lat="46.98866" lon="-1.90286">
        <ele>51</ele>
        <time>2021-08-06T17:00:26.000Z</time>
      </trkpt>
      <trkpt lat="46.98878" lon="-1.90277">
        <ele>51</ele>
        <time>2021-08-06T17:00:28.000Z</time>
      </trkpt>
      <trkpt lat="46.9889" lon="-1.90268">
        <ele>51</ele>
        <time>2021-08-06T17:00:30.000Z</time>
      </trkpt>
      <trkpt lat="46.989" lon="-1.90258">
        <ele>51</ele>
        <time>2021-08-06T17:00:32.000Z</time>
      </trkpt>
      <trkpt lat="46.9891" lon="-1.90245">
        <ele>52</ele>
        <time>2021-08-06T17:00:34.000Z</time>
      </trkpt>
      <trkpt lat="46.98918" lon="-1.90232">
        <ele>52</ele>
        <time>2021-08-06T17:00:36.000Z</time>
      </trkpt>
      <trkpt lat="46.98927" lon="-1.90217">
        <ele>53</ele>
        <time>2021-08-06T17:00:38.000Z</time>
      </trkpt>
      <trkpt lat="46.98937" lon="-1.90203">
        <ele>53</ele>
        <time>2021-08-06T17:00:40.000Z</time>
      </trkpt>
      <trkpt lat="46.98946" lon="-1.90188">
        <ele>53</ele>
        <time>2021-08-06T17:00:42.000Z</time>
      </trkpt>
      <trkpt lat="46.98954" lon="-1.90174">
        <ele>52</ele>
        <time>2021-08-06T17:00:44.000Z</time>
      </trkpt>
      <trkpt lat="46.98963" lon="-1.90159">
        <ele>52</ele>
        <time>2021-08-06T17:00:46.000Z</time>
      </trkpt>
      <trkpt lat="46.98971" lon="-1.90144">
        <ele>52</ele>
        <time>2021-08-06T17:00:48.000Z</time>
      </trkpt>
      <trkpt lat="46.98979" lon="-1.90129">
        <ele>52</ele>
        <time>2021-08-06T17:00:50.000Z</time>
      </trkpt>
      <trkpt lat="46.98988" lon="-1.90114">
        <ele>52</ele>
        <time>2021-08-06T17:00:52.000Z</time>
      </trkpt>
      <trkpt lat="46.98997" lon="-1.901">
        <ele>51</ele>
        <time>2021-08-06T17:00:54.000Z</time>
      </trkpt>
      <trkpt lat="46.99006" lon="-1.90085">
        <ele>51</ele>
        <time>2021-08-06T17:00:56.000Z</time>
      </trkpt>
      <trkpt lat="46.99015" lon="-1.9007">
        <ele>52</ele>
        <time>2021-08-06T17:00:58.000Z</time>
      </trkpt>
      <trkpt lat="46.99022" lon="-1.90054">
        <ele>52</ele>
        <time>2021-08-06T17:01:00.000Z</time>
      </trkpt>
      <trkpt lat="46.9903" lon="-1.90038">
        <ele>52</ele>
        <time>2021-08-06T17:01:02.000Z</time>
      </trkpt>
      <trkpt lat="46.99037" lon="-1.90021">
        <ele>52</ele>
        <time>2021-08-06T17:01:04.000Z</time>
      </trkpt>
      <trkpt lat="46.99042" lon="-1.90003">
        <ele>52</ele>
        <time>2021-08-06T17:01:06.000Z</time>
      </trkpt>
      <trkpt lat="46.99043" lon="-1.89984">
        <ele>52</ele>
        <time>2021-08-06T17:01:08.000Z</time>
      </trkpt>
      <trkpt lat="46.9904" lon="-1.89965">
        <ele>52</ele>
        <time>2021-08-06T17:01:10.000Z</time>
      </trkpt>
      <trkpt lat="46.99033" lon="-1.89948">
        <ele>53</ele>
        <time>2021-08-06T17:01:12.000Z</time>
      </trkpt>
      <trkpt lat="46.99027" lon="-1.89931">
        <ele>53</ele>
        <time>2021-08-06T17:01:14.000Z</time>
      </trkpt>
      <trkpt lat="46.9902" lon="-1.89915">
        <ele>53</ele>
        <time>2021-08-06T17:01:16.000Z</time>
      </trkpt>
      <trkpt lat="46.99013" lon="-1.89898">
        <ele>53</ele>
        <time>2021-08-06T17:01:18.000Z</time>
      </trkpt>
      <trkpt lat="46.99006" lon="-1.89881">
        <ele>53</ele>
        <time>2021-08-06T17:01:20.000Z</time>
      </trkpt>
      <trkpt lat="46.98999" lon="-1.89864">
        <ele>53</ele>
        <time>2021-08-06T17:01:22.000Z</time>
      </trkpt>
      <trkpt lat="46.98993" lon="-1.89847">
        <ele>54</ele>
        <time>2021-08-06T17:01:24.000Z</time>
      </trkpt>
      <trkpt lat="46.98986" lon="-1.8983">
        <ele>53</ele>
        <time>2021-08-06T17:01:26.000Z</time>
      </trkpt>
      <trkpt lat="46.98979" lon="-1.89813">
        <ele>53</ele>
        <time>2021-08-06T17:01:28.000Z</time>
      </trkpt>
      <trkpt lat="46.98972" lon="-1.89796">
        <ele>53</ele>
        <time>2021-08-06T17:01:30.000Z</time>
      </trkpt>
      <trkpt lat="46.98966" lon="-1.89779">
        <ele>53</ele>
        <time>2021-08-06T17:01:32.000Z</time>
      </trkpt>
      <trkpt lat="46.9896" lon="-1.89762">
        <ele>53</ele>
        <time>2021-08-06T17:01:34.000Z</time>
      </trkpt>
      <trkpt lat="46.98953" lon="-1.89745">
        <ele>53</ele>
        <time>2021-08-06T17:01:36.000Z</time>
      </trkpt>
      <trkpt lat="46.98947" lon="-1.89727">
        <ele>53</ele>
        <time>2021-08-06T17:01:38.000Z</time>
      </trkpt>
      <trkpt lat="46.98941" lon="-1.8971">
        <ele>53</ele>
        <time>2021-08-06T17:01:40.000Z</time>
      </trkpt>
      <trkpt lat="46.98936" lon="-1.89692">
        <ele>53</ele>
        <time>2021-08-06T17:01:42.000Z</time>
      </trkpt>
      <trkpt lat="46.98931" lon="-1.89674">
        <ele>53</ele>
        <time>2021-08-06T17:01:44.000Z</time>
      </trkpt>
      <trkpt lat="46.98927" lon="-1.89656">
        <ele>52</ele>
        <time>2021-08-06T17:01:46.000Z</time>
      </trkpt>
      <trkpt lat="46.98922" lon="-1.89638">
        <ele>52</ele>
        <time>2021-08-06T17:01:48.000Z</time>
      </trkpt>
      <trkpt lat="46.98918" lon="-1.89619">
        <ele>52</ele>
        <time>2021-08-06T17:01:50.000Z</time>
      </trkpt>
      <trkpt lat="46.98913" lon="-1.89601">
        <ele>53</ele>
        <time>2021-08-06T17:01:52.000Z</time>
      </trkpt>
      <trkpt lat="46.98908" lon="-1.89582">
        <ele>53</ele>
        <time>2021-08-06T17:01:54.000Z</time>
      </trkpt>
      <trkpt lat="46.98903" lon="-1.89564">
        <ele>53</ele>
        <time>2021-08-06T17:01:56.000Z</time>
      </trkpt>
      <trkpt lat="46.98898" lon="-1.89546">
        <ele>53</ele>
        <time>2021-08-06T17:01:58.000Z</time>
      </trkpt>
      <trkpt lat="46.98892" lon="-1.89528">
        <ele>53</ele>
        <time>2021-08-06T17:02:00.000Z</time>
      </trkpt>
      <trkpt lat="46.98885" lon="-1.89512">
        <ele>53</ele>
        <time>2021-08-06T17:02:02.000Z</time>
      </trkpt>
      <trkpt lat="46.98878" lon="-1.89495">
        <ele>53</ele>
        <time>2021-08-06T17:02:04.000Z</time>
      </trkpt>
      <trkpt lat="46.98871" lon="-1.89479">
        <ele>53</ele>
        <time>2021-08-06T17:02:06.000Z</time>
      </trkpt>
      <trkpt lat="46.98864" lon="-1.89463">
        <ele>53</ele>
        <time>2021-08-06T17:02:08.000Z</time>
      </trkpt>
      <trkpt lat="46.98857" lon="-1.89447">
        <ele>53</ele>
        <time>2021-08-06T17:02:10.000Z</time>
      </trkpt>
      <trkpt lat="46.98849" lon="-1.89431">
        <ele>53</ele>
        <time>2021-08-06T17:02:12.000Z</time>
      </trkpt>
      <trkpt lat="46.98842" lon="-1.89414">
        <ele>53</ele>
        <time>2021-08-06T17:02:14.000Z</time>
      </trkpt>
      <trkpt lat="46.98834" lon="-1.89399">
        <ele>53</ele>
        <time>2021-08-06T17:02:16.000Z</time>
      </trkpt>
      <trkpt lat="46.98827" lon="-1.89383">
        <ele>53</ele>
        <time>2021-08-06T17:02:18.000Z</time>
      </trkpt>
      <trkpt lat="46.9882" lon="-1.89367">
        <ele>53</ele>
        <time>2021-08-06T17:02:20.000Z</time>
      </trkpt>
      <trkpt lat="46.98813" lon="-1.89352">
        <ele>53</ele>
        <time>2021-08-06T17:02:22.000Z</time>
      </trkpt>
      <trkpt lat="46.98805" lon="-1.89335">
        <ele>53</ele>
        <time>2021-08-06T17:02:24.000Z</time>
      </trkpt>
      <trkpt lat="46.98798" lon="-1.89319">
        <ele>53</ele>
        <time>2021-08-06T17:02:26.000Z</time>
      </trkpt>
      <trkpt lat="46.98791" lon="-1.89303">
        <ele>53</ele>
        <time>2021-08-06T17:02:28.000Z</time>
      </trkpt>
      <trkpt lat="46.98784" lon="-1.89287">
        <ele>53</ele>
        <time>2021-08-06T17:02:30.000Z</time>
      </trkpt>
      <trkpt lat="46.98776" lon="-1.89271">
        <ele>53</ele>
        <time>2021-08-06T17:02:32.000Z</time>
      </trkpt>
      <trkpt lat="46.98768" lon="-1.89256">
        <ele>53</ele>
        <time>2021-08-06T17:02:34.000Z</time>
      </trkpt>
      <trkpt lat="46.9876" lon="-1.89243">
        <ele>53</ele>
        <time>2021-08-06T17:02:36.000Z</time>
      </trkpt>
      <trkpt lat="46.9875" lon="-1.89231">
        <ele>53</ele>
        <time>2021-08-06T17:02:38.000Z</time>
      </trkpt>
      <trkpt lat="46.98741" lon="-1.89218">
        <ele>53</ele>
        <time>2021-08-06T17:02:40.000Z</time>
      </trkpt>
      <trkpt lat="46.98735" lon="-1.89201">
        <ele>53</ele>
        <time>2021-08-06T17:02:42.000Z</time>
      </trkpt>
      <trkpt lat="46.98733" lon="-1.89183">
        <ele>53</ele>
        <time>2021-08-06T17:02:44.000Z</time>
      </trkpt>
      <trkpt lat="46.98732" lon="-1.89165">
        <ele>53</ele>
        <time>2021-08-06T17:02:46.000Z</time>
      </trkpt>
      <trkpt lat="46.98731" lon="-1.89146">
        <ele>53</ele>
        <time>2021-08-06T17:02:48.000Z</time>
      </trkpt>
      <trkpt lat="46.98729" lon="-1.89128">
        <ele>53</ele>
        <time>2021-08-06T17:02:50.000Z</time>
      </trkpt>
      <trkpt lat="46.98723" lon="-1.89111">
        <ele>53</ele>
        <time>2021-08-06T17:02:52.000Z</time>
      </trkpt>
      <trkpt lat="46.98715" lon="-1.89098">
        <ele>52</ele>
        <time>2021-08-06T17:02:54.000Z</time>
      </trkpt>
      <trkpt lat="46.98705" lon="-1.89086">
        <ele>52</ele>
        <time>2021-08-06T17:02:56.000Z</time>
      </trkpt>
      <trkpt lat="46.98694" lon="-1.89075">
        <ele>52</ele>
        <time>2021-08-06T17:02:58.000Z</time>
      </trkpt>
      <trkpt lat="46.98683" lon="-1.89066">
        <ele>52</ele>
        <time>2021-08-06T17:03:00.000Z</time>
      </trkpt>
      <trkpt lat="46.98672" lon="-1.89057">
        <ele>52</ele>
        <time>2021-08-06T17:03:02.000Z</time>
      </trkpt>
      <trkpt lat="46.98661" lon="-1.89048">
        <ele>52</ele>
        <time>2021-08-06T17:03:04.000Z</time>
      </trkpt>
      <trkpt lat="46.98651" lon="-1.89038">
        <ele>52</ele>
        <time>2021-08-06T17:03:06.000Z</time>
      </trkpt>
      <trkpt lat="46.98641" lon="-1.89025">
        <ele>52</ele>
        <time>2021-08-06T17:03:08.000Z</time>
      </trkpt>
      <trkpt lat="46.98634" lon="-1.8901">
        <ele>52</ele>
        <time>2021-08-06T17:03:10.000Z</time>
      </trkpt>
      <trkpt lat="46.98628" lon="-1.88993">
        <ele>52</ele>
        <time>2021-08-06T17:03:12.000Z</time>
      </trkpt>
      <trkpt lat="46.98622" lon="-1.88976">
        <ele>53</ele>
        <time>2021-08-06T17:03:14.000Z</time>
      </trkpt>
      <trkpt lat="46.98615" lon="-1.8896">
        <ele>53</ele>
        <time>2021-08-06T17:03:16.000Z</time>
      </trkpt>
      <trkpt lat="46.98607" lon="-1.88947">
        <ele>53</ele>
        <time>2021-08-06T17:03:18.000Z</time>
      </trkpt>
      <trkpt lat="46.98597" lon="-1.88935">
        <ele>53</ele>
        <time>2021-08-06T17:03:20.000Z</time>
      </trkpt>
      <trkpt lat="46.98587" lon="-1.88923">
        <ele>53</ele>
        <time>2021-08-06T17:03:22.000Z</time>
      </trkpt>
      <trkpt lat="46.98577" lon="-1.88911">
        <ele>54</ele>
        <time>2021-08-06T17:03:24.000Z</time>
      </trkpt>
      <trkpt lat="46.98568" lon="-1.88896">
        <ele>54</ele>
        <time>2021-08-06T17:03:26.000Z</time>
      </trkpt>
      <trkpt lat="46.9856" lon="-1.88881">
        <ele>54</ele>
        <time>2021-08-06T17:03:28.000Z</time>
      </trkpt>
      <trkpt lat="46.98548" lon="-1.88858">
        <ele>54</ele>
        <time>2021-08-06T17:03:31.000Z</time>
      </trkpt>
      <trkpt lat="46.98541" lon="-1.88843">
        <ele>54</ele>
        <time>2021-08-06T17:03:33.000Z</time>
      </trkpt>
      <trkpt lat="46.98533" lon="-1.88827">
        <ele>54</ele>
        <time>2021-08-06T17:03:35.000Z</time>
      </trkpt>
      <trkpt lat="46.98526" lon="-1.88812">
        <ele>54</ele>
        <time>2021-08-06T17:03:37.000Z</time>
      </trkpt>
      <trkpt lat="46.98519" lon="-1.88796">
        <ele>54</ele>
        <time>2021-08-06T17:03:39.000Z</time>
      </trkpt>
      <trkpt lat="46.98511" lon="-1.8878">
        <ele>54</ele>
        <time>2021-08-06T17:03:41.000Z</time>
      </trkpt>
      <trkpt lat="46.98503" lon="-1.88764">
        <ele>54</ele>
        <time>2021-08-06T17:03:43.000Z</time>
      </trkpt>
      <trkpt lat="46.98496" lon="-1.88748">
        <ele>54</ele>
        <time>2021-08-06T17:03:45.000Z</time>
      </trkpt>
      <trkpt lat="46.98489" lon="-1.88732">
        <ele>54</ele>
        <time>2021-08-06T17:03:47.000Z</time>
      </trkpt>
      <trkpt lat="46.98481" lon="-1.88716">
        <ele>54</ele>
        <time>2021-08-06T17:03:49.000Z</time>
      </trkpt>
      <trkpt lat="46.98474" lon="-1.88701">
        <ele>54</ele>
        <time>2021-08-06T17:03:51.000Z</time>
      </trkpt>
      <trkpt lat="46.98466" lon="-1.88685">
        <ele>54</ele>
        <time>2021-08-06T17:03:53.000Z</time>
      </trkpt>
      <trkpt lat="46.9846" lon="-1.8867">
        <ele>53</ele>
        <time>2021-08-06T17:03:55.000Z</time>
      </trkpt>
      <trkpt lat="46.98453" lon="-1.88657">
        <ele>53</ele>
        <time>2021-08-06T17:03:57.000Z</time>
      </trkpt>
      <trkpt lat="46.98446" lon="-1.88645">
        <ele>53</ele>
        <time>2021-08-06T17:03:59.000Z</time>
      </trkpt>
      <trkpt lat="46.98438" lon="-1.88634">
        <ele>53</ele>
        <time>2021-08-06T17:04:01.000Z</time>
      </trkpt>
      <trkpt lat="46.98429" lon="-1.88629">
        <ele>53</ele>
        <time>2021-08-06T17:04:03.000Z</time>
      </trkpt>
      <trkpt lat="46.98421" lon="-1.88628">
        <ele>54</ele>
        <time>2021-08-06T17:04:07.000Z</time>
      </trkpt>
      <trkpt lat="46.98418" lon="-1.88609">
        <ele>54</ele>
        <time>2021-08-06T17:04:10.000Z</time>
      </trkpt>
      <trkpt lat="46.98419" lon="-1.88592">
        <ele>54</ele>
        <time>2021-08-06T17:04:12.000Z</time>
      </trkpt>
      <trkpt lat="46.98421" lon="-1.88574">
        <ele>54</ele>
        <time>2021-08-06T17:04:14.000Z</time>
      </trkpt>
      <trkpt lat="46.98422" lon="-1.88555">
        <ele>54</ele>
        <time>2021-08-06T17:04:16.000Z</time>
      </trkpt>
      <trkpt lat="46.98423" lon="-1.88537">
        <ele>55</ele>
        <time>2021-08-06T17:04:18.000Z</time>
      </trkpt>
      <trkpt lat="46.98424" lon="-1.88519">
        <ele>55</ele>
        <time>2021-08-06T17:04:20.000Z</time>
      </trkpt>
      <trkpt lat="46.98426" lon="-1.885">
        <ele>54</ele>
        <time>2021-08-06T17:04:22.000Z</time>
      </trkpt>
      <trkpt lat="46.98428" lon="-1.8848">
        <ele>55</ele>
        <time>2021-08-06T17:04:24.000Z</time>
      </trkpt>
      <trkpt lat="46.9843" lon="-1.8846">
        <ele>55</ele>
        <time>2021-08-06T17:04:26.000Z</time>
      </trkpt>
      <trkpt lat="46.98432" lon="-1.8844">
        <ele>55</ele>
        <time>2021-08-06T17:04:28.000Z</time>
      </trkpt>
      <trkpt lat="46.98433" lon="-1.88421">
        <ele>55</ele>
        <time>2021-08-06T17:04:30.000Z</time>
      </trkpt>
      <trkpt lat="46.98435" lon="-1.884">
        <ele>55</ele>
        <time>2021-08-06T17:04:32.000Z</time>
      </trkpt>
      <trkpt lat="46.98437" lon="-1.8838">
        <ele>55</ele>
        <time>2021-08-06T17:04:34.000Z</time>
      </trkpt>
      <trkpt lat="46.98438" lon="-1.88361">
        <ele>55</ele>
        <time>2021-08-06T17:04:36.000Z</time>
      </trkpt>
      <trkpt lat="46.9844" lon="-1.8834">
        <ele>55</ele>
        <time>2021-08-06T17:04:38.000Z</time>
      </trkpt>
      <trkpt lat="46.98442" lon="-1.8832">
        <ele>55</ele>
        <time>2021-08-06T17:04:40.000Z</time>
      </trkpt>
      <trkpt lat="46.98443" lon="-1.883">
        <ele>55</ele>
        <time>2021-08-06T17:04:42.000Z</time>
      </trkpt>
      <trkpt lat="46.98445" lon="-1.88279">
        <ele>55</ele>
        <time>2021-08-06T17:04:44.000Z</time>
      </trkpt>
      <trkpt lat="46.98446" lon="-1.88259">
        <ele>55</ele>
        <time>2021-08-06T17:04:46.000Z</time>
      </trkpt>
      <trkpt lat="46.98448" lon="-1.88238">
        <ele>55</ele>
        <time>2021-08-06T17:04:48.000Z</time>
      </trkpt>
      <trkpt lat="46.9845" lon="-1.88218">
        <ele>55</ele>
        <time>2021-08-06T17:04:50.000Z</time>
      </trkpt>
      <trkpt lat="46.98451" lon="-1.88198">
        <ele>55</ele>
        <time>2021-08-06T17:04:52.000Z</time>
      </trkpt>
      <trkpt lat="46.98454" lon="-1.88178">
        <ele>55</ele>
        <time>2021-08-06T17:04:54.000Z</time>
      </trkpt>
      <trkpt lat="46.98455" lon="-1.88156">
        <ele>55</ele>
        <time>2021-08-06T17:04:56.000Z</time>
      </trkpt>
      <trkpt lat="46.98457" lon="-1.88136">
        <ele>55</ele>
        <time>2021-08-06T17:04:58.000Z</time>
      </trkpt>
      <trkpt lat="46.98459" lon="-1.88116">
        <ele>54</ele>
        <time>2021-08-06T17:05:00.000Z</time>
      </trkpt>
      <trkpt lat="46.9846" lon="-1.88096">
        <ele>54</ele>
        <time>2021-08-06T17:05:02.000Z</time>
      </trkpt>
      <trkpt lat="46.98462" lon="-1.88076">
        <ele>54</ele>
        <time>2021-08-06T17:05:04.000Z</time>
      </trkpt>
      <trkpt lat="46.98464" lon="-1.88056">
        <ele>55</ele>
        <time>2021-08-06T17:05:06.000Z</time>
      </trkpt>
      <trkpt lat="46.98465" lon="-1.88037">
        <ele>55</ele>
        <time>2021-08-06T17:05:08.000Z</time>
      </trkpt>
      <trkpt lat="46.98467" lon="-1.88017">
        <ele>55</ele>
        <time>2021-08-06T17:05:10.000Z</time>
      </trkpt>
      <trkpt lat="46.98469" lon="-1.87997">
        <ele>54</ele>
        <time>2021-08-06T17:05:12.000Z</time>
      </trkpt>
      <trkpt lat="46.9847" lon="-1.87977">
        <ele>54</ele>
        <time>2021-08-06T17:05:14.000Z</time>
      </trkpt>
      <trkpt lat="46.98472" lon="-1.87956">
        <ele>54</ele>
        <time>2021-08-06T17:05:16.000Z</time>
      </trkpt>
      <trkpt lat="46.98474" lon="-1.87935">
        <ele>54</ele>
        <time>2021-08-06T17:05:18.000Z</time>
      </trkpt>
      <trkpt lat="46.98476" lon="-1.87915">
        <ele>54</ele>
        <time>2021-08-06T17:05:20.000Z</time>
      </trkpt>
      <trkpt lat="46.98478" lon="-1.87894">
        <ele>54</ele>
        <time>2021-08-06T17:05:22.000Z</time>
      </trkpt>
      <trkpt lat="46.98479" lon="-1.87873">
        <ele>54</ele>
        <time>2021-08-06T17:05:24.000Z</time>
      </trkpt>
      <trkpt lat="46.98481" lon="-1.87853">
        <ele>54</ele>
        <time>2021-08-06T17:05:26.000Z</time>
      </trkpt>
      <trkpt lat="46.98483" lon="-1.87832">
        <ele>54</ele>
        <time>2021-08-06T17:05:28.000Z</time>
      </trkpt>
      <trkpt lat="46.98484" lon="-1.87811">
        <ele>54</ele>
        <time>2021-08-06T17:05:30.000Z</time>
      </trkpt>
      <trkpt lat="46.98486" lon="-1.87791">
        <ele>54</ele>
        <time>2021-08-06T17:05:32.000Z</time>
      </trkpt>
      <trkpt lat="46.98488" lon="-1.87771">
        <ele>54</ele>
        <time>2021-08-06T17:05:34.000Z</time>
      </trkpt>
      <trkpt lat="46.9849" lon="-1.87751">
        <ele>54</ele>
        <time>2021-08-06T17:05:36.000Z</time>
      </trkpt>
      <trkpt lat="46.98491" lon="-1.87731">
        <ele>55</ele>
        <time>2021-08-06T17:05:38.000Z</time>
      </trkpt>
      <trkpt lat="46.98493" lon="-1.8771">
        <ele>55</ele>
        <time>2021-08-06T17:05:40.000Z</time>
      </trkpt>
      <trkpt lat="46.98495" lon="-1.8769">
        <ele>54</ele>
        <time>2021-08-06T17:05:42.000Z</time>
      </trkpt>
      <trkpt lat="46.98497" lon="-1.87669">
        <ele>54</ele>
        <time>2021-08-06T17:05:44.000Z</time>
      </trkpt>
      <trkpt lat="46.98498" lon="-1.87649">
        <ele>54</ele>
        <time>2021-08-06T17:05:46.000Z</time>
      </trkpt>
      <trkpt lat="46.985" lon="-1.87628">
        <ele>54</ele>
        <time>2021-08-06T17:05:48.000Z</time>
      </trkpt>
      <trkpt lat="46.98502" lon="-1.87608">
        <ele>54</ele>
        <time>2021-08-06T17:05:50.000Z</time>
      </trkpt>
      <trkpt lat="46.98503" lon="-1.87588">
        <ele>54</ele>
        <time>2021-08-06T17:05:52.000Z</time>
      </trkpt>
      <trkpt lat="46.98505" lon="-1.87568">
        <ele>54</ele>
        <time>2021-08-06T17:05:54.000Z</time>
      </trkpt>
      <trkpt lat="46.98507" lon="-1.87548">
        <ele>54</ele>
        <time>2021-08-06T17:05:56.000Z</time>
      </trkpt>
      <trkpt lat="46.98508" lon="-1.87528">
        <ele>54</ele>
        <time>2021-08-06T17:05:58.000Z</time>
      </trkpt>
      <trkpt lat="46.9851" lon="-1.87508">
        <ele>54</ele>
        <time>2021-08-06T17:06:00.000Z</time>
      </trkpt>
      <trkpt lat="46.98512" lon="-1.87489">
        <ele>54</ele>
        <time>2021-08-06T17:06:02.000Z</time>
      </trkpt>
      <trkpt lat="46.98513" lon="-1.87468">
        <ele>54</ele>
        <time>2021-08-06T17:06:04.000Z</time>
      </trkpt>
      <trkpt lat="46.98515" lon="-1.87448">
        <ele>54</ele>
        <time>2021-08-06T17:06:06.000Z</time>
      </trkpt>
      <trkpt lat="46.98517" lon="-1.87428">
        <ele>54</ele>
        <time>2021-08-06T17:06:08.000Z</time>
      </trkpt>
      <trkpt lat="46.98519" lon="-1.87408">
        <ele>54</ele>
        <time>2021-08-06T17:06:10.000Z</time>
      </trkpt>
      <trkpt lat="46.98521" lon="-1.87387">
        <ele>54</ele>
        <time>2021-08-06T17:06:12.000Z</time>
      </trkpt>
      <trkpt lat="46.98522" lon="-1.87367">
        <ele>54</ele>
        <time>2021-08-06T17:06:14.000Z</time>
      </trkpt>
      <trkpt lat="46.98524" lon="-1.87347">
        <ele>54</ele>
        <time>2021-08-06T17:06:16.000Z</time>
      </trkpt>
      <trkpt lat="46.98525" lon="-1.87327">
        <ele>54</ele>
        <time>2021-08-06T17:06:18.000Z</time>
      </trkpt>
      <trkpt lat="46.98527" lon="-1.87307">
        <ele>54</ele>
        <time>2021-08-06T17:06:20.000Z</time>
      </trkpt>
      <trkpt lat="46.98529" lon="-1.87286">
        <ele>54</ele>
        <time>2021-08-06T17:06:22.000Z</time>
      </trkpt>
      <trkpt lat="46.98531" lon="-1.87266">
        <ele>54</ele>
        <time>2021-08-06T17:06:24.000Z</time>
      </trkpt>
      <trkpt lat="46.98532" lon="-1.87246">
        <ele>54</ele>
        <time>2021-08-06T17:06:26.000Z</time>
      </trkpt>
      <trkpt lat="46.98534" lon="-1.87226">
        <ele>54</ele>
        <time>2021-08-06T17:06:28.000Z</time>
      </trkpt>
      <trkpt lat="46.98536" lon="-1.87205">
        <ele>54</ele>
        <time>2021-08-06T17:06:30.000Z</time>
      </trkpt>
      <trkpt lat="46.98537" lon="-1.87184">
        <ele>54</ele>
        <time>2021-08-06T17:06:32.000Z</time>
      </trkpt>
      <trkpt lat="46.98539" lon="-1.87164">
        <ele>54</ele>
        <time>2021-08-06T17:06:34.000Z</time>
      </trkpt>
      <trkpt lat="46.98541" lon="-1.87144">
        <ele>54</ele>
        <time>2021-08-06T17:06:36.000Z</time>
      </trkpt>
      <trkpt lat="46.98543" lon="-1.87124">
        <ele>54</ele>
        <time>2021-08-06T17:06:38.000Z</time>
      </trkpt>
      <trkpt lat="46.98544" lon="-1.87105">
        <ele>54</ele>
        <time>2021-08-06T17:06:40.000Z</time>
      </trkpt>
      <trkpt lat="46.98546" lon="-1.87084">
        <ele>54</ele>
        <time>2021-08-06T17:06:42.000Z</time>
      </trkpt>
      <trkpt lat="46.98548" lon="-1.87064">
        <ele>54</ele>
        <time>2021-08-06T17:06:44.000Z</time>
      </trkpt>
      <trkpt lat="46.9855" lon="-1.87044">
        <ele>54</ele>
        <time>2021-08-06T17:06:46.000Z</time>
      </trkpt>
      <trkpt lat="46.98551" lon="-1.87024">
        <ele>54</ele>
        <time>2021-08-06T17:06:48.000Z</time>
      </trkpt>
      <trkpt lat="46.98553" lon="-1.87004">
        <ele>54</ele>
        <time>2021-08-06T17:06:50.000Z</time>
      </trkpt>
      <trkpt lat="46.98555" lon="-1.86984">
        <ele>54</ele>
        <time>2021-08-06T17:06:52.000Z</time>
      </trkpt>
      <trkpt lat="46.98556" lon="-1.86963">
        <ele>54</ele>
        <time>2021-08-06T17:06:54.000Z</time>
      </trkpt>
      <trkpt lat="46.98558" lon="-1.86943">
        <ele>54</ele>
        <time>2021-08-06T17:06:56.000Z</time>
      </trkpt>
      <trkpt lat="46.9856" lon="-1.86922">
        <ele>54</ele>
        <time>2021-08-06T17:06:58.000Z</time>
      </trkpt>
      <trkpt lat="46.98562" lon="-1.86901">
        <ele>54</ele>
        <time>2021-08-06T17:07:00.000Z</time>
      </trkpt>
      <trkpt lat="46.98564" lon="-1.86881">
        <ele>54</ele>
        <time>2021-08-06T17:07:02.000Z</time>
      </trkpt>
      <trkpt lat="46.98565" lon="-1.8686">
        <ele>54</ele>
        <time>2021-08-06T17:07:04.000Z</time>
      </trkpt>
      <trkpt lat="46.98567" lon="-1.8684">
        <ele>54</ele>
        <time>2021-08-06T17:07:06.000Z</time>
      </trkpt>
      <trkpt lat="46.98569" lon="-1.86819">
        <ele>54</ele>
        <time>2021-08-06T17:07:08.000Z</time>
      </trkpt>
      <trkpt lat="46.98571" lon="-1.86799">
        <ele>54</ele>
        <time>2021-08-06T17:07:10.000Z</time>
      </trkpt>
      <trkpt lat="46.98572" lon="-1.86778">
        <ele>54</ele>
        <time>2021-08-06T17:07:12.000Z</time>
      </trkpt>
      <trkpt lat="46.98574" lon="-1.86757">
        <ele>53</ele>
        <time>2021-08-06T17:07:14.000Z</time>
      </trkpt>
      <trkpt lat="46.98576" lon="-1.86737">
        <ele>53</ele>
        <time>2021-08-06T17:07:16.000Z</time>
      </trkpt>
      <trkpt lat="46.98578" lon="-1.86717">
        <ele>54</ele>
        <time>2021-08-06T17:07:18.000Z</time>
      </trkpt>
      <trkpt lat="46.9858" lon="-1.86697">
        <ele>54</ele>
        <time>2021-08-06T17:07:20.000Z</time>
      </trkpt>
      <trkpt lat="46.98581" lon="-1.86677">
        <ele>55</ele>
        <time>2021-08-06T17:07:22.000Z</time>
      </trkpt>
      <trkpt lat="46.98583" lon="-1.86657">
        <ele>55</ele>
        <time>2021-08-06T17:07:24.000Z</time>
      </trkpt>
      <trkpt lat="46.98585" lon="-1.86637">
        <ele>55</ele>
        <time>2021-08-06T17:07:26.000Z</time>
      </trkpt>
      <trkpt lat="46.98586" lon="-1.86617">
        <ele>54</ele>
        <time>2021-08-06T17:07:28.000Z</time>
      </trkpt>
      <trkpt lat="46.98588" lon="-1.86597">
        <ele>54</ele>
        <time>2021-08-06T17:07:30.000Z</time>
      </trkpt>
      <trkpt lat="46.9859" lon="-1.86577">
        <ele>54</ele>
        <time>2021-08-06T17:07:32.000Z</time>
      </trkpt>
      <trkpt lat="46.98592" lon="-1.86557">
        <ele>54</ele>
        <time>2021-08-06T17:07:34.000Z</time>
      </trkpt>
      <trkpt lat="46.98593" lon="-1.86537">
        <ele>54</ele>
        <time>2021-08-06T17:07:36.000Z</time>
      </trkpt>
      <trkpt lat="46.98595" lon="-1.86517">
        <ele>54</ele>
        <time>2021-08-06T17:07:38.000Z</time>
      </trkpt>
      <trkpt lat="46.98596" lon="-1.86496">
        <ele>54</ele>
        <time>2021-08-06T17:07:40.000Z</time>
      </trkpt>
      <trkpt lat="46.98598" lon="-1.86476">
        <ele>54</ele>
        <time>2021-08-06T17:07:42.000Z</time>
      </trkpt>
      <trkpt lat="46.986" lon="-1.86455">
        <ele>54</ele>
        <time>2021-08-06T17:07:44.000Z</time>
      </trkpt>
      <trkpt lat="46.98602" lon="-1.86435">
        <ele>54</ele>
        <time>2021-08-06T17:07:46.000Z</time>
      </trkpt>
      <trkpt lat="46.98603" lon="-1.86415">
        <ele>54</ele>
        <time>2021-08-06T17:07:48.000Z</time>
      </trkpt>
      <trkpt lat="46.98605" lon="-1.86396">
        <ele>54</ele>
        <time>2021-08-06T17:07:50.000Z</time>
      </trkpt>
      <trkpt lat="46.98606" lon="-1.86376">
        <ele>54</ele>
        <time>2021-08-06T17:07:52.000Z</time>
      </trkpt>
      <trkpt lat="46.98608" lon="-1.86356">
        <ele>54</ele>
        <time>2021-08-06T17:07:54.000Z</time>
      </trkpt>
      <trkpt lat="46.98609" lon="-1.86335">
        <ele>54</ele>
        <time>2021-08-06T17:07:56.000Z</time>
      </trkpt>
      <trkpt lat="46.98611" lon="-1.86315">
        <ele>54</ele>
        <time>2021-08-06T17:07:58.000Z</time>
      </trkpt>
      <trkpt lat="46.98613" lon="-1.86294">
        <ele>54</ele>
        <time>2021-08-06T17:08:00.000Z</time>
      </trkpt>
      <trkpt lat="46.98615" lon="-1.86274">
        <ele>54</ele>
        <time>2021-08-06T17:08:02.000Z</time>
      </trkpt>
      <trkpt lat="46.98617" lon="-1.86253">
        <ele>54</ele>
        <time>2021-08-06T17:08:04.000Z</time>
      </trkpt>
      <trkpt lat="46.98618" lon="-1.86233">
        <ele>54</ele>
        <time>2021-08-06T17:08:06.000Z</time>
      </trkpt>
      <trkpt lat="46.9862" lon="-1.86213">
        <ele>54</ele>
        <time>2021-08-06T17:08:08.000Z</time>
      </trkpt>
      <trkpt lat="46.98621" lon="-1.86192">
        <ele>54</ele>
        <time>2021-08-06T17:08:10.000Z</time>
      </trkpt>
      <trkpt lat="46.98623" lon="-1.86172">
        <ele>54</ele>
        <time>2021-08-06T17:08:12.000Z</time>
      </trkpt>
      <trkpt lat="46.98625" lon="-1.86151">
        <ele>54</ele>
        <time>2021-08-06T17:08:14.000Z</time>
      </trkpt>
      <trkpt lat="46.98627" lon="-1.8613">
        <ele>54</ele>
        <time>2021-08-06T17:08:16.000Z</time>
      </trkpt>
      <trkpt lat="46.98629" lon="-1.86109">
        <ele>54</ele>
        <time>2021-08-06T17:08:18.000Z</time>
      </trkpt>
      <trkpt lat="46.98631" lon="-1.86089">
        <ele>55</ele>
        <time>2021-08-06T17:08:20.000Z</time>
      </trkpt>
      <trkpt lat="46.98632" lon="-1.86068">
        <ele>55</ele>
        <time>2021-08-06T17:08:22.000Z</time>
      </trkpt>
      <trkpt lat="46.98634" lon="-1.86048">
        <ele>55</ele>
        <time>2021-08-06T17:08:24.000Z</time>
      </trkpt>
      <trkpt lat="46.98636" lon="-1.86027">
        <ele>54</ele>
        <time>2021-08-06T17:08:26.000Z</time>
      </trkpt>
      <trkpt lat="46.98637" lon="-1.86007">
        <ele>54</ele>
        <time>2021-08-06T17:08:28.000Z</time>
      </trkpt>
      <trkpt lat="46.98639" lon="-1.85986">
        <ele>54</ele>
        <time>2021-08-06T17:08:30.000Z</time>
      </trkpt>
      <trkpt lat="46.98641" lon="-1.85966">
        <ele>53</ele>
        <time>2021-08-06T17:08:32.000Z</time>
      </trkpt>
      <trkpt lat="46.98642" lon="-1.85946">
        <ele>53</ele>
        <time>2021-08-06T17:08:34.000Z</time>
      </trkpt>
      <trkpt lat="46.98644" lon="-1.85925">
        <ele>53</ele>
        <time>2021-08-06T17:08:36.000Z</time>
      </trkpt>
      <trkpt lat="46.98646" lon="-1.85905">
        <ele>53</ele>
        <time>2021-08-06T17:08:38.000Z</time>
      </trkpt>
      <trkpt lat="46.98648" lon="-1.85885">
        <ele>53</ele>
        <time>2021-08-06T17:08:40.000Z</time>
      </trkpt>
      <trkpt lat="46.98649" lon="-1.85865">
        <ele>53</ele>
        <time>2021-08-06T17:08:42.000Z</time>
      </trkpt>
      <trkpt lat="46.98651" lon="-1.85844">
        <ele>54</ele>
        <time>2021-08-06T17:08:44.000Z</time>
      </trkpt>
      <trkpt lat="46.98653" lon="-1.85824">
        <ele>54</ele>
        <time>2021-08-06T17:08:46.000Z</time>
      </trkpt>
      <trkpt lat="46.98655" lon="-1.85805">
        <ele>54</ele>
        <time>2021-08-06T17:08:48.000Z</time>
      </trkpt>
      <trkpt lat="46.98657" lon="-1.85786">
        <ele>54</ele>
        <time>2021-08-06T17:08:50.000Z</time>
      </trkpt>
      <trkpt lat="46.98658" lon="-1.85766">
        <ele>54</ele>
        <time>2021-08-06T17:08:52.000Z</time>
      </trkpt>
      <trkpt lat="46.9866" lon="-1.85747">
        <ele>55</ele>
        <time>2021-08-06T17:08:54.000Z</time>
      </trkpt>
      <trkpt lat="46.98662" lon="-1.85727">
        <ele>55</ele>
        <time>2021-08-06T17:08:56.000Z</time>
      </trkpt>
      <trkpt lat="46.98665" lon="-1.85707">
        <ele>55</ele>
        <time>2021-08-06T17:08:58.000Z</time>
      </trkpt>
      <trkpt lat="46.98668" lon="-1.85686">
        <ele>55</ele>
        <time>2021-08-06T17:09:00.000Z</time>
      </trkpt>
      <trkpt lat="46.98672" lon="-1.85666">
        <ele>55</ele>
        <time>2021-08-06T17:09:02.000Z</time>
      </trkpt>
      <trkpt lat="46.98675" lon="-1.85645">
        <ele>55</ele>
        <time>2021-08-06T17:09:04.000Z</time>
      </trkpt>
      <trkpt lat="46.98679" lon="-1.85625">
        <ele>55</ele>
        <time>2021-08-06T17:09:06.000Z</time>
      </trkpt>
      <trkpt lat="46.98683" lon="-1.85605">
        <ele>55</ele>
        <time>2021-08-06T17:09:08.000Z</time>
      </trkpt>
      <trkpt lat="46.98688" lon="-1.85585">
        <ele>54</ele>
        <time>2021-08-06T17:09:10.000Z</time>
      </trkpt>
      <trkpt lat="46.98692" lon="-1.85565">
        <ele>55</ele>
        <time>2021-08-06T17:09:12.000Z</time>
      </trkpt>
      <trkpt lat="46.98696" lon="-1.85545">
        <ele>54</ele>
        <time>2021-08-06T17:09:14.000Z</time>
      </trkpt>
      <trkpt lat="46.98701" lon="-1.85525">
        <ele>54</ele>
        <time>2021-08-06T17:09:16.000Z</time>
      </trkpt>
      <trkpt lat="46.98705" lon="-1.85504">
        <ele>55</ele>
        <time>2021-08-06T17:09:18.000Z</time>
      </trkpt>
      <trkpt lat="46.9871" lon="-1.85483">
        <ele>54</ele>
        <time>2021-08-06T17:09:20.000Z</time>
      </trkpt>
      <trkpt lat="46.98714" lon="-1.85463">
        <ele>54</ele>
        <time>2021-08-06T17:09:22.000Z</time>
      </trkpt>
      <trkpt lat="46.98719" lon="-1.85443">
        <ele>54</ele>
        <time>2021-08-06T17:09:24.000Z</time>
      </trkpt>
      <trkpt lat="46.98723" lon="-1.85423">
        <ele>54</ele>
        <time>2021-08-06T17:09:26.000Z</time>
      </trkpt>
      <trkpt lat="46.98728" lon="-1.85403">
        <ele>53</ele>
        <time>2021-08-06T17:09:28.000Z</time>
      </trkpt>
      <trkpt lat="46.98732" lon="-1.85383">
        <ele>53</ele>
        <time>2021-08-06T17:09:30.000Z</time>
      </trkpt>
      <trkpt lat="46.98737" lon="-1.85362">
        <ele>53</ele>
        <time>2021-08-06T17:09:32.000Z</time>
      </trkpt>
      <trkpt lat="46.98741" lon="-1.85342">
        <ele>53</ele>
        <time>2021-08-06T17:09:34.000Z</time>
      </trkpt>
      <trkpt lat="46.98745" lon="-1.85321">
        <ele>54</ele>
        <time>2021-08-06T17:09:36.000Z</time>
      </trkpt>
      <trkpt lat="46.9875" lon="-1.85302">
        <ele>54</ele>
        <time>2021-08-06T17:09:38.000Z</time>
      </trkpt>
      <trkpt lat="46.98754" lon="-1.85282">
        <ele>54</ele>
        <time>2021-08-06T17:09:40.000Z</time>
      </trkpt>
      <trkpt lat="46.98759" lon="-1.85261">
        <ele>53</ele>
        <time>2021-08-06T17:09:42.000Z</time>
      </trkpt>
      <trkpt lat="46.98763" lon="-1.85241">
        <ele>53</ele>
        <time>2021-08-06T17:09:44.000Z</time>
      </trkpt>
      <trkpt lat="46.98768" lon="-1.85221">
        <ele>54</ele>
        <time>2021-08-06T17:09:46.000Z</time>
      </trkpt>
      <trkpt lat="46.98772" lon="-1.85202">
        <ele>55</ele>
        <time>2021-08-06T17:09:48.000Z</time>
      </trkpt>
      <trkpt lat="46.98776" lon="-1.85182">
        <ele>55</ele>
        <time>2021-08-06T17:09:50.000Z</time>
      </trkpt>
      <trkpt lat="46.9878" lon="-1.85163">
        <ele>55</ele>
        <time>2021-08-06T17:09:52.000Z</time>
      </trkpt>
      <trkpt lat="46.98785" lon="-1.85143">
        <ele>55</ele>
        <time>2021-08-06T17:09:54.000Z</time>
      </trkpt>
      <trkpt lat="46.9879" lon="-1.85122">
        <ele>54</ele>
        <time>2021-08-06T17:09:56.000Z</time>
      </trkpt>
      <trkpt lat="46.98794" lon="-1.85103">
        <ele>54</ele>
        <time>2021-08-06T17:09:58.000Z</time>
      </trkpt>
      <trkpt lat="46.98799" lon="-1.85083">
        <ele>54</ele>
        <time>2021-08-06T17:10:00.000Z</time>
      </trkpt>
      <trkpt lat="46.98803" lon="-1.85063">
        <ele>54</ele>
        <time>2021-08-06T17:10:02.000Z</time>
      </trkpt>
      <trkpt lat="46.98808" lon="-1.85042">
        <ele>54</ele>
        <time>2021-08-06T17:10:04.000Z</time>
      </trkpt>
      <trkpt lat="46.98812" lon="-1.85021">
        <ele>54</ele>
        <time>2021-08-06T17:10:06.000Z</time>
      </trkpt>
      <trkpt lat="46.98817" lon="-1.85">
        <ele>54</ele>
        <time>2021-08-06T17:10:08.000Z</time>
      </trkpt>
      <trkpt lat="46.98822" lon="-1.84979">
        <ele>53</ele>
        <time>2021-08-06T17:10:10.000Z</time>
      </trkpt>
      <trkpt lat="46.98826" lon="-1.84958">
        <ele>53</ele>
        <time>2021-08-06T17:10:12.000Z</time>
      </trkpt>
      <trkpt lat="46.98831" lon="-1.84937">
        <ele>53</ele>
        <time>2021-08-06T17:10:14.000Z</time>
      </trkpt>
      <trkpt lat="46.98836" lon="-1.84916">
        <ele>53</ele>
        <time>2021-08-06T17:10:16.000Z</time>
      </trkpt>
      <trkpt lat="46.9884" lon="-1.84894">
        <ele>53</ele>
        <time>2021-08-06T17:10:18.000Z</time>
      </trkpt>
      <trkpt lat="46.98845" lon="-1.84873">
        <ele>54</ele>
        <time>2021-08-06T17:10:20.000Z</time>
      </trkpt>
      <trkpt lat="46.9885" lon="-1.84852">
        <ele>53</ele>
        <time>2021-08-06T17:10:22.000Z</time>
      </trkpt>
      <trkpt lat="46.98855" lon="-1.8483">
        <ele>53</ele>
        <time>2021-08-06T17:10:24.000Z</time>
      </trkpt>
      <trkpt lat="46.98859" lon="-1.84809">
        <ele>54</ele>
        <time>2021-08-06T17:10:26.000Z</time>
      </trkpt>
      <trkpt lat="46.98864" lon="-1.84788">
        <ele>54</ele>
        <time>2021-08-06T17:10:28.000Z</time>
      </trkpt>
      <trkpt lat="46.98869" lon="-1.84767">
        <ele>54</ele>
        <time>2021-08-06T17:10:30.000Z</time>
      </trkpt>
      <trkpt lat="46.98873" lon="-1.84746">
        <ele>54</ele>
        <time>2021-08-06T17:10:32.000Z</time>
      </trkpt>
      <trkpt lat="46.98877" lon="-1.84727">
        <ele>54</ele>
        <time>2021-08-06T17:10:34.000Z</time>
      </trkpt>
      <trkpt lat="46.98882" lon="-1.84707">
        <ele>55</ele>
        <time>2021-08-06T17:10:36.000Z</time>
      </trkpt>
      <trkpt lat="46.98886" lon="-1.84687">
        <ele>55</ele>
        <time>2021-08-06T17:10:38.000Z</time>
      </trkpt>
      <trkpt lat="46.98891" lon="-1.84666">
        <ele>55</ele>
        <time>2021-08-06T17:10:40.000Z</time>
      </trkpt>
      <trkpt lat="46.98895" lon="-1.84647">
        <ele>55</ele>
        <time>2021-08-06T17:10:42.000Z</time>
      </trkpt>
      <trkpt lat="46.989" lon="-1.84627">
        <ele>55</ele>
        <time>2021-08-06T17:10:44.000Z</time>
      </trkpt>
      <trkpt lat="46.98904" lon="-1.84607">
        <ele>55</ele>
        <time>2021-08-06T17:10:46.000Z</time>
      </trkpt>
      <trkpt lat="46.98908" lon="-1.84588">
        <ele>56</ele>
        <time>2021-08-06T17:10:48.000Z</time>
      </trkpt>
      <trkpt lat="46.98912" lon="-1.84569">
        <ele>56</ele>
        <time>2021-08-06T17:10:50.000Z</time>
      </trkpt>
      <trkpt lat="46.98916" lon="-1.8455">
        <ele>56</ele>
        <time>2021-08-06T17:10:52.000Z</time>
      </trkpt>
      <trkpt lat="46.9892" lon="-1.84531">
        <ele>56</ele>
        <time>2021-08-06T17:10:54.000Z</time>
      </trkpt>
      <trkpt lat="46.98924" lon="-1.84512">
        <ele>56</ele>
        <time>2021-08-06T17:10:56.000Z</time>
      </trkpt>
      <trkpt lat="46.98929" lon="-1.84494">
        <ele>57</ele>
        <time>2021-08-06T17:10:58.000Z</time>
      </trkpt>
      <trkpt lat="46.98933" lon="-1.84475">
        <ele>57</ele>
        <time>2021-08-06T17:11:00.000Z</time>
      </trkpt>
      <trkpt lat="46.98937" lon="-1.84456">
        <ele>57</ele>
        <time>2021-08-06T17:11:02.000Z</time>
      </trkpt>
      <trkpt lat="46.98942" lon="-1.84437">
        <ele>56</ele>
        <time>2021-08-06T17:11:04.000Z</time>
      </trkpt>
      <trkpt lat="46.98946" lon="-1.84417">
        <ele>56</ele>
        <time>2021-08-06T17:11:06.000Z</time>
      </trkpt>
      <trkpt lat="46.9895" lon="-1.84398">
        <ele>56</ele>
        <time>2021-08-06T17:11:08.000Z</time>
      </trkpt>
      <trkpt lat="46.98954" lon="-1.84379">
        <ele>56</ele>
        <time>2021-08-06T17:11:10.000Z</time>
      </trkpt>
      <trkpt lat="46.98958" lon="-1.8436">
        <ele>56</ele>
        <time>2021-08-06T17:11:12.000Z</time>
      </trkpt>
      <trkpt lat="46.98962" lon="-1.8434">
        <ele>56</ele>
        <time>2021-08-06T17:11:14.000Z</time>
      </trkpt>
      <trkpt lat="46.98966" lon="-1.84321">
        <ele>56</ele>
        <time>2021-08-06T17:11:16.000Z</time>
      </trkpt>
      <trkpt lat="46.98971" lon="-1.84302">
        <ele>55</ele>
        <time>2021-08-06T17:11:18.000Z</time>
      </trkpt>
      <trkpt lat="46.98975" lon="-1.84282">
        <ele>55</ele>
        <time>2021-08-06T17:11:20.000Z</time>
      </trkpt>
      <trkpt lat="46.98979" lon="-1.84263">
        <ele>55</ele>
        <time>2021-08-06T17:11:22.000Z</time>
      </trkpt>
      <trkpt lat="46.98984" lon="-1.84244">
        <ele>55</ele>
        <time>2021-08-06T17:11:24.000Z</time>
      </trkpt>
      <trkpt lat="46.98988" lon="-1.84224">
        <ele>55</ele>
        <time>2021-08-06T17:11:26.000Z</time>
      </trkpt>
      <trkpt lat="46.98992" lon="-1.84204">
        <ele>55</ele>
        <time>2021-08-06T17:11:28.000Z</time>
      </trkpt>
      <trkpt lat="46.98996" lon="-1.84184">
        <ele>55</ele>
        <time>2021-08-06T17:11:30.000Z</time>
      </trkpt>
      <trkpt lat="46.99001" lon="-1.84164">
        <ele>55</ele>
        <time>2021-08-06T17:11:32.000Z</time>
      </trkpt>
      <trkpt lat="46.99005" lon="-1.84144">
        <ele>55</ele>
        <time>2021-08-06T17:11:34.000Z</time>
      </trkpt>
      <trkpt lat="46.9901" lon="-1.84124">
        <ele>55</ele>
        <time>2021-08-06T17:11:36.000Z</time>
      </trkpt>
      <trkpt lat="46.99015" lon="-1.84103">
        <ele>55</ele>
        <time>2021-08-06T17:11:38.000Z</time>
      </trkpt>
      <trkpt lat="46.99019" lon="-1.84082">
        <ele>55</ele>
        <time>2021-08-06T17:11:40.000Z</time>
      </trkpt>
      <trkpt lat="46.99024" lon="-1.84061">
        <ele>55</ele>
        <time>2021-08-06T17:11:42.000Z</time>
      </trkpt>
      <trkpt lat="46.99029" lon="-1.8404">
        <ele>55</ele>
        <time>2021-08-06T17:11:44.000Z</time>
      </trkpt>
      <trkpt lat="46.99033" lon="-1.84019">
        <ele>55</ele>
        <time>2021-08-06T17:11:46.000Z</time>
      </trkpt>
      <trkpt lat="46.99038" lon="-1.83998">
        <ele>55</ele>
        <time>2021-08-06T17:11:48.000Z</time>
      </trkpt>
      <trkpt lat="46.99043" lon="-1.83978">
        <ele>54</ele>
        <time>2021-08-06T17:11:50.000Z</time>
      </trkpt>
      <trkpt lat="46.99048" lon="-1.83956">
        <ele>54</ele>
        <time>2021-08-06T17:11:52.000Z</time>
      </trkpt>
      <trkpt lat="46.99052" lon="-1.83936">
        <ele>54</ele>
        <time>2021-08-06T17:11:54.000Z</time>
      </trkpt>
      <trkpt lat="46.99057" lon="-1.83915">
        <ele>54</ele>
        <time>2021-08-06T17:11:56.000Z</time>
      </trkpt>
      <trkpt lat="46.99062" lon="-1.83894">
        <ele>54</ele>
        <time>2021-08-06T17:11:58.000Z</time>
      </trkpt>
      <trkpt lat="46.99066" lon="-1.83873">
        <ele>54</ele>
        <time>2021-08-06T17:12:00.000Z</time>
      </trkpt>
      <trkpt lat="46.99071" lon="-1.83852">
        <ele>54</ele>
        <time>2021-08-06T17:12:02.000Z</time>
      </trkpt>
      <trkpt lat="46.99076" lon="-1.83832">
        <ele>54</ele>
        <time>2021-08-06T17:12:04.000Z</time>
      </trkpt>
      <trkpt lat="46.9908" lon="-1.83812">
        <ele>54</ele>
        <time>2021-08-06T17:12:06.000Z</time>
      </trkpt>
      <trkpt lat="46.99085" lon="-1.83791">
        <ele>54</ele>
        <time>2021-08-06T17:12:08.000Z</time>
      </trkpt>
      <trkpt lat="46.99089" lon="-1.83771">
        <ele>54</ele>
        <time>2021-08-06T17:12:10.000Z</time>
      </trkpt>
      <trkpt lat="46.99094" lon="-1.83751">
        <ele>54</ele>
        <time>2021-08-06T17:12:12.000Z</time>
      </trkpt>
      <trkpt lat="46.99098" lon="-1.83731">
        <ele>54</ele>
        <time>2021-08-06T17:12:14.000Z</time>
      </trkpt>
      <trkpt lat="46.99103" lon="-1.83712">
        <ele>54</ele>
        <time>2021-08-06T17:12:16.000Z</time>
      </trkpt>
      <trkpt lat="46.99107" lon="-1.83692">
        <ele>54</ele>
        <time>2021-08-06T17:12:18.000Z</time>
      </trkpt>
      <trkpt lat="46.99111" lon="-1.83673">
        <ele>53</ele>
        <time>2021-08-06T17:12:20.000Z</time>
      </trkpt>
      <trkpt lat="46.99115" lon="-1.83654">
        <ele>54</ele>
        <time>2021-08-06T17:12:22.000Z</time>
      </trkpt>
      <trkpt lat="46.99119" lon="-1.83635">
        <ele>54</ele>
        <time>2021-08-06T17:12:24.000Z</time>
      </trkpt>
      <trkpt lat="46.99124" lon="-1.83616">
        <ele>54</ele>
        <time>2021-08-06T17:12:26.000Z</time>
      </trkpt>
      <trkpt lat="46.99128" lon="-1.83597">
        <ele>54</ele>
        <time>2021-08-06T17:12:28.000Z</time>
      </trkpt>
      <trkpt lat="46.99132" lon="-1.83578">
        <ele>53</ele>
        <time>2021-08-06T17:12:30.000Z</time>
      </trkpt>
      <trkpt lat="46.99136" lon="-1.83559">
        <ele>53</ele>
        <time>2021-08-06T17:12:32.000Z</time>
      </trkpt>
      <trkpt lat="46.9914" lon="-1.83541">
        <ele>53</ele>
        <time>2021-08-06T17:12:34.000Z</time>
      </trkpt>
      <trkpt lat="46.99142" lon="-1.83524">
        <ele>53</ele>
        <time>2021-08-06T17:12:36.000Z</time>
      </trkpt>
      <trkpt lat="46.99144" lon="-1.83505">
        <ele>53</ele>
        <time>2021-08-06T17:12:38.000Z</time>
      </trkpt>
      <trkpt lat="46.9915" lon="-1.83488">
        <ele>54</ele>
        <time>2021-08-06T17:12:40.000Z</time>
      </trkpt>
      <trkpt lat="46.99156" lon="-1.8347">
        <ele>54</ele>
        <time>2021-08-06T17:12:42.000Z</time>
      </trkpt>
      <trkpt lat="46.9916" lon="-1.8345">
        <ele>54</ele>
        <time>2021-08-06T17:12:44.000Z</time>
      </trkpt>
      <trkpt lat="46.99165" lon="-1.83431">
        <ele>54</ele>
        <time>2021-08-06T17:12:46.000Z</time>
      </trkpt>
      <trkpt lat="46.99169" lon="-1.83411">
        <ele>54</ele>
        <time>2021-08-06T17:12:48.000Z</time>
      </trkpt>
      <trkpt lat="46.99173" lon="-1.83392">
        <ele>54</ele>
        <time>2021-08-06T17:12:50.000Z</time>
      </trkpt>
      <trkpt lat="46.99177" lon="-1.83372">
        <ele>54</ele>
        <time>2021-08-06T17:12:52.000Z</time>
      </trkpt>
      <trkpt lat="46.99182" lon="-1.83352">
        <ele>54</ele>
        <time>2021-08-06T17:12:54.000Z</time>
      </trkpt>
      <trkpt lat="46.99186" lon="-1.83333">
        <ele>54</ele>
        <time>2021-08-06T17:12:56.000Z</time>
      </trkpt>
      <trkpt lat="46.9919" lon="-1.83313">
        <ele>54</ele>
        <time>2021-08-06T17:12:58.000Z</time>
      </trkpt>
      <trkpt lat="46.99194" lon="-1.83293">
        <ele>54</ele>
        <time>2021-08-06T17:13:00.000Z</time>
      </trkpt>
      <trkpt lat="46.99199" lon="-1.83273">
        <ele>55</ele>
        <time>2021-08-06T17:13:02.000Z</time>
      </trkpt>
      <trkpt lat="46.99203" lon="-1.83253">
        <ele>54</ele>
        <time>2021-08-06T17:13:04.000Z</time>
      </trkpt>
      <trkpt lat="46.99207" lon="-1.83234">
        <ele>54</ele>
        <time>2021-08-06T17:13:06.000Z</time>
      </trkpt>
      <trkpt lat="46.99212" lon="-1.83214">
        <ele>54</ele>
        <time>2021-08-06T17:13:08.000Z</time>
      </trkpt>
      <trkpt lat="46.99216" lon="-1.83194">
        <ele>54</ele>
        <time>2021-08-06T17:13:10.000Z</time>
      </trkpt>
      <trkpt lat="46.99221" lon="-1.83175">
        <ele>54</ele>
        <time>2021-08-06T17:13:12.000Z</time>
      </trkpt>
      <trkpt lat="46.99225" lon="-1.83155">
        <ele>54</ele>
        <time>2021-08-06T17:13:14.000Z</time>
      </trkpt>
      <trkpt lat="46.99229" lon="-1.83135">
        <ele>54</ele>
        <time>2021-08-06T17:13:16.000Z</time>
      </trkpt>
      <trkpt lat="46.99233" lon="-1.83115">
        <ele>54</ele>
        <time>2021-08-06T17:13:18.000Z</time>
      </trkpt>
      <trkpt lat="46.99238" lon="-1.83095">
        <ele>53</ele>
        <time>2021-08-06T17:13:20.000Z</time>
      </trkpt>
      <trkpt lat="46.99242" lon="-1.83076">
        <ele>53</ele>
        <time>2021-08-06T17:13:22.000Z</time>
      </trkpt>
      <trkpt lat="46.99247" lon="-1.83056">
        <ele>53</ele>
        <time>2021-08-06T17:13:24.000Z</time>
      </trkpt>
      <trkpt lat="46.99252" lon="-1.83037">
        <ele>54</ele>
        <time>2021-08-06T17:13:26.000Z</time>
      </trkpt>
      <trkpt lat="46.99256" lon="-1.83018">
        <ele>54</ele>
        <time>2021-08-06T17:13:28.000Z</time>
      </trkpt>
      <trkpt lat="46.9926" lon="-1.82998">
        <ele>54</ele>
        <time>2021-08-06T17:13:30.000Z</time>
      </trkpt>
      <trkpt lat="46.99265" lon="-1.8298">
        <ele>54</ele>
        <time>2021-08-06T17:13:32.000Z</time>
      </trkpt>
      <trkpt lat="46.99269" lon="-1.82961">
        <ele>54</ele>
        <time>2021-08-06T17:13:34.000Z</time>
      </trkpt>
      <trkpt lat="46.99273" lon="-1.82942">
        <ele>54</ele>
        <time>2021-08-06T17:13:36.000Z</time>
      </trkpt>
      <trkpt lat="46.99277" lon="-1.82922">
        <ele>54</ele>
        <time>2021-08-06T17:13:38.000Z</time>
      </trkpt>
      <trkpt lat="46.99281" lon="-1.82902">
        <ele>54</ele>
        <time>2021-08-06T17:13:40.000Z</time>
      </trkpt>
      <trkpt lat="46.99285" lon="-1.82883">
        <ele>54</ele>
        <time>2021-08-06T17:13:42.000Z</time>
      </trkpt>
      <trkpt lat="46.99289" lon="-1.82864">
        <ele>53</ele>
        <time>2021-08-06T17:13:44.000Z</time>
      </trkpt>
      <trkpt lat="46.99293" lon="-1.82846">
        <ele>54</ele>
        <time>2021-08-06T17:13:46.000Z</time>
      </trkpt>
      <trkpt lat="46.99297" lon="-1.82828">
        <ele>54</ele>
        <time>2021-08-06T17:13:48.000Z</time>
      </trkpt>
      <trkpt lat="46.99302" lon="-1.8281">
        <ele>54</ele>
        <time>2021-08-06T17:13:50.000Z</time>
      </trkpt>
      <trkpt lat="46.99306" lon="-1.82791">
        <ele>54</ele>
        <time>2021-08-06T17:13:52.000Z</time>
      </trkpt>
      <trkpt lat="46.9931" lon="-1.82772">
        <ele>54</ele>
        <time>2021-08-06T17:13:54.000Z</time>
      </trkpt>
      <trkpt lat="46.99314" lon="-1.82753">
        <ele>55</ele>
        <time>2021-08-06T17:13:56.000Z</time>
      </trkpt>
      <trkpt lat="46.99319" lon="-1.82733">
        <ele>55</ele>
        <time>2021-08-06T17:13:58.000Z</time>
      </trkpt>
      <trkpt lat="46.99323" lon="-1.82713">
        <ele>55</ele>
        <time>2021-08-06T17:14:00.000Z</time>
      </trkpt>
      <trkpt lat="46.99327" lon="-1.82693">
        <ele>54</ele>
        <time>2021-08-06T17:14:02.000Z</time>
      </trkpt>
      <trkpt lat="46.99332" lon="-1.82674">
        <ele>54</ele>
        <time>2021-08-06T17:14:04.000Z</time>
      </trkpt>
      <trkpt lat="46.99336" lon="-1.82655">
        <ele>54</ele>
        <time>2021-08-06T17:14:06.000Z</time>
      </trkpt>
      <trkpt lat="46.99341" lon="-1.82636">
        <ele>54</ele>
        <time>2021-08-06T17:14:08.000Z</time>
      </trkpt>
      <trkpt lat="46.99347" lon="-1.82618">
        <ele>54</ele>
        <time>2021-08-06T17:14:10.000Z</time>
      </trkpt>
      <trkpt lat="46.99355" lon="-1.82601">
        <ele>54</ele>
        <time>2021-08-06T17:14:12.000Z</time>
      </trkpt>
      <trkpt lat="46.99361" lon="-1.82584">
        <ele>54</ele>
        <time>2021-08-06T17:14:14.000Z</time>
      </trkpt>
      <trkpt lat="46.99364" lon="-1.82563">
        <ele>54</ele>
        <time>2021-08-06T17:14:16.000Z</time>
      </trkpt>
      <trkpt lat="46.9936" lon="-1.82542">
        <ele>54</ele>
        <time>2021-08-06T17:14:18.000Z</time>
      </trkpt>
      <trkpt lat="46.99355" lon="-1.82524">
        <ele>54</ele>
        <time>2021-08-06T17:14:20.000Z</time>
      </trkpt>
      <trkpt lat="46.99352" lon="-1.82508">
        <ele>54</ele>
        <time>2021-08-06T17:14:22.000Z</time>
      </trkpt>
      <trkpt lat="46.99348" lon="-1.82493">
        <ele>55</ele>
        <time>2021-08-06T17:14:24.000Z</time>
      </trkpt>
      <trkpt lat="46.99343" lon="-1.82477">
        <ele>55</ele>
        <time>2021-08-06T17:14:26.000Z</time>
      </trkpt>
      <trkpt lat="46.99339" lon="-1.82458">
        <ele>55</ele>
        <time>2021-08-06T17:14:28.000Z</time>
      </trkpt>
      <trkpt lat="46.99335" lon="-1.82439">
        <ele>55</ele>
        <time>2021-08-06T17:14:30.000Z</time>
      </trkpt>
      <trkpt lat="46.9933" lon="-1.82419">
        <ele>55</ele>
        <time>2021-08-06T17:14:32.000Z</time>
      </trkpt>
      <trkpt lat="46.99326" lon="-1.82399">
        <ele>55</ele>
        <time>2021-08-06T17:14:34.000Z</time>
      </trkpt>
      <trkpt lat="46.99324" lon="-1.82377">
        <ele>55</ele>
        <time>2021-08-06T17:14:36.000Z</time>
      </trkpt>
      <trkpt lat="46.99322" lon="-1.82357">
        <ele>55</ele>
        <time>2021-08-06T17:14:38.000Z</time>
      </trkpt>
      <trkpt lat="46.99319" lon="-1.82336">
        <ele>55</ele>
        <time>2021-08-06T17:14:40.000Z</time>
      </trkpt>
      <trkpt lat="46.99315" lon="-1.82316">
        <ele>55</ele>
        <time>2021-08-06T17:14:42.000Z</time>
      </trkpt>
      <trkpt lat="46.99311" lon="-1.82296">
        <ele>55</ele>
        <time>2021-08-06T17:14:44.000Z</time>
      </trkpt>
      <trkpt lat="46.99306" lon="-1.82276">
        <ele>55</ele>
        <time>2021-08-06T17:14:46.000Z</time>
      </trkpt>
      <trkpt lat="46.99301" lon="-1.82257">
        <ele>54</ele>
        <time>2021-08-06T17:14:48.000Z</time>
      </trkpt>
      <trkpt lat="46.99296" lon="-1.82238">
        <ele>54</ele>
        <time>2021-08-06T17:14:50.000Z</time>
      </trkpt>
      <trkpt lat="46.9929" lon="-1.8222">
        <ele>54</ele>
        <time>2021-08-06T17:14:52.000Z</time>
      </trkpt>
      <trkpt lat="46.99277" lon="-1.82216">
        <ele>54</ele>
        <time>2021-08-06T17:14:54.000Z</time>
      </trkpt>
      <trkpt lat="46.99262" lon="-1.82217">
        <ele>54</ele>
        <time>2021-08-06T17:14:56.000Z</time>
      </trkpt>
      <trkpt lat="46.99248" lon="-1.82219">
        <ele>53</ele>
        <time>2021-08-06T17:14:58.000Z</time>
      </trkpt>
      <trkpt lat="46.99233" lon="-1.82218">
        <ele>53</ele>
        <time>2021-08-06T17:15:00.000Z</time>
      </trkpt>
      <trkpt lat="46.9922" lon="-1.82215">
        <ele>53</ele>
        <time>2021-08-06T17:15:02.000Z</time>
      </trkpt>
      <trkpt lat="46.99207" lon="-1.82209">
        <ele>53</ele>
        <time>2021-08-06T17:15:04.000Z</time>
      </trkpt>
      <trkpt lat="46.99194" lon="-1.82204">
        <ele>54</ele>
        <time>2021-08-06T17:15:06.000Z</time>
      </trkpt>
      <trkpt lat="46.9918" lon="-1.82198">
        <ele>55</ele>
        <time>2021-08-06T17:15:08.000Z</time>
      </trkpt>
      <trkpt lat="46.99167" lon="-1.82193">
        <ele>55</ele>
        <time>2021-08-06T17:15:10.000Z</time>
      </trkpt>
      <trkpt lat="46.99154" lon="-1.82187">
        <ele>56</ele>
        <time>2021-08-06T17:15:12.000Z</time>
      </trkpt>
      <trkpt lat="46.99142" lon="-1.82183">
        <ele>58</ele>
        <time>2021-08-06T17:15:14.000Z</time>
      </trkpt>
      <trkpt lat="46.99129" lon="-1.82182">
        <ele>59</ele>
        <time>2021-08-06T17:15:16.000Z</time>
      </trkpt>
      <trkpt lat="46.99116" lon="-1.82185">
        <ele>59</ele>
        <time>2021-08-06T17:15:18.000Z</time>
      </trkpt>
      <trkpt lat="46.99105" lon="-1.82186">
        <ele>57</ele>
        <time>2021-08-06T17:15:20.000Z</time>
      </trkpt>
      <trkpt lat="46.99095" lon="-1.82186">
        <ele>56</ele>
        <time>2021-08-06T17:15:22.000Z</time>
      </trkpt>
      <trkpt lat="46.99088" lon="-1.82171">
        <ele>56</ele>
        <time>2021-08-06T17:15:24.000Z</time>
      </trkpt>
      <trkpt lat="46.99087" lon="-1.82152">
        <ele>56</ele>
        <time>2021-08-06T17:15:26.000Z</time>
      </trkpt>
      <trkpt lat="46.99085" lon="-1.82132">
        <ele>56</ele>
        <time>2021-08-06T17:15:28.000Z</time>
      </trkpt>
      <trkpt lat="46.99082" lon="-1.82111">
        <ele>55</ele>
        <time>2021-08-06T17:15:30.000Z</time>
      </trkpt>
      <trkpt lat="46.9908" lon="-1.82089">
        <ele>55</ele>
        <time>2021-08-06T17:15:32.000Z</time>
      </trkpt>
      <trkpt lat="46.99081" lon="-1.82067">
        <ele>54</ele>
        <time>2021-08-06T17:15:34.000Z</time>
      </trkpt>
      <trkpt lat="46.99082" lon="-1.82044">
        <ele>54</ele>
        <time>2021-08-06T17:15:36.000Z</time>
      </trkpt>
      <trkpt lat="46.99083" lon="-1.82022">
        <ele>54</ele>
        <time>2021-08-06T17:15:38.000Z</time>
      </trkpt>
      <trkpt lat="46.99084" lon="-1.82001">
        <ele>54</ele>
        <time>2021-08-06T17:15:40.000Z</time>
      </trkpt>
      <trkpt lat="46.99085" lon="-1.81979">
        <ele>54</ele>
        <time>2021-08-06T17:15:42.000Z</time>
      </trkpt>
      <trkpt lat="46.99087" lon="-1.81958">
        <ele>54</ele>
        <time>2021-08-06T17:15:44.000Z</time>
      </trkpt>
      <trkpt lat="46.99089" lon="-1.81938">
        <ele>54</ele>
        <time>2021-08-06T17:15:46.000Z</time>
      </trkpt>
      <trkpt lat="46.99091" lon="-1.81917">
        <ele>54</ele>
        <time>2021-08-06T17:15:48.000Z</time>
      </trkpt>
      <trkpt lat="46.99093" lon="-1.81897">
        <ele>54</ele>
        <time>2021-08-06T17:15:50.000Z</time>
      </trkpt>
      <trkpt lat="46.99096" lon="-1.81877">
        <ele>54</ele>
        <time>2021-08-06T17:15:52.000Z</time>
      </trkpt>
      <trkpt lat="46.99101" lon="-1.81857">
        <ele>54</ele>
        <time>2021-08-06T17:15:54.000Z</time>
      </trkpt>
      <trkpt lat="46.99106" lon="-1.81838">
        <ele>54</ele>
        <time>2021-08-06T17:15:56.000Z</time>
      </trkpt>
      <trkpt lat="46.99113" lon="-1.8182">
        <ele>54</ele>
        <time>2021-08-06T17:15:58.000Z</time>
      </trkpt>
      <trkpt lat="46.99123" lon="-1.81805">
        <ele>54</ele>
        <time>2021-08-06T17:16:00.000Z</time>
      </trkpt>
      <trkpt lat="46.99132" lon="-1.8179">
        <ele>54</ele>
        <time>2021-08-06T17:16:02.000Z</time>
      </trkpt>
      <trkpt lat="46.99143" lon="-1.81775">
        <ele>53</ele>
        <time>2021-08-06T17:16:04.000Z</time>
      </trkpt>
      <trkpt lat="46.99154" lon="-1.8176">
        <ele>53</ele>
        <time>2021-08-06T17:16:06.000Z</time>
      </trkpt>
      <trkpt lat="46.99165" lon="-1.81746">
        <ele>54</ele>
        <time>2021-08-06T17:16:08.000Z</time>
      </trkpt>
      <trkpt lat="46.99176" lon="-1.81734">
        <ele>53</ele>
        <time>2021-08-06T17:16:10.000Z</time>
      </trkpt>
      <trkpt lat="46.99189" lon="-1.81714">
        <ele>54</ele>
        <time>2021-08-06T17:16:13.000Z</time>
      </trkpt>
      <trkpt lat="46.99181" lon="-1.81701">
        <ele>54</ele>
        <time>2021-08-06T17:16:15.000Z</time>
      </trkpt>
      <trkpt lat="46.99169" lon="-1.8169">
        <ele>55</ele>
        <time>2021-08-06T17:16:17.000Z</time>
      </trkpt>
      <trkpt lat="46.99156" lon="-1.81677">
        <ele>55</ele>
        <time>2021-08-06T17:16:19.000Z</time>
      </trkpt>
      <trkpt lat="46.99145" lon="-1.81664">
        <ele>55</ele>
        <time>2021-08-06T17:16:21.000Z</time>
      </trkpt>
      <trkpt lat="46.99133" lon="-1.81651">
        <ele>55</ele>
        <time>2021-08-06T17:16:23.000Z</time>
      </trkpt>
      <trkpt lat="46.99123" lon="-1.81639">
        <ele>55</ele>
        <time>2021-08-06T17:16:25.000Z</time>
      </trkpt>
      <trkpt lat="46.99113" lon="-1.81626">
        <ele>54</ele>
        <time>2021-08-06T17:16:27.000Z</time>
      </trkpt>
      <trkpt lat="46.99104" lon="-1.81613">
        <ele>54</ele>
        <time>2021-08-06T17:16:29.000Z</time>
      </trkpt>
      <trkpt lat="46.99103" lon="-1.81594">
        <ele>55</ele>
        <time>2021-08-06T17:16:31.000Z</time>
      </trkpt>
      <trkpt lat="46.99115" lon="-1.81585">
        <ele>54</ele>
        <time>2021-08-06T17:16:33.000Z</time>
      </trkpt>
      <trkpt lat="46.99129" lon="-1.81585">
        <ele>54</ele>
        <time>2021-08-06T17:16:35.000Z</time>
      </trkpt>
      <trkpt lat="46.99142" lon="-1.81586">
        <ele>54</ele>
        <time>2021-08-06T17:16:37.000Z</time>
      </trkpt>
      <trkpt lat="46.99162" lon="-1.81586">
        <ele>55</ele>
        <time>2021-08-06T17:16:40.000Z</time>
      </trkpt>
      <trkpt lat="46.99176" lon="-1.81589">
        <ele>55</ele>
        <time>2021-08-06T17:16:42.000Z</time>
      </trkpt>
      <trkpt lat="46.99189" lon="-1.81591">
        <ele>56</ele>
        <time>2021-08-06T17:16:44.000Z</time>
      </trkpt>
      <trkpt lat="46.99212" lon="-1.81595">
        <ele>56</ele>
        <time>2021-08-06T17:16:47.000Z</time>
      </trkpt>
      <trkpt lat="46.99228" lon="-1.81599">
        <ele>56</ele>
        <time>2021-08-06T17:16:49.000Z</time>
      </trkpt>
      <trkpt lat="46.99242" lon="-1.81599">
        <ele>57</ele>
        <time>2021-08-06T17:16:51.000Z</time>
      </trkpt>
      <trkpt lat="46.99252" lon="-1.81587">
        <ele>56</ele>
        <time>2021-08-06T17:16:53.000Z</time>
      </trkpt>
      <trkpt lat="46.99252" lon="-1.81566">
        <ele>56</ele>
        <time>2021-08-06T17:16:55.000Z</time>
      </trkpt>
      <trkpt lat="46.99249" lon="-1.81546">
        <ele>56</ele>
        <time>2021-08-06T17:16:57.000Z</time>
      </trkpt>
      <trkpt lat="46.99246" lon="-1.81526">
        <ele>56</ele>
        <time>2021-08-06T17:16:59.000Z</time>
      </trkpt>
      <trkpt lat="46.99243" lon="-1.81506">
        <ele>57</ele>
        <time>2021-08-06T17:17:01.000Z</time>
      </trkpt>
      <trkpt lat="46.9924" lon="-1.81486">
        <ele>58</ele>
        <time>2021-08-06T17:17:03.000Z</time>
      </trkpt>
      <trkpt lat="46.99237" lon="-1.81465">
        <ele>58</ele>
        <time>2021-08-06T17:17:05.000Z</time>
      </trkpt>
      <trkpt lat="46.99233" lon="-1.81444">
        <ele>58</ele>
        <time>2021-08-06T17:17:07.000Z</time>
      </trkpt>
      <trkpt lat="46.9923" lon="-1.81422">
        <ele>58</ele>
        <time>2021-08-06T17:17:09.000Z</time>
      </trkpt>
      <trkpt lat="46.99227" lon="-1.814">
        <ele>58</ele>
        <time>2021-08-06T17:17:11.000Z</time>
      </trkpt>
      <trkpt lat="46.99224" lon="-1.8138">
        <ele>59</ele>
        <time>2021-08-06T17:17:13.000Z</time>
      </trkpt>
      <trkpt lat="46.99222" lon="-1.81358">
        <ele>59</ele>
        <time>2021-08-06T17:17:15.000Z</time>
      </trkpt>
      <trkpt lat="46.99219" lon="-1.81339">
        <ele>59</ele>
        <time>2021-08-06T17:17:17.000Z</time>
      </trkpt>
      <trkpt lat="46.99216" lon="-1.81319">
        <ele>60</ele>
        <time>2021-08-06T17:17:19.000Z</time>
      </trkpt>
      <trkpt lat="46.99213" lon="-1.81298">
        <ele>60</ele>
        <time>2021-08-06T17:17:21.000Z</time>
      </trkpt>
      <trkpt lat="46.9921" lon="-1.81277">
        <ele>60</ele>
        <time>2021-08-06T17:17:23.000Z</time>
      </trkpt>
      <trkpt lat="46.99208" lon="-1.81256">
        <ele>61</ele>
        <time>2021-08-06T17:17:25.000Z</time>
      </trkpt>
      <trkpt lat="46.99206" lon="-1.81236">
        <ele>61</ele>
        <time>2021-08-06T17:17:27.000Z</time>
      </trkpt>
      <trkpt lat="46.99202" lon="-1.81216">
        <ele>61</ele>
        <time>2021-08-06T17:17:29.000Z</time>
      </trkpt>
      <trkpt lat="46.992" lon="-1.81196">
        <ele>61</ele>
        <time>2021-08-06T17:17:31.000Z</time>
      </trkpt>
      <trkpt lat="46.99196" lon="-1.81175">
        <ele>61</ele>
        <time>2021-08-06T17:17:33.000Z</time>
      </trkpt>
      <trkpt lat="46.99194" lon="-1.81153">
        <ele>62</ele>
        <time>2021-08-06T17:17:35.000Z</time>
      </trkpt>
      <trkpt lat="46.99192" lon="-1.81131">
        <ele>61</ele>
        <time>2021-08-06T17:17:37.000Z</time>
      </trkpt>
      <trkpt lat="46.99188" lon="-1.81111">
        <ele>60</ele>
        <time>2021-08-06T17:17:39.000Z</time>
      </trkpt>
      <trkpt lat="46.99186" lon="-1.8109">
        <ele>59</ele>
        <time>2021-08-06T17:17:41.000Z</time>
      </trkpt>
      <trkpt lat="46.99183" lon="-1.81071">
        <ele>58</ele>
        <time>2021-08-06T17:17:43.000Z</time>
      </trkpt>
      <trkpt lat="46.9918" lon="-1.81051">
        <ele>58</ele>
        <time>2021-08-06T17:17:45.000Z</time>
      </trkpt>
      <trkpt lat="46.99178" lon="-1.81032">
        <ele>58</ele>
        <time>2021-08-06T17:17:47.000Z</time>
      </trkpt>
      <trkpt lat="46.99176" lon="-1.81013">
        <ele>57</ele>
        <time>2021-08-06T17:17:49.000Z</time>
      </trkpt>
      <trkpt lat="46.99173" lon="-1.80993">
        <ele>56</ele>
        <time>2021-08-06T17:17:51.000Z</time>
      </trkpt>
      <trkpt lat="46.99171" lon="-1.80974">
        <ele>56</ele>
        <time>2021-08-06T17:17:53.000Z</time>
      </trkpt>
      <trkpt lat="46.99168" lon="-1.80955">
        <ele>56</ele>
        <time>2021-08-06T17:17:55.000Z</time>
      </trkpt>
      <trkpt lat="46.99167" lon="-1.80936">
        <ele>55</ele>
        <time>2021-08-06T17:17:57.000Z</time>
      </trkpt>
      <trkpt lat="46.99164" lon="-1.80917">
        <ele>55</ele>
        <time>2021-08-06T17:17:59.000Z</time>
      </trkpt>
      <trkpt lat="46.99164" lon="-1.80899">
        <ele>55</ele>
        <time>2021-08-06T17:18:01.000Z</time>
      </trkpt>
      <trkpt lat="46.99175" lon="-1.80889">
        <ele>55</ele>
        <time>2021-08-06T17:18:03.000Z</time>
      </trkpt>
      <trkpt lat="46.99187" lon="-1.80881">
        <ele>55</ele>
        <time>2021-08-06T17:18:05.000Z</time>
      </trkpt>
      <trkpt lat="46.99199" lon="-1.80872">
        <ele>55</ele>
        <time>2021-08-06T17:18:07.000Z</time>
      </trkpt>
      <trkpt lat="46.99212" lon="-1.80863">
        <ele>54</ele>
        <time>2021-08-06T17:18:09.000Z</time>
      </trkpt>
      <trkpt lat="46.99225" lon="-1.80854">
        <ele>54</ele>
        <time>2021-08-06T17:18:11.000Z</time>
      </trkpt>
      <trkpt lat="46.99238" lon="-1.80845">
        <ele>53</ele>
        <time>2021-08-06T17:18:13.000Z</time>
      </trkpt>
      <trkpt lat="46.99251" lon="-1.80837">
        <ele>54</ele>
        <time>2021-08-06T17:18:15.000Z</time>
      </trkpt>
      <trkpt lat="46.99263" lon="-1.80829">
        <ele>53</ele>
        <time>2021-08-06T17:18:17.000Z</time>
      </trkpt>
      <trkpt lat="46.99276" lon="-1.80821">
        <ele>54</ele>
        <time>2021-08-06T17:18:19.000Z</time>
      </trkpt>
      <trkpt lat="46.99289" lon="-1.80813">
        <ele>53</ele>
        <time>2021-08-06T17:18:21.000Z</time>
      </trkpt>
      <trkpt lat="46.99301" lon="-1.80805">
        <ele>54</ele>
        <time>2021-08-06T17:18:23.000Z</time>
      </trkpt>
      <trkpt lat="46.99314" lon="-1.80797">
        <ele>54</ele>
        <time>2021-08-06T17:18:25.000Z</time>
      </trkpt>
      <trkpt lat="46.99327" lon="-1.80789">
        <ele>54</ele>
        <time>2021-08-06T17:18:27.000Z</time>
      </trkpt>
      <trkpt lat="46.9934" lon="-1.8078">
        <ele>53</ele>
        <time>2021-08-06T17:18:29.000Z</time>
      </trkpt>
      <trkpt lat="46.99354" lon="-1.80772">
        <ele>53</ele>
        <time>2021-08-06T17:18:31.000Z</time>
      </trkpt>
      <trkpt lat="46.99367" lon="-1.80764">
        <ele>53</ele>
        <time>2021-08-06T17:18:33.000Z</time>
      </trkpt>
      <trkpt lat="46.9938" lon="-1.80755">
        <ele>53</ele>
        <time>2021-08-06T17:18:35.000Z</time>
      </trkpt>
      <trkpt lat="46.99393" lon="-1.80747">
        <ele>53</ele>
        <time>2021-08-06T17:18:37.000Z</time>
      </trkpt>
      <trkpt lat="46.99406" lon="-1.80738">
        <ele>53</ele>
        <time>2021-08-06T17:18:39.000Z</time>
      </trkpt>
      <trkpt lat="46.99419" lon="-1.80731">
        <ele>53</ele>
        <time>2021-08-06T17:18:41.000Z</time>
      </trkpt>
      <trkpt lat="46.99432" lon="-1.80722">
        <ele>53</ele>
        <time>2021-08-06T17:18:43.000Z</time>
      </trkpt>
      <trkpt lat="46.99444" lon="-1.80714">
        <ele>53</ele>
        <time>2021-08-06T17:18:45.000Z</time>
      </trkpt>
      <trkpt lat="46.99457" lon="-1.80706">
        <ele>53</ele>
        <time>2021-08-06T17:18:47.000Z</time>
      </trkpt>
      <trkpt lat="46.99468" lon="-1.80698">
        <ele>53</ele>
        <time>2021-08-06T17:18:49.000Z</time>
      </trkpt>
      <trkpt lat="46.99477" lon="-1.80683">
        <ele>53</ele>
        <time>2021-08-06T17:18:51.000Z</time>
      </trkpt>
      <trkpt lat="46.99485" lon="-1.80667">
        <ele>53</ele>
        <time>2021-08-06T17:18:53.000Z</time>
      </trkpt>
      <trkpt lat="46.99498" lon="-1.80657">
        <ele>53</ele>
        <time>2021-08-06T17:18:55.000Z</time>
      </trkpt>
      <trkpt lat="46.99513" lon="-1.8065">
        <ele>53</ele>
        <time>2021-08-06T17:18:57.000Z</time>
      </trkpt>
      <trkpt lat="46.99527" lon="-1.80637">
        <ele>53</ele>
        <time>2021-08-06T17:18:59.000Z</time>
      </trkpt>
      <trkpt lat="46.99539" lon="-1.80623">
        <ele>53</ele>
        <time>2021-08-06T17:19:01.000Z</time>
      </trkpt>
      <trkpt lat="46.99552" lon="-1.80608">
        <ele>52</ele>
        <time>2021-08-06T17:19:03.000Z</time>
      </trkpt>
      <trkpt lat="46.99563" lon="-1.80593">
        <ele>53</ele>
        <time>2021-08-06T17:19:05.000Z</time>
      </trkpt>
      <trkpt lat="46.99574" lon="-1.80578">
        <ele>53</ele>
        <time>2021-08-06T17:19:07.000Z</time>
      </trkpt>
      <trkpt lat="46.99586" lon="-1.80563">
        <ele>53</ele>
        <time>2021-08-06T17:19:09.000Z</time>
      </trkpt>
      <trkpt lat="46.99598" lon="-1.80548">
        <ele>53</ele>
        <time>2021-08-06T17:19:11.000Z</time>
      </trkpt>
      <trkpt lat="46.9961" lon="-1.80533">
        <ele>53</ele>
        <time>2021-08-06T17:19:13.000Z</time>
      </trkpt>
      <trkpt lat="46.99621" lon="-1.80517">
        <ele>53</ele>
        <time>2021-08-06T17:19:15.000Z</time>
      </trkpt>
      <trkpt lat="46.99633" lon="-1.80502">
        <ele>52</ele>
        <time>2021-08-06T17:19:17.000Z</time>
      </trkpt>
      <trkpt lat="46.99645" lon="-1.80487">
        <ele>52</ele>
        <time>2021-08-06T17:19:19.000Z</time>
      </trkpt>
      <trkpt lat="46.99657" lon="-1.80471">
        <ele>53</ele>
        <time>2021-08-06T17:19:21.000Z</time>
      </trkpt>
      <trkpt lat="46.99669" lon="-1.80456">
        <ele>53</ele>
        <time>2021-08-06T17:19:23.000Z</time>
      </trkpt>
      <trkpt lat="46.9968" lon="-1.80441">
        <ele>53</ele>
        <time>2021-08-06T17:19:25.000Z</time>
      </trkpt>
      <trkpt lat="46.99692" lon="-1.80426">
        <ele>53</ele>
        <time>2021-08-06T17:19:27.000Z</time>
      </trkpt>
      <trkpt lat="46.99703" lon="-1.80412">
        <ele>53</ele>
        <time>2021-08-06T17:19:29.000Z</time>
      </trkpt>
      <trkpt lat="46.99715" lon="-1.80396">
        <ele>52</ele>
        <time>2021-08-06T17:19:31.000Z</time>
      </trkpt>
      <trkpt lat="46.99726" lon="-1.80381">
        <ele>52</ele>
        <time>2021-08-06T17:19:33.000Z</time>
      </trkpt>
      <trkpt lat="46.99738" lon="-1.80367">
        <ele>53</ele>
        <time>2021-08-06T17:19:35.000Z</time>
      </trkpt>
      <trkpt lat="46.99749" lon="-1.80352">
        <ele>53</ele>
        <time>2021-08-06T17:19:37.000Z</time>
      </trkpt>
      <trkpt lat="46.9976" lon="-1.80337">
        <ele>53</ele>
        <time>2021-08-06T17:19:39.000Z</time>
      </trkpt>
      <trkpt lat="46.99772" lon="-1.80323">
        <ele>53</ele>
        <time>2021-08-06T17:19:41.000Z</time>
      </trkpt>
      <trkpt lat="46.99783" lon="-1.80309">
        <ele>52</ele>
        <time>2021-08-06T17:19:43.000Z</time>
      </trkpt>
      <trkpt lat="46.99795" lon="-1.80295">
        <ele>52</ele>
        <time>2021-08-06T17:19:45.000Z</time>
      </trkpt>
      <trkpt lat="46.99806" lon="-1.8028">
        <ele>52</ele>
        <time>2021-08-06T17:19:47.000Z</time>
      </trkpt>
      <trkpt lat="46.99817" lon="-1.80266">
        <ele>52</ele>
        <time>2021-08-06T17:19:49.000Z</time>
      </trkpt>
      <trkpt lat="46.99828" lon="-1.80252">
        <ele>52</ele>
        <time>2021-08-06T17:19:51.000Z</time>
      </trkpt>
      <trkpt lat="46.99839" lon="-1.80238">
        <ele>52</ele>
        <time>2021-08-06T17:19:53.000Z</time>
      </trkpt>
      <trkpt lat="46.99848" lon="-1.80223">
        <ele>52</ele>
        <time>2021-08-06T17:19:55.000Z</time>
      </trkpt>
      <trkpt lat="46.99856" lon="-1.80208">
        <ele>52</ele>
        <time>2021-08-06T17:19:57.000Z</time>
      </trkpt>
      <trkpt lat="46.99867" lon="-1.802">
        <ele>52</ele>
        <time>2021-08-06T17:19:59.000Z</time>
      </trkpt>
      <trkpt lat="46.99879" lon="-1.80208">
        <ele>52</ele>
        <time>2021-08-06T17:20:01.000Z</time>
      </trkpt>
      <trkpt lat="46.99888" lon="-1.80223">
        <ele>52</ele>
        <time>2021-08-06T17:20:03.000Z</time>
      </trkpt>
      <trkpt lat="46.99898" lon="-1.80237">
        <ele>52</ele>
        <time>2021-08-06T17:20:05.000Z</time>
      </trkpt>
      <trkpt lat="46.99909" lon="-1.80251">
        <ele>52</ele>
        <time>2021-08-06T17:20:07.000Z</time>
      </trkpt>
      <trkpt lat="46.99919" lon="-1.80265">
        <ele>53</ele>
        <time>2021-08-06T17:20:09.000Z</time>
      </trkpt>
      <trkpt lat="46.9993" lon="-1.8028">
        <ele>53</ele>
        <time>2021-08-06T17:20:11.000Z</time>
      </trkpt>
      <trkpt lat="46.99941" lon="-1.80295">
        <ele>53</ele>
        <time>2021-08-06T17:20:13.000Z</time>
      </trkpt>
      <trkpt lat="46.99951" lon="-1.80309">
        <ele>53</ele>
        <time>2021-08-06T17:20:15.000Z</time>
      </trkpt>
      <trkpt lat="46.99961" lon="-1.80323">
        <ele>53</ele>
        <time>2021-08-06T17:20:17.000Z</time>
      </trkpt>
      <trkpt lat="46.99972" lon="-1.80337">
        <ele>53</ele>
        <time>2021-08-06T17:20:19.000Z</time>
      </trkpt>
      <trkpt lat="46.99981" lon="-1.80351">
        <ele>53</ele>
        <time>2021-08-06T17:20:21.000Z</time>
      </trkpt>
      <trkpt lat="46.99989" lon="-1.80368">
        <ele>53</ele>
        <time>2021-08-06T17:20:23.000Z</time>
      </trkpt>
      <trkpt lat="46.99993" lon="-1.80388">
        <ele>54</ele>
        <time>2021-08-06T17:20:25.000Z</time>
      </trkpt>
      <trkpt lat="46.99996" lon="-1.80407">
        <ele>54</ele>
        <time>2021-08-06T17:20:27.000Z</time>
      </trkpt>
      <trkpt lat="46.99998" lon="-1.80428">
        <ele>54</ele>
        <time>2021-08-06T17:20:29.000Z</time>
      </trkpt>
      <trkpt lat="46.99999" lon="-1.80448">
        <ele>54</ele>
        <time>2021-08-06T17:20:31.000Z</time>
      </trkpt>
      <trkpt lat="46.99999" lon="-1.80468">
        <ele>54</ele>
        <time>2021-08-06T17:20:33.000Z</time>
      </trkpt>
      <trkpt lat="46.99999" lon="-1.80486">
        <ele>54</ele>
        <time>2021-08-06T17:20:35.000Z</time>
      </trkpt>
      <trkpt lat="46.99999" lon="-1.80506">
        <ele>54</ele>
        <time>2021-08-06T17:20:37.000Z</time>
      </trkpt>
      <trkpt lat="46.99998" lon="-1.80526">
        <ele>54</ele>
        <time>2021-08-06T17:20:39.000Z</time>
      </trkpt>
      <trkpt lat="47.00001" lon="-1.80546">
        <ele>53</ele>
        <time>2021-08-06T17:20:41.000Z</time>
      </trkpt>
      <trkpt lat="47.00009" lon="-1.80562">
        <ele>53</ele>
        <time>2021-08-06T17:20:43.000Z</time>
      </trkpt>
      <trkpt lat="47.00022" lon="-1.80568">
        <ele>53</ele>
        <time>2021-08-06T17:20:45.000Z</time>
      </trkpt>
      <trkpt lat="47.00036" lon="-1.80564">
        <ele>53</ele>
        <time>2021-08-06T17:20:47.000Z</time>
      </trkpt>
      <trkpt lat="47.0005" lon="-1.8056">
        <ele>53</ele>
        <time>2021-08-06T17:20:49.000Z</time>
      </trkpt>
      <trkpt lat="47.00063" lon="-1.80555">
        <ele>52</ele>
        <time>2021-08-06T17:20:51.000Z</time>
      </trkpt>
      <trkpt lat="47.00078" lon="-1.8055">
        <ele>52</ele>
        <time>2021-08-06T17:20:53.000Z</time>
      </trkpt>
      <trkpt lat="47.00091" lon="-1.80545">
        <ele>52</ele>
        <time>2021-08-06T17:20:55.000Z</time>
      </trkpt>
      <trkpt lat="47.00105" lon="-1.80541">
        <ele>53</ele>
        <time>2021-08-06T17:20:57.000Z</time>
      </trkpt>
      <trkpt lat="47.00119" lon="-1.80537">
        <ele>53</ele>
        <time>2021-08-06T17:20:59.000Z</time>
      </trkpt>
      <trkpt lat="47.00133" lon="-1.80533">
        <ele>53</ele>
        <time>2021-08-06T17:21:01.000Z</time>
      </trkpt>
      <trkpt lat="47.00147" lon="-1.80528">
        <ele>53</ele>
        <time>2021-08-06T17:21:03.000Z</time>
      </trkpt>
      <trkpt lat="47.00161" lon="-1.80523">
        <ele>53</ele>
        <time>2021-08-06T17:21:05.000Z</time>
      </trkpt>
      <trkpt lat="47.00175" lon="-1.8052">
        <ele>53</ele>
        <time>2021-08-06T17:21:07.000Z</time>
      </trkpt>
      <trkpt lat="47.00189" lon="-1.80516">
        <ele>53</ele>
        <time>2021-08-06T17:21:09.000Z</time>
      </trkpt>
      <trkpt lat="47.00203" lon="-1.80514">
        <ele>54</ele>
        <time>2021-08-06T17:21:11.000Z</time>
      </trkpt>
      <trkpt lat="47.00216" lon="-1.80512">
        <ele>54</ele>
        <time>2021-08-06T17:21:13.000Z</time>
      </trkpt>
      <trkpt lat="47.0023" lon="-1.8051">
        <ele>54</ele>
        <time>2021-08-06T17:21:15.000Z</time>
      </trkpt>
      <trkpt lat="47.00243" lon="-1.80508">
        <ele>55</ele>
        <time>2021-08-06T17:21:17.000Z</time>
      </trkpt>
      <trkpt lat="47.00257" lon="-1.80508">
        <ele>55</ele>
        <time>2021-08-06T17:21:19.000Z</time>
      </trkpt>
      <trkpt lat="47.0027" lon="-1.80506">
        <ele>55</ele>
        <time>2021-08-06T17:21:21.000Z</time>
      </trkpt>
      <trkpt lat="47.00282" lon="-1.80504">
        <ele>56</ele>
        <time>2021-08-06T17:21:23.000Z</time>
      </trkpt>
      <trkpt lat="47.00295" lon="-1.80501">
        <ele>57</ele>
        <time>2021-08-06T17:21:25.000Z</time>
      </trkpt>
      <trkpt lat="47.00309" lon="-1.80497">
        <ele>57</ele>
        <time>2021-08-06T17:21:27.000Z</time>
      </trkpt>
      <trkpt lat="47.00322" lon="-1.80491">
        <ele>56</ele>
        <time>2021-08-06T17:21:29.000Z</time>
      </trkpt>
      <trkpt lat="47.00335" lon="-1.80482">
        <ele>56</ele>
        <time>2021-08-06T17:21:31.000Z</time>
      </trkpt>
      <trkpt lat="47.00346" lon="-1.80472">
        <ele>55</ele>
        <time>2021-08-06T17:21:33.000Z</time>
      </trkpt>
      <trkpt lat="47.00358" lon="-1.80461">
        <ele>55</ele>
        <time>2021-08-06T17:21:35.000Z</time>
      </trkpt>
      <trkpt lat="47.00371" lon="-1.80453">
        <ele>55</ele>
        <time>2021-08-06T17:21:37.000Z</time>
      </trkpt>
      <trkpt lat="47.00384" lon="-1.80447">
        <ele>54</ele>
        <time>2021-08-06T17:21:39.000Z</time>
      </trkpt>
      <trkpt lat="47.00399" lon="-1.80444">
        <ele>53</ele>
        <time>2021-08-06T17:21:41.000Z</time>
      </trkpt>
      <trkpt lat="47.00412" lon="-1.80442">
        <ele>53</ele>
        <time>2021-08-06T17:21:43.000Z</time>
      </trkpt>
      <trkpt lat="47.00426" lon="-1.80441">
        <ele>53</ele>
        <time>2021-08-06T17:21:45.000Z</time>
      </trkpt>
      <trkpt lat="47.0044" lon="-1.80439">
        <ele>53</ele>
        <time>2021-08-06T17:21:47.000Z</time>
      </trkpt>
      <trkpt lat="47.00454" lon="-1.80438">
        <ele>53</ele>
        <time>2021-08-06T17:21:49.000Z</time>
      </trkpt>
      <trkpt lat="47.00468" lon="-1.80437">
        <ele>53</ele>
        <time>2021-08-06T17:21:51.000Z</time>
      </trkpt>
      <trkpt lat="47.00481" lon="-1.80436">
        <ele>53</ele>
        <time>2021-08-06T17:21:53.000Z</time>
      </trkpt>
      <trkpt lat="47.00494" lon="-1.80434">
        <ele>53</ele>
        <time>2021-08-06T17:21:55.000Z</time>
      </trkpt>
      <trkpt lat="47.00508" lon="-1.80433">
        <ele>53</ele>
        <time>2021-08-06T17:21:57.000Z</time>
      </trkpt>
      <trkpt lat="47.00522" lon="-1.80431">
        <ele>53</ele>
        <time>2021-08-06T17:21:59.000Z</time>
      </trkpt>
      <trkpt lat="47.00537" lon="-1.80429">
        <ele>53</ele>
        <time>2021-08-06T17:22:01.000Z</time>
      </trkpt>
      <trkpt lat="47.0055" lon="-1.80427">
        <ele>53</ele>
        <time>2021-08-06T17:22:03.000Z</time>
      </trkpt>
      <trkpt lat="47.00564" lon="-1.80426">
        <ele>54</ele>
        <time>2021-08-06T17:22:05.000Z</time>
      </trkpt>
      <trkpt lat="47.00577" lon="-1.80424">
        <ele>54</ele>
        <time>2021-08-06T17:22:07.000Z</time>
      </trkpt>
      <trkpt lat="47.00592" lon="-1.80424">
        <ele>54</ele>
        <time>2021-08-06T17:22:09.000Z</time>
      </trkpt>
      <trkpt lat="47.00605" lon="-1.80423">
        <ele>54</ele>
        <time>2021-08-06T17:22:11.000Z</time>
      </trkpt>
      <trkpt lat="47.0062" lon="-1.80423">
        <ele>55</ele>
        <time>2021-08-06T17:22:13.000Z</time>
      </trkpt>
      <trkpt lat="47.00634" lon="-1.80425">
        <ele>55</ele>
        <time>2021-08-06T17:22:15.000Z</time>
      </trkpt>
      <trkpt lat="47.00648" lon="-1.80426">
        <ele>55</ele>
        <time>2021-08-06T17:22:17.000Z</time>
      </trkpt>
      <trkpt lat="47.00663" lon="-1.80427">
        <ele>56</ele>
        <time>2021-08-06T17:22:19.000Z</time>
      </trkpt>
      <trkpt lat="47.00677" lon="-1.80427">
        <ele>56</ele>
        <time>2021-08-06T17:22:21.000Z</time>
      </trkpt>
      <trkpt lat="47.00691" lon="-1.80427">
        <ele>56</ele>
        <time>2021-08-06T17:22:23.000Z</time>
      </trkpt>
      <trkpt lat="47.00705" lon="-1.80425">
        <ele>56</ele>
        <time>2021-08-06T17:22:25.000Z</time>
      </trkpt>
      <trkpt lat="47.00719" lon="-1.80423">
        <ele>56</ele>
        <time>2021-08-06T17:22:27.000Z</time>
      </trkpt>
      <trkpt lat="47.00734" lon="-1.80421">
        <ele>56</ele>
        <time>2021-08-06T17:22:29.000Z</time>
      </trkpt>
      <trkpt lat="47.00748" lon="-1.80419">
        <ele>56</ele>
        <time>2021-08-06T17:22:31.000Z</time>
      </trkpt>
      <trkpt lat="47.00763" lon="-1.80418">
        <ele>55</ele>
        <time>2021-08-06T17:22:33.000Z</time>
      </trkpt>
      <trkpt lat="47.00777" lon="-1.80414">
        <ele>54</ele>
        <time>2021-08-06T17:22:35.000Z</time>
      </trkpt>
      <trkpt lat="47.00791" lon="-1.80409">
        <ele>54</ele>
        <time>2021-08-06T17:22:37.000Z</time>
      </trkpt>
      <trkpt lat="47.00805" lon="-1.80402">
        <ele>54</ele>
        <time>2021-08-06T17:22:39.000Z</time>
      </trkpt>
      <trkpt lat="47.00818" lon="-1.80394">
        <ele>54</ele>
        <time>2021-08-06T17:22:41.000Z</time>
      </trkpt>
      <trkpt lat="47.00831" lon="-1.80386">
        <ele>54</ele>
        <time>2021-08-06T17:22:43.000Z</time>
      </trkpt>
      <trkpt lat="47.00844" lon="-1.80379">
        <ele>55</ele>
        <time>2021-08-06T17:22:45.000Z</time>
      </trkpt>
      <trkpt lat="47.00857" lon="-1.80371">
        <ele>55</ele>
        <time>2021-08-06T17:22:47.000Z</time>
      </trkpt>
      <trkpt lat="47.0087" lon="-1.80363">
        <ele>55</ele>
        <time>2021-08-06T17:22:49.000Z</time>
      </trkpt>
      <trkpt lat="47.00884" lon="-1.80354">
        <ele>54</ele>
        <time>2021-08-06T17:22:51.000Z</time>
      </trkpt>
      <trkpt lat="47.00897" lon="-1.80344">
        <ele>54</ele>
        <time>2021-08-06T17:22:53.000Z</time>
      </trkpt>
      <trkpt lat="47.00909" lon="-1.80334">
        <ele>54</ele>
        <time>2021-08-06T17:22:55.000Z</time>
      </trkpt>
      <trkpt lat="47.00921" lon="-1.80324">
        <ele>55</ele>
        <time>2021-08-06T17:22:57.000Z</time>
      </trkpt>
      <trkpt lat="47.00932" lon="-1.80315">
        <ele>55</ele>
        <time>2021-08-06T17:22:59.000Z</time>
      </trkpt>
      <trkpt lat="47.00943" lon="-1.80306">
        <ele>55</ele>
        <time>2021-08-06T17:23:01.000Z</time>
      </trkpt>
      <trkpt lat="47.00955" lon="-1.80301">
        <ele>55</ele>
        <time>2021-08-06T17:23:03.000Z</time>
      </trkpt>
      <trkpt lat="47.00967" lon="-1.80304">
        <ele>55</ele>
        <time>2021-08-06T17:23:05.000Z</time>
      </trkpt>
      <trkpt lat="47.00973" lon="-1.8032">
        <ele>56</ele>
        <time>2021-08-06T17:23:07.000Z</time>
      </trkpt>
      <trkpt lat="47.00974" lon="-1.80338">
        <ele>56</ele>
        <time>2021-08-06T17:23:09.000Z</time>
      </trkpt>
      <trkpt lat="47.00975" lon="-1.80357">
        <ele>56</ele>
        <time>2021-08-06T17:23:11.000Z</time>
      </trkpt>
      <trkpt lat="47.00978" lon="-1.80375">
        <ele>56</ele>
        <time>2021-08-06T17:23:13.000Z</time>
      </trkpt>
      <trkpt lat="47.00981" lon="-1.80392">
        <ele>56</ele>
        <time>2021-08-06T17:23:15.000Z</time>
      </trkpt>
      <trkpt lat="47.00986" lon="-1.80408">
        <ele>57</ele>
        <time>2021-08-06T17:23:17.000Z</time>
      </trkpt>
      <trkpt lat="47.00992" lon="-1.80424">
        <ele>57</ele>
        <time>2021-08-06T17:23:19.000Z</time>
      </trkpt>
      <trkpt lat="47.01001" lon="-1.80437">
        <ele>57</ele>
        <time>2021-08-06T17:23:21.000Z</time>
      </trkpt>
      <trkpt lat="47.01014" lon="-1.80444">
        <ele>58</ele>
        <time>2021-08-06T17:23:23.000Z</time>
      </trkpt>
      <trkpt lat="47.01026" lon="-1.80441">
        <ele>58</ele>
        <time>2021-08-06T17:23:25.000Z</time>
      </trkpt>
      <trkpt lat="47.01037" lon="-1.80433">
        <ele>58</ele>
        <time>2021-08-06T17:23:27.000Z</time>
      </trkpt>
      <trkpt lat="47.01048" lon="-1.80425">
        <ele>59</ele>
        <time>2021-08-06T17:23:29.000Z</time>
      </trkpt>
      <trkpt lat="47.01058" lon="-1.80416">
        <ele>59</ele>
        <time>2021-08-06T17:23:31.000Z</time>
      </trkpt>
      <trkpt lat="47.01069" lon="-1.80408">
        <ele>59</ele>
        <time>2021-08-06T17:23:33.000Z</time>
      </trkpt>
      <trkpt lat="47.0108" lon="-1.804">
        <ele>59</ele>
        <time>2021-08-06T17:23:35.000Z</time>
      </trkpt>
      <trkpt lat="47.01091" lon="-1.80393">
        <ele>60</ele>
        <time>2021-08-06T17:23:37.000Z</time>
      </trkpt>
      <trkpt lat="47.01102" lon="-1.80385">
        <ele>60</ele>
        <time>2021-08-06T17:23:39.000Z</time>
      </trkpt>
      <trkpt lat="47.01113" lon="-1.80377">
        <ele>61</ele>
        <time>2021-08-06T17:23:41.000Z</time>
      </trkpt>
      <trkpt lat="47.01124" lon="-1.80369">
        <ele>61</ele>
        <time>2021-08-06T17:23:43.000Z</time>
      </trkpt>
      <trkpt lat="47.01134" lon="-1.80362">
        <ele>61</ele>
        <time>2021-08-06T17:23:45.000Z</time>
      </trkpt>
      <trkpt lat="47.01146" lon="-1.80354">
        <ele>61</ele>
        <time>2021-08-06T17:23:47.000Z</time>
      </trkpt>
      <trkpt lat="47.01157" lon="-1.80346">
        <ele>61</ele>
        <time>2021-08-06T17:23:49.000Z</time>
      </trkpt>
      <trkpt lat="47.01169" lon="-1.80339">
        <ele>61</ele>
        <time>2021-08-06T17:23:51.000Z</time>
      </trkpt>
      <trkpt lat="47.01181" lon="-1.80332">
        <ele>61</ele>
        <time>2021-08-06T17:23:53.000Z</time>
      </trkpt>
      <trkpt lat="47.01194" lon="-1.80326">
        <ele>60</ele>
        <time>2021-08-06T17:23:55.000Z</time>
      </trkpt>
      <trkpt lat="47.01206" lon="-1.80321">
        <ele>61</ele>
        <time>2021-08-06T17:23:57.000Z</time>
      </trkpt>
      <trkpt lat="47.01219" lon="-1.80316">
        <ele>61</ele>
        <time>2021-08-06T17:23:59.000Z</time>
      </trkpt>
      <trkpt lat="47.0123" lon="-1.80311">
        <ele>61</ele>
        <time>2021-08-06T17:24:01.000Z</time>
      </trkpt>
      <trkpt lat="47.01239" lon="-1.80301">
        <ele>61</ele>
        <time>2021-08-06T17:24:03.000Z</time>
      </trkpt>
      <trkpt lat="47.01246" lon="-1.80284">
        <ele>61</ele>
        <time>2021-08-06T17:24:05.000Z</time>
      </trkpt>
      <trkpt lat="47.01252" lon="-1.80267">
        <ele>62</ele>
        <time>2021-08-06T17:24:07.000Z</time>
      </trkpt>
      <trkpt lat="47.01259" lon="-1.80251">
        <ele>62</ele>
        <time>2021-08-06T17:24:09.000Z</time>
      </trkpt>
      <trkpt lat="47.01267" lon="-1.80234">
        <ele>62</ele>
        <time>2021-08-06T17:24:11.000Z</time>
      </trkpt>
      <trkpt lat="47.01275" lon="-1.80217">
        <ele>62</ele>
        <time>2021-08-06T17:24:13.000Z</time>
      </trkpt>
      <trkpt lat="47.01284" lon="-1.80201">
        <ele>62</ele>
        <time>2021-08-06T17:24:15.000Z</time>
      </trkpt>
      <trkpt lat="47.01292" lon="-1.80185">
        <ele>63</ele>
        <time>2021-08-06T17:24:17.000Z</time>
      </trkpt>
      <trkpt lat="47.013" lon="-1.80168">
        <ele>63</ele>
        <time>2021-08-06T17:24:19.000Z</time>
      </trkpt>
      <trkpt lat="47.01309" lon="-1.80152">
        <ele>63</ele>
        <time>2021-08-06T17:24:21.000Z</time>
      </trkpt>
      <trkpt lat="47.01318" lon="-1.80136">
        <ele>63</ele>
        <time>2021-08-06T17:24:23.000Z</time>
      </trkpt>
      <trkpt lat="47.01327" lon="-1.8012">
        <ele>63</ele>
        <time>2021-08-06T17:24:25.000Z</time>
      </trkpt>
      <trkpt lat="47.01336" lon="-1.80103">
        <ele>63</ele>
        <time>2021-08-06T17:24:27.000Z</time>
      </trkpt>
      <trkpt lat="47.01345" lon="-1.80088">
        <ele>63</ele>
        <time>2021-08-06T17:24:29.000Z</time>
      </trkpt>
      <trkpt lat="47.01354" lon="-1.80072">
        <ele>64</ele>
        <time>2021-08-06T17:24:31.000Z</time>
      </trkpt>
      <trkpt lat="47.01362" lon="-1.80055">
        <ele>64</ele>
        <time>2021-08-06T17:24:33.000Z</time>
      </trkpt>
      <trkpt lat="47.01371" lon="-1.8004">
        <ele>63</ele>
        <time>2021-08-06T17:24:35.000Z</time>
      </trkpt>
      <trkpt lat="47.0138" lon="-1.80024">
        <ele>64</ele>
        <time>2021-08-06T17:24:37.000Z</time>
      </trkpt>
      <trkpt lat="47.01389" lon="-1.80008">
        <ele>64</ele>
        <time>2021-08-06T17:24:39.000Z</time>
      </trkpt>
      <trkpt lat="47.01398" lon="-1.79992">
        <ele>64</ele>
        <time>2021-08-06T17:24:41.000Z</time>
      </trkpt>
      <trkpt lat="47.01406" lon="-1.79976">
        <ele>64</ele>
        <time>2021-08-06T17:24:43.000Z</time>
      </trkpt>
      <trkpt lat="47.01416" lon="-1.7996">
        <ele>64</ele>
        <time>2021-08-06T17:24:45.000Z</time>
      </trkpt>
      <trkpt lat="47.01424" lon="-1.79945">
        <ele>64</ele>
        <time>2021-08-06T17:24:47.000Z</time>
      </trkpt>
      <trkpt lat="47.01433" lon="-1.79929">
        <ele>64</ele>
        <time>2021-08-06T17:24:49.000Z</time>
      </trkpt>
      <trkpt lat="47.01441" lon="-1.79914">
        <ele>65</ele>
        <time>2021-08-06T17:24:51.000Z</time>
      </trkpt>
      <trkpt lat="47.01449" lon="-1.79898">
        <ele>65</ele>
        <time>2021-08-06T17:24:53.000Z</time>
      </trkpt>
      <trkpt lat="47.01458" lon="-1.79882">
        <ele>65</ele>
        <time>2021-08-06T17:24:55.000Z</time>
      </trkpt>
      <trkpt lat="47.01466" lon="-1.79866">
        <ele>65</ele>
        <time>2021-08-06T17:24:57.000Z</time>
      </trkpt>
      <trkpt lat="47.01473" lon="-1.7985">
        <ele>65</ele>
        <time>2021-08-06T17:24:59.000Z</time>
      </trkpt>
      <trkpt lat="47.01481" lon="-1.79834">
        <ele>65</ele>
        <time>2021-08-06T17:25:01.000Z</time>
      </trkpt>
      <trkpt lat="47.01488" lon="-1.79817">
        <ele>65</ele>
        <time>2021-08-06T17:25:03.000Z</time>
      </trkpt>
      <trkpt lat="47.01495" lon="-1.798">
        <ele>65</ele>
        <time>2021-08-06T17:25:05.000Z</time>
      </trkpt>
      <trkpt lat="47.01502" lon="-1.79783">
        <ele>65</ele>
        <time>2021-08-06T17:25:07.000Z</time>
      </trkpt>
      <trkpt lat="47.0151" lon="-1.79765">
        <ele>65</ele>
        <time>2021-08-06T17:25:09.000Z</time>
      </trkpt>
      <trkpt lat="47.01517" lon="-1.79748">
        <ele>65</ele>
        <time>2021-08-06T17:25:11.000Z</time>
      </trkpt>
      <trkpt lat="47.01525" lon="-1.7973">
        <ele>65</ele>
        <time>2021-08-06T17:25:13.000Z</time>
      </trkpt>
      <trkpt lat="47.01534" lon="-1.79713">
        <ele>64</ele>
        <time>2021-08-06T17:25:15.000Z</time>
      </trkpt>
      <trkpt lat="47.01543" lon="-1.79698">
        <ele>64</ele>
        <time>2021-08-06T17:25:17.000Z</time>
      </trkpt>
      <trkpt lat="47.01553" lon="-1.79684">
        <ele>64</ele>
        <time>2021-08-06T17:25:19.000Z</time>
      </trkpt>
      <trkpt lat="47.01565" lon="-1.79671">
        <ele>63</ele>
        <time>2021-08-06T17:25:21.000Z</time>
      </trkpt>
      <trkpt lat="47.01577" lon="-1.79661">
        <ele>63</ele>
        <time>2021-08-06T17:25:23.000Z</time>
      </trkpt>
      <trkpt lat="47.01591" lon="-1.79652">
        <ele>63</ele>
        <time>2021-08-06T17:25:25.000Z</time>
      </trkpt>
      <trkpt lat="47.01604" lon="-1.79644">
        <ele>63</ele>
        <time>2021-08-06T17:25:27.000Z</time>
      </trkpt>
      <trkpt lat="47.01618" lon="-1.79637">
        <ele>63</ele>
        <time>2021-08-06T17:25:29.000Z</time>
      </trkpt>
      <trkpt lat="47.01632" lon="-1.79629">
        <ele>64</ele>
        <time>2021-08-06T17:25:31.000Z</time>
      </trkpt>
      <trkpt lat="47.01646" lon="-1.79622">
        <ele>64</ele>
        <time>2021-08-06T17:25:33.000Z</time>
      </trkpt>
      <trkpt lat="47.0166" lon="-1.79614">
        <ele>64</ele>
        <time>2021-08-06T17:25:35.000Z</time>
      </trkpt>
      <trkpt lat="47.01675" lon="-1.79607">
        <ele>64</ele>
        <time>2021-08-06T17:25:37.000Z</time>
      </trkpt>
      <trkpt lat="47.01689" lon="-1.79601">
        <ele>63</ele>
        <time>2021-08-06T17:25:39.000Z</time>
      </trkpt>
      <trkpt lat="47.01705" lon="-1.79597">
        <ele>62</ele>
        <time>2021-08-06T17:25:41.000Z</time>
      </trkpt>
      <trkpt lat="47.0172" lon="-1.79592">
        <ele>62</ele>
        <time>2021-08-06T17:25:43.000Z</time>
      </trkpt>
      <trkpt lat="47.01735" lon="-1.79585">
        <ele>62</ele>
        <time>2021-08-06T17:25:45.000Z</time>
      </trkpt>
      <trkpt lat="47.01749" lon="-1.79575">
        <ele>62</ele>
        <time>2021-08-06T17:25:47.000Z</time>
      </trkpt>
      <trkpt lat="47.01764" lon="-1.79563">
        <ele>61</ele>
        <time>2021-08-06T17:25:49.000Z</time>
      </trkpt>
      <trkpt lat="47.01779" lon="-1.7955">
        <ele>60</ele>
        <time>2021-08-06T17:25:51.000Z</time>
      </trkpt>
      <trkpt lat="47.01794" lon="-1.79537">
        <ele>60</ele>
        <time>2021-08-06T17:25:53.000Z</time>
      </trkpt>
      <trkpt lat="47.01802" lon="-1.7953">
        <ele>59</ele>
        <time>2021-08-06T17:25:54.000Z</time>
      </trkpt>
      <trkpt lat="47.0181" lon="-1.79523">
        <ele>59</ele>
        <time>2021-08-06T17:25:55.000Z</time>
      </trkpt>
      <trkpt lat="47.01818" lon="-1.79517">
        <ele>59</ele>
        <time>2021-08-06T17:25:56.000Z</time>
      </trkpt>
      <trkpt lat="47.01827" lon="-1.79511">
        <ele>58</ele>
        <time>2021-08-06T17:25:57.000Z</time>
      </trkpt>
      <trkpt lat="47.01835" lon="-1.79505">
        <ele>58</ele>
        <time>2021-08-06T17:25:58.000Z</time>
      </trkpt>
      <trkpt lat="47.01843" lon="-1.79499">
        <ele>57</ele>
        <time>2021-08-06T17:25:59.000Z</time>
      </trkpt>
      <trkpt lat="47.01852" lon="-1.79493">
        <ele>57</ele>
        <time>2021-08-06T17:26:00.000Z</time>
      </trkpt>
      <trkpt lat="47.0186" lon="-1.79487">
        <ele>57</ele>
        <time>2021-08-06T17:26:01.000Z</time>
      </trkpt>
      <trkpt lat="47.01868" lon="-1.79481">
        <ele>56</ele>
        <time>2021-08-06T17:26:02.000Z</time>
      </trkpt>
      <trkpt lat="47.01877" lon="-1.79474">
        <ele>56</ele>
        <time>2021-08-06T17:26:03.000Z</time>
      </trkpt>
      <trkpt lat="47.01885" lon="-1.79468">
        <ele>56</ele>
        <time>2021-08-06T17:26:04.000Z</time>
      </trkpt>
      <trkpt lat="47.01894" lon="-1.79461">
        <ele>56</ele>
        <time>2021-08-06T17:26:05.000Z</time>
      </trkpt>
      <trkpt lat="47.01902" lon="-1.79455">
        <ele>55</ele>
        <time>2021-08-06T17:26:06.000Z</time>
      </trkpt>
      <trkpt lat="47.0191" lon="-1.79448">
        <ele>55</ele>
        <time>2021-08-06T17:26:07.000Z</time>
      </trkpt>
      <trkpt lat="47.01918" lon="-1.79442">
        <ele>55</ele>
        <time>2021-08-06T17:26:08.000Z</time>
      </trkpt>
      <trkpt lat="47.01927" lon="-1.79436">
        <ele>54</ele>
        <time>2021-08-06T17:26:09.000Z</time>
      </trkpt>
      <trkpt lat="47.01935" lon="-1.7943">
        <ele>54</ele>
        <time>2021-08-06T17:26:10.000Z</time>
      </trkpt>
      <trkpt lat="47.01944" lon="-1.79426">
        <ele>54</ele>
        <time>2021-08-06T17:26:11.000Z</time>
      </trkpt>
      <trkpt lat="47.0196" lon="-1.79418">
        <ele>54</ele>
        <time>2021-08-06T17:26:13.000Z</time>
      </trkpt>
      <trkpt lat="47.01969" lon="-1.79415">
        <ele>54</ele>
        <time>2021-08-06T17:26:14.000Z</time>
      </trkpt>
      <trkpt lat="47.01978" lon="-1.79412">
        <ele>54</ele>
        <time>2021-08-06T17:26:15.000Z</time>
      </trkpt>
      <trkpt lat="47.01995" lon="-1.79407">
        <ele>54</ele>
        <time>2021-08-06T17:26:17.000Z</time>
      </trkpt>
      <trkpt lat="47.02011" lon="-1.79403">
        <ele>53</ele>
        <time>2021-08-06T17:26:19.000Z</time>
      </trkpt>
      <trkpt lat="47.02027" lon="-1.79398">
        <ele>53</ele>
        <time>2021-08-06T17:26:21.000Z</time>
      </trkpt>
      <trkpt lat="47.02043" lon="-1.79396">
        <ele>53</ele>
        <time>2021-08-06T17:26:23.000Z</time>
      </trkpt>
      <trkpt lat="47.02058" lon="-1.79397">
        <ele>53</ele>
        <time>2021-08-06T17:26:25.000Z</time>
      </trkpt>
      <trkpt lat="47.02072" lon="-1.794">
        <ele>54</ele>
        <time>2021-08-06T17:26:27.000Z</time>
      </trkpt>
      <trkpt lat="47.02087" lon="-1.79402">
        <ele>53</ele>
        <time>2021-08-06T17:26:29.000Z</time>
      </trkpt>
      <trkpt lat="47.02097" lon="-1.79386">
        <ele>54</ele>
        <time>2021-08-06T17:26:31.000Z</time>
      </trkpt>
      <trkpt lat="47.02102" lon="-1.79364">
        <ele>53</ele>
        <time>2021-08-06T17:26:33.000Z</time>
      </trkpt>
      <trkpt lat="47.02107" lon="-1.79342">
        <ele>53</ele>
        <time>2021-08-06T17:26:35.000Z</time>
      </trkpt>
      <trkpt lat="47.02113" lon="-1.7932">
        <ele>53</ele>
        <time>2021-08-06T17:26:37.000Z</time>
      </trkpt>
      <trkpt lat="47.02118" lon="-1.79298">
        <ele>53</ele>
        <time>2021-08-06T17:26:39.000Z</time>
      </trkpt>
      <trkpt lat="47.02123" lon="-1.79277">
        <ele>53</ele>
        <time>2021-08-06T17:26:41.000Z</time>
      </trkpt>
      <trkpt lat="47.02128" lon="-1.79257">
        <ele>53</ele>
        <time>2021-08-06T17:26:43.000Z</time>
      </trkpt>
      <trkpt lat="47.02133" lon="-1.79238">
        <ele>54</ele>
        <time>2021-08-06T17:26:45.000Z</time>
      </trkpt>
      <trkpt lat="47.02139" lon="-1.79219">
        <ele>54</ele>
        <time>2021-08-06T17:26:47.000Z</time>
      </trkpt>
      <trkpt lat="47.02144" lon="-1.79199">
        <ele>54</ele>
        <time>2021-08-06T17:26:49.000Z</time>
      </trkpt>
      <trkpt lat="47.02149" lon="-1.79179">
        <ele>54</ele>
        <time>2021-08-06T17:26:51.000Z</time>
      </trkpt>
      <trkpt lat="47.02154" lon="-1.79158">
        <ele>54</ele>
        <time>2021-08-06T17:26:53.000Z</time>
      </trkpt>
      <trkpt lat="47.0216" lon="-1.79137">
        <ele>53</ele>
        <time>2021-08-06T17:26:55.000Z</time>
      </trkpt>
      <trkpt lat="47.02165" lon="-1.79117">
        <ele>53</ele>
        <time>2021-08-06T17:26:57.000Z</time>
      </trkpt>
      <trkpt lat="47.02171" lon="-1.79096">
        <ele>52</ele>
        <time>2021-08-06T17:26:59.000Z</time>
      </trkpt>
      <trkpt lat="47.02177" lon="-1.79075">
        <ele>52</ele>
        <time>2021-08-06T17:27:01.000Z</time>
      </trkpt>
      <trkpt lat="47.02184" lon="-1.79056">
        <ele>52</ele>
        <time>2021-08-06T17:27:03.000Z</time>
      </trkpt>
      <trkpt lat="47.02191" lon="-1.79037">
        <ele>52</ele>
        <time>2021-08-06T17:27:05.000Z</time>
      </trkpt>
      <trkpt lat="47.02199" lon="-1.79021">
        <ele>52</ele>
        <time>2021-08-06T17:27:07.000Z</time>
      </trkpt>
      <trkpt lat="47.02208" lon="-1.79005">
        <ele>52</ele>
        <time>2021-08-06T17:27:09.000Z</time>
      </trkpt>
      <trkpt lat="47.02218" lon="-1.7899">
        <ele>52</ele>
        <time>2021-08-06T17:27:11.000Z</time>
      </trkpt>
      <trkpt lat="47.02227" lon="-1.78977">
        <ele>53</ele>
        <time>2021-08-06T17:27:13.000Z</time>
      </trkpt>
      <trkpt lat="47.02237" lon="-1.78965">
        <ele>53</ele>
        <time>2021-08-06T17:27:15.000Z</time>
      </trkpt>
      <trkpt lat="47.02247" lon="-1.78954">
        <ele>53</ele>
        <time>2021-08-06T17:27:17.000Z</time>
      </trkpt>
      <trkpt lat="47.02258" lon="-1.78943">
        <ele>53</ele>
        <time>2021-08-06T17:27:19.000Z</time>
      </trkpt>
      <trkpt lat="47.02269" lon="-1.78933">
        <ele>53</ele>
        <time>2021-08-06T17:27:21.000Z</time>
      </trkpt>
      <trkpt lat="47.02281" lon="-1.78924">
        <ele>53</ele>
        <time>2021-08-06T17:27:23.000Z</time>
      </trkpt>
      <trkpt lat="47.02292" lon="-1.78915">
        <ele>53</ele>
        <time>2021-08-06T17:27:25.000Z</time>
      </trkpt>
      <trkpt lat="47.02304" lon="-1.78907">
        <ele>53</ele>
        <time>2021-08-06T17:27:27.000Z</time>
      </trkpt>
      <trkpt lat="47.02316" lon="-1.78899">
        <ele>53</ele>
        <time>2021-08-06T17:27:29.000Z</time>
      </trkpt>
      <trkpt lat="47.02329" lon="-1.78891">
        <ele>53</ele>
        <time>2021-08-06T17:27:31.000Z</time>
      </trkpt>
      <trkpt lat="47.02341" lon="-1.78883">
        <ele>53</ele>
        <time>2021-08-06T17:27:33.000Z</time>
      </trkpt>
      <trkpt lat="47.02353" lon="-1.78875">
        <ele>53</ele>
        <time>2021-08-06T17:27:35.000Z</time>
      </trkpt>
      <trkpt lat="47.02365" lon="-1.78867">
        <ele>54</ele>
        <time>2021-08-06T17:27:37.000Z</time>
      </trkpt>
      <trkpt lat="47.02376" lon="-1.78858">
        <ele>55</ele>
        <time>2021-08-06T17:27:39.000Z</time>
      </trkpt>
      <trkpt lat="47.02388" lon="-1.7885">
        <ele>55</ele>
        <time>2021-08-06T17:27:41.000Z</time>
      </trkpt>
      <trkpt lat="47.02401" lon="-1.78842">
        <ele>55</ele>
        <time>2021-08-06T17:27:43.000Z</time>
      </trkpt>
      <trkpt lat="47.02414" lon="-1.78834">
        <ele>56</ele>
        <time>2021-08-06T17:27:45.000Z</time>
      </trkpt>
      <trkpt lat="47.02427" lon="-1.78826">
        <ele>56</ele>
        <time>2021-08-06T17:27:47.000Z</time>
      </trkpt>
      <trkpt lat="47.02439" lon="-1.78818">
        <ele>56</ele>
        <time>2021-08-06T17:27:49.000Z</time>
      </trkpt>
      <trkpt lat="47.02452" lon="-1.7881">
        <ele>56</ele>
        <time>2021-08-06T17:27:51.000Z</time>
      </trkpt>
      <trkpt lat="47.02465" lon="-1.78802">
        <ele>56</ele>
        <time>2021-08-06T17:27:53.000Z</time>
      </trkpt>
      <trkpt lat="47.02477" lon="-1.78793">
        <ele>56</ele>
        <time>2021-08-06T17:27:55.000Z</time>
      </trkpt>
      <trkpt lat="47.0249" lon="-1.78785">
        <ele>56</ele>
        <time>2021-08-06T17:27:57.000Z</time>
      </trkpt>
      <trkpt lat="47.02502" lon="-1.78777">
        <ele>56</ele>
        <time>2021-08-06T17:27:59.000Z</time>
      </trkpt>
      <trkpt lat="47.02514" lon="-1.78768">
        <ele>56</ele>
        <time>2021-08-06T17:28:01.000Z</time>
      </trkpt>
      <trkpt lat="47.02526" lon="-1.78759">
        <ele>56</ele>
        <time>2021-08-06T17:28:03.000Z</time>
      </trkpt>
      <trkpt lat="47.0254" lon="-1.78751">
        <ele>56</ele>
        <time>2021-08-06T17:28:05.000Z</time>
      </trkpt>
      <trkpt lat="47.02553" lon="-1.78742">
        <ele>57</ele>
        <time>2021-08-06T17:28:07.000Z</time>
      </trkpt>
      <trkpt lat="47.02566" lon="-1.78734">
        <ele>57</ele>
        <time>2021-08-06T17:28:09.000Z</time>
      </trkpt>
      <trkpt lat="47.02578" lon="-1.78725">
        <ele>58</ele>
        <time>2021-08-06T17:28:11.000Z</time>
      </trkpt>
      <trkpt lat="47.0259" lon="-1.78718">
        <ele>58</ele>
        <time>2021-08-06T17:28:13.000Z</time>
      </trkpt>
      <trkpt lat="47.02602" lon="-1.78711">
        <ele>57</ele>
        <time>2021-08-06T17:28:15.000Z</time>
      </trkpt>
      <trkpt lat="47.02615" lon="-1.78702">
        <ele>57</ele>
        <time>2021-08-06T17:28:17.000Z</time>
      </trkpt>
      <trkpt lat="47.02628" lon="-1.78694">
        <ele>57</ele>
        <time>2021-08-06T17:28:19.000Z</time>
      </trkpt>
      <trkpt lat="47.02642" lon="-1.78686">
        <ele>57</ele>
        <time>2021-08-06T17:28:21.000Z</time>
      </trkpt>
      <trkpt lat="47.02655" lon="-1.78678">
        <ele>57</ele>
        <time>2021-08-06T17:28:23.000Z</time>
      </trkpt>
      <trkpt lat="47.02668" lon="-1.78668">
        <ele>57</ele>
        <time>2021-08-06T17:28:25.000Z</time>
      </trkpt>
      <trkpt lat="47.02682" lon="-1.78659">
        <ele>56</ele>
        <time>2021-08-06T17:28:27.000Z</time>
      </trkpt>
      <trkpt lat="47.02695" lon="-1.7865">
        <ele>56</ele>
        <time>2021-08-06T17:28:29.000Z</time>
      </trkpt>
      <trkpt lat="47.02708" lon="-1.78642">
        <ele>56</ele>
        <time>2021-08-06T17:28:31.000Z</time>
      </trkpt>
      <trkpt lat="47.02721" lon="-1.78633">
        <ele>56</ele>
        <time>2021-08-06T17:28:33.000Z</time>
      </trkpt>
      <trkpt lat="47.02735" lon="-1.78625">
        <ele>55</ele>
        <time>2021-08-06T17:28:35.000Z</time>
      </trkpt>
      <trkpt lat="47.02748" lon="-1.78616">
        <ele>55</ele>
        <time>2021-08-06T17:28:37.000Z</time>
      </trkpt>
      <trkpt lat="47.0276" lon="-1.78608">
        <ele>55</ele>
        <time>2021-08-06T17:28:39.000Z</time>
      </trkpt>
      <trkpt lat="47.02772" lon="-1.78599">
        <ele>56</ele>
        <time>2021-08-06T17:28:41.000Z</time>
      </trkpt>
      <trkpt lat="47.02784" lon="-1.78591">
        <ele>58</ele>
        <time>2021-08-06T17:28:43.000Z</time>
      </trkpt>
      <trkpt lat="47.02795" lon="-1.78583">
        <ele>59</ele>
        <time>2021-08-06T17:28:45.000Z</time>
      </trkpt>
      <trkpt lat="47.02808" lon="-1.78575">
        <ele>59</ele>
        <time>2021-08-06T17:28:47.000Z</time>
      </trkpt>
      <trkpt lat="47.0282" lon="-1.78567">
        <ele>58</ele>
        <time>2021-08-06T17:28:49.000Z</time>
      </trkpt>
      <trkpt lat="47.02832" lon="-1.78559">
        <ele>57</ele>
        <time>2021-08-06T17:28:51.000Z</time>
      </trkpt>
      <trkpt lat="47.02842" lon="-1.78551">
        <ele>57</ele>
        <time>2021-08-06T17:28:53.000Z</time>
      </trkpt>
      <trkpt lat="47.02852" lon="-1.78541">
        <ele>57</ele>
        <time>2021-08-06T17:28:55.000Z</time>
      </trkpt>
      <trkpt lat="47.02862" lon="-1.78532">
        <ele>57</ele>
        <time>2021-08-06T17:28:57.000Z</time>
      </trkpt>
      <trkpt lat="47.02872" lon="-1.78522">
        <ele>58</ele>
        <time>2021-08-06T17:28:59.000Z</time>
      </trkpt>
      <trkpt lat="47.02881" lon="-1.78513">
        <ele>58</ele>
        <time>2021-08-06T17:29:01.000Z</time>
      </trkpt>
      <trkpt lat="47.0289" lon="-1.78504">
        <ele>59</ele>
        <time>2021-08-06T17:29:03.000Z</time>
      </trkpt>
      <trkpt lat="47.02899" lon="-1.78494">
        <ele>59</ele>
        <time>2021-08-06T17:29:05.000Z</time>
      </trkpt>
      <trkpt lat="47.02908" lon="-1.78484">
        <ele>59</ele>
        <time>2021-08-06T17:29:07.000Z</time>
      </trkpt>
      <trkpt lat="47.02918" lon="-1.78475">
        <ele>60</ele>
        <time>2021-08-06T17:29:09.000Z</time>
      </trkpt>
      <trkpt lat="47.02927" lon="-1.78465">
        <ele>61</ele>
        <time>2021-08-06T17:29:11.000Z</time>
      </trkpt>
      <trkpt lat="47.02936" lon="-1.78456">
        <ele>61</ele>
        <time>2021-08-06T17:29:13.000Z</time>
      </trkpt>
      <trkpt lat="47.02946" lon="-1.78447">
        <ele>61</ele>
        <time>2021-08-06T17:29:15.000Z</time>
      </trkpt>
      <trkpt lat="47.02956" lon="-1.78439">
        <ele>62</ele>
        <time>2021-08-06T17:29:17.000Z</time>
      </trkpt>
      <trkpt lat="47.02966" lon="-1.78431">
        <ele>62</ele>
        <time>2021-08-06T17:29:19.000Z</time>
      </trkpt>
      <trkpt lat="47.02976" lon="-1.78421">
        <ele>63</ele>
        <time>2021-08-06T17:29:21.000Z</time>
      </trkpt>
      <trkpt lat="47.02984" lon="-1.78412">
        <ele>64</ele>
        <time>2021-08-06T17:29:23.000Z</time>
      </trkpt>
      <trkpt lat="47.02994" lon="-1.78403">
        <ele>64</ele>
        <time>2021-08-06T17:29:25.000Z</time>
      </trkpt>
      <trkpt lat="47.03003" lon="-1.78394">
        <ele>64</ele>
        <time>2021-08-06T17:29:27.000Z</time>
      </trkpt>
      <trkpt lat="47.03012" lon="-1.78384">
        <ele>64</ele>
        <time>2021-08-06T17:29:29.000Z</time>
      </trkpt>
      <trkpt lat="47.03022" lon="-1.78375">
        <ele>64</ele>
        <time>2021-08-06T17:29:31.000Z</time>
      </trkpt>
      <trkpt lat="47.03031" lon="-1.78366">
        <ele>64</ele>
        <time>2021-08-06T17:29:33.000Z</time>
      </trkpt>
      <trkpt lat="47.0304" lon="-1.78357">
        <ele>64</ele>
        <time>2021-08-06T17:29:35.000Z</time>
      </trkpt>
      <trkpt lat="47.03049" lon="-1.78348">
        <ele>65</ele>
        <time>2021-08-06T17:29:37.000Z</time>
      </trkpt>
      <trkpt lat="47.03059" lon="-1.7834">
        <ele>66</ele>
        <time>2021-08-06T17:29:39.000Z</time>
      </trkpt>
      <trkpt lat="47.03068" lon="-1.78331">
        <ele>67</ele>
        <time>2021-08-06T17:29:41.000Z</time>
      </trkpt>
      <trkpt lat="47.03078" lon="-1.78321">
        <ele>67</ele>
        <time>2021-08-06T17:29:43.000Z</time>
      </trkpt>
      <trkpt lat="47.03087" lon="-1.78312">
        <ele>67</ele>
        <time>2021-08-06T17:29:45.000Z</time>
      </trkpt>
      <trkpt lat="47.03096" lon="-1.78302">
        <ele>67</ele>
        <time>2021-08-06T17:29:47.000Z</time>
      </trkpt>
      <trkpt lat="47.03107" lon="-1.78293">
        <ele>67</ele>
        <time>2021-08-06T17:29:49.000Z</time>
      </trkpt>
      <trkpt lat="47.03117" lon="-1.78284">
        <ele>67</ele>
        <time>2021-08-06T17:29:51.000Z</time>
      </trkpt>
      <trkpt lat="47.03127" lon="-1.78274">
        <ele>67</ele>
        <time>2021-08-06T17:29:53.000Z</time>
      </trkpt>
      <trkpt lat="47.03139" lon="-1.78264">
        <ele>67</ele>
        <time>2021-08-06T17:29:55.000Z</time>
      </trkpt>
      <trkpt lat="47.0315" lon="-1.78254">
        <ele>67</ele>
        <time>2021-08-06T17:29:57.000Z</time>
      </trkpt>
      <trkpt lat="47.03161" lon="-1.78244">
        <ele>67</ele>
        <time>2021-08-06T17:29:59.000Z</time>
      </trkpt>
      <trkpt lat="47.03172" lon="-1.78233">
        <ele>67</ele>
        <time>2021-08-06T17:30:01.000Z</time>
      </trkpt>
      <trkpt lat="47.03184" lon="-1.78222">
        <ele>67</ele>
        <time>2021-08-06T17:30:03.000Z</time>
      </trkpt>
      <trkpt lat="47.03196" lon="-1.78212">
        <ele>67</ele>
        <time>2021-08-06T17:30:05.000Z</time>
      </trkpt>
      <trkpt lat="47.03208" lon="-1.782">
        <ele>67</ele>
        <time>2021-08-06T17:30:07.000Z</time>
      </trkpt>
      <trkpt lat="47.0322" lon="-1.78188">
        <ele>67</ele>
        <time>2021-08-06T17:30:09.000Z</time>
      </trkpt>
      <trkpt lat="47.03233" lon="-1.78176">
        <ele>66</ele>
        <time>2021-08-06T17:30:11.000Z</time>
      </trkpt>
      <trkpt lat="47.03245" lon="-1.78165">
        <ele>66</ele>
        <time>2021-08-06T17:30:13.000Z</time>
      </trkpt>
      <trkpt lat="47.03264" lon="-1.78147">
        <ele>66</ele>
        <time>2021-08-06T17:30:16.000Z</time>
      </trkpt>
      <trkpt lat="47.03276" lon="-1.78135">
        <ele>65</ele>
        <time>2021-08-06T17:30:18.000Z</time>
      </trkpt>
      <trkpt lat="47.03288" lon="-1.78123">
        <ele>65</ele>
        <time>2021-08-06T17:30:20.000Z</time>
      </trkpt>
      <trkpt lat="47.033" lon="-1.78112">
        <ele>64</ele>
        <time>2021-08-06T17:30:22.000Z</time>
      </trkpt>
      <trkpt lat="47.03318" lon="-1.78095">
        <ele>64</ele>
        <time>2021-08-06T17:30:25.000Z</time>
      </trkpt>
      <trkpt lat="47.03329" lon="-1.78085">
        <ele>64</ele>
        <time>2021-08-06T17:30:27.000Z</time>
      </trkpt>
      <trkpt lat="47.0334" lon="-1.78074">
        <ele>64</ele>
        <time>2021-08-06T17:30:29.000Z</time>
      </trkpt>
      <trkpt lat="47.03358" lon="-1.78058">
        <ele>65</ele>
        <time>2021-08-06T17:30:32.000Z</time>
      </trkpt>
      <trkpt lat="47.03369" lon="-1.78048">
        <ele>65</ele>
        <time>2021-08-06T17:30:34.000Z</time>
      </trkpt>
      <trkpt lat="47.0338" lon="-1.78038">
        <ele>64</ele>
        <time>2021-08-06T17:30:36.000Z</time>
      </trkpt>
      <trkpt lat="47.03391" lon="-1.78028">
        <ele>65</ele>
        <time>2021-08-06T17:30:38.000Z</time>
      </trkpt>
      <trkpt lat="47.03402" lon="-1.78017">
        <ele>65</ele>
        <time>2021-08-06T17:30:40.000Z</time>
      </trkpt>
      <trkpt lat="47.03412" lon="-1.78007">
        <ele>66</ele>
        <time>2021-08-06T17:30:42.000Z</time>
      </trkpt>
      <trkpt lat="47.03423" lon="-1.77996">
        <ele>66</ele>
        <time>2021-08-06T17:30:44.000Z</time>
      </trkpt>
      <trkpt lat="47.03434" lon="-1.77985">
        <ele>66</ele>
        <time>2021-08-06T17:30:46.000Z</time>
      </trkpt>
      <trkpt lat="47.0345" lon="-1.77969">
        <ele>65</ele>
        <time>2021-08-06T17:30:49.000Z</time>
      </trkpt>
      <trkpt lat="47.03462" lon="-1.77958">
        <ele>66</ele>
        <time>2021-08-06T17:30:51.000Z</time>
      </trkpt>
      <trkpt lat="47.03472" lon="-1.77949">
        <ele>66</ele>
        <time>2021-08-06T17:30:53.000Z</time>
      </trkpt>
      <trkpt lat="47.03484" lon="-1.77938">
        <ele>67</ele>
        <time>2021-08-06T17:30:55.000Z</time>
      </trkpt>
      <trkpt lat="47.03495" lon="-1.77927">
        <ele>67</ele>
        <time>2021-08-06T17:30:57.000Z</time>
      </trkpt>
      <trkpt lat="47.03506" lon="-1.77916">
        <ele>67</ele>
        <time>2021-08-06T17:30:59.000Z</time>
      </trkpt>
      <trkpt lat="47.03518" lon="-1.77906">
        <ele>67</ele>
        <time>2021-08-06T17:31:01.000Z</time>
      </trkpt>
      <trkpt lat="47.0353" lon="-1.77895">
        <ele>67</ele>
        <time>2021-08-06T17:31:03.000Z</time>
      </trkpt>
      <trkpt lat="47.03542" lon="-1.77884">
        <ele>67</ele>
        <time>2021-08-06T17:31:05.000Z</time>
      </trkpt>
      <trkpt lat="47.03554" lon="-1.77875">
        <ele>67</ele>
        <time>2021-08-06T17:31:07.000Z</time>
      </trkpt>
      <trkpt lat="47.03566" lon="-1.77865">
        <ele>67</ele>
        <time>2021-08-06T17:31:09.000Z</time>
      </trkpt>
      <trkpt lat="47.03578" lon="-1.77856">
        <ele>67</ele>
        <time>2021-08-06T17:31:11.000Z</time>
      </trkpt>
      <trkpt lat="47.03591" lon="-1.77847">
        <ele>67</ele>
        <time>2021-08-06T17:31:13.000Z</time>
      </trkpt>
      <trkpt lat="47.03603" lon="-1.77839">
        <ele>67</ele>
        <time>2021-08-06T17:31:15.000Z</time>
      </trkpt>
      <trkpt lat="47.03615" lon="-1.7783">
        <ele>67</ele>
        <time>2021-08-06T17:31:17.000Z</time>
      </trkpt>
      <trkpt lat="47.03627" lon="-1.77822">
        <ele>67</ele>
        <time>2021-08-06T17:31:19.000Z</time>
      </trkpt>
      <trkpt lat="47.03639" lon="-1.77814">
        <ele>67</ele>
        <time>2021-08-06T17:31:21.000Z</time>
      </trkpt>
      <trkpt lat="47.03652" lon="-1.77806">
        <ele>67</ele>
        <time>2021-08-06T17:31:23.000Z</time>
      </trkpt>
      <trkpt lat="47.03664" lon="-1.77797">
        <ele>67</ele>
        <time>2021-08-06T17:31:25.000Z</time>
      </trkpt>
      <trkpt lat="47.03676" lon="-1.77788">
        <ele>67</ele>
        <time>2021-08-06T17:31:27.000Z</time>
      </trkpt>
      <trkpt lat="47.03687" lon="-1.77779">
        <ele>68</ele>
        <time>2021-08-06T17:31:29.000Z</time>
      </trkpt>
      <trkpt lat="47.03699" lon="-1.77771">
        <ele>68</ele>
        <time>2021-08-06T17:31:31.000Z</time>
      </trkpt>
      <trkpt lat="47.03711" lon="-1.77763">
        <ele>68</ele>
        <time>2021-08-06T17:31:33.000Z</time>
      </trkpt>
      <trkpt lat="47.03722" lon="-1.77755">
        <ele>68</ele>
        <time>2021-08-06T17:31:35.000Z</time>
      </trkpt>
      <trkpt lat="47.03734" lon="-1.77747">
        <ele>68</ele>
        <time>2021-08-06T17:31:37.000Z</time>
      </trkpt>
      <trkpt lat="47.03746" lon="-1.77738">
        <ele>68</ele>
        <time>2021-08-06T17:31:39.000Z</time>
      </trkpt>
      <trkpt lat="47.03758" lon="-1.77729">
        <ele>68</ele>
        <time>2021-08-06T17:31:41.000Z</time>
      </trkpt>
      <trkpt lat="47.0377" lon="-1.7772">
        <ele>69</ele>
        <time>2021-08-06T17:31:43.000Z</time>
      </trkpt>
      <trkpt lat="47.03782" lon="-1.77712">
        <ele>69</ele>
        <time>2021-08-06T17:31:45.000Z</time>
      </trkpt>
      <trkpt lat="47.03793" lon="-1.77703">
        <ele>69</ele>
        <time>2021-08-06T17:31:47.000Z</time>
      </trkpt>
      <trkpt lat="47.03806" lon="-1.77695">
        <ele>69</ele>
        <time>2021-08-06T17:31:49.000Z</time>
      </trkpt>
      <trkpt lat="47.03817" lon="-1.77686">
        <ele>69</ele>
        <time>2021-08-06T17:31:51.000Z</time>
      </trkpt>
      <trkpt lat="47.0383" lon="-1.77678">
        <ele>69</ele>
        <time>2021-08-06T17:31:53.000Z</time>
      </trkpt>
      <trkpt lat="47.03843" lon="-1.7767">
        <ele>69</ele>
        <time>2021-08-06T17:31:55.000Z</time>
      </trkpt>
      <trkpt lat="47.03854" lon="-1.77661">
        <ele>70</ele>
        <time>2021-08-06T17:31:57.000Z</time>
      </trkpt>
      <trkpt lat="47.03865" lon="-1.77653">
        <ele>70</ele>
        <time>2021-08-06T17:31:59.000Z</time>
      </trkpt>
      <trkpt lat="47.03877" lon="-1.77644">
        <ele>71</ele>
        <time>2021-08-06T17:32:01.000Z</time>
      </trkpt>
      <trkpt lat="47.0389" lon="-1.77636">
        <ele>71</ele>
        <time>2021-08-06T17:32:03.000Z</time>
      </trkpt>
      <trkpt lat="47.03901" lon="-1.77628">
        <ele>72</ele>
        <time>2021-08-06T17:32:05.000Z</time>
      </trkpt>
      <trkpt lat="47.03913" lon="-1.7762">
        <ele>72</ele>
        <time>2021-08-06T17:32:07.000Z</time>
      </trkpt>
      <trkpt lat="47.03925" lon="-1.77612">
        <ele>72</ele>
        <time>2021-08-06T17:32:09.000Z</time>
      </trkpt>
      <trkpt lat="47.03938" lon="-1.77605">
        <ele>72</ele>
        <time>2021-08-06T17:32:11.000Z</time>
      </trkpt>
      <trkpt lat="47.0395" lon="-1.77596">
        <ele>72</ele>
        <time>2021-08-06T17:32:13.000Z</time>
      </trkpt>
      <trkpt lat="47.03962" lon="-1.77587">
        <ele>73</ele>
        <time>2021-08-06T17:32:15.000Z</time>
      </trkpt>
      <trkpt lat="47.03973" lon="-1.77579">
        <ele>73</ele>
        <time>2021-08-06T17:32:17.000Z</time>
      </trkpt>
      <trkpt lat="47.03984" lon="-1.77571">
        <ele>74</ele>
        <time>2021-08-06T17:32:19.000Z</time>
      </trkpt>
      <trkpt lat="47.03996" lon="-1.77562">
        <ele>74</ele>
        <time>2021-08-06T17:32:21.000Z</time>
      </trkpt>
      <trkpt lat="47.04008" lon="-1.77555">
        <ele>74</ele>
        <time>2021-08-06T17:32:23.000Z</time>
      </trkpt>
      <trkpt lat="47.04019" lon="-1.77547">
        <ele>74</ele>
        <time>2021-08-06T17:32:25.000Z</time>
      </trkpt>
      <trkpt lat="47.04031" lon="-1.77539">
        <ele>75</ele>
        <time>2021-08-06T17:32:27.000Z</time>
      </trkpt>
      <trkpt lat="47.04042" lon="-1.77531">
        <ele>75</ele>
        <time>2021-08-06T17:32:29.000Z</time>
      </trkpt>
      <trkpt lat="47.04054" lon="-1.77524">
        <ele>75</ele>
        <time>2021-08-06T17:32:31.000Z</time>
      </trkpt>
      <trkpt lat="47.04065" lon="-1.77516">
        <ele>75</ele>
        <time>2021-08-06T17:32:33.000Z</time>
      </trkpt>
      <trkpt lat="47.04076" lon="-1.77507">
        <ele>75</ele>
        <time>2021-08-06T17:32:35.000Z</time>
      </trkpt>
      <trkpt lat="47.04087" lon="-1.77499">
        <ele>75</ele>
        <time>2021-08-06T17:32:37.000Z</time>
      </trkpt>
      <trkpt lat="47.04098" lon="-1.77491">
        <ele>75</ele>
        <time>2021-08-06T17:32:39.000Z</time>
      </trkpt>
      <trkpt lat="47.0411" lon="-1.77483">
        <ele>74</ele>
        <time>2021-08-06T17:32:41.000Z</time>
      </trkpt>
      <trkpt lat="47.04121" lon="-1.77475">
        <ele>74</ele>
        <time>2021-08-06T17:32:43.000Z</time>
      </trkpt>
      <trkpt lat="47.04133" lon="-1.77467">
        <ele>74</ele>
        <time>2021-08-06T17:32:45.000Z</time>
      </trkpt>
      <trkpt lat="47.04144" lon="-1.77458">
        <ele>74</ele>
        <time>2021-08-06T17:32:47.000Z</time>
      </trkpt>
      <trkpt lat="47.04157" lon="-1.77449">
        <ele>74</ele>
        <time>2021-08-06T17:32:49.000Z</time>
      </trkpt>
      <trkpt lat="47.0417" lon="-1.77441">
        <ele>74</ele>
        <time>2021-08-06T17:32:51.000Z</time>
      </trkpt>
      <trkpt lat="47.04182" lon="-1.77432">
        <ele>74</ele>
        <time>2021-08-06T17:32:53.000Z</time>
      </trkpt>
      <trkpt lat="47.04194" lon="-1.77423">
        <ele>74</ele>
        <time>2021-08-06T17:32:55.000Z</time>
      </trkpt>
      <trkpt lat="47.04207" lon="-1.77414">
        <ele>75</ele>
        <time>2021-08-06T17:32:57.000Z</time>
      </trkpt>
      <trkpt lat="47.04219" lon="-1.77405">
        <ele>75</ele>
        <time>2021-08-06T17:32:59.000Z</time>
      </trkpt>
      <trkpt lat="47.04232" lon="-1.77396">
        <ele>75</ele>
        <time>2021-08-06T17:33:01.000Z</time>
      </trkpt>
      <trkpt lat="47.04246" lon="-1.77386">
        <ele>75</ele>
        <time>2021-08-06T17:33:03.000Z</time>
      </trkpt>
      <trkpt lat="47.04259" lon="-1.77378">
        <ele>75</ele>
        <time>2021-08-06T17:33:05.000Z</time>
      </trkpt>
      <trkpt lat="47.04272" lon="-1.77369">
        <ele>75</ele>
        <time>2021-08-06T17:33:07.000Z</time>
      </trkpt>
      <trkpt lat="47.04285" lon="-1.7736">
        <ele>75</ele>
        <time>2021-08-06T17:33:09.000Z</time>
      </trkpt>
      <trkpt lat="47.04297" lon="-1.77351">
        <ele>74</ele>
        <time>2021-08-06T17:33:11.000Z</time>
      </trkpt>
      <trkpt lat="47.0431" lon="-1.77342">
        <ele>74</ele>
        <time>2021-08-06T17:33:13.000Z</time>
      </trkpt>
      <trkpt lat="47.04323" lon="-1.77334">
        <ele>74</ele>
        <time>2021-08-06T17:33:15.000Z</time>
      </trkpt>
      <trkpt lat="47.04336" lon="-1.77324">
        <ele>74</ele>
        <time>2021-08-06T17:33:17.000Z</time>
      </trkpt>
      <trkpt lat="47.04349" lon="-1.77316">
        <ele>74</ele>
        <time>2021-08-06T17:33:19.000Z</time>
      </trkpt>
      <trkpt lat="47.04361" lon="-1.77306">
        <ele>74</ele>
        <time>2021-08-06T17:33:21.000Z</time>
      </trkpt>
      <trkpt lat="47.04374" lon="-1.77297">
        <ele>74</ele>
        <time>2021-08-06T17:33:23.000Z</time>
      </trkpt>
      <trkpt lat="47.04387" lon="-1.77288">
        <ele>75</ele>
        <time>2021-08-06T17:33:25.000Z</time>
      </trkpt>
      <trkpt lat="47.044" lon="-1.7728">
        <ele>74</ele>
        <time>2021-08-06T17:33:27.000Z</time>
      </trkpt>
      <trkpt lat="47.04413" lon="-1.7727">
        <ele>74</ele>
        <time>2021-08-06T17:33:29.000Z</time>
      </trkpt>
      <trkpt lat="47.04426" lon="-1.77261">
        <ele>73</ele>
        <time>2021-08-06T17:33:31.000Z</time>
      </trkpt>
      <trkpt lat="47.04439" lon="-1.77252">
        <ele>73</ele>
        <time>2021-08-06T17:33:33.000Z</time>
      </trkpt>
      <trkpt lat="47.04452" lon="-1.77243">
        <ele>73</ele>
        <time>2021-08-06T17:33:35.000Z</time>
      </trkpt>
      <trkpt lat="47.04465" lon="-1.77234">
        <ele>73</ele>
        <time>2021-08-06T17:33:37.000Z</time>
      </trkpt>
      <trkpt lat="47.04478" lon="-1.77225">
        <ele>73</ele>
        <time>2021-08-06T17:33:39.000Z</time>
      </trkpt>
      <trkpt lat="47.04491" lon="-1.77215">
        <ele>73</ele>
        <time>2021-08-06T17:33:41.000Z</time>
      </trkpt>
      <trkpt lat="47.04504" lon="-1.77207">
        <ele>73</ele>
        <time>2021-08-06T17:33:43.000Z</time>
      </trkpt>
      <trkpt lat="47.04517" lon="-1.77198">
        <ele>72</ele>
        <time>2021-08-06T17:33:45.000Z</time>
      </trkpt>
      <trkpt lat="47.0453" lon="-1.77189">
        <ele>72</ele>
        <time>2021-08-06T17:33:47.000Z</time>
      </trkpt>
      <trkpt lat="47.04543" lon="-1.7718">
        <ele>72</ele>
        <time>2021-08-06T17:33:49.000Z</time>
      </trkpt>
      <trkpt lat="47.04556" lon="-1.77171">
        <ele>72</ele>
        <time>2021-08-06T17:33:51.000Z</time>
      </trkpt>
      <trkpt lat="47.0457" lon="-1.77163">
        <ele>72</ele>
        <time>2021-08-06T17:33:53.000Z</time>
      </trkpt>
      <trkpt lat="47.04583" lon="-1.77155">
        <ele>71</ele>
        <time>2021-08-06T17:33:55.000Z</time>
      </trkpt>
      <trkpt lat="47.04597" lon="-1.77147">
        <ele>72</ele>
        <time>2021-08-06T17:33:57.000Z</time>
      </trkpt>
      <trkpt lat="47.04611" lon="-1.7714">
        <ele>72</ele>
        <time>2021-08-06T17:33:59.000Z</time>
      </trkpt>
      <trkpt lat="47.04625" lon="-1.77134">
        <ele>72</ele>
        <time>2021-08-06T17:34:01.000Z</time>
      </trkpt>
      <trkpt lat="47.04639" lon="-1.77127">
        <ele>72</ele>
        <time>2021-08-06T17:34:03.000Z</time>
      </trkpt>
      <trkpt lat="47.04654" lon="-1.77121">
        <ele>72</ele>
        <time>2021-08-06T17:34:05.000Z</time>
      </trkpt>
      <trkpt lat="47.04669" lon="-1.77113">
        <ele>72</ele>
        <time>2021-08-06T17:34:07.000Z</time>
      </trkpt>
      <trkpt lat="47.04684" lon="-1.77107">
        <ele>72</ele>
        <time>2021-08-06T17:34:09.000Z</time>
      </trkpt>
      <trkpt lat="47.04698" lon="-1.771">
        <ele>71</ele>
        <time>2021-08-06T17:34:11.000Z</time>
      </trkpt>
      <trkpt lat="47.04713" lon="-1.77093">
        <ele>71</ele>
        <time>2021-08-06T17:34:13.000Z</time>
      </trkpt>
      <trkpt lat="47.04726" lon="-1.77086">
        <ele>71</ele>
        <time>2021-08-06T17:34:15.000Z</time>
      </trkpt>
      <trkpt lat="47.04741" lon="-1.77079">
        <ele>71</ele>
        <time>2021-08-06T17:34:17.000Z</time>
      </trkpt>
      <trkpt lat="47.04755" lon="-1.77073">
        <ele>71</ele>
        <time>2021-08-06T17:34:19.000Z</time>
      </trkpt>
      <trkpt lat="47.04769" lon="-1.77066">
        <ele>70</ele>
        <time>2021-08-06T17:34:21.000Z</time>
      </trkpt>
      <trkpt lat="47.04783" lon="-1.7706">
        <ele>70</ele>
        <time>2021-08-06T17:34:23.000Z</time>
      </trkpt>
      <trkpt lat="47.04797" lon="-1.77053">
        <ele>70</ele>
        <time>2021-08-06T17:34:25.000Z</time>
      </trkpt>
      <trkpt lat="47.04811" lon="-1.77046">
        <ele>70</ele>
        <time>2021-08-06T17:34:27.000Z</time>
      </trkpt>
      <trkpt lat="47.04825" lon="-1.77038">
        <ele>70</ele>
        <time>2021-08-06T17:34:29.000Z</time>
      </trkpt>
      <trkpt lat="47.04838" lon="-1.77031">
        <ele>70</ele>
        <time>2021-08-06T17:34:31.000Z</time>
      </trkpt>
      <trkpt lat="47.04852" lon="-1.77025">
        <ele>70</ele>
        <time>2021-08-06T17:34:33.000Z</time>
      </trkpt>
      <trkpt lat="47.04866" lon="-1.77018">
        <ele>71</ele>
        <time>2021-08-06T17:34:35.000Z</time>
      </trkpt>
      <trkpt lat="47.04879" lon="-1.77011">
        <ele>71</ele>
        <time>2021-08-06T17:34:37.000Z</time>
      </trkpt>
      <trkpt lat="47.04893" lon="-1.77004">
        <ele>72</ele>
        <time>2021-08-06T17:34:39.000Z</time>
      </trkpt>
      <trkpt lat="47.04907" lon="-1.76998">
        <ele>72</ele>
        <time>2021-08-06T17:34:41.000Z</time>
      </trkpt>
      <trkpt lat="47.0492" lon="-1.76991">
        <ele>72</ele>
        <time>2021-08-06T17:34:43.000Z</time>
      </trkpt>
      <trkpt lat="47.04933" lon="-1.76984">
        <ele>72</ele>
        <time>2021-08-06T17:34:45.000Z</time>
      </trkpt>
      <trkpt lat="47.04947" lon="-1.76978">
        <ele>71</ele>
        <time>2021-08-06T17:34:47.000Z</time>
      </trkpt>
      <trkpt lat="47.04961" lon="-1.76972">
        <ele>70</ele>
        <time>2021-08-06T17:34:49.000Z</time>
      </trkpt>
      <trkpt lat="47.04974" lon="-1.76966">
        <ele>71</ele>
        <time>2021-08-06T17:34:51.000Z</time>
      </trkpt>
      <trkpt lat="47.04987" lon="-1.7696">
        <ele>70</ele>
        <time>2021-08-06T17:34:53.000Z</time>
      </trkpt>
      <trkpt lat="47.05" lon="-1.76953">
        <ele>71</ele>
        <time>2021-08-06T17:34:55.000Z</time>
      </trkpt>
      <trkpt lat="47.05013" lon="-1.76946">
        <ele>71</ele>
        <time>2021-08-06T17:34:57.000Z</time>
      </trkpt>
      <trkpt lat="47.05026" lon="-1.7694">
        <ele>71</ele>
        <time>2021-08-06T17:34:59.000Z</time>
      </trkpt>
      <trkpt lat="47.05039" lon="-1.76934">
        <ele>71</ele>
        <time>2021-08-06T17:35:01.000Z</time>
      </trkpt>
      <trkpt lat="47.05051" lon="-1.76928">
        <ele>71</ele>
        <time>2021-08-06T17:35:03.000Z</time>
      </trkpt>
      <trkpt lat="47.05065" lon="-1.76921">
        <ele>72</ele>
        <time>2021-08-06T17:35:05.000Z</time>
      </trkpt>
      <trkpt lat="47.05078" lon="-1.76915">
        <ele>71</ele>
        <time>2021-08-06T17:35:07.000Z</time>
      </trkpt>
      <trkpt lat="47.05091" lon="-1.76909">
        <ele>72</ele>
        <time>2021-08-06T17:35:09.000Z</time>
      </trkpt>
      <trkpt lat="47.05106" lon="-1.76902">
        <ele>71</ele>
        <time>2021-08-06T17:35:11.000Z</time>
      </trkpt>
      <trkpt lat="47.0512" lon="-1.76896">
        <ele>71</ele>
        <time>2021-08-06T17:35:13.000Z</time>
      </trkpt>
      <trkpt lat="47.05134" lon="-1.7689">
        <ele>70</ele>
        <time>2021-08-06T17:35:15.000Z</time>
      </trkpt>
      <trkpt lat="47.05147" lon="-1.76882">
        <ele>70</ele>
        <time>2021-08-06T17:35:17.000Z</time>
      </trkpt>
      <trkpt lat="47.05161" lon="-1.76876">
        <ele>70</ele>
        <time>2021-08-06T17:35:19.000Z</time>
      </trkpt>
      <trkpt lat="47.05175" lon="-1.7687">
        <ele>70</ele>
        <time>2021-08-06T17:35:21.000Z</time>
      </trkpt>
      <trkpt lat="47.05188" lon="-1.76863">
        <ele>70</ele>
        <time>2021-08-06T17:35:23.000Z</time>
      </trkpt>
      <trkpt lat="47.05201" lon="-1.76857">
        <ele>70</ele>
        <time>2021-08-06T17:35:25.000Z</time>
      </trkpt>
      <trkpt lat="47.05214" lon="-1.76851">
        <ele>70</ele>
        <time>2021-08-06T17:35:27.000Z</time>
      </trkpt>
      <trkpt lat="47.05227" lon="-1.76844">
        <ele>70</ele>
        <time>2021-08-06T17:35:29.000Z</time>
      </trkpt>
      <trkpt lat="47.0524" lon="-1.76838">
        <ele>71</ele>
        <time>2021-08-06T17:35:31.000Z</time>
      </trkpt>
      <trkpt lat="47.05253" lon="-1.76831">
        <ele>71</ele>
        <time>2021-08-06T17:35:33.000Z</time>
      </trkpt>
      <trkpt lat="47.05266" lon="-1.76824">
        <ele>71</ele>
        <time>2021-08-06T17:35:35.000Z</time>
      </trkpt>
      <trkpt lat="47.0528" lon="-1.76819">
        <ele>70</ele>
        <time>2021-08-06T17:35:37.000Z</time>
      </trkpt>
      <trkpt lat="47.05293" lon="-1.76812">
        <ele>71</ele>
        <time>2021-08-06T17:35:39.000Z</time>
      </trkpt>
      <trkpt lat="47.05307" lon="-1.76806">
        <ele>70</ele>
        <time>2021-08-06T17:35:41.000Z</time>
      </trkpt>
      <trkpt lat="47.05321" lon="-1.76799">
        <ele>70</ele>
        <time>2021-08-06T17:35:43.000Z</time>
      </trkpt>
      <trkpt lat="47.05334" lon="-1.76793">
        <ele>70</ele>
        <time>2021-08-06T17:35:45.000Z</time>
      </trkpt>
      <trkpt lat="47.05348" lon="-1.76787">
        <ele>70</ele>
        <time>2021-08-06T17:35:47.000Z</time>
      </trkpt>
      <trkpt lat="47.05361" lon="-1.7678">
        <ele>69</ele>
        <time>2021-08-06T17:35:49.000Z</time>
      </trkpt>
      <trkpt lat="47.05375" lon="-1.76774">
        <ele>69</ele>
        <time>2021-08-06T17:35:51.000Z</time>
      </trkpt>
      <trkpt lat="47.05389" lon="-1.76768">
        <ele>69</ele>
        <time>2021-08-06T17:35:53.000Z</time>
      </trkpt>
      <trkpt lat="47.05403" lon="-1.76761">
        <ele>69</ele>
        <time>2021-08-06T17:35:55.000Z</time>
      </trkpt>
      <trkpt lat="47.05417" lon="-1.76755">
        <ele>69</ele>
        <time>2021-08-06T17:35:57.000Z</time>
      </trkpt>
      <trkpt lat="47.05431" lon="-1.76748">
        <ele>69</ele>
        <time>2021-08-06T17:35:59.000Z</time>
      </trkpt>
      <trkpt lat="47.05445" lon="-1.76741">
        <ele>68</ele>
        <time>2021-08-06T17:36:01.000Z</time>
      </trkpt>
      <trkpt lat="47.05459" lon="-1.76734">
        <ele>68</ele>
        <time>2021-08-06T17:36:03.000Z</time>
      </trkpt>
      <trkpt lat="47.05473" lon="-1.76727">
        <ele>69</ele>
        <time>2021-08-06T17:36:05.000Z</time>
      </trkpt>
      <trkpt lat="47.05487" lon="-1.7672">
        <ele>69</ele>
        <time>2021-08-06T17:36:07.000Z</time>
      </trkpt>
      <trkpt lat="47.05501" lon="-1.76713">
        <ele>69</ele>
        <time>2021-08-06T17:36:09.000Z</time>
      </trkpt>
      <trkpt lat="47.05515" lon="-1.76708">
        <ele>68</ele>
        <time>2021-08-06T17:36:11.000Z</time>
      </trkpt>
      <trkpt lat="47.05528" lon="-1.76701">
        <ele>68</ele>
        <time>2021-08-06T17:36:13.000Z</time>
      </trkpt>
      <trkpt lat="47.05542" lon="-1.76694">
        <ele>69</ele>
        <time>2021-08-06T17:36:15.000Z</time>
      </trkpt>
      <trkpt lat="47.05555" lon="-1.76687">
        <ele>69</ele>
        <time>2021-08-06T17:36:17.000Z</time>
      </trkpt>
      <trkpt lat="47.0557" lon="-1.7668">
        <ele>69</ele>
        <time>2021-08-06T17:36:19.000Z</time>
      </trkpt>
      <trkpt lat="47.05585" lon="-1.76673">
        <ele>69</ele>
        <time>2021-08-06T17:36:21.000Z</time>
      </trkpt>
      <trkpt lat="47.05599" lon="-1.76666">
        <ele>68</ele>
        <time>2021-08-06T17:36:23.000Z</time>
      </trkpt>
      <trkpt lat="47.05612" lon="-1.7666">
        <ele>68</ele>
        <time>2021-08-06T17:36:25.000Z</time>
      </trkpt>
      <trkpt lat="47.05625" lon="-1.76653">
        <ele>68</ele>
        <time>2021-08-06T17:36:27.000Z</time>
      </trkpt>
      <trkpt lat="47.05639" lon="-1.76647">
        <ele>68</ele>
        <time>2021-08-06T17:36:29.000Z</time>
      </trkpt>
      <trkpt lat="47.05652" lon="-1.7664">
        <ele>69</ele>
        <time>2021-08-06T17:36:31.000Z</time>
      </trkpt>
      <trkpt lat="47.05665" lon="-1.76635">
        <ele>68</ele>
        <time>2021-08-06T17:36:33.000Z</time>
      </trkpt>
      <trkpt lat="47.05677" lon="-1.76629">
        <ele>69</ele>
        <time>2021-08-06T17:36:35.000Z</time>
      </trkpt>
      <trkpt lat="47.05691" lon="-1.76623">
        <ele>68</ele>
        <time>2021-08-06T17:36:37.000Z</time>
      </trkpt>
      <trkpt lat="47.05704" lon="-1.76616">
        <ele>68</ele>
        <time>2021-08-06T17:36:39.000Z</time>
      </trkpt>
      <trkpt lat="47.05717" lon="-1.7661">
        <ele>68</ele>
        <time>2021-08-06T17:36:41.000Z</time>
      </trkpt>
      <trkpt lat="47.0573" lon="-1.76604">
        <ele>68</ele>
        <time>2021-08-06T17:36:43.000Z</time>
      </trkpt>
      <trkpt lat="47.05742" lon="-1.76597">
        <ele>68</ele>
        <time>2021-08-06T17:36:45.000Z</time>
      </trkpt>
      <trkpt lat="47.05756" lon="-1.76592">
        <ele>69</ele>
        <time>2021-08-06T17:36:47.000Z</time>
      </trkpt>
      <trkpt lat="47.0577" lon="-1.76586">
        <ele>69</ele>
        <time>2021-08-06T17:36:49.000Z</time>
      </trkpt>
      <trkpt lat="47.05783" lon="-1.7658">
        <ele>69</ele>
        <time>2021-08-06T17:36:51.000Z</time>
      </trkpt>
      <trkpt lat="47.05796" lon="-1.76574">
        <ele>69</ele>
        <time>2021-08-06T17:36:53.000Z</time>
      </trkpt>
      <trkpt lat="47.05808" lon="-1.76567">
        <ele>70</ele>
        <time>2021-08-06T17:36:55.000Z</time>
      </trkpt>
      <trkpt lat="47.0582" lon="-1.76561">
        <ele>69</ele>
        <time>2021-08-06T17:36:57.000Z</time>
      </trkpt>
      <trkpt lat="47.05833" lon="-1.76555">
        <ele>69</ele>
        <time>2021-08-06T17:36:59.000Z</time>
      </trkpt>
      <trkpt lat="47.05845" lon="-1.76549">
        <ele>69</ele>
        <time>2021-08-06T17:37:01.000Z</time>
      </trkpt>
      <trkpt lat="47.05857" lon="-1.76543">
        <ele>70</ele>
        <time>2021-08-06T17:37:03.000Z</time>
      </trkpt>
      <trkpt lat="47.0587" lon="-1.76537">
        <ele>70</ele>
        <time>2021-08-06T17:37:05.000Z</time>
      </trkpt>
      <trkpt lat="47.05883" lon="-1.76531">
        <ele>71</ele>
        <time>2021-08-06T17:37:07.000Z</time>
      </trkpt>
      <trkpt lat="47.05895" lon="-1.76525">
        <ele>72</ele>
        <time>2021-08-06T17:37:09.000Z</time>
      </trkpt>
      <trkpt lat="47.05908" lon="-1.76519">
        <ele>72</ele>
        <time>2021-08-06T17:37:11.000Z</time>
      </trkpt>
      <trkpt lat="47.0592" lon="-1.76513">
        <ele>72</ele>
        <time>2021-08-06T17:37:13.000Z</time>
      </trkpt>
      <trkpt lat="47.05932" lon="-1.76506">
        <ele>72</ele>
        <time>2021-08-06T17:37:15.000Z</time>
      </trkpt>
      <trkpt lat="47.05944" lon="-1.76501">
        <ele>73</ele>
        <time>2021-08-06T17:37:17.000Z</time>
      </trkpt>
      <trkpt lat="47.05956" lon="-1.76495">
        <ele>72</ele>
        <time>2021-08-06T17:37:19.000Z</time>
      </trkpt>
      <trkpt lat="47.05969" lon="-1.76489">
        <ele>73</ele>
        <time>2021-08-06T17:37:21.000Z</time>
      </trkpt>
      <trkpt lat="47.05981" lon="-1.76483">
        <ele>73</ele>
        <time>2021-08-06T17:37:23.000Z</time>
      </trkpt>
      <trkpt lat="47.05993" lon="-1.76478">
        <ele>74</ele>
        <time>2021-08-06T17:37:25.000Z</time>
      </trkpt>
      <trkpt lat="47.06006" lon="-1.76472">
        <ele>74</ele>
        <time>2021-08-06T17:37:27.000Z</time>
      </trkpt>
      <trkpt lat="47.06018" lon="-1.76466">
        <ele>74</ele>
        <time>2021-08-06T17:37:29.000Z</time>
      </trkpt>
      <trkpt lat="47.0603" lon="-1.76461">
        <ele>74</ele>
        <time>2021-08-06T17:37:31.000Z</time>
      </trkpt>
      <trkpt lat="47.06041" lon="-1.76455">
        <ele>75</ele>
        <time>2021-08-06T17:37:33.000Z</time>
      </trkpt>
      <trkpt lat="47.06053" lon="-1.7645">
        <ele>75</ele>
        <time>2021-08-06T17:37:35.000Z</time>
      </trkpt>
      <trkpt lat="47.06065" lon="-1.76444">
        <ele>75</ele>
        <time>2021-08-06T17:37:37.000Z</time>
      </trkpt>
      <trkpt lat="47.06077" lon="-1.76438">
        <ele>75</ele>
        <time>2021-08-06T17:37:39.000Z</time>
      </trkpt>
      <trkpt lat="47.0609" lon="-1.76432">
        <ele>75</ele>
        <time>2021-08-06T17:37:41.000Z</time>
      </trkpt>
      <trkpt lat="47.06101" lon="-1.76426">
        <ele>75</ele>
        <time>2021-08-06T17:37:43.000Z</time>
      </trkpt>
      <trkpt lat="47.06113" lon="-1.76421">
        <ele>75</ele>
        <time>2021-08-06T17:37:45.000Z</time>
      </trkpt>
      <trkpt lat="47.06125" lon="-1.76415">
        <ele>76</ele>
        <time>2021-08-06T17:37:47.000Z</time>
      </trkpt>
      <trkpt lat="47.06138" lon="-1.7641">
        <ele>76</ele>
        <time>2021-08-06T17:37:49.000Z</time>
      </trkpt>
      <trkpt lat="47.0615" lon="-1.76404">
        <ele>76</ele>
        <time>2021-08-06T17:37:51.000Z</time>
      </trkpt>
      <trkpt lat="47.06162" lon="-1.76399">
        <ele>77</ele>
        <time>2021-08-06T17:37:53.000Z</time>
      </trkpt>
      <trkpt lat="47.06174" lon="-1.76393">
        <ele>76</ele>
        <time>2021-08-06T17:37:55.000Z</time>
      </trkpt>
      <trkpt lat="47.06187" lon="-1.76387">
        <ele>77</ele>
        <time>2021-08-06T17:37:57.000Z</time>
      </trkpt>
      <trkpt lat="47.06199" lon="-1.76381">
        <ele>77</ele>
        <time>2021-08-06T17:37:59.000Z</time>
      </trkpt>
      <trkpt lat="47.06211" lon="-1.76374">
        <ele>77</ele>
        <time>2021-08-06T17:38:01.000Z</time>
      </trkpt>
      <trkpt lat="47.06224" lon="-1.76368">
        <ele>77</ele>
        <time>2021-08-06T17:38:03.000Z</time>
      </trkpt>
      <trkpt lat="47.06236" lon="-1.76362">
        <ele>77</ele>
        <time>2021-08-06T17:38:05.000Z</time>
      </trkpt>
      <trkpt lat="47.06248" lon="-1.76355">
        <ele>77</ele>
        <time>2021-08-06T17:38:07.000Z</time>
      </trkpt>
      <trkpt lat="47.06261" lon="-1.76349">
        <ele>77</ele>
        <time>2021-08-06T17:38:09.000Z</time>
      </trkpt>
      <trkpt lat="47.06274" lon="-1.76342">
        <ele>77</ele>
        <time>2021-08-06T17:38:11.000Z</time>
      </trkpt>
      <trkpt lat="47.06286" lon="-1.76336">
        <ele>77</ele>
        <time>2021-08-06T17:38:13.000Z</time>
      </trkpt>
      <trkpt lat="47.06299" lon="-1.7633">
        <ele>77</ele>
        <time>2021-08-06T17:38:15.000Z</time>
      </trkpt>
      <trkpt lat="47.06312" lon="-1.76324">
        <ele>78</ele>
        <time>2021-08-06T17:38:17.000Z</time>
      </trkpt>
      <trkpt lat="47.06325" lon="-1.76317">
        <ele>78</ele>
        <time>2021-08-06T17:38:19.000Z</time>
      </trkpt>
      <trkpt lat="47.06338" lon="-1.76311">
        <ele>78</ele>
        <time>2021-08-06T17:38:21.000Z</time>
      </trkpt>
      <trkpt lat="47.06351" lon="-1.76306">
        <ele>78</ele>
        <time>2021-08-06T17:38:23.000Z</time>
      </trkpt>
      <trkpt lat="47.06364" lon="-1.76301">
        <ele>79</ele>
        <time>2021-08-06T17:38:25.000Z</time>
      </trkpt>
      <trkpt lat="47.06377" lon="-1.76295">
        <ele>79</ele>
        <time>2021-08-06T17:38:27.000Z</time>
      </trkpt>
      <trkpt lat="47.06389" lon="-1.76289">
        <ele>79</ele>
        <time>2021-08-06T17:38:29.000Z</time>
      </trkpt>
      <trkpt lat="47.06402" lon="-1.76283">
        <ele>80</ele>
        <time>2021-08-06T17:38:31.000Z</time>
      </trkpt>
      <trkpt lat="47.06414" lon="-1.76277">
        <ele>79</ele>
        <time>2021-08-06T17:38:33.000Z</time>
      </trkpt>
      <trkpt lat="47.06427" lon="-1.76271">
        <ele>80</ele>
        <time>2021-08-06T17:38:35.000Z</time>
      </trkpt>
      <trkpt lat="47.0644" lon="-1.76265">
        <ele>80</ele>
        <time>2021-08-06T17:38:37.000Z</time>
      </trkpt>
      <trkpt lat="47.06452" lon="-1.76259">
        <ele>81</ele>
        <time>2021-08-06T17:38:39.000Z</time>
      </trkpt>
      <trkpt lat="47.06465" lon="-1.76253">
        <ele>80</ele>
        <time>2021-08-06T17:38:41.000Z</time>
      </trkpt>
      <trkpt lat="47.06477" lon="-1.76247">
        <ele>81</ele>
        <time>2021-08-06T17:38:43.000Z</time>
      </trkpt>
      <trkpt lat="47.0649" lon="-1.76241">
        <ele>81</ele>
        <time>2021-08-06T17:38:45.000Z</time>
      </trkpt>
      <trkpt lat="47.06502" lon="-1.76236">
        <ele>81</ele>
        <time>2021-08-06T17:38:47.000Z</time>
      </trkpt>
      <trkpt lat="47.06514" lon="-1.7623">
        <ele>81</ele>
        <time>2021-08-06T17:38:49.000Z</time>
      </trkpt>
      <trkpt lat="47.06526" lon="-1.76224">
        <ele>82</ele>
        <time>2021-08-06T17:38:51.000Z</time>
      </trkpt>
      <trkpt lat="47.06538" lon="-1.76219">
        <ele>82</ele>
        <time>2021-08-06T17:38:53.000Z</time>
      </trkpt>
      <trkpt lat="47.0655" lon="-1.76213">
        <ele>82</ele>
        <time>2021-08-06T17:38:55.000Z</time>
      </trkpt>
      <trkpt lat="47.06561" lon="-1.76207">
        <ele>82</ele>
        <time>2021-08-06T17:38:57.000Z</time>
      </trkpt>
      <trkpt lat="47.06573" lon="-1.76201">
        <ele>83</ele>
        <time>2021-08-06T17:38:59.000Z</time>
      </trkpt>
      <trkpt lat="47.06584" lon="-1.76196">
        <ele>83</ele>
        <time>2021-08-06T17:39:01.000Z</time>
      </trkpt>
      <trkpt lat="47.06597" lon="-1.7619">
        <ele>83</ele>
        <time>2021-08-06T17:39:03.000Z</time>
      </trkpt>
      <trkpt lat="47.0661" lon="-1.76184">
        <ele>82</ele>
        <time>2021-08-06T17:39:05.000Z</time>
      </trkpt>
      <trkpt lat="47.06623" lon="-1.76178">
        <ele>82</ele>
        <time>2021-08-06T17:39:07.000Z</time>
      </trkpt>
      <trkpt lat="47.06637" lon="-1.76173">
        <ele>81</ele>
        <time>2021-08-06T17:39:09.000Z</time>
      </trkpt>
      <trkpt lat="47.06652" lon="-1.76167">
        <ele>81</ele>
        <time>2021-08-06T17:39:11.000Z</time>
      </trkpt>
      <trkpt lat="47.06667" lon="-1.7616">
        <ele>80</ele>
        <time>2021-08-06T17:39:13.000Z</time>
      </trkpt>
      <trkpt lat="47.06682" lon="-1.76153">
        <ele>80</ele>
        <time>2021-08-06T17:39:15.000Z</time>
      </trkpt>
      <trkpt lat="47.06697" lon="-1.76146">
        <ele>79</ele>
        <time>2021-08-06T17:39:17.000Z</time>
      </trkpt>
      <trkpt lat="47.06713" lon="-1.76139">
        <ele>78</ele>
        <time>2021-08-06T17:39:19.000Z</time>
      </trkpt>
      <trkpt lat="47.0673" lon="-1.76132">
        <ele>78</ele>
        <time>2021-08-06T17:39:21.000Z</time>
      </trkpt>
      <trkpt lat="47.06747" lon="-1.76124">
        <ele>77</ele>
        <time>2021-08-06T17:39:23.000Z</time>
      </trkpt>
      <trkpt lat="47.06763" lon="-1.76117">
        <ele>76</ele>
        <time>2021-08-06T17:39:25.000Z</time>
      </trkpt>
      <trkpt lat="47.0678" lon="-1.76109">
        <ele>76</ele>
        <time>2021-08-06T17:39:27.000Z</time>
      </trkpt>
      <trkpt lat="47.06789" lon="-1.76105">
        <ele>76</ele>
        <time>2021-08-06T17:39:28.000Z</time>
      </trkpt>
      <trkpt lat="47.06806" lon="-1.76097">
        <ele>75</ele>
        <time>2021-08-06T17:39:30.000Z</time>
      </trkpt>
      <trkpt lat="47.06823" lon="-1.7609">
        <ele>75</ele>
        <time>2021-08-06T17:39:32.000Z</time>
      </trkpt>
      <trkpt lat="47.0684" lon="-1.76082">
        <ele>74</ele>
        <time>2021-08-06T17:39:34.000Z</time>
      </trkpt>
      <trkpt lat="47.06857" lon="-1.76074">
        <ele>74</ele>
        <time>2021-08-06T17:39:36.000Z</time>
      </trkpt>
      <trkpt lat="47.06874" lon="-1.76066">
        <ele>73</ele>
        <time>2021-08-06T17:39:38.000Z</time>
      </trkpt>
      <trkpt lat="47.06883" lon="-1.76061">
        <ele>73</ele>
        <time>2021-08-06T17:39:39.000Z</time>
      </trkpt>
      <trkpt lat="47.06892" lon="-1.76057">
        <ele>73</ele>
        <time>2021-08-06T17:39:40.000Z</time>
      </trkpt>
      <trkpt lat="47.069" lon="-1.76051">
        <ele>73</ele>
        <time>2021-08-06T17:39:41.000Z</time>
      </trkpt>
      <trkpt lat="47.06909" lon="-1.76046">
        <ele>73</ele>
        <time>2021-08-06T17:39:42.000Z</time>
      </trkpt>
      <trkpt lat="47.06917" lon="-1.7604">
        <ele>73</ele>
        <time>2021-08-06T17:39:43.000Z</time>
      </trkpt>
      <trkpt lat="47.06925" lon="-1.76034">
        <ele>73</ele>
        <time>2021-08-06T17:39:44.000Z</time>
      </trkpt>
      <trkpt lat="47.06933" lon="-1.76027">
        <ele>73</ele>
        <time>2021-08-06T17:39:45.000Z</time>
      </trkpt>
      <trkpt lat="47.06941" lon="-1.7602">
        <ele>72</ele>
        <time>2021-08-06T17:39:46.000Z</time>
      </trkpt>
      <trkpt lat="47.06956" lon="-1.76005">
        <ele>72</ele>
        <time>2021-08-06T17:39:48.000Z</time>
      </trkpt>
      <trkpt lat="47.0697" lon="-1.75989">
        <ele>72</ele>
        <time>2021-08-06T17:39:50.000Z</time>
      </trkpt>
      <trkpt lat="47.06983" lon="-1.75973">
        <ele>71</ele>
        <time>2021-08-06T17:39:52.000Z</time>
      </trkpt>
      <trkpt lat="47.06997" lon="-1.75957">
        <ele>71</ele>
        <time>2021-08-06T17:39:54.000Z</time>
      </trkpt>
      <trkpt lat="47.07011" lon="-1.75941">
        <ele>70</ele>
        <time>2021-08-06T17:39:56.000Z</time>
      </trkpt>
      <trkpt lat="47.07025" lon="-1.75924">
        <ele>70</ele>
        <time>2021-08-06T17:39:58.000Z</time>
      </trkpt>
      <trkpt lat="47.07032" lon="-1.75916">
        <ele>70</ele>
        <time>2021-08-06T17:39:59.000Z</time>
      </trkpt>
      <trkpt lat="47.07045" lon="-1.759">
        <ele>69</ele>
        <time>2021-08-06T17:40:01.000Z</time>
      </trkpt>
      <trkpt lat="47.07059" lon="-1.75885">
        <ele>69</ele>
        <time>2021-08-06T17:40:03.000Z</time>
      </trkpt>
      <trkpt lat="47.07072" lon="-1.75869">
        <ele>68</ele>
        <time>2021-08-06T17:40:05.000Z</time>
      </trkpt>
      <trkpt lat="47.07085" lon="-1.75854">
        <ele>67</ele>
        <time>2021-08-06T17:40:07.000Z</time>
      </trkpt>
      <trkpt lat="47.07098" lon="-1.75839">
        <ele>67</ele>
        <time>2021-08-06T17:40:09.000Z</time>
      </trkpt>
      <trkpt lat="47.07111" lon="-1.75824">
        <ele>67</ele>
        <time>2021-08-06T17:40:11.000Z</time>
      </trkpt>
      <trkpt lat="47.07124" lon="-1.75808">
        <ele>67</ele>
        <time>2021-08-06T17:40:13.000Z</time>
      </trkpt>
      <trkpt lat="47.07137" lon="-1.75793">
        <ele>67</ele>
        <time>2021-08-06T17:40:15.000Z</time>
      </trkpt>
      <trkpt lat="47.07151" lon="-1.75778">
        <ele>66</ele>
        <time>2021-08-06T17:40:17.000Z</time>
      </trkpt>
      <trkpt lat="47.07163" lon="-1.75763">
        <ele>67</ele>
        <time>2021-08-06T17:40:19.000Z</time>
      </trkpt>
      <trkpt lat="47.07176" lon="-1.75748">
        <ele>67</ele>
        <time>2021-08-06T17:40:21.000Z</time>
      </trkpt>
      <trkpt lat="47.07189" lon="-1.75733">
        <ele>67</ele>
        <time>2021-08-06T17:40:23.000Z</time>
      </trkpt>
      <trkpt lat="47.07202" lon="-1.75718">
        <ele>67</ele>
        <time>2021-08-06T17:40:25.000Z</time>
      </trkpt>
      <trkpt lat="47.07215" lon="-1.75702">
        <ele>67</ele>
        <time>2021-08-06T17:40:27.000Z</time>
      </trkpt>
      <trkpt lat="47.07228" lon="-1.75687">
        <ele>67</ele>
        <time>2021-08-06T17:40:29.000Z</time>
      </trkpt>
      <trkpt lat="47.07241" lon="-1.75671">
        <ele>67</ele>
        <time>2021-08-06T17:40:31.000Z</time>
      </trkpt>
      <trkpt lat="47.07254" lon="-1.75657">
        <ele>67</ele>
        <time>2021-08-06T17:40:33.000Z</time>
      </trkpt>
      <trkpt lat="47.07268" lon="-1.75643">
        <ele>66</ele>
        <time>2021-08-06T17:40:35.000Z</time>
      </trkpt>
      <trkpt lat="47.07283" lon="-1.7563">
        <ele>66</ele>
        <time>2021-08-06T17:40:37.000Z</time>
      </trkpt>
      <trkpt lat="47.07298" lon="-1.7562">
        <ele>66</ele>
        <time>2021-08-06T17:40:39.000Z</time>
      </trkpt>
      <trkpt lat="47.07314" lon="-1.75611">
        <ele>65</ele>
        <time>2021-08-06T17:40:41.000Z</time>
      </trkpt>
      <trkpt lat="47.07331" lon="-1.75604">
        <ele>64</ele>
        <time>2021-08-06T17:40:43.000Z</time>
      </trkpt>
      <trkpt lat="47.07347" lon="-1.75598">
        <ele>64</ele>
        <time>2021-08-06T17:40:45.000Z</time>
      </trkpt>
      <trkpt lat="47.07364" lon="-1.75591">
        <ele>64</ele>
        <time>2021-08-06T17:40:47.000Z</time>
      </trkpt>
      <trkpt lat="47.0738" lon="-1.75585">
        <ele>64</ele>
        <time>2021-08-06T17:40:49.000Z</time>
      </trkpt>
      <trkpt lat="47.07396" lon="-1.75578">
        <ele>64</ele>
        <time>2021-08-06T17:40:51.000Z</time>
      </trkpt>
      <trkpt lat="47.07413" lon="-1.75573">
        <ele>64</ele>
        <time>2021-08-06T17:40:53.000Z</time>
      </trkpt>
      <trkpt lat="47.07429" lon="-1.75566">
        <ele>64</ele>
        <time>2021-08-06T17:40:55.000Z</time>
      </trkpt>
      <trkpt lat="47.07445" lon="-1.7556">
        <ele>64</ele>
        <time>2021-08-06T17:40:57.000Z</time>
      </trkpt>
      <trkpt lat="47.07462" lon="-1.75554">
        <ele>63</ele>
        <time>2021-08-06T17:40:59.000Z</time>
      </trkpt>
      <trkpt lat="47.07479" lon="-1.75547">
        <ele>63</ele>
        <time>2021-08-06T17:41:01.000Z</time>
      </trkpt>
      <trkpt lat="47.07488" lon="-1.75543">
        <ele>62</ele>
        <time>2021-08-06T17:41:02.000Z</time>
      </trkpt>
      <trkpt lat="47.07504" lon="-1.75536">
        <ele>62</ele>
        <time>2021-08-06T17:41:04.000Z</time>
      </trkpt>
      <trkpt lat="47.07521" lon="-1.7553">
        <ele>62</ele>
        <time>2021-08-06T17:41:06.000Z</time>
      </trkpt>
      <trkpt lat="47.07538" lon="-1.75524">
        <ele>62</ele>
        <time>2021-08-06T17:41:08.000Z</time>
      </trkpt>
      <trkpt lat="47.07554" lon="-1.75517">
        <ele>61</ele>
        <time>2021-08-06T17:41:10.000Z</time>
      </trkpt>
      <trkpt lat="47.07571" lon="-1.75511">
        <ele>61</ele>
        <time>2021-08-06T17:41:12.000Z</time>
      </trkpt>
      <trkpt lat="47.07587" lon="-1.75504">
        <ele>60</ele>
        <time>2021-08-06T17:41:14.000Z</time>
      </trkpt>
      <trkpt lat="47.07604" lon="-1.75498">
        <ele>60</ele>
        <time>2021-08-06T17:41:16.000Z</time>
      </trkpt>
      <trkpt lat="47.07621" lon="-1.75492">
        <ele>59</ele>
        <time>2021-08-06T17:41:18.000Z</time>
      </trkpt>
      <trkpt lat="47.07638" lon="-1.75485">
        <ele>58</ele>
        <time>2021-08-06T17:41:20.000Z</time>
      </trkpt>
      <trkpt lat="47.07656" lon="-1.75479">
        <ele>58</ele>
        <time>2021-08-06T17:41:22.000Z</time>
      </trkpt>
      <trkpt lat="47.07673" lon="-1.75472">
        <ele>57</ele>
        <time>2021-08-06T17:41:24.000Z</time>
      </trkpt>
      <trkpt lat="47.0769" lon="-1.75466">
        <ele>57</ele>
        <time>2021-08-06T17:41:26.000Z</time>
      </trkpt>
      <trkpt lat="47.07707" lon="-1.75459">
        <ele>56</ele>
        <time>2021-08-06T17:41:28.000Z</time>
      </trkpt>
      <trkpt lat="47.07723" lon="-1.75453">
        <ele>56</ele>
        <time>2021-08-06T17:41:30.000Z</time>
      </trkpt>
      <trkpt lat="47.07739" lon="-1.75447">
        <ele>56</ele>
        <time>2021-08-06T17:41:32.000Z</time>
      </trkpt>
      <trkpt lat="47.07755" lon="-1.7544">
        <ele>56</ele>
        <time>2021-08-06T17:41:34.000Z</time>
      </trkpt>
      <trkpt lat="47.07771" lon="-1.75435">
        <ele>56</ele>
        <time>2021-08-06T17:41:36.000Z</time>
      </trkpt>
      <trkpt lat="47.07786" lon="-1.75429">
        <ele>56</ele>
        <time>2021-08-06T17:41:38.000Z</time>
      </trkpt>
      <trkpt lat="47.07801" lon="-1.75425">
        <ele>56</ele>
        <time>2021-08-06T17:41:40.000Z</time>
      </trkpt>
      <trkpt lat="47.07809" lon="-1.75409">
        <ele>56</ele>
        <time>2021-08-06T17:41:42.000Z</time>
      </trkpt>
      <trkpt lat="47.07804" lon="-1.75389">
        <ele>55</ele>
        <time>2021-08-06T17:41:44.000Z</time>
      </trkpt>
      <trkpt lat="47.07796" lon="-1.75372">
        <ele>54</ele>
        <time>2021-08-06T17:41:46.000Z</time>
      </trkpt>
      <trkpt lat="47.07788" lon="-1.75355">
        <ele>54</ele>
        <time>2021-08-06T17:41:48.000Z</time>
      </trkpt>
      <trkpt lat="47.07781" lon="-1.75337">
        <ele>53</ele>
        <time>2021-08-06T17:41:50.000Z</time>
      </trkpt>
      <trkpt lat="47.07773" lon="-1.7532">
        <ele>54</ele>
        <time>2021-08-06T17:41:52.000Z</time>
      </trkpt>
      <trkpt lat="47.07764" lon="-1.75302">
        <ele>55</ele>
        <time>2021-08-06T17:41:54.000Z</time>
      </trkpt>
      <trkpt lat="47.07757" lon="-1.75284">
        <ele>55</ele>
        <time>2021-08-06T17:41:56.000Z</time>
      </trkpt>
      <trkpt lat="47.0775" lon="-1.75266">
        <ele>55</ele>
        <time>2021-08-06T17:41:58.000Z</time>
      </trkpt>
      <trkpt lat="47.07743" lon="-1.75247">
        <ele>56</ele>
        <time>2021-08-06T17:42:00.000Z</time>
      </trkpt>
      <trkpt lat="47.07737" lon="-1.75228">
        <ele>56</ele>
        <time>2021-08-06T17:42:02.000Z</time>
      </trkpt>
      <trkpt lat="47.07732" lon="-1.75209">
        <ele>56</ele>
        <time>2021-08-06T17:42:04.000Z</time>
      </trkpt>
      <trkpt lat="47.07726" lon="-1.75192">
        <ele>56</ele>
        <time>2021-08-06T17:42:06.000Z</time>
      </trkpt>
      <trkpt lat="47.07721" lon="-1.75171">
        <ele>56</ele>
        <time>2021-08-06T17:42:08.000Z</time>
      </trkpt>
      <trkpt lat="47.07716" lon="-1.75151">
        <ele>55</ele>
        <time>2021-08-06T17:42:10.000Z</time>
      </trkpt>
      <trkpt lat="47.07712" lon="-1.75131">
        <ele>54</ele>
        <time>2021-08-06T17:42:12.000Z</time>
      </trkpt>
      <trkpt lat="47.0771" lon="-1.75112">
        <ele>54</ele>
        <time>2021-08-06T17:42:14.000Z</time>
      </trkpt>
      <trkpt lat="47.07709" lon="-1.75093">
        <ele>54</ele>
        <time>2021-08-06T17:42:16.000Z</time>
      </trkpt>
      <trkpt lat="47.07709" lon="-1.75075">
        <ele>55</ele>
        <time>2021-08-06T17:42:18.000Z</time>
      </trkpt>
      <trkpt lat="47.07713" lon="-1.75059">
        <ele>55</ele>
        <time>2021-08-06T17:42:20.000Z</time>
      </trkpt>
      <trkpt lat="47.07725" lon="-1.75056">
        <ele>55</ele>
        <time>2021-08-06T17:42:22.000Z</time>
      </trkpt>
      <trkpt lat="47.07739" lon="-1.75056">
        <ele>55</ele>
        <time>2021-08-06T17:42:24.000Z</time>
      </trkpt>
      <trkpt lat="47.07752" lon="-1.75055">
        <ele>55</ele>
        <time>2021-08-06T17:42:26.000Z</time>
      </trkpt>
      <trkpt lat="47.07766" lon="-1.75054">
        <ele>55</ele>
        <time>2021-08-06T17:42:28.000Z</time>
      </trkpt>
      <trkpt lat="47.0778" lon="-1.75053">
        <ele>55</ele>
        <time>2021-08-06T17:42:30.000Z</time>
      </trkpt>
      <trkpt lat="47.07793" lon="-1.75052">
        <ele>55</ele>
        <time>2021-08-06T17:42:32.000Z</time>
      </trkpt>
      <trkpt lat="47.07806" lon="-1.7505">
        <ele>55</ele>
        <time>2021-08-06T17:42:34.000Z</time>
      </trkpt>
      <trkpt lat="47.0782" lon="-1.7505">
        <ele>55</ele>
        <time>2021-08-06T17:42:36.000Z</time>
      </trkpt>
      <trkpt lat="47.07835" lon="-1.75048">
        <ele>55</ele>
        <time>2021-08-06T17:42:38.000Z</time>
      </trkpt>
      <trkpt lat="47.07849" lon="-1.75043">
        <ele>54</ele>
        <time>2021-08-06T17:42:40.000Z</time>
      </trkpt>
      <trkpt lat="47.07863" lon="-1.75036">
        <ele>54</ele>
        <time>2021-08-06T17:42:42.000Z</time>
      </trkpt>
      <trkpt lat="47.07876" lon="-1.75029">
        <ele>54</ele>
        <time>2021-08-06T17:42:44.000Z</time>
      </trkpt>
      <trkpt lat="47.07889" lon="-1.75021">
        <ele>54</ele>
        <time>2021-08-06T17:42:46.000Z</time>
      </trkpt>
      <trkpt lat="47.07902" lon="-1.75013">
        <ele>54</ele>
        <time>2021-08-06T17:42:48.000Z</time>
      </trkpt>
      <trkpt lat="47.07914" lon="-1.75004">
        <ele>55</ele>
        <time>2021-08-06T17:42:50.000Z</time>
      </trkpt>
      <trkpt lat="47.07927" lon="-1.74997">
        <ele>55</ele>
        <time>2021-08-06T17:42:52.000Z</time>
      </trkpt>
      <trkpt lat="47.0794" lon="-1.74989">
        <ele>55</ele>
        <time>2021-08-06T17:42:54.000Z</time>
      </trkpt>
      <trkpt lat="47.07953" lon="-1.74981">
        <ele>55</ele>
        <time>2021-08-06T17:42:56.000Z</time>
      </trkpt>
      <trkpt lat="47.07966" lon="-1.74973">
        <ele>56</ele>
        <time>2021-08-06T17:42:58.000Z</time>
      </trkpt>
      <trkpt lat="47.07979" lon="-1.74966">
        <ele>57</ele>
        <time>2021-08-06T17:43:00.000Z</time>
      </trkpt>
      <trkpt lat="47.07993" lon="-1.74959">
        <ele>57</ele>
        <time>2021-08-06T17:43:02.000Z</time>
      </trkpt>
      <trkpt lat="47.08006" lon="-1.74951">
        <ele>57</ele>
        <time>2021-08-06T17:43:04.000Z</time>
      </trkpt>
      <trkpt lat="47.08018" lon="-1.74944">
        <ele>57</ele>
        <time>2021-08-06T17:43:06.000Z</time>
      </trkpt>
      <trkpt lat="47.08031" lon="-1.74935">
        <ele>57</ele>
        <time>2021-08-06T17:43:08.000Z</time>
      </trkpt>
      <trkpt lat="47.08043" lon="-1.74926">
        <ele>57</ele>
        <time>2021-08-06T17:43:10.000Z</time>
      </trkpt>
      <trkpt lat="47.08054" lon="-1.74914">
        <ele>57</ele>
        <time>2021-08-06T17:43:12.000Z</time>
      </trkpt>
      <trkpt lat="47.08064" lon="-1.749">
        <ele>57</ele>
        <time>2021-08-06T17:43:14.000Z</time>
      </trkpt>
      <trkpt lat="47.08076" lon="-1.74888">
        <ele>57</ele>
        <time>2021-08-06T17:43:16.000Z</time>
      </trkpt>
      <trkpt lat="47.08089" lon="-1.74879">
        <ele>57</ele>
        <time>2021-08-06T17:43:18.000Z</time>
      </trkpt>
      <trkpt lat="47.08102" lon="-1.74875">
        <ele>57</ele>
        <time>2021-08-06T17:43:20.000Z</time>
      </trkpt>
      <trkpt lat="47.08114" lon="-1.74873">
        <ele>58</ele>
        <time>2021-08-06T17:43:22.000Z</time>
      </trkpt>
      <trkpt lat="47.08127" lon="-1.74869">
        <ele>58</ele>
        <time>2021-08-06T17:43:24.000Z</time>
      </trkpt>
      <trkpt lat="47.08139" lon="-1.74864">
        <ele>58</ele>
        <time>2021-08-06T17:43:26.000Z</time>
      </trkpt>
      <trkpt lat="47.08152" lon="-1.74855">
        <ele>58</ele>
        <time>2021-08-06T17:43:28.000Z</time>
      </trkpt>
      <trkpt lat="47.08164" lon="-1.74846">
        <ele>58</ele>
        <time>2021-08-06T17:43:30.000Z</time>
      </trkpt>
      <trkpt lat="47.08177" lon="-1.74836">
        <ele>57</ele>
        <time>2021-08-06T17:43:32.000Z</time>
      </trkpt>
      <trkpt lat="47.08189" lon="-1.74823">
        <ele>56</ele>
        <time>2021-08-06T17:43:34.000Z</time>
      </trkpt>
      <trkpt lat="47.08196" lon="-1.74808">
        <ele>55</ele>
        <time>2021-08-06T17:43:36.000Z</time>
      </trkpt>
      <trkpt lat="47.08199" lon="-1.74788">
        <ele>54</ele>
        <time>2021-08-06T17:43:38.000Z</time>
      </trkpt>
      <trkpt lat="47.08203" lon="-1.74768">
        <ele>54</ele>
        <time>2021-08-06T17:43:40.000Z</time>
      </trkpt>
      <trkpt lat="47.08208" lon="-1.74747">
        <ele>54</ele>
        <time>2021-08-06T17:43:42.000Z</time>
      </trkpt>
      <trkpt lat="47.08217" lon="-1.74721">
        <ele>54</ele>
        <time>2021-08-06T17:43:45.000Z</time>
      </trkpt>
      <trkpt lat="47.08226" lon="-1.74705">
        <ele>54</ele>
        <time>2021-08-06T17:43:47.000Z</time>
      </trkpt>
      <trkpt lat="47.08234" lon="-1.74689">
        <ele>54</ele>
        <time>2021-08-06T17:43:49.000Z</time>
      </trkpt>
      <trkpt lat="47.08247" lon="-1.74667">
        <ele>54</ele>
        <time>2021-08-06T17:43:52.000Z</time>
      </trkpt>
      <trkpt lat="47.08257" lon="-1.74653">
        <ele>54</ele>
        <time>2021-08-06T17:43:54.000Z</time>
      </trkpt>
      <trkpt lat="47.08268" lon="-1.74638">
        <ele>54</ele>
        <time>2021-08-06T17:43:56.000Z</time>
      </trkpt>
      <trkpt lat="47.08278" lon="-1.74624">
        <ele>55</ele>
        <time>2021-08-06T17:43:58.000Z</time>
      </trkpt>
      <trkpt lat="47.08293" lon="-1.74604">
        <ele>54</ele>
        <time>2021-08-06T17:44:01.000Z</time>
      </trkpt>
      <trkpt lat="47.08304" lon="-1.7459">
        <ele>54</ele>
        <time>2021-08-06T17:44:03.000Z</time>
      </trkpt>
      <trkpt lat="47.08315" lon="-1.7458">
        <ele>54</ele>
        <time>2021-08-06T17:44:05.000Z</time>
      </trkpt>
      <trkpt lat="47.08333" lon="-1.74567">
        <ele>54</ele>
        <time>2021-08-06T17:44:08.000Z</time>
      </trkpt>
      <trkpt lat="47.08345" lon="-1.7456">
        <ele>55</ele>
        <time>2021-08-06T17:44:10.000Z</time>
      </trkpt>
      <trkpt lat="47.08358" lon="-1.74554">
        <ele>56</ele>
        <time>2021-08-06T17:44:12.000Z</time>
      </trkpt>
      <trkpt lat="47.0837" lon="-1.74546">
        <ele>55</ele>
        <time>2021-08-06T17:44:14.000Z</time>
      </trkpt>
      <trkpt lat="47.08381" lon="-1.74534">
        <ele>56</ele>
        <time>2021-08-06T17:44:16.000Z</time>
      </trkpt>
      <trkpt lat="47.08393" lon="-1.7452">
        <ele>56</ele>
        <time>2021-08-06T17:44:18.000Z</time>
      </trkpt>
      <trkpt lat="47.08405" lon="-1.74507">
        <ele>57</ele>
        <time>2021-08-06T17:44:20.000Z</time>
      </trkpt>
      <trkpt lat="47.08417" lon="-1.74494">
        <ele>57</ele>
        <time>2021-08-06T17:44:22.000Z</time>
      </trkpt>
      <trkpt lat="47.08428" lon="-1.74482">
        <ele>57</ele>
        <time>2021-08-06T17:44:24.000Z</time>
      </trkpt>
      <trkpt lat="47.08439" lon="-1.74471">
        <ele>57</ele>
        <time>2021-08-06T17:44:26.000Z</time>
      </trkpt>
      <trkpt lat="47.0845" lon="-1.74458">
        <ele>56</ele>
        <time>2021-08-06T17:44:28.000Z</time>
      </trkpt>
      <trkpt lat="47.0846" lon="-1.74447">
        <ele>56</ele>
        <time>2021-08-06T17:44:30.000Z</time>
      </trkpt>
      <trkpt lat="47.08471" lon="-1.74435">
        <ele>55</ele>
        <time>2021-08-06T17:44:32.000Z</time>
      </trkpt>
      <trkpt lat="47.08481" lon="-1.74424">
        <ele>55</ele>
        <time>2021-08-06T17:44:34.000Z</time>
      </trkpt>
      <trkpt lat="47.08491" lon="-1.74414">
        <ele>54</ele>
        <time>2021-08-06T17:44:36.000Z</time>
      </trkpt>
      <trkpt lat="47.08501" lon="-1.74402">
        <ele>55</ele>
        <time>2021-08-06T17:44:38.000Z</time>
      </trkpt>
      <trkpt lat="47.08511" lon="-1.74388">
        <ele>55</ele>
        <time>2021-08-06T17:44:40.000Z</time>
      </trkpt>
      <trkpt lat="47.08522" lon="-1.74375">
        <ele>54</ele>
        <time>2021-08-06T17:44:42.000Z</time>
      </trkpt>
      <trkpt lat="47.0853" lon="-1.7436">
        <ele>54</ele>
        <time>2021-08-06T17:44:44.000Z</time>
      </trkpt>
      <trkpt lat="47.08534" lon="-1.74342">
        <ele>54</ele>
        <time>2021-08-06T17:44:46.000Z</time>
      </trkpt>
      <trkpt lat="47.08537" lon="-1.74324">
        <ele>54</ele>
        <time>2021-08-06T17:44:48.000Z</time>
      </trkpt>
      <trkpt lat="47.0854" lon="-1.74305">
        <ele>54</ele>
        <time>2021-08-06T17:44:50.000Z</time>
      </trkpt>
      <trkpt lat="47.08545" lon="-1.74287">
        <ele>55</ele>
        <time>2021-08-06T17:44:52.000Z</time>
      </trkpt>
      <trkpt lat="47.08554" lon="-1.74271">
        <ele>54</ele>
        <time>2021-08-06T17:44:54.000Z</time>
      </trkpt>
      <trkpt lat="47.08565" lon="-1.74257">
        <ele>54</ele>
        <time>2021-08-06T17:44:56.000Z</time>
      </trkpt>
      <trkpt lat="47.08577" lon="-1.74244">
        <ele>54</ele>
        <time>2021-08-06T17:44:58.000Z</time>
      </trkpt>
      <trkpt lat="47.08587" lon="-1.74231">
        <ele>53</ele>
        <time>2021-08-06T17:45:00.000Z</time>
      </trkpt>
      <trkpt lat="47.08598" lon="-1.74218">
        <ele>53</ele>
        <time>2021-08-06T17:45:02.000Z</time>
      </trkpt>
      <trkpt lat="47.08609" lon="-1.74204">
        <ele>51</ele>
        <time>2021-08-06T17:45:04.000Z</time>
      </trkpt>
      <trkpt lat="47.0862" lon="-1.74192">
        <ele>51</ele>
        <time>2021-08-06T17:45:06.000Z</time>
      </trkpt>
      <trkpt lat="47.08631" lon="-1.74179">
        <ele>51</ele>
        <time>2021-08-06T17:45:08.000Z</time>
      </trkpt>
      <trkpt lat="47.08641" lon="-1.74167">
        <ele>51</ele>
        <time>2021-08-06T17:45:10.000Z</time>
      </trkpt>
      <trkpt lat="47.08651" lon="-1.74153">
        <ele>51</ele>
        <time>2021-08-06T17:45:12.000Z</time>
      </trkpt>
      <trkpt lat="47.0866" lon="-1.74139">
        <ele>51</ele>
        <time>2021-08-06T17:45:14.000Z</time>
      </trkpt>
      <trkpt lat="47.08668" lon="-1.74122">
        <ele>51</ele>
        <time>2021-08-06T17:45:16.000Z</time>
      </trkpt>
      <trkpt lat="47.08675" lon="-1.74105">
        <ele>50</ele>
        <time>2021-08-06T17:45:18.000Z</time>
      </trkpt>
      <trkpt lat="47.08682" lon="-1.74088">
        <ele>51</ele>
        <time>2021-08-06T17:45:20.000Z</time>
      </trkpt>
      <trkpt lat="47.08689" lon="-1.7407">
        <ele>50</ele>
        <time>2021-08-06T17:45:22.000Z</time>
      </trkpt>
      <trkpt lat="47.08696" lon="-1.74053">
        <ele>50</ele>
        <time>2021-08-06T17:45:24.000Z</time>
      </trkpt>
      <trkpt lat="47.08703" lon="-1.74036">
        <ele>50</ele>
        <time>2021-08-06T17:45:26.000Z</time>
      </trkpt>
      <trkpt lat="47.0871" lon="-1.7402">
        <ele>50</ele>
        <time>2021-08-06T17:45:28.000Z</time>
      </trkpt>
      <trkpt lat="47.08717" lon="-1.74004">
        <ele>50</ele>
        <time>2021-08-06T17:45:30.000Z</time>
      </trkpt>
      <trkpt lat="47.08724" lon="-1.73988">
        <ele>50</ele>
        <time>2021-08-06T17:45:32.000Z</time>
      </trkpt>
      <trkpt lat="47.08732" lon="-1.73973">
        <ele>50</ele>
        <time>2021-08-06T17:45:34.000Z</time>
      </trkpt>
      <trkpt lat="47.08739" lon="-1.73957">
        <ele>49</ele>
        <time>2021-08-06T17:45:36.000Z</time>
      </trkpt>
      <trkpt lat="47.08747" lon="-1.7394">
        <ele>49</ele>
        <time>2021-08-06T17:45:38.000Z</time>
      </trkpt>
      <trkpt lat="47.08755" lon="-1.73923">
        <ele>48</ele>
        <time>2021-08-06T17:45:40.000Z</time>
      </trkpt>
      <trkpt lat="47.08764" lon="-1.73906">
        <ele>48</ele>
        <time>2021-08-06T17:45:42.000Z</time>
      </trkpt>
      <trkpt lat="47.08772" lon="-1.7389">
        <ele>48</ele>
        <time>2021-08-06T17:45:44.000Z</time>
      </trkpt>
      <trkpt lat="47.08781" lon="-1.73875">
        <ele>49</ele>
        <time>2021-08-06T17:45:46.000Z</time>
      </trkpt>
      <trkpt lat="47.08789" lon="-1.73859">
        <ele>49</ele>
        <time>2021-08-06T17:45:48.000Z</time>
      </trkpt>
      <trkpt lat="47.08798" lon="-1.73844">
        <ele>49</ele>
        <time>2021-08-06T17:45:50.000Z</time>
      </trkpt>
      <trkpt lat="47.08808" lon="-1.73831">
        <ele>49</ele>
        <time>2021-08-06T17:45:52.000Z</time>
      </trkpt>
      <trkpt lat="47.08819" lon="-1.73819">
        <ele>49</ele>
        <time>2021-08-06T17:45:54.000Z</time>
      </trkpt>
      <trkpt lat="47.08829" lon="-1.73806">
        <ele>48</ele>
        <time>2021-08-06T17:45:56.000Z</time>
      </trkpt>
      <trkpt lat="47.0884" lon="-1.73793">
        <ele>48</ele>
        <time>2021-08-06T17:45:58.000Z</time>
      </trkpt>
      <trkpt lat="47.0885" lon="-1.73779">
        <ele>49</ele>
        <time>2021-08-06T17:46:00.000Z</time>
      </trkpt>
      <trkpt lat="47.0886" lon="-1.73764">
        <ele>50</ele>
        <time>2021-08-06T17:46:02.000Z</time>
      </trkpt>
      <trkpt lat="47.08869" lon="-1.73748">
        <ele>50</ele>
        <time>2021-08-06T17:46:04.000Z</time>
      </trkpt>
      <trkpt lat="47.08877" lon="-1.73732">
        <ele>50</ele>
        <time>2021-08-06T17:46:06.000Z</time>
      </trkpt>
      <trkpt lat="47.08885" lon="-1.73715">
        <ele>49</ele>
        <time>2021-08-06T17:46:08.000Z</time>
      </trkpt>
      <trkpt lat="47.08894" lon="-1.73698">
        <ele>49</ele>
        <time>2021-08-06T17:46:10.000Z</time>
      </trkpt>
      <trkpt lat="47.08902" lon="-1.73682">
        <ele>49</ele>
        <time>2021-08-06T17:46:12.000Z</time>
      </trkpt>
      <trkpt lat="47.08909" lon="-1.73666">
        <ele>49</ele>
        <time>2021-08-06T17:46:14.000Z</time>
      </trkpt>
      <trkpt lat="47.08915" lon="-1.73648">
        <ele>49</ele>
        <time>2021-08-06T17:46:16.000Z</time>
      </trkpt>
      <trkpt lat="47.08919" lon="-1.73628">
        <ele>50</ele>
        <time>2021-08-06T17:46:18.000Z</time>
      </trkpt>
      <trkpt lat="47.08921" lon="-1.73609">
        <ele>50</ele>
        <time>2021-08-06T17:46:20.000Z</time>
      </trkpt>
      <trkpt lat="47.08924" lon="-1.73591">
        <ele>50</ele>
        <time>2021-08-06T17:46:22.000Z</time>
      </trkpt>
      <trkpt lat="47.08927" lon="-1.73573">
        <ele>50</ele>
        <time>2021-08-06T17:46:24.000Z</time>
      </trkpt>
      <trkpt lat="47.08931" lon="-1.73554">
        <ele>50</ele>
        <time>2021-08-06T17:46:26.000Z</time>
      </trkpt>
      <trkpt lat="47.08935" lon="-1.73536">
        <ele>50</ele>
        <time>2021-08-06T17:46:28.000Z</time>
      </trkpt>
      <trkpt lat="47.0894" lon="-1.73517">
        <ele>50</ele>
        <time>2021-08-06T17:46:30.000Z</time>
      </trkpt>
      <trkpt lat="47.08944" lon="-1.73499">
        <ele>49</ele>
        <time>2021-08-06T17:46:32.000Z</time>
      </trkpt>
      <trkpt lat="47.08949" lon="-1.73482">
        <ele>49</ele>
        <time>2021-08-06T17:46:34.000Z</time>
      </trkpt>
      <trkpt lat="47.08955" lon="-1.73465">
        <ele>49</ele>
        <time>2021-08-06T17:46:36.000Z</time>
      </trkpt>
      <trkpt lat="47.08964" lon="-1.73449">
        <ele>49</ele>
        <time>2021-08-06T17:46:38.000Z</time>
      </trkpt>
      <trkpt lat="47.08973" lon="-1.73435">
        <ele>49</ele>
        <time>2021-08-06T17:46:40.000Z</time>
      </trkpt>
      <trkpt lat="47.08983" lon="-1.73423">
        <ele>49</ele>
        <time>2021-08-06T17:46:42.000Z</time>
      </trkpt>
      <trkpt lat="47.08993" lon="-1.73411">
        <ele>49</ele>
        <time>2021-08-06T17:46:44.000Z</time>
      </trkpt>
      <trkpt lat="47.09004" lon="-1.73399">
        <ele>49</ele>
        <time>2021-08-06T17:46:46.000Z</time>
      </trkpt>
      <trkpt lat="47.09014" lon="-1.73387">
        <ele>50</ele>
        <time>2021-08-06T17:46:48.000Z</time>
      </trkpt>
      <trkpt lat="47.09025" lon="-1.73376">
        <ele>52</ele>
        <time>2021-08-06T17:46:50.000Z</time>
      </trkpt>
      <trkpt lat="47.09036" lon="-1.73366">
        <ele>52</ele>
        <time>2021-08-06T17:46:52.000Z</time>
      </trkpt>
      <trkpt lat="47.09047" lon="-1.73356">
        <ele>53</ele>
        <time>2021-08-06T17:46:54.000Z</time>
      </trkpt>
      <trkpt lat="47.09058" lon="-1.73347">
        <ele>53</ele>
        <time>2021-08-06T17:46:56.000Z</time>
      </trkpt>
      <trkpt lat="47.0907" lon="-1.73336">
        <ele>54</ele>
        <time>2021-08-06T17:46:58.000Z</time>
      </trkpt>
      <trkpt lat="47.09082" lon="-1.73326">
        <ele>55</ele>
        <time>2021-08-06T17:47:00.000Z</time>
      </trkpt>
      <trkpt lat="47.09095" lon="-1.73313">
        <ele>54</ele>
        <time>2021-08-06T17:47:02.000Z</time>
      </trkpt>
      <trkpt lat="47.09109" lon="-1.73301">
        <ele>54</ele>
        <time>2021-08-06T17:47:04.000Z</time>
      </trkpt>
      <trkpt lat="47.09122" lon="-1.73291">
        <ele>53</ele>
        <time>2021-08-06T17:47:06.000Z</time>
      </trkpt>
      <trkpt lat="47.09135" lon="-1.73282">
        <ele>54</ele>
        <time>2021-08-06T17:47:08.000Z</time>
      </trkpt>
      <trkpt lat="47.09147" lon="-1.73273">
        <ele>54</ele>
        <time>2021-08-06T17:47:10.000Z</time>
      </trkpt>
      <trkpt lat="47.0916" lon="-1.73264">
        <ele>53</ele>
        <time>2021-08-06T17:47:12.000Z</time>
      </trkpt>
      <trkpt lat="47.09172" lon="-1.73254">
        <ele>52</ele>
        <time>2021-08-06T17:47:14.000Z</time>
      </trkpt>
      <trkpt lat="47.09184" lon="-1.73245">
        <ele>52</ele>
        <time>2021-08-06T17:47:16.000Z</time>
      </trkpt>
      <trkpt lat="47.09196" lon="-1.73235">
        <ele>52</ele>
        <time>2021-08-06T17:47:18.000Z</time>
      </trkpt>
      <trkpt lat="47.09207" lon="-1.73226">
        <ele>51</ele>
        <time>2021-08-06T17:47:20.000Z</time>
      </trkpt>
      <trkpt lat="47.09219" lon="-1.73216">
        <ele>51</ele>
        <time>2021-08-06T17:47:22.000Z</time>
      </trkpt>
      <trkpt lat="47.0923" lon="-1.73205">
        <ele>50</ele>
        <time>2021-08-06T17:47:24.000Z</time>
      </trkpt>
      <trkpt lat="47.09242" lon="-1.73194">
        <ele>50</ele>
        <time>2021-08-06T17:47:26.000Z</time>
      </trkpt>
      <trkpt lat="47.09254" lon="-1.73185">
        <ele>50</ele>
        <time>2021-08-06T17:47:28.000Z</time>
      </trkpt>
      <trkpt lat="47.09265" lon="-1.73177">
        <ele>51</ele>
        <time>2021-08-06T17:47:30.000Z</time>
      </trkpt>
      <trkpt lat="47.09277" lon="-1.73166">
        <ele>51</ele>
        <time>2021-08-06T17:47:32.000Z</time>
      </trkpt>
      <trkpt lat="47.09288" lon="-1.73156">
        <ele>51</ele>
        <time>2021-08-06T17:47:34.000Z</time>
      </trkpt>
      <trkpt lat="47.09302" lon="-1.73145">
        <ele>52</ele>
        <time>2021-08-06T17:47:36.000Z</time>
      </trkpt>
      <trkpt lat="47.09315" lon="-1.73136">
        <ele>52</ele>
        <time>2021-08-06T17:47:38.000Z</time>
      </trkpt>
      <trkpt lat="47.09329" lon="-1.73128">
        <ele>52</ele>
        <time>2021-08-06T17:47:40.000Z</time>
      </trkpt>
      <trkpt lat="47.09341" lon="-1.73119">
        <ele>53</ele>
        <time>2021-08-06T17:47:42.000Z</time>
      </trkpt>
      <trkpt lat="47.09353" lon="-1.73109">
        <ele>53</ele>
        <time>2021-08-06T17:47:44.000Z</time>
      </trkpt>
      <trkpt lat="47.09364" lon="-1.73099">
        <ele>53</ele>
        <time>2021-08-06T17:47:46.000Z</time>
      </trkpt>
      <trkpt lat="47.09373" lon="-1.73086">
        <ele>53</ele>
        <time>2021-08-06T17:47:48.000Z</time>
      </trkpt>
      <trkpt lat="47.09381" lon="-1.73071">
        <ele>52</ele>
        <time>2021-08-06T17:47:50.000Z</time>
      </trkpt>
      <trkpt lat="47.09384" lon="-1.73052">
        <ele>53</ele>
        <time>2021-08-06T17:47:52.000Z</time>
      </trkpt>
      <trkpt lat="47.09386" lon="-1.73033">
        <ele>54</ele>
        <time>2021-08-06T17:47:54.000Z</time>
      </trkpt>
      <trkpt lat="47.09387" lon="-1.73013">
        <ele>54</ele>
        <time>2021-08-06T17:47:56.000Z</time>
      </trkpt>
      <trkpt lat="47.09389" lon="-1.72992">
        <ele>53</ele>
        <time>2021-08-06T17:47:58.000Z</time>
      </trkpt>
      <trkpt lat="47.09393" lon="-1.72973">
        <ele>54</ele>
        <time>2021-08-06T17:48:00.000Z</time>
      </trkpt>
      <trkpt lat="47.09398" lon="-1.72954">
        <ele>54</ele>
        <time>2021-08-06T17:48:02.000Z</time>
      </trkpt>
      <trkpt lat="47.09405" lon="-1.72937">
        <ele>54</ele>
        <time>2021-08-06T17:48:04.000Z</time>
      </trkpt>
      <trkpt lat="47.09413" lon="-1.7292">
        <ele>54</ele>
        <time>2021-08-06T17:48:06.000Z</time>
      </trkpt>
      <trkpt lat="47.09421" lon="-1.72904">
        <ele>54</ele>
        <time>2021-08-06T17:48:08.000Z</time>
      </trkpt>
      <trkpt lat="47.09429" lon="-1.72888">
        <ele>55</ele>
        <time>2021-08-06T17:48:10.000Z</time>
      </trkpt>
      <trkpt lat="47.09437" lon="-1.72872">
        <ele>55</ele>
        <time>2021-08-06T17:48:12.000Z</time>
      </trkpt>
      <trkpt lat="47.09445" lon="-1.72856">
        <ele>55</ele>
        <time>2021-08-06T17:48:14.000Z</time>
      </trkpt>
      <trkpt lat="47.09453" lon="-1.72839">
        <ele>54</ele>
        <time>2021-08-06T17:48:16.000Z</time>
      </trkpt>
      <trkpt lat="47.09461" lon="-1.72823">
        <ele>54</ele>
        <time>2021-08-06T17:48:18.000Z</time>
      </trkpt>
      <trkpt lat="47.09468" lon="-1.72807">
        <ele>54</ele>
        <time>2021-08-06T17:48:20.000Z</time>
      </trkpt>
      <trkpt lat="47.09476" lon="-1.7279">
        <ele>54</ele>
        <time>2021-08-06T17:48:22.000Z</time>
      </trkpt>
      <trkpt lat="47.09483" lon="-1.72774">
        <ele>54</ele>
        <time>2021-08-06T17:48:24.000Z</time>
      </trkpt>
      <trkpt lat="47.09491" lon="-1.72757">
        <ele>54</ele>
        <time>2021-08-06T17:48:26.000Z</time>
      </trkpt>
      <trkpt lat="47.09499" lon="-1.72741">
        <ele>54</ele>
        <time>2021-08-06T17:48:28.000Z</time>
      </trkpt>
      <trkpt lat="47.09507" lon="-1.72725">
        <ele>53</ele>
        <time>2021-08-06T17:48:30.000Z</time>
      </trkpt>
      <trkpt lat="47.09515" lon="-1.72709">
        <ele>53</ele>
        <time>2021-08-06T17:48:32.000Z</time>
      </trkpt>
      <trkpt lat="47.09524" lon="-1.72694">
        <ele>53</ele>
        <time>2021-08-06T17:48:34.000Z</time>
      </trkpt>
      <trkpt lat="47.09534" lon="-1.72681">
        <ele>53</ele>
        <time>2021-08-06T17:48:36.000Z</time>
      </trkpt>
      <trkpt lat="47.09547" lon="-1.72677">
        <ele>53</ele>
        <time>2021-08-06T17:48:38.000Z</time>
      </trkpt>
      <trkpt lat="47.0956" lon="-1.72681">
        <ele>53</ele>
        <time>2021-08-06T17:48:40.000Z</time>
      </trkpt>
      <trkpt lat="47.09573" lon="-1.72687">
        <ele>54</ele>
        <time>2021-08-06T17:48:42.000Z</time>
      </trkpt>
      <trkpt lat="47.09585" lon="-1.72692">
        <ele>54</ele>
        <time>2021-08-06T17:48:44.000Z</time>
      </trkpt>
      <trkpt lat="47.09596" lon="-1.72698">
        <ele>55</ele>
        <time>2021-08-06T17:48:46.000Z</time>
      </trkpt>
      <trkpt lat="47.09608" lon="-1.72703">
        <ele>56</ele>
        <time>2021-08-06T17:48:48.000Z</time>
      </trkpt>
      <trkpt lat="47.0962" lon="-1.7271">
        <ele>56</ele>
        <time>2021-08-06T17:48:50.000Z</time>
      </trkpt>
      <trkpt lat="47.09632" lon="-1.72715">
        <ele>56</ele>
        <time>2021-08-06T17:48:52.000Z</time>
      </trkpt>
      <trkpt lat="47.09645" lon="-1.7272">
        <ele>57</ele>
        <time>2021-08-06T17:48:54.000Z</time>
      </trkpt>
      <trkpt lat="47.09657" lon="-1.72724">
        <ele>57</ele>
        <time>2021-08-06T17:48:56.000Z</time>
      </trkpt>
      <trkpt lat="47.0967" lon="-1.72727">
        <ele>57</ele>
        <time>2021-08-06T17:48:58.000Z</time>
      </trkpt>
      <trkpt lat="47.09683" lon="-1.7273">
        <ele>57</ele>
        <time>2021-08-06T17:49:00.000Z</time>
      </trkpt>
      <trkpt lat="47.09694" lon="-1.72736">
        <ele>57</ele>
        <time>2021-08-06T17:49:02.000Z</time>
      </trkpt>
      <trkpt lat="47.09705" lon="-1.72746">
        <ele>56</ele>
        <time>2021-08-06T17:49:04.000Z</time>
      </trkpt>
      <trkpt lat="47.09714" lon="-1.7276">
        <ele>56</ele>
        <time>2021-08-06T17:49:06.000Z</time>
      </trkpt>
      <trkpt lat="47.09721" lon="-1.72776">
        <ele>57</ele>
        <time>2021-08-06T17:49:08.000Z</time>
      </trkpt>
      <trkpt lat="47.09727" lon="-1.72792">
        <ele>57</ele>
        <time>2021-08-06T17:49:10.000Z</time>
      </trkpt>
      <trkpt lat="47.09734" lon="-1.72806">
        <ele>57</ele>
        <time>2021-08-06T17:49:12.000Z</time>
      </trkpt>
      <trkpt lat="47.0974" lon="-1.72821">
        <ele>57</ele>
        <time>2021-08-06T17:49:14.000Z</time>
      </trkpt>
      <trkpt lat="47.09747" lon="-1.72836">
        <ele>58</ele>
        <time>2021-08-06T17:49:16.000Z</time>
      </trkpt>
      <trkpt lat="47.09753" lon="-1.72851">
        <ele>58</ele>
        <time>2021-08-06T17:49:18.000Z</time>
      </trkpt>
      <trkpt lat="47.09759" lon="-1.72865">
        <ele>58</ele>
        <time>2021-08-06T17:49:20.000Z</time>
      </trkpt>
      <trkpt lat="47.09769" lon="-1.72872">
        <ele>58</ele>
        <time>2021-08-06T17:49:22.000Z</time>
      </trkpt>
      <trkpt lat="47.09779" lon="-1.72867">
        <ele>59</ele>
        <time>2021-08-06T17:49:24.000Z</time>
      </trkpt>
      <trkpt lat="47.09787" lon="-1.72856">
        <ele>59</ele>
        <time>2021-08-06T17:49:26.000Z</time>
      </trkpt>
      <trkpt lat="47.09797" lon="-1.72844">
        <ele>59</ele>
        <time>2021-08-06T17:49:28.000Z</time>
      </trkpt>
      <trkpt lat="47.09809" lon="-1.72834">
        <ele>59</ele>
        <time>2021-08-06T17:49:30.000Z</time>
      </trkpt>
      <trkpt lat="47.09822" lon="-1.72825">
        <ele>60</ele>
        <time>2021-08-06T17:49:32.000Z</time>
      </trkpt>
      <trkpt lat="47.09834" lon="-1.72819">
        <ele>60</ele>
        <time>2021-08-06T17:49:34.000Z</time>
      </trkpt>
      <trkpt lat="47.09846" lon="-1.72813">
        <ele>60</ele>
        <time>2021-08-06T17:49:36.000Z</time>
      </trkpt>
      <trkpt lat="47.09858" lon="-1.72806">
        <ele>60</ele>
        <time>2021-08-06T17:49:38.000Z</time>
      </trkpt>
      <trkpt lat="47.0987" lon="-1.728">
        <ele>60</ele>
        <time>2021-08-06T17:49:40.000Z</time>
      </trkpt>
      <trkpt lat="47.09882" lon="-1.72794">
        <ele>60</ele>
        <time>2021-08-06T17:49:42.000Z</time>
      </trkpt>
      <trkpt lat="47.09894" lon="-1.72788">
        <ele>61</ele>
        <time>2021-08-06T17:49:44.000Z</time>
      </trkpt>
      <trkpt lat="47.09906" lon="-1.72782">
        <ele>60</ele>
        <time>2021-08-06T17:49:46.000Z</time>
      </trkpt>
      <trkpt lat="47.09917" lon="-1.72775">
        <ele>60</ele>
        <time>2021-08-06T17:49:48.000Z</time>
      </trkpt>
      <trkpt lat="47.0993" lon="-1.72769">
        <ele>60</ele>
        <time>2021-08-06T17:49:50.000Z</time>
      </trkpt>
      <trkpt lat="47.09942" lon="-1.72763">
        <ele>60</ele>
        <time>2021-08-06T17:49:52.000Z</time>
      </trkpt>
      <trkpt lat="47.09954" lon="-1.72758">
        <ele>61</ele>
        <time>2021-08-06T17:49:54.000Z</time>
      </trkpt>
      <trkpt lat="47.09966" lon="-1.72752">
        <ele>61</ele>
        <time>2021-08-06T17:49:56.000Z</time>
      </trkpt>
      <trkpt lat="47.09978" lon="-1.72745">
        <ele>60</ele>
        <time>2021-08-06T17:49:58.000Z</time>
      </trkpt>
      <trkpt lat="47.0999" lon="-1.72736">
        <ele>60</ele>
        <time>2021-08-06T17:50:00.000Z</time>
      </trkpt>
      <trkpt lat="47.10002" lon="-1.72728">
        <ele>60</ele>
        <time>2021-08-06T17:50:02.000Z</time>
      </trkpt>
      <trkpt lat="47.10013" lon="-1.72719">
        <ele>60</ele>
        <time>2021-08-06T17:50:04.000Z</time>
      </trkpt>
      <trkpt lat="47.10025" lon="-1.7271">
        <ele>60</ele>
        <time>2021-08-06T17:50:06.000Z</time>
      </trkpt>
      <trkpt lat="47.10036" lon="-1.727">
        <ele>60</ele>
        <time>2021-08-06T17:50:08.000Z</time>
      </trkpt>
      <trkpt lat="47.10047" lon="-1.72689">
        <ele>60</ele>
        <time>2021-08-06T17:50:10.000Z</time>
      </trkpt>
      <trkpt lat="47.10059" lon="-1.72678">
        <ele>60</ele>
        <time>2021-08-06T17:50:12.000Z</time>
      </trkpt>
      <trkpt lat="47.10069" lon="-1.72667">
        <ele>60</ele>
        <time>2021-08-06T17:50:14.000Z</time>
      </trkpt>
      <trkpt lat="47.1008" lon="-1.72656">
        <ele>60</ele>
        <time>2021-08-06T17:50:16.000Z</time>
      </trkpt>
      <trkpt lat="47.10091" lon="-1.72645">
        <ele>60</ele>
        <time>2021-08-06T17:50:18.000Z</time>
      </trkpt>
      <trkpt lat="47.10102" lon="-1.72635">
        <ele>60</ele>
        <time>2021-08-06T17:50:20.000Z</time>
      </trkpt>
      <trkpt lat="47.10113" lon="-1.72624">
        <ele>61</ele>
        <time>2021-08-06T17:50:22.000Z</time>
      </trkpt>
      <trkpt lat="47.10123" lon="-1.72614">
        <ele>61</ele>
        <time>2021-08-06T17:50:24.000Z</time>
      </trkpt>
      <trkpt lat="47.10134" lon="-1.72603">
        <ele>61</ele>
        <time>2021-08-06T17:50:26.000Z</time>
      </trkpt>
      <trkpt lat="47.10143" lon="-1.72592">
        <ele>61</ele>
        <time>2021-08-06T17:50:28.000Z</time>
      </trkpt>
      <trkpt lat="47.10153" lon="-1.7258">
        <ele>61</ele>
        <time>2021-08-06T17:50:30.000Z</time>
      </trkpt>
      <trkpt lat="47.10163" lon="-1.72567">
        <ele>61</ele>
        <time>2021-08-06T17:50:32.000Z</time>
      </trkpt>
      <trkpt lat="47.10172" lon="-1.72555">
        <ele>61</ele>
        <time>2021-08-06T17:50:34.000Z</time>
      </trkpt>
      <trkpt lat="47.10182" lon="-1.72542">
        <ele>61</ele>
        <time>2021-08-06T17:50:36.000Z</time>
      </trkpt>
      <trkpt lat="47.10191" lon="-1.72528">
        <ele>60</ele>
        <time>2021-08-06T17:50:38.000Z</time>
      </trkpt>
      <trkpt lat="47.102" lon="-1.72514">
        <ele>60</ele>
        <time>2021-08-06T17:50:40.000Z</time>
      </trkpt>
      <trkpt lat="47.10209" lon="-1.72499">
        <ele>59</ele>
        <time>2021-08-06T17:50:42.000Z</time>
      </trkpt>
      <trkpt lat="47.10218" lon="-1.72483">
        <ele>59</ele>
        <time>2021-08-06T17:50:44.000Z</time>
      </trkpt>
      <trkpt lat="47.10227" lon="-1.72468">
        <ele>59</ele>
        <time>2021-08-06T17:50:46.000Z</time>
      </trkpt>
      <trkpt lat="47.10236" lon="-1.72452">
        <ele>59</ele>
        <time>2021-08-06T17:50:48.000Z</time>
      </trkpt>
      <trkpt lat="47.10245" lon="-1.72436">
        <ele>59</ele>
        <time>2021-08-06T17:50:50.000Z</time>
      </trkpt>
      <trkpt lat="47.10255" lon="-1.72422">
        <ele>58</ele>
        <time>2021-08-06T17:50:52.000Z</time>
      </trkpt>
      <trkpt lat="47.10266" lon="-1.72409">
        <ele>57</ele>
        <time>2021-08-06T17:50:54.000Z</time>
      </trkpt>
      <trkpt lat="47.10279" lon="-1.72401">
        <ele>57</ele>
        <time>2021-08-06T17:50:56.000Z</time>
      </trkpt>
      <trkpt lat="47.10292" lon="-1.72392">
        <ele>57</ele>
        <time>2021-08-06T17:50:58.000Z</time>
      </trkpt>
      <trkpt lat="47.10305" lon="-1.72385">
        <ele>57</ele>
        <time>2021-08-06T17:51:00.000Z</time>
      </trkpt>
      <trkpt lat="47.10318" lon="-1.72379">
        <ele>58</ele>
        <time>2021-08-06T17:51:02.000Z</time>
      </trkpt>
      <trkpt lat="47.10332" lon="-1.72372">
        <ele>58</ele>
        <time>2021-08-06T17:51:04.000Z</time>
      </trkpt>
      <trkpt lat="47.10345" lon="-1.72366">
        <ele>58</ele>
        <time>2021-08-06T17:51:06.000Z</time>
      </trkpt>
      <trkpt lat="47.10358" lon="-1.72359">
        <ele>58</ele>
        <time>2021-08-06T17:51:08.000Z</time>
      </trkpt>
      <trkpt lat="47.10371" lon="-1.72353">
        <ele>58</ele>
        <time>2021-08-06T17:51:10.000Z</time>
      </trkpt>
      <trkpt lat="47.10385" lon="-1.72346">
        <ele>57</ele>
        <time>2021-08-06T17:51:12.000Z</time>
      </trkpt>
      <trkpt lat="47.10399" lon="-1.72339">
        <ele>57</ele>
        <time>2021-08-06T17:51:14.000Z</time>
      </trkpt>
      <trkpt lat="47.10412" lon="-1.7233">
        <ele>57</ele>
        <time>2021-08-06T17:51:16.000Z</time>
      </trkpt>
      <trkpt lat="47.10426" lon="-1.72322">
        <ele>56</ele>
        <time>2021-08-06T17:51:18.000Z</time>
      </trkpt>
      <trkpt lat="47.1044" lon="-1.72315">
        <ele>56</ele>
        <time>2021-08-06T17:51:20.000Z</time>
      </trkpt>
      <trkpt lat="47.10454" lon="-1.72308">
        <ele>55</ele>
        <time>2021-08-06T17:51:22.000Z</time>
      </trkpt>
      <trkpt lat="47.10468" lon="-1.72301">
        <ele>55</ele>
        <time>2021-08-06T17:51:24.000Z</time>
      </trkpt>
      <trkpt lat="47.10482" lon="-1.72293">
        <ele>55</ele>
        <time>2021-08-06T17:51:26.000Z</time>
      </trkpt>
      <trkpt lat="47.10496" lon="-1.72285">
        <ele>55</ele>
        <time>2021-08-06T17:51:28.000Z</time>
      </trkpt>
      <trkpt lat="47.1051" lon="-1.72275">
        <ele>55</ele>
        <time>2021-08-06T17:51:30.000Z</time>
      </trkpt>
      <trkpt lat="47.10523" lon="-1.72263">
        <ele>54</ele>
        <time>2021-08-06T17:51:32.000Z</time>
      </trkpt>
      <trkpt lat="47.10535" lon="-1.72251">
        <ele>54</ele>
        <time>2021-08-06T17:51:34.000Z</time>
      </trkpt>
      <trkpt lat="47.10545" lon="-1.72235">
        <ele>54</ele>
        <time>2021-08-06T17:51:36.000Z</time>
      </trkpt>
      <trkpt lat="47.10555" lon="-1.72219">
        <ele>54</ele>
        <time>2021-08-06T17:51:38.000Z</time>
      </trkpt>
      <trkpt lat="47.10565" lon="-1.72205">
        <ele>54</ele>
        <time>2021-08-06T17:51:40.000Z</time>
      </trkpt>
      <trkpt lat="47.10574" lon="-1.7219">
        <ele>54</ele>
        <time>2021-08-06T17:51:42.000Z</time>
      </trkpt>
      <trkpt lat="47.10584" lon="-1.72175">
        <ele>55</ele>
        <time>2021-08-06T17:51:44.000Z</time>
      </trkpt>
      <trkpt lat="47.10593" lon="-1.72161">
        <ele>55</ele>
        <time>2021-08-06T17:51:46.000Z</time>
      </trkpt>
      <trkpt lat="47.10604" lon="-1.72148">
        <ele>55</ele>
        <time>2021-08-06T17:51:48.000Z</time>
      </trkpt>
      <trkpt lat="47.10615" lon="-1.72138">
        <ele>56</ele>
        <time>2021-08-06T17:51:50.000Z</time>
      </trkpt>
      <trkpt lat="47.10628" lon="-1.7213">
        <ele>56</ele>
        <time>2021-08-06T17:51:52.000Z</time>
      </trkpt>
      <trkpt lat="47.10641" lon="-1.72124">
        <ele>56</ele>
        <time>2021-08-06T17:51:54.000Z</time>
      </trkpt>
      <trkpt lat="47.10654" lon="-1.72119">
        <ele>56</ele>
        <time>2021-08-06T17:51:56.000Z</time>
      </trkpt>
      <trkpt lat="47.10668" lon="-1.72116">
        <ele>56</ele>
        <time>2021-08-06T17:51:58.000Z</time>
      </trkpt>
      <trkpt lat="47.10681" lon="-1.72112">
        <ele>56</ele>
        <time>2021-08-06T17:52:00.000Z</time>
      </trkpt>
      <trkpt lat="47.10694" lon="-1.72108">
        <ele>57</ele>
        <time>2021-08-06T17:52:02.000Z</time>
      </trkpt>
      <trkpt lat="47.10706" lon="-1.72104">
        <ele>56</ele>
        <time>2021-08-06T17:52:04.000Z</time>
      </trkpt>
      <trkpt lat="47.10719" lon="-1.721">
        <ele>56</ele>
        <time>2021-08-06T17:52:06.000Z</time>
      </trkpt>
      <trkpt lat="47.10733" lon="-1.72097">
        <ele>55</ele>
        <time>2021-08-06T17:52:08.000Z</time>
      </trkpt>
      <trkpt lat="47.10747" lon="-1.72095">
        <ele>54</ele>
        <time>2021-08-06T17:52:10.000Z</time>
      </trkpt>
      <trkpt lat="47.10761" lon="-1.72096">
        <ele>54</ele>
        <time>2021-08-06T17:52:12.000Z</time>
      </trkpt>
      <trkpt lat="47.10774" lon="-1.721">
        <ele>54</ele>
        <time>2021-08-06T17:52:14.000Z</time>
      </trkpt>
      <trkpt lat="47.10788" lon="-1.72105">
        <ele>54</ele>
        <time>2021-08-06T17:52:16.000Z</time>
      </trkpt>
      <trkpt lat="47.10801" lon="-1.72113">
        <ele>54</ele>
        <time>2021-08-06T17:52:18.000Z</time>
      </trkpt>
      <trkpt lat="47.10812" lon="-1.72123">
        <ele>54</ele>
        <time>2021-08-06T17:52:20.000Z</time>
      </trkpt>
      <trkpt lat="47.10822" lon="-1.72136">
        <ele>54</ele>
        <time>2021-08-06T17:52:22.000Z</time>
      </trkpt>
      <trkpt lat="47.10835" lon="-1.7214">
        <ele>54</ele>
        <time>2021-08-06T17:52:24.000Z</time>
      </trkpt>
      <trkpt lat="47.10847" lon="-1.72137">
        <ele>55</ele>
        <time>2021-08-06T17:52:26.000Z</time>
      </trkpt>
      <trkpt lat="47.10859" lon="-1.72129">
        <ele>55</ele>
        <time>2021-08-06T17:52:28.000Z</time>
      </trkpt>
      <trkpt lat="47.1087" lon="-1.72116">
        <ele>54</ele>
        <time>2021-08-06T17:52:30.000Z</time>
      </trkpt>
      <trkpt lat="47.1088" lon="-1.721">
        <ele>54</ele>
        <time>2021-08-06T17:52:32.000Z</time>
      </trkpt>
      <trkpt lat="47.10889" lon="-1.72085">
        <ele>55</ele>
        <time>2021-08-06T17:52:34.000Z</time>
      </trkpt>
      <trkpt lat="47.10898" lon="-1.7207">
        <ele>56</ele>
        <time>2021-08-06T17:52:36.000Z</time>
      </trkpt>
      <trkpt lat="47.10908" lon="-1.72057">
        <ele>56</ele>
        <time>2021-08-06T17:52:38.000Z</time>
      </trkpt>
      <trkpt lat="47.10918" lon="-1.72043">
        <ele>56</ele>
        <time>2021-08-06T17:52:40.000Z</time>
      </trkpt>
      <trkpt lat="47.10928" lon="-1.7203">
        <ele>57</ele>
        <time>2021-08-06T17:52:42.000Z</time>
      </trkpt>
      <trkpt lat="47.10938" lon="-1.72015">
        <ele>57</ele>
        <time>2021-08-06T17:52:44.000Z</time>
      </trkpt>
      <trkpt lat="47.10948" lon="-1.72">
        <ele>57</ele>
        <time>2021-08-06T17:52:46.000Z</time>
      </trkpt>
      <trkpt lat="47.10957" lon="-1.71986">
        <ele>57</ele>
        <time>2021-08-06T17:52:48.000Z</time>
      </trkpt>
      <trkpt lat="47.10967" lon="-1.71973">
        <ele>57</ele>
        <time>2021-08-06T17:52:50.000Z</time>
      </trkpt>
      <trkpt lat="47.10976" lon="-1.71959">
        <ele>57</ele>
        <time>2021-08-06T17:52:52.000Z</time>
      </trkpt>
      <trkpt lat="47.10986" lon="-1.71945">
        <ele>57</ele>
        <time>2021-08-06T17:52:54.000Z</time>
      </trkpt>
      <trkpt lat="47.10996" lon="-1.71932">
        <ele>58</ele>
        <time>2021-08-06T17:52:56.000Z</time>
      </trkpt>
      <trkpt lat="47.11005" lon="-1.71918">
        <ele>58</ele>
        <time>2021-08-06T17:52:58.000Z</time>
      </trkpt>
      <trkpt lat="47.11014" lon="-1.71905">
        <ele>58</ele>
        <time>2021-08-06T17:53:00.000Z</time>
      </trkpt>
      <trkpt lat="47.11024" lon="-1.71892">
        <ele>59</ele>
        <time>2021-08-06T17:53:02.000Z</time>
      </trkpt>
      <trkpt lat="47.11033" lon="-1.71879">
        <ele>59</ele>
        <time>2021-08-06T17:53:04.000Z</time>
      </trkpt>
      <trkpt lat="47.11042" lon="-1.71865">
        <ele>58</ele>
        <time>2021-08-06T17:53:06.000Z</time>
      </trkpt>
      <trkpt lat="47.11052" lon="-1.71852">
        <ele>58</ele>
        <time>2021-08-06T17:53:08.000Z</time>
      </trkpt>
      <trkpt lat="47.11063" lon="-1.71839">
        <ele>58</ele>
        <time>2021-08-06T17:53:10.000Z</time>
      </trkpt>
      <trkpt lat="47.11074" lon="-1.71827">
        <ele>58</ele>
        <time>2021-08-06T17:53:12.000Z</time>
      </trkpt>
      <trkpt lat="47.11085" lon="-1.71815">
        <ele>58</ele>
        <time>2021-08-06T17:53:14.000Z</time>
      </trkpt>
      <trkpt lat="47.11096" lon="-1.71804">
        <ele>57</ele>
        <time>2021-08-06T17:53:16.000Z</time>
      </trkpt>
      <trkpt lat="47.11107" lon="-1.71793">
        <ele>57</ele>
        <time>2021-08-06T17:53:18.000Z</time>
      </trkpt>
      <trkpt lat="47.11119" lon="-1.71783">
        <ele>57</ele>
        <time>2021-08-06T17:53:20.000Z</time>
      </trkpt>
      <trkpt lat="47.1113" lon="-1.71773">
        <ele>57</ele>
        <time>2021-08-06T17:53:22.000Z</time>
      </trkpt>
      <trkpt lat="47.11142" lon="-1.71762">
        <ele>57</ele>
        <time>2021-08-06T17:53:24.000Z</time>
      </trkpt>
      <trkpt lat="47.11154" lon="-1.71751">
        <ele>56</ele>
        <time>2021-08-06T17:53:26.000Z</time>
      </trkpt>
      <trkpt lat="47.11167" lon="-1.7174">
        <ele>56</ele>
        <time>2021-08-06T17:53:28.000Z</time>
      </trkpt>
      <trkpt lat="47.11179" lon="-1.7173">
        <ele>56</ele>
        <time>2021-08-06T17:53:30.000Z</time>
      </trkpt>
      <trkpt lat="47.11192" lon="-1.71719">
        <ele>56</ele>
        <time>2021-08-06T17:53:32.000Z</time>
      </trkpt>
      <trkpt lat="47.11204" lon="-1.71708">
        <ele>56</ele>
        <time>2021-08-06T17:53:34.000Z</time>
      </trkpt>
      <trkpt lat="47.11216" lon="-1.71697">
        <ele>56</ele>
        <time>2021-08-06T17:53:36.000Z</time>
      </trkpt>
      <trkpt lat="47.11229" lon="-1.71685">
        <ele>56</ele>
        <time>2021-08-06T17:53:38.000Z</time>
      </trkpt>
      <trkpt lat="47.11242" lon="-1.71675">
        <ele>56</ele>
        <time>2021-08-06T17:53:40.000Z</time>
      </trkpt>
      <trkpt lat="47.11256" lon="-1.71671">
        <ele>56</ele>
        <time>2021-08-06T17:53:42.000Z</time>
      </trkpt>
      <trkpt lat="47.11271" lon="-1.71674">
        <ele>55</ele>
        <time>2021-08-06T17:53:44.000Z</time>
      </trkpt>
      <trkpt lat="47.11286" lon="-1.71672">
        <ele>55</ele>
        <time>2021-08-06T17:53:46.000Z</time>
      </trkpt>
      <trkpt lat="47.11299" lon="-1.71665">
        <ele>55</ele>
        <time>2021-08-06T17:53:48.000Z</time>
      </trkpt>
      <trkpt lat="47.11312" lon="-1.71656">
        <ele>55</ele>
        <time>2021-08-06T17:53:50.000Z</time>
      </trkpt>
      <trkpt lat="47.11324" lon="-1.71648">
        <ele>55</ele>
        <time>2021-08-06T17:53:52.000Z</time>
      </trkpt>
      <trkpt lat="47.11334" lon="-1.71639">
        <ele>55</ele>
        <time>2021-08-06T17:53:54.000Z</time>
      </trkpt>
      <trkpt lat="47.11344" lon="-1.71628">
        <ele>54</ele>
        <time>2021-08-06T17:53:57.000Z</time>
      </trkpt>
      <trkpt lat="47.11351" lon="-1.71616">
        <ele>54</ele>
        <time>2021-08-06T17:53:59.000Z</time>
      </trkpt>
      <trkpt lat="47.11358" lon="-1.71602">
        <ele>54</ele>
        <time>2021-08-06T17:54:01.000Z</time>
      </trkpt>
      <trkpt lat="47.11366" lon="-1.71586">
        <ele>54</ele>
        <time>2021-08-06T17:54:03.000Z</time>
      </trkpt>
      <trkpt lat="47.11375" lon="-1.71568">
        <ele>54</ele>
        <time>2021-08-06T17:54:05.000Z</time>
      </trkpt>
      <trkpt lat="47.11384" lon="-1.71551">
        <ele>54</ele>
        <time>2021-08-06T17:54:07.000Z</time>
      </trkpt>
      <trkpt lat="47.11393" lon="-1.71534">
        <ele>54</ele>
        <time>2021-08-06T17:54:09.000Z</time>
      </trkpt>
      <trkpt lat="47.11402" lon="-1.71517">
        <ele>54</ele>
        <time>2021-08-06T17:54:11.000Z</time>
      </trkpt>
      <trkpt lat="47.11411" lon="-1.71499">
        <ele>53</ele>
        <time>2021-08-06T17:54:13.000Z</time>
      </trkpt>
      <trkpt lat="47.1142" lon="-1.71482">
        <ele>53</ele>
        <time>2021-08-06T17:54:15.000Z</time>
      </trkpt>
      <trkpt lat="47.11429" lon="-1.71465">
        <ele>53</ele>
        <time>2021-08-06T17:54:17.000Z</time>
      </trkpt>
      <trkpt lat="47.11437" lon="-1.71448">
        <ele>53</ele>
        <time>2021-08-06T17:54:19.000Z</time>
      </trkpt>
      <trkpt lat="47.11445" lon="-1.71432">
        <ele>54</ele>
        <time>2021-08-06T17:54:21.000Z</time>
      </trkpt>
      <trkpt lat="47.11454" lon="-1.71415">
        <ele>54</ele>
        <time>2021-08-06T17:54:23.000Z</time>
      </trkpt>
      <trkpt lat="47.11462" lon="-1.71398">
        <ele>54</ele>
        <time>2021-08-06T17:54:25.000Z</time>
      </trkpt>
      <trkpt lat="47.11471" lon="-1.71382">
        <ele>53</ele>
        <time>2021-08-06T17:54:27.000Z</time>
      </trkpt>
      <trkpt lat="47.1148" lon="-1.71365">
        <ele>53</ele>
        <time>2021-08-06T17:54:29.000Z</time>
      </trkpt>
      <trkpt lat="47.11488" lon="-1.71348">
        <ele>52</ele>
        <time>2021-08-06T17:54:31.000Z</time>
      </trkpt>
      <trkpt lat="47.11496" lon="-1.71333">
        <ele>53</ele>
        <time>2021-08-06T17:54:33.000Z</time>
      </trkpt>
      <trkpt lat="47.11504" lon="-1.71317">
        <ele>53</ele>
        <time>2021-08-06T17:54:35.000Z</time>
      </trkpt>
      <trkpt lat="47.11512" lon="-1.71301">
        <ele>53</ele>
        <time>2021-08-06T17:54:37.000Z</time>
      </trkpt>
      <trkpt lat="47.1152" lon="-1.71285">
        <ele>53</ele>
        <time>2021-08-06T17:54:39.000Z</time>
      </trkpt>
      <trkpt lat="47.11528" lon="-1.71269">
        <ele>53</ele>
        <time>2021-08-06T17:54:41.000Z</time>
      </trkpt>
      <trkpt lat="47.11537" lon="-1.71254">
        <ele>54</ele>
        <time>2021-08-06T17:54:43.000Z</time>
      </trkpt>
      <trkpt lat="47.11545" lon="-1.71238">
        <ele>54</ele>
        <time>2021-08-06T17:54:45.000Z</time>
      </trkpt>
      <trkpt lat="47.11554" lon="-1.71223">
        <ele>54</ele>
        <time>2021-08-06T17:54:47.000Z</time>
      </trkpt>
      <trkpt lat="47.11564" lon="-1.7121">
        <ele>54</ele>
        <time>2021-08-06T17:54:49.000Z</time>
      </trkpt>
      <trkpt lat="47.11574" lon="-1.71197">
        <ele>54</ele>
        <time>2021-08-06T17:54:51.000Z</time>
      </trkpt>
      <trkpt lat="47.11583" lon="-1.71184">
        <ele>54</ele>
        <time>2021-08-06T17:54:53.000Z</time>
      </trkpt>
      <trkpt lat="47.11594" lon="-1.71172">
        <ele>55</ele>
        <time>2021-08-06T17:54:55.000Z</time>
      </trkpt>
      <trkpt lat="47.11604" lon="-1.7116">
        <ele>55</ele>
        <time>2021-08-06T17:54:57.000Z</time>
      </trkpt>
      <trkpt lat="47.11615" lon="-1.71148">
        <ele>55</ele>
        <time>2021-08-06T17:54:59.000Z</time>
      </trkpt>
      <trkpt lat="47.11625" lon="-1.71137">
        <ele>56</ele>
        <time>2021-08-06T17:55:01.000Z</time>
      </trkpt>
      <trkpt lat="47.11636" lon="-1.71127">
        <ele>56</ele>
        <time>2021-08-06T17:55:03.000Z</time>
      </trkpt>
      <trkpt lat="47.11647" lon="-1.71118">
        <ele>56</ele>
        <time>2021-08-06T17:55:05.000Z</time>
      </trkpt>
      <trkpt lat="47.11659" lon="-1.7111">
        <ele>56</ele>
        <time>2021-08-06T17:55:07.000Z</time>
      </trkpt>
      <trkpt lat="47.11671" lon="-1.71102">
        <ele>56</ele>
        <time>2021-08-06T17:55:09.000Z</time>
      </trkpt>
      <trkpt lat="47.11682" lon="-1.71094">
        <ele>56</ele>
        <time>2021-08-06T17:55:11.000Z</time>
      </trkpt>
      <trkpt lat="47.11694" lon="-1.71086">
        <ele>56</ele>
        <time>2021-08-06T17:55:13.000Z</time>
      </trkpt>
      <trkpt lat="47.11705" lon="-1.71079">
        <ele>56</ele>
        <time>2021-08-06T17:55:15.000Z</time>
      </trkpt>
      <trkpt lat="47.11717" lon="-1.71071">
        <ele>56</ele>
        <time>2021-08-06T17:55:17.000Z</time>
      </trkpt>
      <trkpt lat="47.11729" lon="-1.71064">
        <ele>56</ele>
        <time>2021-08-06T17:55:19.000Z</time>
      </trkpt>
      <trkpt lat="47.11742" lon="-1.71055">
        <ele>55</ele>
        <time>2021-08-06T17:55:21.000Z</time>
      </trkpt>
      <trkpt lat="47.11754" lon="-1.71047">
        <ele>55</ele>
        <time>2021-08-06T17:55:23.000Z</time>
      </trkpt>
      <trkpt lat="47.11766" lon="-1.71039">
        <ele>54</ele>
        <time>2021-08-06T17:55:25.000Z</time>
      </trkpt>
      <trkpt lat="47.11779" lon="-1.71031">
        <ele>54</ele>
        <time>2021-08-06T17:55:27.000Z</time>
      </trkpt>
      <trkpt lat="47.11791" lon="-1.71022">
        <ele>54</ele>
        <time>2021-08-06T17:55:29.000Z</time>
      </trkpt>
      <trkpt lat="47.11804" lon="-1.71014">
        <ele>53</ele>
        <time>2021-08-06T17:55:31.000Z</time>
      </trkpt>
      <trkpt lat="47.11816" lon="-1.71006">
        <ele>53</ele>
        <time>2021-08-06T17:55:33.000Z</time>
      </trkpt>
      <trkpt lat="47.11829" lon="-1.70998">
        <ele>54</ele>
        <time>2021-08-06T17:55:35.000Z</time>
      </trkpt>
      <trkpt lat="47.11841" lon="-1.7099">
        <ele>54</ele>
        <time>2021-08-06T17:55:37.000Z</time>
      </trkpt>
      <trkpt lat="47.11853" lon="-1.70982">
        <ele>54</ele>
        <time>2021-08-06T17:55:39.000Z</time>
      </trkpt>
      <trkpt lat="47.11866" lon="-1.70974">
        <ele>54</ele>
        <time>2021-08-06T17:55:41.000Z</time>
      </trkpt>
      <trkpt lat="47.11878" lon="-1.70965">
        <ele>54</ele>
        <time>2021-08-06T17:55:43.000Z</time>
      </trkpt>
      <trkpt lat="47.11891" lon="-1.70956">
        <ele>54</ele>
        <time>2021-08-06T17:55:45.000Z</time>
      </trkpt>
      <trkpt lat="47.11903" lon="-1.70948">
        <ele>55</ele>
        <time>2021-08-06T17:55:47.000Z</time>
      </trkpt>
      <trkpt lat="47.11916" lon="-1.7094">
        <ele>55</ele>
        <time>2021-08-06T17:55:49.000Z</time>
      </trkpt>
      <trkpt lat="47.11929" lon="-1.70933">
        <ele>55</ele>
        <time>2021-08-06T17:55:51.000Z</time>
      </trkpt>
      <trkpt lat="47.11941" lon="-1.70925">
        <ele>55</ele>
        <time>2021-08-06T17:55:53.000Z</time>
      </trkpt>
      <trkpt lat="47.11953" lon="-1.70917">
        <ele>55</ele>
        <time>2021-08-06T17:55:55.000Z</time>
      </trkpt>
      <trkpt lat="47.11966" lon="-1.7091">
        <ele>56</ele>
        <time>2021-08-06T17:55:57.000Z</time>
      </trkpt>
      <trkpt lat="47.11978" lon="-1.70902">
        <ele>56</ele>
        <time>2021-08-06T17:55:59.000Z</time>
      </trkpt>
      <trkpt lat="47.1199" lon="-1.70894">
        <ele>56</ele>
        <time>2021-08-06T17:56:01.000Z</time>
      </trkpt>
      <trkpt lat="47.12002" lon="-1.70886">
        <ele>56</ele>
        <time>2021-08-06T17:56:03.000Z</time>
      </trkpt>
      <trkpt lat="47.12013" lon="-1.70879">
        <ele>57</ele>
        <time>2021-08-06T17:56:05.000Z</time>
      </trkpt>
      <trkpt lat="47.12025" lon="-1.70871">
        <ele>57</ele>
        <time>2021-08-06T17:56:07.000Z</time>
      </trkpt>
      <trkpt lat="47.12037" lon="-1.70864">
        <ele>57</ele>
        <time>2021-08-06T17:56:09.000Z</time>
      </trkpt>
      <trkpt lat="47.12048" lon="-1.70856">
        <ele>57</ele>
        <time>2021-08-06T17:56:11.000Z</time>
      </trkpt>
      <trkpt lat="47.1206" lon="-1.70848">
        <ele>57</ele>
        <time>2021-08-06T17:56:13.000Z</time>
      </trkpt>
      <trkpt lat="47.12072" lon="-1.70841">
        <ele>56</ele>
        <time>2021-08-06T17:56:15.000Z</time>
      </trkpt>
      <trkpt lat="47.12083" lon="-1.70833">
        <ele>57</ele>
        <time>2021-08-06T17:56:17.000Z</time>
      </trkpt>
      <trkpt lat="47.12095" lon="-1.70826">
        <ele>57</ele>
        <time>2021-08-06T17:56:19.000Z</time>
      </trkpt>
      <trkpt lat="47.12108" lon="-1.70818">
        <ele>56</ele>
        <time>2021-08-06T17:56:21.000Z</time>
      </trkpt>
      <trkpt lat="47.1212" lon="-1.7081">
        <ele>56</ele>
        <time>2021-08-06T17:56:23.000Z</time>
      </trkpt>
      <trkpt lat="47.12132" lon="-1.70802">
        <ele>56</ele>
        <time>2021-08-06T17:56:25.000Z</time>
      </trkpt>
      <trkpt lat="47.12144" lon="-1.70794">
        <ele>56</ele>
        <time>2021-08-06T17:56:27.000Z</time>
      </trkpt>
      <trkpt lat="47.12157" lon="-1.70786">
        <ele>56</ele>
        <time>2021-08-06T17:56:29.000Z</time>
      </trkpt>
      <trkpt lat="47.12169" lon="-1.70777">
        <ele>56</ele>
        <time>2021-08-06T17:56:31.000Z</time>
      </trkpt>
      <trkpt lat="47.12182" lon="-1.70769">
        <ele>56</ele>
        <time>2021-08-06T17:56:33.000Z</time>
      </trkpt>
      <trkpt lat="47.12194" lon="-1.7076">
        <ele>55</ele>
        <time>2021-08-06T17:56:35.000Z</time>
      </trkpt>
      <trkpt lat="47.12206" lon="-1.7075">
        <ele>55</ele>
        <time>2021-08-06T17:56:37.000Z</time>
      </trkpt>
      <trkpt lat="47.12218" lon="-1.70739">
        <ele>55</ele>
        <time>2021-08-06T17:56:39.000Z</time>
      </trkpt>
      <trkpt lat="47.12229" lon="-1.70728">
        <ele>55</ele>
        <time>2021-08-06T17:56:41.000Z</time>
      </trkpt>
      <trkpt lat="47.12241" lon="-1.70715">
        <ele>55</ele>
        <time>2021-08-06T17:56:43.000Z</time>
      </trkpt>
      <trkpt lat="47.12252" lon="-1.70702">
        <ele>55</ele>
        <time>2021-08-06T17:56:45.000Z</time>
      </trkpt>
      <trkpt lat="47.12262" lon="-1.70687">
        <ele>55</ele>
        <time>2021-08-06T17:56:47.000Z</time>
      </trkpt>
      <trkpt lat="47.12273" lon="-1.70672">
        <ele>55</ele>
        <time>2021-08-06T17:56:49.000Z</time>
      </trkpt>
      <trkpt lat="47.12283" lon="-1.70656">
        <ele>54</ele>
        <time>2021-08-06T17:56:51.000Z</time>
      </trkpt>
      <trkpt lat="47.12294" lon="-1.70641">
        <ele>54</ele>
        <time>2021-08-06T17:56:53.000Z</time>
      </trkpt>
      <trkpt lat="47.12304" lon="-1.70626">
        <ele>54</ele>
        <time>2021-08-06T17:56:55.000Z</time>
      </trkpt>
      <trkpt lat="47.12314" lon="-1.70612">
        <ele>54</ele>
        <time>2021-08-06T17:56:57.000Z</time>
      </trkpt>
      <trkpt lat="47.12324" lon="-1.70596">
        <ele>54</ele>
        <time>2021-08-06T17:56:59.000Z</time>
      </trkpt>
      <trkpt lat="47.12334" lon="-1.70581">
        <ele>54</ele>
        <time>2021-08-06T17:57:01.000Z</time>
      </trkpt>
      <trkpt lat="47.12344" lon="-1.70567">
        <ele>54</ele>
        <time>2021-08-06T17:57:03.000Z</time>
      </trkpt>
      <trkpt lat="47.12353" lon="-1.70551">
        <ele>54</ele>
        <time>2021-08-06T17:57:05.000Z</time>
      </trkpt>
      <trkpt lat="47.12362" lon="-1.70534">
        <ele>54</ele>
        <time>2021-08-06T17:57:07.000Z</time>
      </trkpt>
      <trkpt lat="47.1237" lon="-1.70516">
        <ele>54</ele>
        <time>2021-08-06T17:57:09.000Z</time>
      </trkpt>
      <trkpt lat="47.12377" lon="-1.70497">
        <ele>54</ele>
        <time>2021-08-06T17:57:11.000Z</time>
      </trkpt>
      <trkpt lat="47.12385" lon="-1.70468">
        <ele>53</ele>
        <time>2021-08-06T17:57:14.000Z</time>
      </trkpt>
      <trkpt lat="47.1239" lon="-1.70448">
        <ele>53</ele>
        <time>2021-08-06T17:57:16.000Z</time>
      </trkpt>
      <trkpt lat="47.12394" lon="-1.70428">
        <ele>53</ele>
        <time>2021-08-06T17:57:18.000Z</time>
      </trkpt>
      <trkpt lat="47.12398" lon="-1.70408">
        <ele>53</ele>
        <time>2021-08-06T17:57:20.000Z</time>
      </trkpt>
      <trkpt lat="47.12402" lon="-1.70388">
        <ele>54</ele>
        <time>2021-08-06T17:57:22.000Z</time>
      </trkpt>
      <trkpt lat="47.12406" lon="-1.70369">
        <ele>54</ele>
        <time>2021-08-06T17:57:24.000Z</time>
      </trkpt>
      <trkpt lat="47.1241" lon="-1.7035">
        <ele>54</ele>
        <time>2021-08-06T17:57:26.000Z</time>
      </trkpt>
      <trkpt lat="47.12415" lon="-1.70331">
        <ele>54</ele>
        <time>2021-08-06T17:57:28.000Z</time>
      </trkpt>
      <trkpt lat="47.12421" lon="-1.70313">
        <ele>54</ele>
        <time>2021-08-06T17:57:30.000Z</time>
      </trkpt>
      <trkpt lat="47.12434" lon="-1.70289">
        <ele>55</ele>
        <time>2021-08-06T17:57:33.000Z</time>
      </trkpt>
      <trkpt lat="47.12444" lon="-1.70276">
        <ele>56</ele>
        <time>2021-08-06T17:57:35.000Z</time>
      </trkpt>
      <trkpt lat="47.12456" lon="-1.70265">
        <ele>56</ele>
        <time>2021-08-06T17:57:37.000Z</time>
      </trkpt>
      <trkpt lat="47.12469" lon="-1.70257">
        <ele>56</ele>
        <time>2021-08-06T17:57:39.000Z</time>
      </trkpt>
      <trkpt lat="47.12482" lon="-1.7025">
        <ele>57</ele>
        <time>2021-08-06T17:57:41.000Z</time>
      </trkpt>
      <trkpt lat="47.12495" lon="-1.70242">
        <ele>56</ele>
        <time>2021-08-06T17:57:43.000Z</time>
      </trkpt>
      <trkpt lat="47.12508" lon="-1.70235">
        <ele>57</ele>
        <time>2021-08-06T17:57:45.000Z</time>
      </trkpt>
      <trkpt lat="47.12521" lon="-1.70228">
        <ele>57</ele>
        <time>2021-08-06T17:57:47.000Z</time>
      </trkpt>
      <trkpt lat="47.12541" lon="-1.70218">
        <ele>57</ele>
        <time>2021-08-06T17:57:50.000Z</time>
      </trkpt>
      <trkpt lat="47.1256" lon="-1.70207">
        <ele>58</ele>
        <time>2021-08-06T17:57:53.000Z</time>
      </trkpt>
      <trkpt lat="47.12581" lon="-1.70197">
        <ele>58</ele>
        <time>2021-08-06T17:57:56.000Z</time>
      </trkpt>
      <trkpt lat="47.12594" lon="-1.70191">
        <ele>58</ele>
        <time>2021-08-06T17:57:58.000Z</time>
      </trkpt>
      <trkpt lat="47.12606" lon="-1.70184">
        <ele>57</ele>
        <time>2021-08-06T17:58:00.000Z</time>
      </trkpt>
      <trkpt lat="47.12619" lon="-1.70177">
        <ele>57</ele>
        <time>2021-08-06T17:58:02.000Z</time>
      </trkpt>
      <trkpt lat="47.12633" lon="-1.70171">
        <ele>57</ele>
        <time>2021-08-06T17:58:04.000Z</time>
      </trkpt>
      <trkpt lat="47.12647" lon="-1.70164">
        <ele>57</ele>
        <time>2021-08-06T17:58:06.000Z</time>
      </trkpt>
      <trkpt lat="47.1266" lon="-1.70157">
        <ele>57</ele>
        <time>2021-08-06T17:58:08.000Z</time>
      </trkpt>
      <trkpt lat="47.12673" lon="-1.70151">
        <ele>56</ele>
        <time>2021-08-06T17:58:10.000Z</time>
      </trkpt>
      <trkpt lat="47.12685" lon="-1.70144">
        <ele>57</ele>
        <time>2021-08-06T17:58:12.000Z</time>
      </trkpt>
      <trkpt lat="47.12698" lon="-1.70137">
        <ele>57</ele>
        <time>2021-08-06T17:58:14.000Z</time>
      </trkpt>
      <trkpt lat="47.1271" lon="-1.70131">
        <ele>57</ele>
        <time>2021-08-06T17:58:16.000Z</time>
      </trkpt>
      <trkpt lat="47.12723" lon="-1.70125">
        <ele>58</ele>
        <time>2021-08-06T17:58:18.000Z</time>
      </trkpt>
      <trkpt lat="47.12736" lon="-1.70117">
        <ele>58</ele>
        <time>2021-08-06T17:58:20.000Z</time>
      </trkpt>
      <trkpt lat="47.12749" lon="-1.70111">
        <ele>57</ele>
        <time>2021-08-06T17:58:22.000Z</time>
      </trkpt>
      <trkpt lat="47.12762" lon="-1.70104">
        <ele>57</ele>
        <time>2021-08-06T17:58:24.000Z</time>
      </trkpt>
      <trkpt lat="47.12775" lon="-1.70097">
        <ele>58</ele>
        <time>2021-08-06T17:58:26.000Z</time>
      </trkpt>
      <trkpt lat="47.12788" lon="-1.7009">
        <ele>58</ele>
        <time>2021-08-06T17:58:28.000Z</time>
      </trkpt>
      <trkpt lat="47.128" lon="-1.70083">
        <ele>58</ele>
        <time>2021-08-06T17:58:30.000Z</time>
      </trkpt>
      <trkpt lat="47.12813" lon="-1.70076">
        <ele>58</ele>
        <time>2021-08-06T17:58:32.000Z</time>
      </trkpt>
      <trkpt lat="47.12826" lon="-1.7007">
        <ele>58</ele>
        <time>2021-08-06T17:58:34.000Z</time>
      </trkpt>
      <trkpt lat="47.12839" lon="-1.70064">
        <ele>59</ele>
        <time>2021-08-06T17:58:36.000Z</time>
      </trkpt>
      <trkpt lat="47.12851" lon="-1.70057">
        <ele>59</ele>
        <time>2021-08-06T17:58:38.000Z</time>
      </trkpt>
      <trkpt lat="47.12864" lon="-1.7005">
        <ele>59</ele>
        <time>2021-08-06T17:58:40.000Z</time>
      </trkpt>
      <trkpt lat="47.12877" lon="-1.70044">
        <ele>59</ele>
        <time>2021-08-06T17:58:42.000Z</time>
      </trkpt>
      <trkpt lat="47.1289" lon="-1.70037">
        <ele>59</ele>
        <time>2021-08-06T17:58:44.000Z</time>
      </trkpt>
      <trkpt lat="47.12902" lon="-1.7003">
        <ele>59</ele>
        <time>2021-08-06T17:58:46.000Z</time>
      </trkpt>
      <trkpt lat="47.12915" lon="-1.70023">
        <ele>58</ele>
        <time>2021-08-06T17:58:48.000Z</time>
      </trkpt>
      <trkpt lat="47.12927" lon="-1.70016">
        <ele>58</ele>
        <time>2021-08-06T17:58:50.000Z</time>
      </trkpt>
      <trkpt lat="47.1294" lon="-1.70009">
        <ele>58</ele>
        <time>2021-08-06T17:58:52.000Z</time>
      </trkpt>
      <trkpt lat="47.12955" lon="-1.70003">
        <ele>58</ele>
        <time>2021-08-06T17:58:54.000Z</time>
      </trkpt>
      <trkpt lat="47.12968" lon="-1.69996">
        <ele>58</ele>
        <time>2021-08-06T17:58:56.000Z</time>
      </trkpt>
      <trkpt lat="47.12981" lon="-1.6999">
        <ele>58</ele>
        <time>2021-08-06T17:58:58.000Z</time>
      </trkpt>
      <trkpt lat="47.12993" lon="-1.69982">
        <ele>58</ele>
        <time>2021-08-06T17:59:00.000Z</time>
      </trkpt>
      <trkpt lat="47.13006" lon="-1.69976">
        <ele>58</ele>
        <time>2021-08-06T17:59:02.000Z</time>
      </trkpt>
      <trkpt lat="47.13019" lon="-1.69969">
        <ele>58</ele>
        <time>2021-08-06T17:59:04.000Z</time>
      </trkpt>
      <trkpt lat="47.13033" lon="-1.69963">
        <ele>58</ele>
        <time>2021-08-06T17:59:06.000Z</time>
      </trkpt>
      <trkpt lat="47.13045" lon="-1.69956">
        <ele>58</ele>
        <time>2021-08-06T17:59:08.000Z</time>
      </trkpt>
      <trkpt lat="47.13058" lon="-1.69949">
        <ele>58</ele>
        <time>2021-08-06T17:59:10.000Z</time>
      </trkpt>
      <trkpt lat="47.13071" lon="-1.69943">
        <ele>59</ele>
        <time>2021-08-06T17:59:12.000Z</time>
      </trkpt>
      <trkpt lat="47.13084" lon="-1.69936">
        <ele>59</ele>
        <time>2021-08-06T17:59:14.000Z</time>
      </trkpt>
      <trkpt lat="47.13096" lon="-1.69928">
        <ele>59</ele>
        <time>2021-08-06T17:59:16.000Z</time>
      </trkpt>
      <trkpt lat="47.13109" lon="-1.69921">
        <ele>59</ele>
        <time>2021-08-06T17:59:18.000Z</time>
      </trkpt>
      <trkpt lat="47.13122" lon="-1.69916">
        <ele>59</ele>
        <time>2021-08-06T17:59:20.000Z</time>
      </trkpt>
      <trkpt lat="47.13133" lon="-1.69909">
        <ele>59</ele>
        <time>2021-08-06T17:59:22.000Z</time>
      </trkpt>
      <trkpt lat="47.13146" lon="-1.69903">
        <ele>60</ele>
        <time>2021-08-06T17:59:24.000Z</time>
      </trkpt>
      <trkpt lat="47.13159" lon="-1.69896">
        <ele>60</ele>
        <time>2021-08-06T17:59:26.000Z</time>
      </trkpt>
      <trkpt lat="47.13171" lon="-1.6989">
        <ele>60</ele>
        <time>2021-08-06T17:59:28.000Z</time>
      </trkpt>
      <trkpt lat="47.13184" lon="-1.69884">
        <ele>60</ele>
        <time>2021-08-06T17:59:30.000Z</time>
      </trkpt>
      <trkpt lat="47.13195" lon="-1.69878">
        <ele>60</ele>
        <time>2021-08-06T17:59:32.000Z</time>
      </trkpt>
      <trkpt lat="47.13206" lon="-1.69872">
        <ele>60</ele>
        <time>2021-08-06T17:59:34.000Z</time>
      </trkpt>
      <trkpt lat="47.13218" lon="-1.69865">
        <ele>61</ele>
        <time>2021-08-06T17:59:36.000Z</time>
      </trkpt>
      <trkpt lat="47.13231" lon="-1.69858">
        <ele>60</ele>
        <time>2021-08-06T17:59:38.000Z</time>
      </trkpt>
      <trkpt lat="47.13243" lon="-1.69853">
        <ele>60</ele>
        <time>2021-08-06T17:59:40.000Z</time>
      </trkpt>
      <trkpt lat="47.13255" lon="-1.69848">
        <ele>60</ele>
        <time>2021-08-06T17:59:42.000Z</time>
      </trkpt>
      <trkpt lat="47.13267" lon="-1.69841">
        <ele>59</ele>
        <time>2021-08-06T17:59:44.000Z</time>
      </trkpt>
      <trkpt lat="47.13279" lon="-1.69835">
        <ele>59</ele>
        <time>2021-08-06T17:59:46.000Z</time>
      </trkpt>
      <trkpt lat="47.13292" lon="-1.69827">
        <ele>59</ele>
        <time>2021-08-06T17:59:48.000Z</time>
      </trkpt>
      <trkpt lat="47.13305" lon="-1.69819">
        <ele>59</ele>
        <time>2021-08-06T17:59:50.000Z</time>
      </trkpt>
      <trkpt lat="47.13319" lon="-1.69812">
        <ele>58</ele>
        <time>2021-08-06T17:59:52.000Z</time>
      </trkpt>
      <trkpt lat="47.13333" lon="-1.69805">
        <ele>58</ele>
        <time>2021-08-06T17:59:54.000Z</time>
      </trkpt>
      <trkpt lat="47.13347" lon="-1.69798">
        <ele>58</ele>
        <time>2021-08-06T17:59:56.000Z</time>
      </trkpt>
      <trkpt lat="47.1336" lon="-1.6979">
        <ele>58</ele>
        <time>2021-08-06T17:59:58.000Z</time>
      </trkpt>
      <trkpt lat="47.13374" lon="-1.69782">
        <ele>58</ele>
        <time>2021-08-06T18:00:00.000Z</time>
      </trkpt>
      <trkpt lat="47.13386" lon="-1.69775">
        <ele>58</ele>
        <time>2021-08-06T18:00:02.000Z</time>
      </trkpt>
      <trkpt lat="47.13399" lon="-1.69769">
        <ele>58</ele>
        <time>2021-08-06T18:00:04.000Z</time>
      </trkpt>
      <trkpt lat="47.13411" lon="-1.69762">
        <ele>58</ele>
        <time>2021-08-06T18:00:06.000Z</time>
      </trkpt>
      <trkpt lat="47.13423" lon="-1.69754">
        <ele>58</ele>
        <time>2021-08-06T18:00:08.000Z</time>
      </trkpt>
      <trkpt lat="47.13435" lon="-1.69748">
        <ele>59</ele>
        <time>2021-08-06T18:00:10.000Z</time>
      </trkpt>
      <trkpt lat="47.13448" lon="-1.69741">
        <ele>60</ele>
        <time>2021-08-06T18:00:12.000Z</time>
      </trkpt>
      <trkpt lat="47.13461" lon="-1.69736">
        <ele>60</ele>
        <time>2021-08-06T18:00:14.000Z</time>
      </trkpt>
      <trkpt lat="47.13475" lon="-1.69733">
        <ele>61</ele>
        <time>2021-08-06T18:00:16.000Z</time>
      </trkpt>
      <trkpt lat="47.13489" lon="-1.69733">
        <ele>60</ele>
        <time>2021-08-06T18:00:18.000Z</time>
      </trkpt>
      <trkpt lat="47.13504" lon="-1.69733">
        <ele>60</ele>
        <time>2021-08-06T18:00:20.000Z</time>
      </trkpt>
      <trkpt lat="47.13518" lon="-1.69733">
        <ele>60</ele>
        <time>2021-08-06T18:00:22.000Z</time>
      </trkpt>
      <trkpt lat="47.13533" lon="-1.69733">
        <ele>58</ele>
        <time>2021-08-06T18:00:24.000Z</time>
      </trkpt>
      <trkpt lat="47.13546" lon="-1.69734">
        <ele>58</ele>
        <time>2021-08-06T18:00:26.000Z</time>
      </trkpt>
      <trkpt lat="47.1356" lon="-1.69734">
        <ele>57</ele>
        <time>2021-08-06T18:00:28.000Z</time>
      </trkpt>
      <trkpt lat="47.13573" lon="-1.69734">
        <ele>57</ele>
        <time>2021-08-06T18:00:30.000Z</time>
      </trkpt>
      <trkpt lat="47.13586" lon="-1.69734">
        <ele>57</ele>
        <time>2021-08-06T18:00:32.000Z</time>
      </trkpt>
      <trkpt lat="47.13599" lon="-1.69734">
        <ele>57</ele>
        <time>2021-08-06T18:00:34.000Z</time>
      </trkpt>
      <trkpt lat="47.13613" lon="-1.69735">
        <ele>57</ele>
        <time>2021-08-06T18:00:36.000Z</time>
      </trkpt>
      <trkpt lat="47.13625" lon="-1.69734">
        <ele>57</ele>
        <time>2021-08-06T18:00:38.000Z</time>
      </trkpt>
      <trkpt lat="47.13638" lon="-1.69734">
        <ele>57</ele>
        <time>2021-08-06T18:00:40.000Z</time>
      </trkpt>
      <trkpt lat="47.13651" lon="-1.69734">
        <ele>57</ele>
        <time>2021-08-06T18:00:42.000Z</time>
      </trkpt>
      <trkpt lat="47.13664" lon="-1.69735">
        <ele>57</ele>
        <time>2021-08-06T18:00:44.000Z</time>
      </trkpt>
      <trkpt lat="47.13677" lon="-1.69735">
        <ele>57</ele>
        <time>2021-08-06T18:00:46.000Z</time>
      </trkpt>
      <trkpt lat="47.1369" lon="-1.69735">
        <ele>56</ele>
        <time>2021-08-06T18:00:48.000Z</time>
      </trkpt>
      <trkpt lat="47.13703" lon="-1.69734">
        <ele>56</ele>
        <time>2021-08-06T18:00:50.000Z</time>
      </trkpt>
      <trkpt lat="47.13716" lon="-1.69733">
        <ele>56</ele>
        <time>2021-08-06T18:00:52.000Z</time>
      </trkpt>
      <trkpt lat="47.13729" lon="-1.6973">
        <ele>56</ele>
        <time>2021-08-06T18:00:54.000Z</time>
      </trkpt>
      <trkpt lat="47.13742" lon="-1.69726">
        <ele>56</ele>
        <time>2021-08-06T18:00:56.000Z</time>
      </trkpt>
      <trkpt lat="47.13755" lon="-1.69724">
        <ele>56</ele>
        <time>2021-08-06T18:00:58.000Z</time>
      </trkpt>
      <trkpt lat="47.13768" lon="-1.69723">
        <ele>56</ele>
        <time>2021-08-06T18:01:00.000Z</time>
      </trkpt>
      <trkpt lat="47.1378" lon="-1.69722">
        <ele>57</ele>
        <time>2021-08-06T18:01:02.000Z</time>
      </trkpt>
      <trkpt lat="47.13792" lon="-1.69722">
        <ele>57</ele>
        <time>2021-08-06T18:01:04.000Z</time>
      </trkpt>
      <trkpt lat="47.13805" lon="-1.69723">
        <ele>58</ele>
        <time>2021-08-06T18:01:06.000Z</time>
      </trkpt>
      <trkpt lat="47.13818" lon="-1.69723">
        <ele>58</ele>
        <time>2021-08-06T18:01:08.000Z</time>
      </trkpt>
      <trkpt lat="47.13831" lon="-1.69723">
        <ele>58</ele>
        <time>2021-08-06T18:01:10.000Z</time>
      </trkpt>
      <trkpt lat="47.13844" lon="-1.69723">
        <ele>58</ele>
        <time>2021-08-06T18:01:12.000Z</time>
      </trkpt>
      <trkpt lat="47.13856" lon="-1.69721">
        <ele>58</ele>
        <time>2021-08-06T18:01:14.000Z</time>
      </trkpt>
      <trkpt lat="47.13869" lon="-1.69719">
        <ele>59</ele>
        <time>2021-08-06T18:01:16.000Z</time>
      </trkpt>
      <trkpt lat="47.13882" lon="-1.69717">
        <ele>58</ele>
        <time>2021-08-06T18:01:18.000Z</time>
      </trkpt>
      <trkpt lat="47.13895" lon="-1.69716">
        <ele>58</ele>
        <time>2021-08-06T18:01:20.000Z</time>
      </trkpt>
      <trkpt lat="47.13908" lon="-1.69715">
        <ele>58</ele>
        <time>2021-08-06T18:01:22.000Z</time>
      </trkpt>
      <trkpt lat="47.13921" lon="-1.69714">
        <ele>58</ele>
        <time>2021-08-06T18:01:24.000Z</time>
      </trkpt>
      <trkpt lat="47.13933" lon="-1.69714">
        <ele>59</ele>
        <time>2021-08-06T18:01:26.000Z</time>
      </trkpt>
      <trkpt lat="47.13946" lon="-1.69715">
        <ele>59</ele>
        <time>2021-08-06T18:01:28.000Z</time>
      </trkpt>
      <trkpt lat="47.13959" lon="-1.69716">
        <ele>59</ele>
        <time>2021-08-06T18:01:30.000Z</time>
      </trkpt>
      <trkpt lat="47.13971" lon="-1.69718">
        <ele>60</ele>
        <time>2021-08-06T18:01:32.000Z</time>
      </trkpt>
      <trkpt lat="47.13984" lon="-1.69719">
        <ele>60</ele>
        <time>2021-08-06T18:01:34.000Z</time>
      </trkpt>
      <trkpt lat="47.13996" lon="-1.69721">
        <ele>60</ele>
        <time>2021-08-06T18:01:36.000Z</time>
      </trkpt>
      <trkpt lat="47.14008" lon="-1.69722">
        <ele>60</ele>
        <time>2021-08-06T18:01:38.000Z</time>
      </trkpt>
      <trkpt lat="47.14022" lon="-1.69723">
        <ele>60</ele>
        <time>2021-08-06T18:01:40.000Z</time>
      </trkpt>
      <trkpt lat="47.14034" lon="-1.69724">
        <ele>61</ele>
        <time>2021-08-06T18:01:42.000Z</time>
      </trkpt>
      <trkpt lat="47.14047" lon="-1.69725">
        <ele>61</ele>
        <time>2021-08-06T18:01:44.000Z</time>
      </trkpt>
      <trkpt lat="47.1406" lon="-1.69726">
        <ele>61</ele>
        <time>2021-08-06T18:01:46.000Z</time>
      </trkpt>
      <trkpt lat="47.14073" lon="-1.69727">
        <ele>61</ele>
        <time>2021-08-06T18:01:48.000Z</time>
      </trkpt>
      <trkpt lat="47.14086" lon="-1.69727">
        <ele>61</ele>
        <time>2021-08-06T18:01:50.000Z</time>
      </trkpt>
      <trkpt lat="47.141" lon="-1.69725">
        <ele>61</ele>
        <time>2021-08-06T18:01:52.000Z</time>
      </trkpt>
      <trkpt lat="47.14115" lon="-1.69722">
        <ele>60</ele>
        <time>2021-08-06T18:01:54.000Z</time>
      </trkpt>
      <trkpt lat="47.14129" lon="-1.6972">
        <ele>60</ele>
        <time>2021-08-06T18:01:56.000Z</time>
      </trkpt>
      <trkpt lat="47.14144" lon="-1.69718">
        <ele>60</ele>
        <time>2021-08-06T18:01:58.000Z</time>
      </trkpt>
      <trkpt lat="47.14159" lon="-1.69717">
        <ele>59</ele>
        <time>2021-08-06T18:02:00.000Z</time>
      </trkpt>
      <trkpt lat="47.14173" lon="-1.69714">
        <ele>59</ele>
        <time>2021-08-06T18:02:02.000Z</time>
      </trkpt>
      <trkpt lat="47.14186" lon="-1.69712">
        <ele>59</ele>
        <time>2021-08-06T18:02:04.000Z</time>
      </trkpt>
      <trkpt lat="47.142" lon="-1.6971">
        <ele>59</ele>
        <time>2021-08-06T18:02:06.000Z</time>
      </trkpt>
      <trkpt lat="47.14214" lon="-1.69708">
        <ele>60</ele>
        <time>2021-08-06T18:02:08.000Z</time>
      </trkpt>
      <trkpt lat="47.14227" lon="-1.69706">
        <ele>60</ele>
        <time>2021-08-06T18:02:10.000Z</time>
      </trkpt>
      <trkpt lat="47.14241" lon="-1.69704">
        <ele>60</ele>
        <time>2021-08-06T18:02:12.000Z</time>
      </trkpt>
      <trkpt lat="47.14253" lon="-1.69702">
        <ele>60</ele>
        <time>2021-08-06T18:02:14.000Z</time>
      </trkpt>
      <trkpt lat="47.14266" lon="-1.69702">
        <ele>60</ele>
        <time>2021-08-06T18:02:16.000Z</time>
      </trkpt>
      <trkpt lat="47.14277" lon="-1.69703">
        <ele>61</ele>
        <time>2021-08-06T18:02:18.000Z</time>
      </trkpt>
      <trkpt lat="47.1429" lon="-1.69704">
        <ele>62</ele>
        <time>2021-08-06T18:02:20.000Z</time>
      </trkpt>
      <trkpt lat="47.14302" lon="-1.69705">
        <ele>63</ele>
        <time>2021-08-06T18:02:22.000Z</time>
      </trkpt>
      <trkpt lat="47.14313" lon="-1.69706">
        <ele>63</ele>
        <time>2021-08-06T18:02:24.000Z</time>
      </trkpt>
      <trkpt lat="47.14322" lon="-1.697">
        <ele>62</ele>
        <time>2021-08-06T18:02:26.000Z</time>
      </trkpt>
      <trkpt lat="47.1433" lon="-1.69689">
        <ele>62</ele>
        <time>2021-08-06T18:02:28.000Z</time>
      </trkpt>
      <trkpt lat="47.14334" lon="-1.69673">
        <ele>62</ele>
        <time>2021-08-06T18:02:30.000Z</time>
      </trkpt>
      <trkpt lat="47.14338" lon="-1.69655">
        <ele>62</ele>
        <time>2021-08-06T18:02:32.000Z</time>
      </trkpt>
      <trkpt lat="47.14341" lon="-1.69638">
        <ele>62</ele>
        <time>2021-08-06T18:02:34.000Z</time>
      </trkpt>
      <trkpt lat="47.14347" lon="-1.69621">
        <ele>62</ele>
        <time>2021-08-06T18:02:36.000Z</time>
      </trkpt>
      <trkpt lat="47.14352" lon="-1.69605">
        <ele>63</ele>
        <time>2021-08-06T18:02:38.000Z</time>
      </trkpt>
      <trkpt lat="47.14358" lon="-1.69589">
        <ele>63</ele>
        <time>2021-08-06T18:02:40.000Z</time>
      </trkpt>
      <trkpt lat="47.14362" lon="-1.69573">
        <ele>63</ele>
        <time>2021-08-06T18:02:42.000Z</time>
      </trkpt>
      <trkpt lat="47.14368" lon="-1.69556">
        <ele>63</ele>
        <time>2021-08-06T18:02:44.000Z</time>
      </trkpt>
      <trkpt lat="47.14373" lon="-1.69541">
        <ele>64</ele>
        <time>2021-08-06T18:02:46.000Z</time>
      </trkpt>
      <trkpt lat="47.14376" lon="-1.69525">
        <ele>64</ele>
        <time>2021-08-06T18:02:48.000Z</time>
      </trkpt>
      <trkpt lat="47.14378" lon="-1.69508">
        <ele>64</ele>
        <time>2021-08-06T18:02:50.000Z</time>
      </trkpt>
      <trkpt lat="47.14379" lon="-1.69491">
        <ele>64</ele>
        <time>2021-08-06T18:02:52.000Z</time>
      </trkpt>
      <trkpt lat="47.1438" lon="-1.69474">
        <ele>64</ele>
        <time>2021-08-06T18:02:54.000Z</time>
      </trkpt>
      <trkpt lat="47.1438" lon="-1.69458">
        <ele>64</ele>
        <time>2021-08-06T18:02:56.000Z</time>
      </trkpt>
      <trkpt lat="47.14379" lon="-1.69443">
        <ele>65</ele>
        <time>2021-08-06T18:02:58.000Z</time>
      </trkpt>
      <trkpt lat="47.1438" lon="-1.69428">
        <ele>65</ele>
        <time>2021-08-06T18:03:00.000Z</time>
      </trkpt>
      <trkpt lat="47.1438" lon="-1.69414">
        <ele>65</ele>
        <time>2021-08-06T18:03:02.000Z</time>
      </trkpt>
      <trkpt lat="47.14381" lon="-1.69398">
        <ele>65</ele>
        <time>2021-08-06T18:03:04.000Z</time>
      </trkpt>
      <trkpt lat="47.14383" lon="-1.69383">
        <ele>66</ele>
        <time>2021-08-06T18:03:06.000Z</time>
      </trkpt>
      <trkpt lat="47.14386" lon="-1.69365">
        <ele>66</ele>
        <time>2021-08-06T18:03:08.000Z</time>
      </trkpt>
      <trkpt lat="47.14389" lon="-1.69347">
        <ele>66</ele>
        <time>2021-08-06T18:03:10.000Z</time>
      </trkpt>
      <trkpt lat="47.1439" lon="-1.69328">
        <ele>66</ele>
        <time>2021-08-06T18:03:12.000Z</time>
      </trkpt>
      <trkpt lat="47.14391" lon="-1.69308">
        <ele>67</ele>
        <time>2021-08-06T18:03:14.000Z</time>
      </trkpt>
      <trkpt lat="47.14391" lon="-1.69288">
        <ele>67</ele>
        <time>2021-08-06T18:03:16.000Z</time>
      </trkpt>
      <trkpt lat="47.14392" lon="-1.69268">
        <ele>67</ele>
        <time>2021-08-06T18:03:18.000Z</time>
      </trkpt>
      <trkpt lat="47.14392" lon="-1.69249">
        <ele>68</ele>
        <time>2021-08-06T18:03:20.000Z</time>
      </trkpt>
      <trkpt lat="47.14393" lon="-1.6923">
        <ele>67</ele>
        <time>2021-08-06T18:03:22.000Z</time>
      </trkpt>
      <trkpt lat="47.14393" lon="-1.69211">
        <ele>67</ele>
        <time>2021-08-06T18:03:24.000Z</time>
      </trkpt>
      <trkpt lat="47.14393" lon="-1.6919">
        <ele>68</ele>
        <time>2021-08-06T18:03:26.000Z</time>
      </trkpt>
      <trkpt lat="47.14393" lon="-1.69171">
        <ele>68</ele>
        <time>2021-08-06T18:03:28.000Z</time>
      </trkpt>
      <trkpt lat="47.14394" lon="-1.69152">
        <ele>68</ele>
        <time>2021-08-06T18:03:30.000Z</time>
      </trkpt>
      <trkpt lat="47.14394" lon="-1.69132">
        <ele>68</ele>
        <time>2021-08-06T18:03:32.000Z</time>
      </trkpt>
      <trkpt lat="47.14394" lon="-1.69112">
        <ele>68</ele>
        <time>2021-08-06T18:03:34.000Z</time>
      </trkpt>
      <trkpt lat="47.14395" lon="-1.69093">
        <ele>68</ele>
        <time>2021-08-06T18:03:36.000Z</time>
      </trkpt>
      <trkpt lat="47.14395" lon="-1.69074">
        <ele>68</ele>
        <time>2021-08-06T18:03:38.000Z</time>
      </trkpt>
      <trkpt lat="47.14394" lon="-1.69055">
        <ele>67</ele>
        <time>2021-08-06T18:03:40.000Z</time>
      </trkpt>
      <trkpt lat="47.14394" lon="-1.69037">
        <ele>67</ele>
        <time>2021-08-06T18:03:42.000Z</time>
      </trkpt>
      <trkpt lat="47.14395" lon="-1.69019">
        <ele>67</ele>
        <time>2021-08-06T18:03:44.000Z</time>
      </trkpt>
      <trkpt lat="47.14396" lon="-1.68999">
        <ele>67</ele>
        <time>2021-08-06T18:03:46.000Z</time>
      </trkpt>
      <trkpt lat="47.14396" lon="-1.6898">
        <ele>67</ele>
        <time>2021-08-06T18:03:48.000Z</time>
      </trkpt>
      <trkpt lat="47.14396" lon="-1.6896">
        <ele>68</ele>
        <time>2021-08-06T18:03:50.000Z</time>
      </trkpt>
      <trkpt lat="47.14397" lon="-1.6894">
        <ele>68</ele>
        <time>2021-08-06T18:03:52.000Z</time>
      </trkpt>
      <trkpt lat="47.14397" lon="-1.6892">
        <ele>68</ele>
        <time>2021-08-06T18:03:54.000Z</time>
      </trkpt>
      <trkpt lat="47.14397" lon="-1.68901">
        <ele>68</ele>
        <time>2021-08-06T18:03:56.000Z</time>
      </trkpt>
      <trkpt lat="47.14399" lon="-1.6888">
        <ele>68</ele>
        <time>2021-08-06T18:03:58.000Z</time>
      </trkpt>
      <trkpt lat="47.14402" lon="-1.68859">
        <ele>68</ele>
        <time>2021-08-06T18:04:00.000Z</time>
      </trkpt>
      <trkpt lat="47.14405" lon="-1.68839">
        <ele>68</ele>
        <time>2021-08-06T18:04:02.000Z</time>
      </trkpt>
      <trkpt lat="47.14406" lon="-1.68818">
        <ele>67</ele>
        <time>2021-08-06T18:04:04.000Z</time>
      </trkpt>
      <trkpt lat="47.14408" lon="-1.68797">
        <ele>67</ele>
        <time>2021-08-06T18:04:06.000Z</time>
      </trkpt>
      <trkpt lat="47.1441" lon="-1.68775">
        <ele>66</ele>
        <time>2021-08-06T18:04:08.000Z</time>
      </trkpt>
      <trkpt lat="47.14411" lon="-1.68753">
        <ele>66</ele>
        <time>2021-08-06T18:04:10.000Z</time>
      </trkpt>
      <trkpt lat="47.14412" lon="-1.68732">
        <ele>67</ele>
        <time>2021-08-06T18:04:12.000Z</time>
      </trkpt>
      <trkpt lat="47.14413" lon="-1.68711">
        <ele>67</ele>
        <time>2021-08-06T18:04:14.000Z</time>
      </trkpt>
      <trkpt lat="47.14412" lon="-1.68691">
        <ele>66</ele>
        <time>2021-08-06T18:04:16.000Z</time>
      </trkpt>
      <trkpt lat="47.14406" lon="-1.68672">
        <ele>66</ele>
        <time>2021-08-06T18:04:18.000Z</time>
      </trkpt>
      <trkpt lat="47.14404" lon="-1.68652">
        <ele>65</ele>
        <time>2021-08-06T18:04:20.000Z</time>
      </trkpt>
      <trkpt lat="47.14397" lon="-1.68635">
        <ele>64</ele>
        <time>2021-08-06T18:04:22.000Z</time>
      </trkpt>
      <trkpt lat="47.14392" lon="-1.68615">
        <ele>64</ele>
        <time>2021-08-06T18:04:24.000Z</time>
      </trkpt>
      <trkpt lat="47.1439" lon="-1.68595">
        <ele>64</ele>
        <time>2021-08-06T18:04:26.000Z</time>
      </trkpt>
      <trkpt lat="47.14389" lon="-1.68575">
        <ele>65</ele>
        <time>2021-08-06T18:04:28.000Z</time>
      </trkpt>
      <trkpt lat="47.14388" lon="-1.68556">
        <ele>65</ele>
        <time>2021-08-06T18:04:30.000Z</time>
      </trkpt>
      <trkpt lat="47.14388" lon="-1.68536">
        <ele>65</ele>
        <time>2021-08-06T18:04:32.000Z</time>
      </trkpt>
      <trkpt lat="47.14389" lon="-1.68516">
        <ele>65</ele>
        <time>2021-08-06T18:04:34.000Z</time>
      </trkpt>
      <trkpt lat="47.14391" lon="-1.68495">
        <ele>65</ele>
        <time>2021-08-06T18:04:36.000Z</time>
      </trkpt>
      <trkpt lat="47.14393" lon="-1.68474">
        <ele>64</ele>
        <time>2021-08-06T18:04:38.000Z</time>
      </trkpt>
      <trkpt lat="47.14394" lon="-1.68453">
        <ele>64</ele>
        <time>2021-08-06T18:04:40.000Z</time>
      </trkpt>
      <trkpt lat="47.14396" lon="-1.68433">
        <ele>64</ele>
        <time>2021-08-06T18:04:42.000Z</time>
      </trkpt>
      <trkpt lat="47.14397" lon="-1.68414">
        <ele>64</ele>
        <time>2021-08-06T18:04:44.000Z</time>
      </trkpt>
      <trkpt lat="47.14398" lon="-1.68395">
        <ele>64</ele>
        <time>2021-08-06T18:04:46.000Z</time>
      </trkpt>
      <trkpt lat="47.14397" lon="-1.68375">
        <ele>64</ele>
        <time>2021-08-06T18:04:48.000Z</time>
      </trkpt>
      <trkpt lat="47.14395" lon="-1.68355">
        <ele>63</ele>
        <time>2021-08-06T18:04:50.000Z</time>
      </trkpt>
      <trkpt lat="47.14391" lon="-1.68335">
        <ele>63</ele>
        <time>2021-08-06T18:04:52.000Z</time>
      </trkpt>
      <trkpt lat="47.14388" lon="-1.68314">
        <ele>63</ele>
        <time>2021-08-06T18:04:54.000Z</time>
      </trkpt>
      <trkpt lat="47.14384" lon="-1.68295">
        <ele>63</ele>
        <time>2021-08-06T18:04:56.000Z</time>
      </trkpt>
      <trkpt lat="47.14378" lon="-1.68279">
        <ele>63</ele>
        <time>2021-08-06T18:04:58.000Z</time>
      </trkpt>
      <trkpt lat="47.14373" lon="-1.68263">
        <ele>63</ele>
        <time>2021-08-06T18:05:00.000Z</time>
      </trkpt>
      <trkpt lat="47.14371" lon="-1.68244">
        <ele>63</ele>
        <time>2021-08-06T18:05:02.000Z</time>
      </trkpt>
      <trkpt lat="47.1437" lon="-1.68227">
        <ele>63</ele>
        <time>2021-08-06T18:05:04.000Z</time>
      </trkpt>
      <trkpt lat="47.14373" lon="-1.68208">
        <ele>63</ele>
        <time>2021-08-06T18:05:06.000Z</time>
      </trkpt>
      <trkpt lat="47.14372" lon="-1.6819">
        <ele>64</ele>
        <time>2021-08-06T18:05:08.000Z</time>
      </trkpt>
      <trkpt lat="47.14369" lon="-1.68172">
        <ele>64</ele>
        <time>2021-08-06T18:05:10.000Z</time>
      </trkpt>
      <trkpt lat="47.14367" lon="-1.68153">
        <ele>64</ele>
        <time>2021-08-06T18:05:12.000Z</time>
      </trkpt>
      <trkpt lat="47.14369" lon="-1.68132">
        <ele>64</ele>
        <time>2021-08-06T18:05:14.000Z</time>
      </trkpt>
      <trkpt lat="47.1437" lon="-1.68112">
        <ele>65</ele>
        <time>2021-08-06T18:05:16.000Z</time>
      </trkpt>
      <trkpt lat="47.14368" lon="-1.68091">
        <ele>64</ele>
        <time>2021-08-06T18:05:18.000Z</time>
      </trkpt>
      <trkpt lat="47.14367" lon="-1.6807">
        <ele>64</ele>
        <time>2021-08-06T18:05:20.000Z</time>
      </trkpt>
      <trkpt lat="47.14367" lon="-1.68049">
        <ele>64</ele>
        <time>2021-08-06T18:05:22.000Z</time>
      </trkpt>
      <trkpt lat="47.14366" lon="-1.68028">
        <ele>64</ele>
        <time>2021-08-06T18:05:24.000Z</time>
      </trkpt>
      <trkpt lat="47.14365" lon="-1.68007">
        <ele>64</ele>
        <time>2021-08-06T18:05:26.000Z</time>
      </trkpt>
      <trkpt lat="47.14363" lon="-1.67987">
        <ele>64</ele>
        <time>2021-08-06T18:05:28.000Z</time>
      </trkpt>
      <trkpt lat="47.14361" lon="-1.67967">
        <ele>64</ele>
        <time>2021-08-06T18:05:30.000Z</time>
      </trkpt>
      <trkpt lat="47.14359" lon="-1.67947">
        <ele>63</ele>
        <time>2021-08-06T18:05:32.000Z</time>
      </trkpt>
      <trkpt lat="47.14357" lon="-1.67928">
        <ele>63</ele>
        <time>2021-08-06T18:05:34.000Z</time>
      </trkpt>
      <trkpt lat="47.14353" lon="-1.6791">
        <ele>64</ele>
        <time>2021-08-06T18:05:36.000Z</time>
      </trkpt>
      <trkpt lat="47.14346" lon="-1.67894">
        <ele>64</ele>
        <time>2021-08-06T18:05:38.000Z</time>
      </trkpt>
      <trkpt lat="47.1434" lon="-1.67876">
        <ele>64</ele>
        <time>2021-08-06T18:05:40.000Z</time>
      </trkpt>
      <trkpt lat="47.1434" lon="-1.67856">
        <ele>64</ele>
        <time>2021-08-06T18:05:42.000Z</time>
      </trkpt>
      <trkpt lat="47.14344" lon="-1.67838">
        <ele>64</ele>
        <time>2021-08-06T18:05:44.000Z</time>
      </trkpt>
      <trkpt lat="47.14344" lon="-1.67818">
        <ele>64</ele>
        <time>2021-08-06T18:05:46.000Z</time>
      </trkpt>
      <trkpt lat="47.14342" lon="-1.67798">
        <ele>64</ele>
        <time>2021-08-06T18:05:48.000Z</time>
      </trkpt>
      <trkpt lat="47.14339" lon="-1.67778">
        <ele>64</ele>
        <time>2021-08-06T18:05:50.000Z</time>
      </trkpt>
      <trkpt lat="47.14334" lon="-1.6776">
        <ele>64</ele>
        <time>2021-08-06T18:05:52.000Z</time>
      </trkpt>
      <trkpt lat="47.1433" lon="-1.67742">
        <ele>64</ele>
        <time>2021-08-06T18:05:54.000Z</time>
      </trkpt>
      <trkpt lat="47.14325" lon="-1.67724">
        <ele>65</ele>
        <time>2021-08-06T18:05:56.000Z</time>
      </trkpt>
      <trkpt lat="47.1432" lon="-1.67705">
        <ele>64</ele>
        <time>2021-08-06T18:05:58.000Z</time>
      </trkpt>
      <trkpt lat="47.14315" lon="-1.67686">
        <ele>64</ele>
        <time>2021-08-06T18:06:00.000Z</time>
      </trkpt>
      <trkpt lat="47.14312" lon="-1.67667">
        <ele>64</ele>
        <time>2021-08-06T18:06:02.000Z</time>
      </trkpt>
      <trkpt lat="47.1431" lon="-1.67648">
        <ele>64</ele>
        <time>2021-08-06T18:06:04.000Z</time>
      </trkpt>
      <trkpt lat="47.14308" lon="-1.67628">
        <ele>63</ele>
        <time>2021-08-06T18:06:06.000Z</time>
      </trkpt>
      <trkpt lat="47.14306" lon="-1.67607">
        <ele>63</ele>
        <time>2021-08-06T18:06:08.000Z</time>
      </trkpt>
      <trkpt lat="47.14305" lon="-1.67586">
        <ele>63</ele>
        <time>2021-08-06T18:06:10.000Z</time>
      </trkpt>
      <trkpt lat="47.14303" lon="-1.67566">
        <ele>63</ele>
        <time>2021-08-06T18:06:12.000Z</time>
      </trkpt>
      <trkpt lat="47.14301" lon="-1.67545">
        <ele>63</ele>
        <time>2021-08-06T18:06:14.000Z</time>
      </trkpt>
      <trkpt lat="47.14299" lon="-1.67526">
        <ele>63</ele>
        <time>2021-08-06T18:06:16.000Z</time>
      </trkpt>
      <trkpt lat="47.14295" lon="-1.67507">
        <ele>63</ele>
        <time>2021-08-06T18:06:18.000Z</time>
      </trkpt>
      <trkpt lat="47.1429" lon="-1.67488">
        <ele>63</ele>
        <time>2021-08-06T18:06:20.000Z</time>
      </trkpt>
      <trkpt lat="47.14285" lon="-1.6747">
        <ele>63</ele>
        <time>2021-08-06T18:06:22.000Z</time>
      </trkpt>
      <trkpt lat="47.1428" lon="-1.67452">
        <ele>64</ele>
        <time>2021-08-06T18:06:24.000Z</time>
      </trkpt>
      <trkpt lat="47.14274" lon="-1.67435">
        <ele>64</ele>
        <time>2021-08-06T18:06:26.000Z</time>
      </trkpt>
      <trkpt lat="47.14268" lon="-1.67418">
        <ele>64</ele>
        <time>2021-08-06T18:06:28.000Z</time>
      </trkpt>
      <trkpt lat="47.14261" lon="-1.67401">
        <ele>64</ele>
        <time>2021-08-06T18:06:30.000Z</time>
      </trkpt>
      <trkpt lat="47.14254" lon="-1.67384">
        <ele>64</ele>
        <time>2021-08-06T18:06:32.000Z</time>
      </trkpt>
      <trkpt lat="47.14247" lon="-1.67367">
        <ele>64</ele>
        <time>2021-08-06T18:06:34.000Z</time>
      </trkpt>
      <trkpt lat="47.1424" lon="-1.67349">
        <ele>64</ele>
        <time>2021-08-06T18:06:36.000Z</time>
      </trkpt>
      <trkpt lat="47.14232" lon="-1.6733">
        <ele>63</ele>
        <time>2021-08-06T18:06:38.000Z</time>
      </trkpt>
      <trkpt lat="47.14225" lon="-1.67312">
        <ele>63</ele>
        <time>2021-08-06T18:06:40.000Z</time>
      </trkpt>
      <trkpt lat="47.14217" lon="-1.67294">
        <ele>63</ele>
        <time>2021-08-06T18:06:42.000Z</time>
      </trkpt>
      <trkpt lat="47.1421" lon="-1.67276">
        <ele>64</ele>
        <time>2021-08-06T18:06:44.000Z</time>
      </trkpt>
      <trkpt lat="47.14203" lon="-1.67257">
        <ele>63</ele>
        <time>2021-08-06T18:06:46.000Z</time>
      </trkpt>
      <trkpt lat="47.14197" lon="-1.67238">
        <ele>63</ele>
        <time>2021-08-06T18:06:48.000Z</time>
      </trkpt>
      <trkpt lat="47.14194" lon="-1.67219">
        <ele>63</ele>
        <time>2021-08-06T18:06:50.000Z</time>
      </trkpt>
      <trkpt lat="47.1419" lon="-1.67198">
        <ele>64</ele>
        <time>2021-08-06T18:06:52.000Z</time>
      </trkpt>
      <trkpt lat="47.14186" lon="-1.67178">
        <ele>64</ele>
        <time>2021-08-06T18:06:54.000Z</time>
      </trkpt>
      <trkpt lat="47.14182" lon="-1.67159">
        <ele>63</ele>
        <time>2021-08-06T18:06:56.000Z</time>
      </trkpt>
      <trkpt lat="47.14178" lon="-1.67139">
        <ele>64</ele>
        <time>2021-08-06T18:06:58.000Z</time>
      </trkpt>
      <trkpt lat="47.14174" lon="-1.67119">
        <ele>63</ele>
        <time>2021-08-06T18:07:00.000Z</time>
      </trkpt>
      <trkpt lat="47.14171" lon="-1.671">
        <ele>64</ele>
        <time>2021-08-06T18:07:02.000Z</time>
      </trkpt>
      <trkpt lat="47.14168" lon="-1.6708">
        <ele>63</ele>
        <time>2021-08-06T18:07:04.000Z</time>
      </trkpt>
      <trkpt lat="47.14166" lon="-1.6706">
        <ele>63</ele>
        <time>2021-08-06T18:07:06.000Z</time>
      </trkpt>
      <trkpt lat="47.14165" lon="-1.67039">
        <ele>63</ele>
        <time>2021-08-06T18:07:08.000Z</time>
      </trkpt>
      <trkpt lat="47.14163" lon="-1.67019">
        <ele>63</ele>
        <time>2021-08-06T18:07:10.000Z</time>
      </trkpt>
      <trkpt lat="47.14162" lon="-1.66998">
        <ele>63</ele>
        <time>2021-08-06T18:07:12.000Z</time>
      </trkpt>
      <trkpt lat="47.14161" lon="-1.66977">
        <ele>63</ele>
        <time>2021-08-06T18:07:14.000Z</time>
      </trkpt>
      <trkpt lat="47.14162" lon="-1.66956">
        <ele>63</ele>
        <time>2021-08-06T18:07:16.000Z</time>
      </trkpt>
      <trkpt lat="47.14163" lon="-1.66937">
        <ele>62</ele>
        <time>2021-08-06T18:07:18.000Z</time>
      </trkpt>
      <trkpt lat="47.14166" lon="-1.66916">
        <ele>62</ele>
        <time>2021-08-06T18:07:20.000Z</time>
      </trkpt>
      <trkpt lat="47.1417" lon="-1.66896">
        <ele>62</ele>
        <time>2021-08-06T18:07:22.000Z</time>
      </trkpt>
      <trkpt lat="47.14176" lon="-1.66877">
        <ele>61</ele>
        <time>2021-08-06T18:07:24.000Z</time>
      </trkpt>
      <trkpt lat="47.14181" lon="-1.66858">
        <ele>62</ele>
        <time>2021-08-06T18:07:26.000Z</time>
      </trkpt>
      <trkpt lat="47.14187" lon="-1.66841">
        <ele>62</ele>
        <time>2021-08-06T18:07:28.000Z</time>
      </trkpt>
      <trkpt lat="47.14193" lon="-1.66821">
        <ele>61</ele>
        <time>2021-08-06T18:07:30.000Z</time>
      </trkpt>
      <trkpt lat="47.142" lon="-1.66803">
        <ele>62</ele>
        <time>2021-08-06T18:07:32.000Z</time>
      </trkpt>
      <trkpt lat="47.14206" lon="-1.66785">
        <ele>62</ele>
        <time>2021-08-06T18:07:34.000Z</time>
      </trkpt>
      <trkpt lat="47.14212" lon="-1.66767">
        <ele>62</ele>
        <time>2021-08-06T18:07:36.000Z</time>
      </trkpt>
      <trkpt lat="47.14218" lon="-1.66749">
        <ele>63</ele>
        <time>2021-08-06T18:07:38.000Z</time>
      </trkpt>
      <trkpt lat="47.14223" lon="-1.66731">
        <ele>63</ele>
        <time>2021-08-06T18:07:40.000Z</time>
      </trkpt>
      <trkpt lat="47.1423" lon="-1.66713">
        <ele>63</ele>
        <time>2021-08-06T18:07:42.000Z</time>
      </trkpt>
      <trkpt lat="47.14235" lon="-1.66695">
        <ele>62</ele>
        <time>2021-08-06T18:07:44.000Z</time>
      </trkpt>
      <trkpt lat="47.14241" lon="-1.66678">
        <ele>63</ele>
        <time>2021-08-06T18:07:46.000Z</time>
      </trkpt>
      <trkpt lat="47.14247" lon="-1.66661">
        <ele>63</ele>
        <time>2021-08-06T18:07:48.000Z</time>
      </trkpt>
      <trkpt lat="47.14253" lon="-1.66643">
        <ele>63</ele>
        <time>2021-08-06T18:07:50.000Z</time>
      </trkpt>
      <trkpt lat="47.14259" lon="-1.66626">
        <ele>63</ele>
        <time>2021-08-06T18:07:52.000Z</time>
      </trkpt>
      <trkpt lat="47.14264" lon="-1.6661">
        <ele>64</ele>
        <time>2021-08-06T18:07:54.000Z</time>
      </trkpt>
      <trkpt lat="47.14269" lon="-1.66592">
        <ele>64</ele>
        <time>2021-08-06T18:07:56.000Z</time>
      </trkpt>
      <trkpt lat="47.14274" lon="-1.66575">
        <ele>64</ele>
        <time>2021-08-06T18:07:58.000Z</time>
      </trkpt>
      <trkpt lat="47.14278" lon="-1.66558">
        <ele>64</ele>
        <time>2021-08-06T18:08:00.000Z</time>
      </trkpt>
      <trkpt lat="47.14283" lon="-1.6654">
        <ele>64</ele>
        <time>2021-08-06T18:08:02.000Z</time>
      </trkpt>
      <trkpt lat="47.14287" lon="-1.66523">
        <ele>64</ele>
        <time>2021-08-06T18:08:04.000Z</time>
      </trkpt>
      <trkpt lat="47.14291" lon="-1.66506">
        <ele>64</ele>
        <time>2021-08-06T18:08:06.000Z</time>
      </trkpt>
      <trkpt lat="47.14295" lon="-1.66488">
        <ele>64</ele>
        <time>2021-08-06T18:08:08.000Z</time>
      </trkpt>
      <trkpt lat="47.143" lon="-1.6647">
        <ele>64</ele>
        <time>2021-08-06T18:08:10.000Z</time>
      </trkpt>
      <trkpt lat="47.14304" lon="-1.66453">
        <ele>64</ele>
        <time>2021-08-06T18:08:12.000Z</time>
      </trkpt>
      <trkpt lat="47.14308" lon="-1.66435">
        <ele>64</ele>
        <time>2021-08-06T18:08:14.000Z</time>
      </trkpt>
      <trkpt lat="47.14313" lon="-1.66417">
        <ele>64</ele>
        <time>2021-08-06T18:08:16.000Z</time>
      </trkpt>
      <trkpt lat="47.14318" lon="-1.66399">
        <ele>64</ele>
        <time>2021-08-06T18:08:18.000Z</time>
      </trkpt>
      <trkpt lat="47.14322" lon="-1.66381">
        <ele>64</ele>
        <time>2021-08-06T18:08:20.000Z</time>
      </trkpt>
      <trkpt lat="47.14327" lon="-1.66363">
        <ele>64</ele>
        <time>2021-08-06T18:08:22.000Z</time>
      </trkpt>
      <trkpt lat="47.14331" lon="-1.66345">
        <ele>64</ele>
        <time>2021-08-06T18:08:24.000Z</time>
      </trkpt>
      <trkpt lat="47.14335" lon="-1.66326">
        <ele>64</ele>
        <time>2021-08-06T18:08:26.000Z</time>
      </trkpt>
      <trkpt lat="47.14339" lon="-1.66308">
        <ele>64</ele>
        <time>2021-08-06T18:08:28.000Z</time>
      </trkpt>
      <trkpt lat="47.14344" lon="-1.6629">
        <ele>65</ele>
        <time>2021-08-06T18:08:30.000Z</time>
      </trkpt>
      <trkpt lat="47.14348" lon="-1.66273">
        <ele>65</ele>
        <time>2021-08-06T18:08:32.000Z</time>
      </trkpt>
      <trkpt lat="47.14352" lon="-1.66254">
        <ele>66</ele>
        <time>2021-08-06T18:08:34.000Z</time>
      </trkpt>
      <trkpt lat="47.14356" lon="-1.66235">
        <ele>65</ele>
        <time>2021-08-06T18:08:36.000Z</time>
      </trkpt>
      <trkpt lat="47.14359" lon="-1.66217">
        <ele>66</ele>
        <time>2021-08-06T18:08:38.000Z</time>
      </trkpt>
      <trkpt lat="47.14365" lon="-1.66201">
        <ele>66</ele>
        <time>2021-08-06T18:08:40.000Z</time>
      </trkpt>
      <trkpt lat="47.14368" lon="-1.66183">
        <ele>66</ele>
        <time>2021-08-06T18:08:42.000Z</time>
      </trkpt>
      <trkpt lat="47.14371" lon="-1.66165">
        <ele>66</ele>
        <time>2021-08-06T18:08:44.000Z</time>
      </trkpt>
      <trkpt lat="47.14374" lon="-1.66147">
        <ele>66</ele>
        <time>2021-08-06T18:08:46.000Z</time>
      </trkpt>
      <trkpt lat="47.14377" lon="-1.66127">
        <ele>66</ele>
        <time>2021-08-06T18:08:48.000Z</time>
      </trkpt>
      <trkpt lat="47.14379" lon="-1.66108">
        <ele>66</ele>
        <time>2021-08-06T18:08:50.000Z</time>
      </trkpt>
      <trkpt lat="47.14381" lon="-1.66089">
        <ele>66</ele>
        <time>2021-08-06T18:08:52.000Z</time>
      </trkpt>
      <trkpt lat="47.14383" lon="-1.66069">
        <ele>65</ele>
        <time>2021-08-06T18:08:54.000Z</time>
      </trkpt>
      <trkpt lat="47.14385" lon="-1.66049">
        <ele>65</ele>
        <time>2021-08-06T18:08:56.000Z</time>
      </trkpt>
      <trkpt lat="47.14386" lon="-1.6603">
        <ele>66</ele>
        <time>2021-08-06T18:08:58.000Z</time>
      </trkpt>
      <trkpt lat="47.14387" lon="-1.66011">
        <ele>66</ele>
        <time>2021-08-06T18:09:00.000Z</time>
      </trkpt>
      <trkpt lat="47.14389" lon="-1.65992">
        <ele>66</ele>
        <time>2021-08-06T18:09:02.000Z</time>
      </trkpt>
      <trkpt lat="47.1439" lon="-1.65973">
        <ele>66</ele>
        <time>2021-08-06T18:09:04.000Z</time>
      </trkpt>
      <trkpt lat="47.14391" lon="-1.65954">
        <ele>66</ele>
        <time>2021-08-06T18:09:06.000Z</time>
      </trkpt>
      <trkpt lat="47.14392" lon="-1.65934">
        <ele>66</ele>
        <time>2021-08-06T18:09:08.000Z</time>
      </trkpt>
      <trkpt lat="47.14393" lon="-1.65915">
        <ele>67</ele>
        <time>2021-08-06T18:09:10.000Z</time>
      </trkpt>
      <trkpt lat="47.14394" lon="-1.65894">
        <ele>66</ele>
        <time>2021-08-06T18:09:12.000Z</time>
      </trkpt>
      <trkpt lat="47.14395" lon="-1.65874">
        <ele>67</ele>
        <time>2021-08-06T18:09:14.000Z</time>
      </trkpt>
      <trkpt lat="47.14396" lon="-1.65855">
        <ele>66</ele>
        <time>2021-08-06T18:09:16.000Z</time>
      </trkpt>
      <trkpt lat="47.14398" lon="-1.65835">
        <ele>66</ele>
        <time>2021-08-06T18:09:18.000Z</time>
      </trkpt>
      <trkpt lat="47.144" lon="-1.65815">
        <ele>65</ele>
        <time>2021-08-06T18:09:20.000Z</time>
      </trkpt>
      <trkpt lat="47.14403" lon="-1.65795">
        <ele>65</ele>
        <time>2021-08-06T18:09:22.000Z</time>
      </trkpt>
      <trkpt lat="47.14406" lon="-1.65775">
        <ele>64</ele>
        <time>2021-08-06T18:09:24.000Z</time>
      </trkpt>
      <trkpt lat="47.14409" lon="-1.65755">
        <ele>64</ele>
        <time>2021-08-06T18:09:26.000Z</time>
      </trkpt>
      <trkpt lat="47.14412" lon="-1.65735">
        <ele>64</ele>
        <time>2021-08-06T18:09:28.000Z</time>
      </trkpt>
      <trkpt lat="47.14416" lon="-1.65716">
        <ele>64</ele>
        <time>2021-08-06T18:09:30.000Z</time>
      </trkpt>
      <trkpt lat="47.1442" lon="-1.65696">
        <ele>64</ele>
        <time>2021-08-06T18:09:32.000Z</time>
      </trkpt>
      <trkpt lat="47.14425" lon="-1.65677">
        <ele>64</ele>
        <time>2021-08-06T18:09:34.000Z</time>
      </trkpt>
      <trkpt lat="47.14431" lon="-1.65658">
        <ele>64</ele>
        <time>2021-08-06T18:09:36.000Z</time>
      </trkpt>
      <trkpt lat="47.14437" lon="-1.65639">
        <ele>65</ele>
        <time>2021-08-06T18:09:38.000Z</time>
      </trkpt>
      <trkpt lat="47.14443" lon="-1.65621">
        <ele>65</ele>
        <time>2021-08-06T18:09:40.000Z</time>
      </trkpt>
      <trkpt lat="47.1445" lon="-1.65603">
        <ele>65</ele>
        <time>2021-08-06T18:09:42.000Z</time>
      </trkpt>
      <trkpt lat="47.14457" lon="-1.65584">
        <ele>65</ele>
        <time>2021-08-06T18:09:44.000Z</time>
      </trkpt>
      <trkpt lat="47.14464" lon="-1.65567">
        <ele>65</ele>
        <time>2021-08-06T18:09:46.000Z</time>
      </trkpt>
      <trkpt lat="47.14471" lon="-1.6555">
        <ele>65</ele>
        <time>2021-08-06T18:09:48.000Z</time>
      </trkpt>
      <trkpt lat="47.14477" lon="-1.65533">
        <ele>66</ele>
        <time>2021-08-06T18:09:50.000Z</time>
      </trkpt>
      <trkpt lat="47.14485" lon="-1.65516">
        <ele>66</ele>
        <time>2021-08-06T18:09:52.000Z</time>
      </trkpt>
      <trkpt lat="47.14491" lon="-1.65499">
        <ele>66</ele>
        <time>2021-08-06T18:09:54.000Z</time>
      </trkpt>
      <trkpt lat="47.14498" lon="-1.65482">
        <ele>66</ele>
        <time>2021-08-06T18:09:56.000Z</time>
      </trkpt>
      <trkpt lat="47.14505" lon="-1.65466">
        <ele>65</ele>
        <time>2021-08-06T18:09:58.000Z</time>
      </trkpt>
      <trkpt lat="47.14512" lon="-1.65449">
        <ele>66</ele>
        <time>2021-08-06T18:10:00.000Z</time>
      </trkpt>
      <trkpt lat="47.14518" lon="-1.65432">
        <ele>66</ele>
        <time>2021-08-06T18:10:02.000Z</time>
      </trkpt>
      <trkpt lat="47.14523" lon="-1.65414">
        <ele>65</ele>
        <time>2021-08-06T18:10:04.000Z</time>
      </trkpt>
      <trkpt lat="47.14525" lon="-1.65395">
        <ele>65</ele>
        <time>2021-08-06T18:10:06.000Z</time>
      </trkpt>
      <trkpt lat="47.14525" lon="-1.65377">
        <ele>65</ele>
        <time>2021-08-06T18:10:08.000Z</time>
      </trkpt>
      <trkpt lat="47.14529" lon="-1.6536">
        <ele>66</ele>
        <time>2021-08-06T18:10:10.000Z</time>
      </trkpt>
      <trkpt lat="47.14534" lon="-1.65341">
        <ele>65</ele>
        <time>2021-08-06T18:10:12.000Z</time>
      </trkpt>
      <trkpt lat="47.14538" lon="-1.65322">
        <ele>65</ele>
        <time>2021-08-06T18:10:14.000Z</time>
      </trkpt>
      <trkpt lat="47.14546" lon="-1.65306">
        <ele>65</ele>
        <time>2021-08-06T18:10:16.000Z</time>
      </trkpt>
      <trkpt lat="47.14553" lon="-1.6529">
        <ele>65</ele>
        <time>2021-08-06T18:10:18.000Z</time>
      </trkpt>
      <trkpt lat="47.14557" lon="-1.65271">
        <ele>66</ele>
        <time>2021-08-06T18:10:20.000Z</time>
      </trkpt>
      <trkpt lat="47.14561" lon="-1.65252">
        <ele>66</ele>
        <time>2021-08-06T18:10:22.000Z</time>
      </trkpt>
      <trkpt lat="47.14565" lon="-1.65233">
        <ele>66</ele>
        <time>2021-08-06T18:10:24.000Z</time>
      </trkpt>
      <trkpt lat="47.14569" lon="-1.65215">
        <ele>66</ele>
        <time>2021-08-06T18:10:26.000Z</time>
      </trkpt>
      <trkpt lat="47.14576" lon="-1.65187">
        <ele>67</ele>
        <time>2021-08-06T18:10:29.000Z</time>
      </trkpt>
      <trkpt lat="47.14582" lon="-1.65169">
        <ele>66</ele>
        <time>2021-08-06T18:10:31.000Z</time>
      </trkpt>
      <trkpt lat="47.14587" lon="-1.65152">
        <ele>66</ele>
        <time>2021-08-06T18:10:33.000Z</time>
      </trkpt>
      <trkpt lat="47.14593" lon="-1.65134">
        <ele>66</ele>
        <time>2021-08-06T18:10:35.000Z</time>
      </trkpt>
      <trkpt lat="47.14602" lon="-1.65109">
        <ele>67</ele>
        <time>2021-08-06T18:10:38.000Z</time>
      </trkpt>
      <trkpt lat="47.1461" lon="-1.65084">
        <ele>67</ele>
        <time>2021-08-06T18:10:41.000Z</time>
      </trkpt>
      <trkpt lat="47.14617" lon="-1.65067">
        <ele>68</ele>
        <time>2021-08-06T18:10:43.000Z</time>
      </trkpt>
      <trkpt lat="47.14623" lon="-1.65051">
        <ele>68</ele>
        <time>2021-08-06T18:10:45.000Z</time>
      </trkpt>
      <trkpt lat="47.14629" lon="-1.65035">
        <ele>68</ele>
        <time>2021-08-06T18:10:47.000Z</time>
      </trkpt>
      <trkpt lat="47.14636" lon="-1.65018">
        <ele>68</ele>
        <time>2021-08-06T18:10:49.000Z</time>
      </trkpt>
      <trkpt lat="47.14643" lon="-1.65002">
        <ele>68</ele>
        <time>2021-08-06T18:10:51.000Z</time>
      </trkpt>
      <trkpt lat="47.14649" lon="-1.64985">
        <ele>68</ele>
        <time>2021-08-06T18:10:53.000Z</time>
      </trkpt>
      <trkpt lat="47.14659" lon="-1.64961">
        <ele>68</ele>
        <time>2021-08-06T18:10:56.000Z</time>
      </trkpt>
      <trkpt lat="47.14668" lon="-1.64937">
        <ele>68</ele>
        <time>2021-08-06T18:10:59.000Z</time>
      </trkpt>
      <trkpt lat="47.14674" lon="-1.64921">
        <ele>68</ele>
        <time>2021-08-06T18:11:01.000Z</time>
      </trkpt>
      <trkpt lat="47.14679" lon="-1.64903">
        <ele>69</ele>
        <time>2021-08-06T18:11:03.000Z</time>
      </trkpt>
      <trkpt lat="47.14684" lon="-1.64886">
        <ele>69</ele>
        <time>2021-08-06T18:11:05.000Z</time>
      </trkpt>
      <trkpt lat="47.14692" lon="-1.6486">
        <ele>69</ele>
        <time>2021-08-06T18:11:08.000Z</time>
      </trkpt>
      <trkpt lat="47.14697" lon="-1.64842">
        <ele>70</ele>
        <time>2021-08-06T18:11:10.000Z</time>
      </trkpt>
      <trkpt lat="47.14701" lon="-1.64825">
        <ele>70</ele>
        <time>2021-08-06T18:11:12.000Z</time>
      </trkpt>
      <trkpt lat="47.14706" lon="-1.64808">
        <ele>70</ele>
        <time>2021-08-06T18:11:14.000Z</time>
      </trkpt>
      <trkpt lat="47.1471" lon="-1.64791">
        <ele>71</ele>
        <time>2021-08-06T18:11:16.000Z</time>
      </trkpt>
      <trkpt lat="47.14715" lon="-1.64774">
        <ele>71</ele>
        <time>2021-08-06T18:11:18.000Z</time>
      </trkpt>
      <trkpt lat="47.14719" lon="-1.64756">
        <ele>71</ele>
        <time>2021-08-06T18:11:20.000Z</time>
      </trkpt>
      <trkpt lat="47.14723" lon="-1.64739">
        <ele>71</ele>
        <time>2021-08-06T18:11:22.000Z</time>
      </trkpt>
      <trkpt lat="47.14727" lon="-1.64722">
        <ele>72</ele>
        <time>2021-08-06T18:11:24.000Z</time>
      </trkpt>
      <trkpt lat="47.1473" lon="-1.64705">
        <ele>72</ele>
        <time>2021-08-06T18:11:26.000Z</time>
      </trkpt>
      <trkpt lat="47.14734" lon="-1.64687">
        <ele>72</ele>
        <time>2021-08-06T18:11:28.000Z</time>
      </trkpt>
      <trkpt lat="47.14737" lon="-1.64669">
        <ele>73</ele>
        <time>2021-08-06T18:11:30.000Z</time>
      </trkpt>
      <trkpt lat="47.1474" lon="-1.64651">
        <ele>73</ele>
        <time>2021-08-06T18:11:32.000Z</time>
      </trkpt>
      <trkpt lat="47.14743" lon="-1.64633">
        <ele>72</ele>
        <time>2021-08-06T18:11:34.000Z</time>
      </trkpt>
      <trkpt lat="47.14746" lon="-1.64615">
        <ele>73</ele>
        <time>2021-08-06T18:11:36.000Z</time>
      </trkpt>
      <trkpt lat="47.14749" lon="-1.64597">
        <ele>73</ele>
        <time>2021-08-06T18:11:38.000Z</time>
      </trkpt>
      <trkpt lat="47.14751" lon="-1.64579">
        <ele>73</ele>
        <time>2021-08-06T18:11:40.000Z</time>
      </trkpt>
      <trkpt lat="47.14754" lon="-1.64561">
        <ele>73</ele>
        <time>2021-08-06T18:11:42.000Z</time>
      </trkpt>
      <trkpt lat="47.14757" lon="-1.64541">
        <ele>73</ele>
        <time>2021-08-06T18:11:44.000Z</time>
      </trkpt>
      <trkpt lat="47.1476" lon="-1.64523">
        <ele>73</ele>
        <time>2021-08-06T18:11:46.000Z</time>
      </trkpt>
      <trkpt lat="47.14763" lon="-1.64504">
        <ele>73</ele>
        <time>2021-08-06T18:11:48.000Z</time>
      </trkpt>
      <trkpt lat="47.14766" lon="-1.64485">
        <ele>73</ele>
        <time>2021-08-06T18:11:50.000Z</time>
      </trkpt>
      <trkpt lat="47.14769" lon="-1.64466">
        <ele>73</ele>
        <time>2021-08-06T18:11:52.000Z</time>
      </trkpt>
      <trkpt lat="47.14773" lon="-1.64446">
        <ele>73</ele>
        <time>2021-08-06T18:11:54.000Z</time>
      </trkpt>
      <trkpt lat="47.14776" lon="-1.64427">
        <ele>73</ele>
        <time>2021-08-06T18:11:56.000Z</time>
      </trkpt>
      <trkpt lat="47.1478" lon="-1.64409">
        <ele>73</ele>
        <time>2021-08-06T18:11:58.000Z</time>
      </trkpt>
      <trkpt lat="47.14784" lon="-1.64391">
        <ele>73</ele>
        <time>2021-08-06T18:12:00.000Z</time>
      </trkpt>
      <trkpt lat="47.14788" lon="-1.64373">
        <ele>73</ele>
        <time>2021-08-06T18:12:02.000Z</time>
      </trkpt>
      <trkpt lat="47.14792" lon="-1.64354">
        <ele>73</ele>
        <time>2021-08-06T18:12:04.000Z</time>
      </trkpt>
      <trkpt lat="47.14796" lon="-1.64336">
        <ele>73</ele>
        <time>2021-08-06T18:12:06.000Z</time>
      </trkpt>
      <trkpt lat="47.14801" lon="-1.64318">
        <ele>73</ele>
        <time>2021-08-06T18:12:08.000Z</time>
      </trkpt>
      <trkpt lat="47.14806" lon="-1.643">
        <ele>73</ele>
        <time>2021-08-06T18:12:10.000Z</time>
      </trkpt>
      <trkpt lat="47.14811" lon="-1.64281">
        <ele>73</ele>
        <time>2021-08-06T18:12:12.000Z</time>
      </trkpt>
      <trkpt lat="47.14816" lon="-1.64263">
        <ele>73</ele>
        <time>2021-08-06T18:12:14.000Z</time>
      </trkpt>
      <trkpt lat="47.14822" lon="-1.64245">
        <ele>73</ele>
        <time>2021-08-06T18:12:16.000Z</time>
      </trkpt>
      <trkpt lat="47.14827" lon="-1.64228">
        <ele>74</ele>
        <time>2021-08-06T18:12:18.000Z</time>
      </trkpt>
      <trkpt lat="47.14833" lon="-1.6421">
        <ele>74</ele>
        <time>2021-08-06T18:12:20.000Z</time>
      </trkpt>
      <trkpt lat="47.14838" lon="-1.64193">
        <ele>74</ele>
        <time>2021-08-06T18:12:22.000Z</time>
      </trkpt>
      <trkpt lat="47.14843" lon="-1.64175">
        <ele>74</ele>
        <time>2021-08-06T18:12:24.000Z</time>
      </trkpt>
      <trkpt lat="47.1485" lon="-1.64158">
        <ele>74</ele>
        <time>2021-08-06T18:12:26.000Z</time>
      </trkpt>
      <trkpt lat="47.14856" lon="-1.6414">
        <ele>74</ele>
        <time>2021-08-06T18:12:28.000Z</time>
      </trkpt>
      <trkpt lat="47.14862" lon="-1.64123">
        <ele>74</ele>
        <time>2021-08-06T18:12:30.000Z</time>
      </trkpt>
      <trkpt lat="47.14868" lon="-1.64106">
        <ele>74</ele>
        <time>2021-08-06T18:12:32.000Z</time>
      </trkpt>
      <trkpt lat="47.14874" lon="-1.64089">
        <ele>74</ele>
        <time>2021-08-06T18:12:34.000Z</time>
      </trkpt>
      <trkpt lat="47.1488" lon="-1.6407">
        <ele>74</ele>
        <time>2021-08-06T18:12:36.000Z</time>
      </trkpt>
      <trkpt lat="47.14881" lon="-1.64051">
        <ele>74</ele>
        <time>2021-08-06T18:12:38.000Z</time>
      </trkpt>
      <trkpt lat="47.14886" lon="-1.64035">
        <ele>75</ele>
        <time>2021-08-06T18:12:40.000Z</time>
      </trkpt>
      <trkpt lat="47.14894" lon="-1.64022">
        <ele>75</ele>
        <time>2021-08-06T18:12:42.000Z</time>
      </trkpt>
      <trkpt lat="47.14906" lon="-1.64017">
        <ele>76</ele>
        <time>2021-08-06T18:12:44.000Z</time>
      </trkpt>
      <trkpt lat="47.14913" lon="-1.64003">
        <ele>76</ele>
        <time>2021-08-06T18:12:46.000Z</time>
      </trkpt>
      <trkpt lat="47.1492" lon="-1.63985">
        <ele>76</ele>
        <time>2021-08-06T18:12:48.000Z</time>
      </trkpt>
      <trkpt lat="47.14929" lon="-1.63969">
        <ele>76</ele>
        <time>2021-08-06T18:12:50.000Z</time>
      </trkpt>
      <trkpt lat="47.14937" lon="-1.63954">
        <ele>76</ele>
        <time>2021-08-06T18:12:52.000Z</time>
      </trkpt>
      <trkpt lat="47.14947" lon="-1.6394">
        <ele>76</ele>
        <time>2021-08-06T18:12:54.000Z</time>
      </trkpt>
      <trkpt lat="47.14957" lon="-1.63925">
        <ele>76</ele>
        <time>2021-08-06T18:12:56.000Z</time>
      </trkpt>
      <trkpt lat="47.14968" lon="-1.6391">
        <ele>75</ele>
        <time>2021-08-06T18:12:58.000Z</time>
      </trkpt>
      <trkpt lat="47.14978" lon="-1.63895">
        <ele>76</ele>
        <time>2021-08-06T18:13:00.000Z</time>
      </trkpt>
      <trkpt lat="47.14988" lon="-1.6388">
        <ele>76</ele>
        <time>2021-08-06T18:13:02.000Z</time>
      </trkpt>
      <trkpt lat="47.14999" lon="-1.63865">
        <ele>76</ele>
        <time>2021-08-06T18:13:04.000Z</time>
      </trkpt>
      <trkpt lat="47.15009" lon="-1.63851">
        <ele>76</ele>
        <time>2021-08-06T18:13:06.000Z</time>
      </trkpt>
      <trkpt lat="47.1502" lon="-1.63837">
        <ele>76</ele>
        <time>2021-08-06T18:13:08.000Z</time>
      </trkpt>
      <trkpt lat="47.1503" lon="-1.63823">
        <ele>76</ele>
        <time>2021-08-06T18:13:10.000Z</time>
      </trkpt>
      <trkpt lat="47.1504" lon="-1.6381">
        <ele>76</ele>
        <time>2021-08-06T18:13:12.000Z</time>
      </trkpt>
      <trkpt lat="47.1505" lon="-1.63797">
        <ele>75</ele>
        <time>2021-08-06T18:13:14.000Z</time>
      </trkpt>
      <trkpt lat="47.15061" lon="-1.63784">
        <ele>75</ele>
        <time>2021-08-06T18:13:16.000Z</time>
      </trkpt>
      <trkpt lat="47.15072" lon="-1.63771">
        <ele>75</ele>
        <time>2021-08-06T18:13:18.000Z</time>
      </trkpt>
      <trkpt lat="47.15082" lon="-1.63758">
        <ele>74</ele>
        <time>2021-08-06T18:13:20.000Z</time>
      </trkpt>
      <trkpt lat="47.15093" lon="-1.63746">
        <ele>75</ele>
        <time>2021-08-06T18:13:22.000Z</time>
      </trkpt>
      <trkpt lat="47.15105" lon="-1.63734">
        <ele>74</ele>
        <time>2021-08-06T18:13:24.000Z</time>
      </trkpt>
      <trkpt lat="47.15116" lon="-1.63721">
        <ele>74</ele>
        <time>2021-08-06T18:13:26.000Z</time>
      </trkpt>
      <trkpt lat="47.15127" lon="-1.63708">
        <ele>74</ele>
        <time>2021-08-06T18:13:28.000Z</time>
      </trkpt>
      <trkpt lat="47.15138" lon="-1.63697">
        <ele>74</ele>
        <time>2021-08-06T18:13:30.000Z</time>
      </trkpt>
      <trkpt lat="47.1515" lon="-1.63686">
        <ele>74</ele>
        <time>2021-08-06T18:13:32.000Z</time>
      </trkpt>
      <trkpt lat="47.15162" lon="-1.63675">
        <ele>74</ele>
        <time>2021-08-06T18:13:34.000Z</time>
      </trkpt>
      <trkpt lat="47.15174" lon="-1.63664">
        <ele>74</ele>
        <time>2021-08-06T18:13:36.000Z</time>
      </trkpt>
      <trkpt lat="47.15185" lon="-1.63654">
        <ele>74</ele>
        <time>2021-08-06T18:13:38.000Z</time>
      </trkpt>
      <trkpt lat="47.15197" lon="-1.63643">
        <ele>74</ele>
        <time>2021-08-06T18:13:40.000Z</time>
      </trkpt>
      <trkpt lat="47.15209" lon="-1.63633">
        <ele>74</ele>
        <time>2021-08-06T18:13:42.000Z</time>
      </trkpt>
      <trkpt lat="47.1522" lon="-1.63622">
        <ele>74</ele>
        <time>2021-08-06T18:13:44.000Z</time>
      </trkpt>
      <trkpt lat="47.15232" lon="-1.63611">
        <ele>74</ele>
        <time>2021-08-06T18:13:46.000Z</time>
      </trkpt>
      <trkpt lat="47.15243" lon="-1.636">
        <ele>74</ele>
        <time>2021-08-06T18:13:48.000Z</time>
      </trkpt>
      <trkpt lat="47.15255" lon="-1.6359">
        <ele>75</ele>
        <time>2021-08-06T18:13:50.000Z</time>
      </trkpt>
      <trkpt lat="47.15266" lon="-1.6358">
        <ele>75</ele>
        <time>2021-08-06T18:13:52.000Z</time>
      </trkpt>
      <trkpt lat="47.15278" lon="-1.63569">
        <ele>75</ele>
        <time>2021-08-06T18:13:54.000Z</time>
      </trkpt>
      <trkpt lat="47.15289" lon="-1.63559">
        <ele>75</ele>
        <time>2021-08-06T18:13:56.000Z</time>
      </trkpt>
      <trkpt lat="47.153" lon="-1.63548">
        <ele>75</ele>
        <time>2021-08-06T18:13:58.000Z</time>
      </trkpt>
      <trkpt lat="47.15312" lon="-1.63538">
        <ele>75</ele>
        <time>2021-08-06T18:14:00.000Z</time>
      </trkpt>
      <trkpt lat="47.15324" lon="-1.63528">
        <ele>75</ele>
        <time>2021-08-06T18:14:02.000Z</time>
      </trkpt>
      <trkpt lat="47.15335" lon="-1.63518">
        <ele>75</ele>
        <time>2021-08-06T18:14:04.000Z</time>
      </trkpt>
      <trkpt lat="47.15347" lon="-1.63507">
        <ele>75</ele>
        <time>2021-08-06T18:14:06.000Z</time>
      </trkpt>
      <trkpt lat="47.15358" lon="-1.63498">
        <ele>75</ele>
        <time>2021-08-06T18:14:08.000Z</time>
      </trkpt>
      <trkpt lat="47.1537" lon="-1.63487">
        <ele>75</ele>
        <time>2021-08-06T18:14:10.000Z</time>
      </trkpt>
      <trkpt lat="47.15382" lon="-1.63477">
        <ele>74</ele>
        <time>2021-08-06T18:14:12.000Z</time>
      </trkpt>
      <trkpt lat="47.15393" lon="-1.63466">
        <ele>74</ele>
        <time>2021-08-06T18:14:14.000Z</time>
      </trkpt>
      <trkpt lat="47.15405" lon="-1.63456">
        <ele>74</ele>
        <time>2021-08-06T18:14:16.000Z</time>
      </trkpt>
      <trkpt lat="47.15417" lon="-1.63446">
        <ele>74</ele>
        <time>2021-08-06T18:14:18.000Z</time>
      </trkpt>
      <trkpt lat="47.15429" lon="-1.63435">
        <ele>74</ele>
        <time>2021-08-06T18:14:20.000Z</time>
      </trkpt>
      <trkpt lat="47.15441" lon="-1.63422">
        <ele>73</ele>
        <time>2021-08-06T18:14:22.000Z</time>
      </trkpt>
      <trkpt lat="47.15453" lon="-1.6341">
        <ele>73</ele>
        <time>2021-08-06T18:14:24.000Z</time>
      </trkpt>
      <trkpt lat="47.15465" lon="-1.63399">
        <ele>72</ele>
        <time>2021-08-06T18:14:26.000Z</time>
      </trkpt>
      <trkpt lat="47.15479" lon="-1.6339">
        <ele>72</ele>
        <time>2021-08-06T18:14:28.000Z</time>
      </trkpt>
      <trkpt lat="47.15492" lon="-1.63381">
        <ele>72</ele>
        <time>2021-08-06T18:14:30.000Z</time>
      </trkpt>
      <trkpt lat="47.15506" lon="-1.6337">
        <ele>71</ele>
        <time>2021-08-06T18:14:32.000Z</time>
      </trkpt>
      <trkpt lat="47.1552" lon="-1.63359">
        <ele>71</ele>
        <time>2021-08-06T18:14:34.000Z</time>
      </trkpt>
      <trkpt lat="47.15533" lon="-1.63347">
        <ele>71</ele>
        <time>2021-08-06T18:14:36.000Z</time>
      </trkpt>
      <trkpt lat="47.15547" lon="-1.63334">
        <ele>71</ele>
        <time>2021-08-06T18:14:38.000Z</time>
      </trkpt>
      <trkpt lat="47.15561" lon="-1.63321">
        <ele>70</ele>
        <time>2021-08-06T18:14:40.000Z</time>
      </trkpt>
      <trkpt lat="47.15576" lon="-1.63308">
        <ele>70</ele>
        <time>2021-08-06T18:14:42.000Z</time>
      </trkpt>
      <trkpt lat="47.15591" lon="-1.63294">
        <ele>70</ele>
        <time>2021-08-06T18:14:44.000Z</time>
      </trkpt>
      <trkpt lat="47.15606" lon="-1.63282">
        <ele>69</ele>
        <time>2021-08-06T18:14:46.000Z</time>
      </trkpt>
      <trkpt lat="47.1562" lon="-1.63268">
        <ele>69</ele>
        <time>2021-08-06T18:14:48.000Z</time>
      </trkpt>
      <trkpt lat="47.15634" lon="-1.63256">
        <ele>69</ele>
        <time>2021-08-06T18:14:50.000Z</time>
      </trkpt>
      <trkpt lat="47.15648" lon="-1.63243">
        <ele>69</ele>
        <time>2021-08-06T18:14:52.000Z</time>
      </trkpt>
      <trkpt lat="47.15662" lon="-1.63232">
        <ele>69</ele>
        <time>2021-08-06T18:14:54.000Z</time>
      </trkpt>
      <trkpt lat="47.15674" lon="-1.6322">
        <ele>69</ele>
        <time>2021-08-06T18:14:56.000Z</time>
      </trkpt>
      <trkpt lat="47.15687" lon="-1.63209">
        <ele>69</ele>
        <time>2021-08-06T18:14:58.000Z</time>
      </trkpt>
      <trkpt lat="47.157" lon="-1.63198">
        <ele>69</ele>
        <time>2021-08-06T18:15:00.000Z</time>
      </trkpt>
      <trkpt lat="47.15713" lon="-1.63187">
        <ele>68</ele>
        <time>2021-08-06T18:15:02.000Z</time>
      </trkpt>
      <trkpt lat="47.15725" lon="-1.63176">
        <ele>68</ele>
        <time>2021-08-06T18:15:04.000Z</time>
      </trkpt>
      <trkpt lat="47.15737" lon="-1.63165">
        <ele>67</ele>
        <time>2021-08-06T18:15:06.000Z</time>
      </trkpt>
      <trkpt lat="47.15746" lon="-1.63151">
        <ele>67</ele>
        <time>2021-08-06T18:15:08.000Z</time>
      </trkpt>
      <trkpt lat="47.15758" lon="-1.63143">
        <ele>67</ele>
        <time>2021-08-06T18:15:10.000Z</time>
      </trkpt>
      <trkpt lat="47.15772" lon="-1.63135">
        <ele>66</ele>
        <time>2021-08-06T18:15:12.000Z</time>
      </trkpt>
      <trkpt lat="47.15784" lon="-1.63124">
        <ele>66</ele>
        <time>2021-08-06T18:15:14.000Z</time>
      </trkpt>
      <trkpt lat="47.15797" lon="-1.63112">
        <ele>65</ele>
        <time>2021-08-06T18:15:16.000Z</time>
      </trkpt>
      <trkpt lat="47.1581" lon="-1.631">
        <ele>65</ele>
        <time>2021-08-06T18:15:18.000Z</time>
      </trkpt>
      <trkpt lat="47.15824" lon="-1.63088">
        <ele>64</ele>
        <time>2021-08-06T18:15:20.000Z</time>
      </trkpt>
      <trkpt lat="47.15838" lon="-1.63076">
        <ele>63</ele>
        <time>2021-08-06T18:15:22.000Z</time>
      </trkpt>
      <trkpt lat="47.15852" lon="-1.63064">
        <ele>63</ele>
        <time>2021-08-06T18:15:24.000Z</time>
      </trkpt>
      <trkpt lat="47.15866" lon="-1.63051">
        <ele>63</ele>
        <time>2021-08-06T18:15:26.000Z</time>
      </trkpt>
      <trkpt lat="47.1588" lon="-1.63038">
        <ele>62</ele>
        <time>2021-08-06T18:15:28.000Z</time>
      </trkpt>
      <trkpt lat="47.15894" lon="-1.63026">
        <ele>62</ele>
        <time>2021-08-06T18:15:30.000Z</time>
      </trkpt>
      <trkpt lat="47.15908" lon="-1.63013">
        <ele>62</ele>
        <time>2021-08-06T18:15:32.000Z</time>
      </trkpt>
      <trkpt lat="47.1592" lon="-1.63002">
        <ele>62</ele>
        <time>2021-08-06T18:15:34.000Z</time>
      </trkpt>
      <trkpt lat="47.15932" lon="-1.62991">
        <ele>62</ele>
        <time>2021-08-06T18:15:36.000Z</time>
      </trkpt>
      <trkpt lat="47.15944" lon="-1.6298">
        <ele>63</ele>
        <time>2021-08-06T18:15:38.000Z</time>
      </trkpt>
      <trkpt lat="47.15955" lon="-1.6297">
        <ele>63</ele>
        <time>2021-08-06T18:15:40.000Z</time>
      </trkpt>
      <trkpt lat="47.15966" lon="-1.62961">
        <ele>64</ele>
        <time>2021-08-06T18:15:42.000Z</time>
      </trkpt>
      <trkpt lat="47.15977" lon="-1.6295">
        <ele>64</ele>
        <time>2021-08-06T18:15:44.000Z</time>
      </trkpt>
      <trkpt lat="47.15988" lon="-1.6294">
        <ele>65</ele>
        <time>2021-08-06T18:15:46.000Z</time>
      </trkpt>
      <trkpt lat="47.15999" lon="-1.62931">
        <ele>65</ele>
        <time>2021-08-06T18:15:48.000Z</time>
      </trkpt>
      <trkpt lat="47.1601" lon="-1.62921">
        <ele>65</ele>
        <time>2021-08-06T18:15:50.000Z</time>
      </trkpt>
      <trkpt lat="47.16021" lon="-1.62911">
        <ele>65</ele>
        <time>2021-08-06T18:15:52.000Z</time>
      </trkpt>
      <trkpt lat="47.16032" lon="-1.62901">
        <ele>66</ele>
        <time>2021-08-06T18:15:54.000Z</time>
      </trkpt>
      <trkpt lat="47.16043" lon="-1.62891">
        <ele>66</ele>
        <time>2021-08-06T18:15:56.000Z</time>
      </trkpt>
      <trkpt lat="47.16054" lon="-1.62881">
        <ele>67</ele>
        <time>2021-08-06T18:15:58.000Z</time>
      </trkpt>
      <trkpt lat="47.16066" lon="-1.62872">
        <ele>68</ele>
        <time>2021-08-06T18:16:00.000Z</time>
      </trkpt>
      <trkpt lat="47.16076" lon="-1.62862">
        <ele>68</ele>
        <time>2021-08-06T18:16:02.000Z</time>
      </trkpt>
      <trkpt lat="47.16087" lon="-1.62852">
        <ele>68</ele>
        <time>2021-08-06T18:16:04.000Z</time>
      </trkpt>
      <trkpt lat="47.16098" lon="-1.62843">
        <ele>69</ele>
        <time>2021-08-06T18:16:06.000Z</time>
      </trkpt>
      <trkpt lat="47.16109" lon="-1.62834">
        <ele>69</ele>
        <time>2021-08-06T18:16:08.000Z</time>
      </trkpt>
      <trkpt lat="47.16119" lon="-1.62825">
        <ele>69</ele>
        <time>2021-08-06T18:16:10.000Z</time>
      </trkpt>
      <trkpt lat="47.16129" lon="-1.62817">
        <ele>69</ele>
        <time>2021-08-06T18:16:12.000Z</time>
      </trkpt>
      <trkpt lat="47.1614" lon="-1.62808">
        <ele>69</ele>
        <time>2021-08-06T18:16:14.000Z</time>
      </trkpt>
      <trkpt lat="47.16151" lon="-1.62799">
        <ele>69</ele>
        <time>2021-08-06T18:16:16.000Z</time>
      </trkpt>
      <trkpt lat="47.16161" lon="-1.6279">
        <ele>70</ele>
        <time>2021-08-06T18:16:18.000Z</time>
      </trkpt>
      <trkpt lat="47.16171" lon="-1.62782">
        <ele>70</ele>
        <time>2021-08-06T18:16:20.000Z</time>
      </trkpt>
      <trkpt lat="47.1618" lon="-1.62773">
        <ele>71</ele>
        <time>2021-08-06T18:16:22.000Z</time>
      </trkpt>
      <trkpt lat="47.16189" lon="-1.62764">
        <ele>71</ele>
        <time>2021-08-06T18:16:24.000Z</time>
      </trkpt>
      <trkpt lat="47.16199" lon="-1.62755">
        <ele>71</ele>
        <time>2021-08-06T18:16:26.000Z</time>
      </trkpt>
      <trkpt lat="47.16208" lon="-1.62747">
        <ele>71</ele>
        <time>2021-08-06T18:16:28.000Z</time>
      </trkpt>
      <trkpt lat="47.16218" lon="-1.62738">
        <ele>71</ele>
        <time>2021-08-06T18:16:30.000Z</time>
      </trkpt>
      <trkpt lat="47.16227" lon="-1.62731">
        <ele>72</ele>
        <time>2021-08-06T18:16:32.000Z</time>
      </trkpt>
      <trkpt lat="47.16236" lon="-1.62723">
        <ele>72</ele>
        <time>2021-08-06T18:16:34.000Z</time>
      </trkpt>
      <trkpt lat="47.16246" lon="-1.62715">
        <ele>72</ele>
        <time>2021-08-06T18:16:36.000Z</time>
      </trkpt>
      <trkpt lat="47.16256" lon="-1.62708">
        <ele>72</ele>
        <time>2021-08-06T18:16:38.000Z</time>
      </trkpt>
      <trkpt lat="47.16265" lon="-1.62701">
        <ele>72</ele>
        <time>2021-08-06T18:16:40.000Z</time>
      </trkpt>
      <trkpt lat="47.16274" lon="-1.62694">
        <ele>73</ele>
        <time>2021-08-06T18:16:42.000Z</time>
      </trkpt>
      <trkpt lat="47.16277" lon="-1.62675">
        <ele>73</ele>
        <time>2021-08-06T18:16:45.000Z</time>
      </trkpt>
      <trkpt lat="47.16276" lon="-1.62658">
        <ele>74</ele>
        <time>2021-08-06T18:16:47.000Z</time>
      </trkpt>
      <trkpt lat="47.16278" lon="-1.62641">
        <ele>74</ele>
        <time>2021-08-06T18:16:49.000Z</time>
      </trkpt>
      <trkpt lat="47.16281" lon="-1.62624">
        <ele>74</ele>
        <time>2021-08-06T18:16:51.000Z</time>
      </trkpt>
      <trkpt lat="47.16285" lon="-1.62609">
        <ele>74</ele>
        <time>2021-08-06T18:16:53.000Z</time>
      </trkpt>
      <trkpt lat="47.1629" lon="-1.62594">
        <ele>75</ele>
        <time>2021-08-06T18:16:55.000Z</time>
      </trkpt>
      <trkpt lat="47.16296" lon="-1.62581">
        <ele>75</ele>
        <time>2021-08-06T18:16:57.000Z</time>
      </trkpt>
      <trkpt lat="47.16304" lon="-1.62573">
        <ele>75</ele>
        <time>2021-08-06T18:16:59.000Z</time>
      </trkpt>
      <trkpt lat="47.16315" lon="-1.62569">
        <ele>75</ele>
        <time>2021-08-06T18:17:01.000Z</time>
      </trkpt>
      <trkpt lat="47.16326" lon="-1.62568">
        <ele>75</ele>
        <time>2021-08-06T18:17:03.000Z</time>
      </trkpt>
      <trkpt lat="47.16338" lon="-1.62574">
        <ele>76</ele>
        <time>2021-08-06T18:17:05.000Z</time>
      </trkpt>
      <trkpt lat="47.16349" lon="-1.62579">
        <ele>76</ele>
        <time>2021-08-06T18:17:07.000Z</time>
      </trkpt>
      <trkpt lat="47.16361" lon="-1.62581">
        <ele>76</ele>
        <time>2021-08-06T18:17:09.000Z</time>
      </trkpt>
      <trkpt lat="47.16373" lon="-1.62582">
        <ele>76</ele>
        <time>2021-08-06T18:17:11.000Z</time>
      </trkpt>
      <trkpt lat="47.16384" lon="-1.6258">
        <ele>76</ele>
        <time>2021-08-06T18:17:13.000Z</time>
      </trkpt>
      <trkpt lat="47.16396" lon="-1.62575">
        <ele>76</ele>
        <time>2021-08-06T18:17:15.000Z</time>
      </trkpt>
      <trkpt lat="47.16406" lon="-1.62567">
        <ele>76</ele>
        <time>2021-08-06T18:17:17.000Z</time>
      </trkpt>
      <trkpt lat="47.16415" lon="-1.62557">
        <ele>76</ele>
        <time>2021-08-06T18:17:19.000Z</time>
      </trkpt>
      <trkpt lat="47.16424" lon="-1.62547">
        <ele>76</ele>
        <time>2021-08-06T18:17:21.000Z</time>
      </trkpt>
      <trkpt lat="47.16433" lon="-1.62539">
        <ele>76</ele>
        <time>2021-08-06T18:17:23.000Z</time>
      </trkpt>
      <trkpt lat="47.16444" lon="-1.62538">
        <ele>76</ele>
        <time>2021-08-06T18:17:25.000Z</time>
      </trkpt>
      <trkpt lat="47.16456" lon="-1.62542">
        <ele>76</ele>
        <time>2021-08-06T18:17:27.000Z</time>
      </trkpt>
      <trkpt lat="47.16468" lon="-1.62545">
        <ele>76</ele>
        <time>2021-08-06T18:17:29.000Z</time>
      </trkpt>
      <trkpt lat="47.16479" lon="-1.62549">
        <ele>76</ele>
        <time>2021-08-06T18:17:31.000Z</time>
      </trkpt>
      <trkpt lat="47.16491" lon="-1.62553">
        <ele>76</ele>
        <time>2021-08-06T18:17:33.000Z</time>
      </trkpt>
      <trkpt lat="47.16503" lon="-1.62557">
        <ele>76</ele>
        <time>2021-08-06T18:17:35.000Z</time>
      </trkpt>
      <trkpt lat="47.16515" lon="-1.6256">
        <ele>76</ele>
        <time>2021-08-06T18:17:37.000Z</time>
      </trkpt>
      <trkpt lat="47.16527" lon="-1.62563">
        <ele>75</ele>
        <time>2021-08-06T18:17:39.000Z</time>
      </trkpt>
      <trkpt lat="47.16539" lon="-1.62559">
        <ele>76</ele>
        <time>2021-08-06T18:17:41.000Z</time>
      </trkpt>
      <trkpt lat="47.16549" lon="-1.62548">
        <ele>76</ele>
        <time>2021-08-06T18:17:43.000Z</time>
      </trkpt>
      <trkpt lat="47.16559" lon="-1.62534">
        <ele>76</ele>
        <time>2021-08-06T18:17:45.000Z</time>
      </trkpt>
      <trkpt lat="47.16568" lon="-1.62518">
        <ele>75</ele>
        <time>2021-08-06T18:17:47.000Z</time>
      </trkpt>
      <trkpt lat="47.16575" lon="-1.62499">
        <ele>75</ele>
        <time>2021-08-06T18:17:49.000Z</time>
      </trkpt>
      <trkpt lat="47.16582" lon="-1.62481">
        <ele>74</ele>
        <time>2021-08-06T18:17:51.000Z</time>
      </trkpt>
      <trkpt lat="47.16589" lon="-1.62462">
        <ele>74</ele>
        <time>2021-08-06T18:17:53.000Z</time>
      </trkpt>
      <trkpt lat="47.16597" lon="-1.62444">
        <ele>74</ele>
        <time>2021-08-06T18:17:55.000Z</time>
      </trkpt>
      <trkpt lat="47.16606" lon="-1.62425">
        <ele>73</ele>
        <time>2021-08-06T18:17:57.000Z</time>
      </trkpt>
      <trkpt lat="47.16615" lon="-1.62407">
        <ele>73</ele>
        <time>2021-08-06T18:17:59.000Z</time>
      </trkpt>
      <trkpt lat="47.16626" lon="-1.62391">
        <ele>73</ele>
        <time>2021-08-06T18:18:01.000Z</time>
      </trkpt>
      <trkpt lat="47.16638" lon="-1.62377">
        <ele>73</ele>
        <time>2021-08-06T18:18:03.000Z</time>
      </trkpt>
      <trkpt lat="47.1665" lon="-1.62366">
        <ele>73</ele>
        <time>2021-08-06T18:18:05.000Z</time>
      </trkpt>
      <trkpt lat="47.16664" lon="-1.62358">
        <ele>72</ele>
        <time>2021-08-06T18:18:07.000Z</time>
      </trkpt>
      <trkpt lat="47.16679" lon="-1.62357">
        <ele>73</ele>
        <time>2021-08-06T18:18:09.000Z</time>
      </trkpt>
      <trkpt lat="47.16694" lon="-1.62365">
        <ele>72</ele>
        <time>2021-08-06T18:18:11.000Z</time>
      </trkpt>
      <trkpt lat="47.16706" lon="-1.62379">
        <ele>72</ele>
        <time>2021-08-06T18:18:13.000Z</time>
      </trkpt>
      <trkpt lat="47.16716" lon="-1.62395">
        <ele>72</ele>
        <time>2021-08-06T18:18:15.000Z</time>
      </trkpt>
      <trkpt lat="47.16725" lon="-1.62407">
        <ele>71</ele>
        <time>2021-08-06T18:18:17.000Z</time>
      </trkpt>
      <trkpt lat="47.16729" lon="-1.62419">
        <ele>70</ele>
        <time>2021-08-06T18:18:19.000Z</time>
      </trkpt>
      <trkpt lat="47.16728" lon="-1.62435">
        <ele>69</ele>
        <time>2021-08-06T18:18:21.000Z</time>
      </trkpt>
      <trkpt lat="47.16724" lon="-1.6245">
        <ele>70</ele>
        <time>2021-08-06T18:18:23.000Z</time>
      </trkpt>
      <trkpt lat="47.16719" lon="-1.62467">
        <ele>70</ele>
        <time>2021-08-06T18:18:25.000Z</time>
      </trkpt>
      <trkpt lat="47.16716" lon="-1.62482">
        <ele>70</ele>
        <time>2021-08-06T18:18:27.000Z</time>
      </trkpt>
      <trkpt lat="47.16721" lon="-1.62496">
        <ele>70</ele>
        <time>2021-08-06T18:18:29.000Z</time>
      </trkpt>
      <trkpt lat="47.16733" lon="-1.62501">
        <ele>69</ele>
        <time>2021-08-06T18:18:31.000Z</time>
      </trkpt>
      <trkpt lat="47.16745" lon="-1.62506">
        <ele>70</ele>
        <time>2021-08-06T18:18:33.000Z</time>
      </trkpt>
      <trkpt lat="47.16757" lon="-1.62512">
        <ele>70</ele>
        <time>2021-08-06T18:18:35.000Z</time>
      </trkpt>
      <trkpt lat="47.16768" lon="-1.62518">
        <ele>70</ele>
        <time>2021-08-06T18:18:37.000Z</time>
      </trkpt>
      <trkpt lat="47.16779" lon="-1.62526">
        <ele>70</ele>
        <time>2021-08-06T18:18:39.000Z</time>
      </trkpt>
      <trkpt lat="47.1679" lon="-1.62534">
        <ele>71</ele>
        <time>2021-08-06T18:18:41.000Z</time>
      </trkpt>
      <trkpt lat="47.16801" lon="-1.62541">
        <ele>71</ele>
        <time>2021-08-06T18:18:43.000Z</time>
      </trkpt>
      <trkpt lat="47.16811" lon="-1.62549">
        <ele>71</ele>
        <time>2021-08-06T18:18:45.000Z</time>
      </trkpt>
      <trkpt lat="47.16821" lon="-1.62557">
        <ele>71</ele>
        <time>2021-08-06T18:18:47.000Z</time>
      </trkpt>
      <trkpt lat="47.1683" lon="-1.62569">
        <ele>71</ele>
        <time>2021-08-06T18:18:49.000Z</time>
      </trkpt>
      <trkpt lat="47.16831" lon="-1.62585">
        <ele>71</ele>
        <time>2021-08-06T18:18:51.000Z</time>
      </trkpt>
      <trkpt lat="47.16825" lon="-1.62599">
        <ele>72</ele>
        <time>2021-08-06T18:18:53.000Z</time>
      </trkpt>
      <trkpt lat="47.16817" lon="-1.62611">
        <ele>72</ele>
        <time>2021-08-06T18:18:55.000Z</time>
      </trkpt>
      <trkpt lat="47.16811" lon="-1.62623">
        <ele>72</ele>
        <time>2021-08-06T18:18:57.000Z</time>
      </trkpt>
      <trkpt lat="47.16804" lon="-1.62634">
        <ele>72</ele>
        <time>2021-08-06T18:18:59.000Z</time>
      </trkpt>
      <trkpt lat="47.16796" lon="-1.62646">
        <ele>73</ele>
        <time>2021-08-06T18:19:01.000Z</time>
      </trkpt>
      <trkpt lat="47.1679" lon="-1.62655">
        <ele>73</ele>
        <time>2021-08-06T18:19:03.000Z</time>
      </trkpt>
      <trkpt lat="47.16781" lon="-1.62657">
        <ele>72</ele>
        <time>2021-08-06T18:19:06.000Z</time>
      </trkpt>
    </trkseg>
  </trk>
</gpx>